<?xml version='1.0' encoding='UTF-8'?><gpx version="1.1" creator="JPX - https://github.com/jenetics/jpx" xmlns="http://www.topografix.com/GPX/1/1"><trk><trkseg><trkpt lat="44.9501717" lon="8.0267483"><ele>242.2</ele><time>2026-04-19T12:17:56.018Z</time></trkpt><trkpt lat="44.95026" lon="8.0266233"><ele>240.39999999999998</ele><time>2026-04-19T12:19:15.018Z</time></trkpt><trkpt lat="44.9502917" lon="8.0265133"><ele>238.6</ele><time>2026-04-19T12:19:16.019Z</time></trkpt><trkpt lat="44.9503367" lon="8.0263817"><ele>236.8</ele><time>2026-04-19T12:19:17.018Z</time></trkpt><trkpt lat="44.9503783" lon="8.026245"><ele>235.0</ele><time>2026-04-19T12:19:18.018Z</time></trkpt><trkpt lat="44.9504067" lon="8.0261183"><ele>235.0</ele><time>2026-04-19T12:19:19.018Z</time></trkpt><trkpt lat="44.95043" lon="8.0259883"><ele>235.0</ele><time>2026-04-19T12:19:20.018Z</time></trkpt><trkpt lat="44.9504383" lon="8.0258533"><ele>235.0</ele><time>2026-04-19T12:19:21.019Z</time></trkpt><trkpt lat="44.9504367" lon="8.0257267"><ele>235.0</ele><time>2026-04-19T12:19:22.018Z</time></trkpt><trkpt lat="44.9504267" lon="8.0255933"><ele>235.0</ele><time>2026-04-19T12:19:23.018Z</time></trkpt><trkpt lat="44.950415" lon="8.0254517"><ele>234.0</ele><time>2026-04-19T12:19:24.018Z</time></trkpt><trkpt lat="44.9503967" lon="8.0253067"><ele>233.0</ele><time>2026-04-19T12:19:25.018Z</time></trkpt><trkpt lat="44.9503867" lon="8.0251583"><ele>232.0</ele><time>2026-04-19T12:19:26.019Z</time></trkpt><trkpt lat="44.950375" lon="8.0250067"><ele>231.0</ele><time>2026-04-19T12:19:27.019Z</time></trkpt><trkpt lat="44.9503633" lon="8.0248583"><ele>230.0</ele><time>2026-04-19T12:19:28.019Z</time></trkpt><trkpt lat="44.950355" lon="8.024715"><ele>229.0</ele><time>2026-04-19T12:19:29.019Z</time></trkpt><trkpt lat="44.9503367" lon="8.02456"><ele>228.0</ele><time>2026-04-19T12:19:30.018Z</time></trkpt><trkpt lat="44.95032" lon="8.0244067"><ele>227.0</ele><time>2026-04-19T12:19:31.019Z</time></trkpt><trkpt lat="44.9503117" lon="8.024275"><ele>226.0</ele><time>2026-04-19T12:19:32.018Z</time></trkpt><trkpt lat="44.95032" lon="8.0241483"><ele>225.0</ele><time>2026-04-19T12:19:33.019Z</time></trkpt><trkpt lat="44.9503283" lon="8.0240383"><ele>225.0</ele><time>2026-04-19T12:19:34.019Z</time></trkpt><trkpt lat="44.9503167" lon="8.0239433"><ele>225.0</ele><time>2026-04-19T12:19:35.018Z</time></trkpt><trkpt lat="44.9502883" lon="8.0238583"><ele>225.0</ele><time>2026-04-19T12:19:37.018Z</time></trkpt><trkpt lat="44.950225" lon="8.0239333"><ele>225.0</ele><time>2026-04-19T12:19:39.019Z</time></trkpt><trkpt lat="44.9501817" lon="8.02404"><ele>225.0</ele><time>2026-04-19T12:19:40.019Z</time></trkpt><trkpt lat="44.9501283" lon="8.0241733"><ele>225.0</ele><time>2026-04-19T12:19:41.018Z</time></trkpt><trkpt lat="44.95007" lon="8.0242883"><ele>221.6</ele><time>2026-04-19T12:19:42.018Z</time></trkpt><trkpt lat="44.9499967" lon="8.02438"><ele>218.2</ele><time>2026-04-19T12:19:43.018Z</time></trkpt><trkpt lat="44.9499133" lon="8.0244283"><ele>214.8</ele><time>2026-04-19T12:19:44.018Z</time></trkpt><trkpt lat="44.9498267" lon="8.0244433"><ele>211.4</ele><time>2026-04-19T12:19:45.019Z</time></trkpt><trkpt lat="44.9497483" lon="8.0243783"><ele>208.0</ele><time>2026-04-19T12:19:46.018Z</time></trkpt><trkpt lat="44.949695" lon="8.024275"><ele>206.25</ele><time>2026-04-19T12:19:47.018Z</time></trkpt><trkpt lat="44.9496783" lon="8.0241417"><ele>204.5</ele><time>2026-04-19T12:19:48.018Z</time></trkpt><trkpt lat="44.9497167" lon="8.024"><ele>202.75</ele><time>2026-04-19T12:19:49.018Z</time></trkpt><trkpt lat="44.94979" lon="8.02385"><ele>201.0</ele><time>2026-04-19T12:19:50.019Z</time></trkpt><trkpt lat="44.9498767" lon="8.023685"><ele>201.0</ele><time>2026-04-19T12:19:51.019Z</time></trkpt><trkpt lat="44.9499433" lon="8.0234917"><ele>201.0</ele><time>2026-04-19T12:19:52.018Z</time></trkpt><trkpt lat="44.94998" lon="8.0232833"><ele>201.0</ele><time>2026-04-19T12:19:53.019Z</time></trkpt><trkpt lat="44.9500067" lon="8.0230667"><ele>201.5</ele><time>2026-04-19T12:19:54.018Z</time></trkpt><trkpt lat="44.950025" lon="8.0228583"><ele>202.0</ele><time>2026-04-19T12:19:55.018Z</time></trkpt><trkpt lat="44.9500417" lon="8.022665"><ele>202.5</ele><time>2026-04-19T12:19:56.019Z</time></trkpt><trkpt lat="44.9500433" lon="8.0224783"><ele>203.0</ele><time>2026-04-19T12:19:57.018Z</time></trkpt><trkpt lat="44.9500517" lon="8.0223"><ele>203.0</ele><time>2026-04-19T12:19:58.019Z</time></trkpt><trkpt lat="44.9500533" lon="8.0221183"><ele>203.0</ele><time>2026-04-19T12:19:59.019Z</time></trkpt><trkpt lat="44.9500467" lon="8.02193"><ele>203.0</ele><time>2026-04-19T12:20:00.018Z</time></trkpt><trkpt lat="44.9500383" lon="8.0217367"><ele>203.0</ele><time>2026-04-19T12:20:01.018Z</time></trkpt><trkpt lat="44.95003" lon="8.0215417"><ele>197.75</ele><time>2026-04-19T12:20:02.018Z</time></trkpt><trkpt lat="44.9500267" lon="8.02135"><ele>192.5</ele><time>2026-04-19T12:20:03.018Z</time></trkpt><trkpt lat="44.9500267" lon="8.0211717"><ele>187.25</ele><time>2026-04-19T12:20:04.018Z</time></trkpt><trkpt lat="44.9500183" lon="8.0210067"><ele>182.0</ele><time>2026-04-19T12:20:05.018Z</time></trkpt><trkpt lat="44.9500083" lon="8.0208417"><ele>181.2</ele><time>2026-04-19T12:20:06.019Z</time></trkpt><trkpt lat="44.9499967" lon="8.0206933"><ele>180.39999999999998</ele><time>2026-04-19T12:20:07.018Z</time></trkpt><trkpt lat="44.9499817" lon="8.0205567"><ele>179.60000000000002</ele><time>2026-04-19T12:20:08.018Z</time></trkpt><trkpt lat="44.9499733" lon="8.0204367"><ele>178.8</ele><time>2026-04-19T12:20:09.019Z</time></trkpt><trkpt lat="44.949965" lon="8.0203117"><ele>178.0</ele><time>2026-04-19T12:20:10.019Z</time></trkpt><trkpt lat="44.9499667" lon="8.020205"><ele>178.0</ele><time>2026-04-19T12:20:11.018Z</time></trkpt><trkpt lat="44.9499783" lon="8.0201017"><ele>178.0</ele><time>2026-04-19T12:20:12.019Z</time></trkpt><trkpt lat="44.950035" lon="8.0199783"><ele>178.0</ele><time>2026-04-19T12:20:14.018Z</time></trkpt><trkpt lat="44.9501717" lon="8.019965"><ele>178.0</ele><time>2026-04-19T12:20:16.018Z</time></trkpt><trkpt lat="44.95028" lon="8.0199833"><ele>178.0</ele><time>2026-04-19T12:20:17.019Z</time></trkpt><trkpt lat="44.9504017" lon="8.0200017"><ele>178.5</ele><time>2026-04-19T12:20:18.019Z</time></trkpt><trkpt lat="44.9505233" lon="8.0200117"><ele>179.0</ele><time>2026-04-19T12:20:19.019Z</time></trkpt><trkpt lat="44.9506467" lon="8.020025"><ele>179.5</ele><time>2026-04-19T12:20:20.019Z</time></trkpt><trkpt lat="44.9507717" lon="8.0200133"><ele>180.0</ele><time>2026-04-19T12:20:21.018Z</time></trkpt><trkpt lat="44.9508967" lon="8.0200017"><ele>179.75</ele><time>2026-04-19T12:20:22.019Z</time></trkpt><trkpt lat="44.9510267" lon="8.0199783"><ele>179.5</ele><time>2026-04-19T12:20:23.018Z</time></trkpt><trkpt lat="44.95115" lon="8.0199517"><ele>179.25</ele><time>2026-04-19T12:20:24.018Z</time></trkpt><trkpt lat="44.9512833" lon="8.0199167"><ele>179.0</ele><time>2026-04-19T12:20:25.018Z</time></trkpt><trkpt lat="44.95141" lon="8.0198683"><ele>179.0</ele><time>2026-04-19T12:20:26.019Z</time></trkpt><trkpt lat="44.9515383" lon="8.0198083"><ele>179.0</ele><time>2026-04-19T12:20:27.018Z</time></trkpt><trkpt lat="44.951665" lon="8.019735"><ele>179.0</ele><time>2026-04-19T12:20:28.018Z</time></trkpt><trkpt lat="44.9517867" lon="8.019645"><ele>179.0</ele><time>2026-04-19T12:20:29.018Z</time></trkpt><trkpt lat="44.9519167" lon="8.01955"><ele>179.33333333333331</ele><time>2026-04-19T12:20:30.018Z</time></trkpt><trkpt lat="44.9520483" lon="8.0194617"><ele>179.66666666666666</ele><time>2026-04-19T12:20:31.018Z</time></trkpt><trkpt lat="44.9521933" lon="8.0193783"><ele>180.0</ele><time>2026-04-19T12:20:32.019Z</time></trkpt><trkpt lat="44.9523417" lon="8.0192983"><ele>180.0</ele><time>2026-04-19T12:20:33.019Z</time></trkpt><trkpt lat="44.9525017" lon="8.0192083"><ele>180.0</ele><time>2026-04-19T12:20:34.018Z</time></trkpt><trkpt lat="44.95265" lon="8.0191083"><ele>180.0</ele><time>2026-04-19T12:20:35.018Z</time></trkpt><trkpt lat="44.9527917" lon="8.01903"><ele>178.33333333333334</ele><time>2026-04-19T12:20:36.019Z</time></trkpt><trkpt lat="44.9529367" lon="8.0189333"><ele>176.66666666666669</ele><time>2026-04-19T12:20:37.018Z</time></trkpt><trkpt lat="44.9530867" lon="8.018835"><ele>175.0</ele><time>2026-04-19T12:20:38.019Z</time></trkpt><trkpt lat="44.953235" lon="8.01874"><ele>176.66666666666669</ele><time>2026-04-19T12:20:39.018Z</time></trkpt><trkpt lat="44.9533833" lon="8.0186433"><ele>178.33333333333334</ele><time>2026-04-19T12:20:40.018Z</time></trkpt><trkpt lat="44.953525" lon="8.01855"><ele>180.0</ele><time>2026-04-19T12:20:41.018Z</time></trkpt><trkpt lat="44.9536683" lon="8.018455"><ele>180.0</ele><time>2026-04-19T12:20:42.018Z</time></trkpt><trkpt lat="44.9538167" lon="8.0183567"><ele>180.0</ele><time>2026-04-19T12:20:43.019Z</time></trkpt><trkpt lat="44.9539717" lon="8.01827"><ele>180.0</ele><time>2026-04-19T12:20:44.018Z</time></trkpt><trkpt lat="44.95414" lon="8.0181717"><ele>179.0</ele><time>2026-04-19T12:20:45.019Z</time></trkpt><trkpt lat="44.954305" lon="8.01808"><ele>178.0</ele><time>2026-04-19T12:20:46.018Z</time></trkpt><trkpt lat="44.954455" lon="8.01798"><ele>177.0</ele><time>2026-04-19T12:20:47.018Z</time></trkpt><trkpt lat="44.9546017" lon="8.0178867"><ele>177.0</ele><time>2026-04-19T12:20:48.019Z</time></trkpt><trkpt lat="44.9547533" lon="8.0177883"><ele>177.0</ele><time>2026-04-19T12:20:49.018Z</time></trkpt><trkpt lat="44.9549033" lon="8.01769"><ele>177.0</ele><time>2026-04-19T12:20:50.018Z</time></trkpt><trkpt lat="44.95506" lon="8.0175933"><ele>177.0</ele><time>2026-04-19T12:20:51.018Z</time></trkpt><trkpt lat="44.9552133" lon="8.017505"><ele>177.0</ele><time>2026-04-19T12:20:52.019Z</time></trkpt><trkpt lat="44.9553633" lon="8.017435"><ele>177.0</ele><time>2026-04-19T12:20:53.018Z</time></trkpt><trkpt lat="44.955515" lon="8.01739"><ele>177.0</ele><time>2026-04-19T12:20:54.019Z</time></trkpt><trkpt lat="44.9556733" lon="8.0173583"><ele>177.0</ele><time>2026-04-19T12:20:55.018Z</time></trkpt><trkpt lat="44.955835" lon="8.017355"><ele>177.0</ele><time>2026-04-19T12:20:56.018Z</time></trkpt><trkpt lat="44.9559967" lon="8.0173667"><ele>177.0</ele><time>2026-04-19T12:20:57.018Z</time></trkpt><trkpt lat="44.9561583" lon="8.0174033"><ele>177.0</ele><time>2026-04-19T12:20:58.019Z</time></trkpt><trkpt lat="44.9563133" lon="8.0174617"><ele>177.0</ele><time>2026-04-19T12:20:59.019Z</time></trkpt><trkpt lat="44.9564633" lon="8.0175317"><ele>177.33333333333334</ele><time>2026-04-19T12:21:00.018Z</time></trkpt><trkpt lat="44.9566167" lon="8.01759"><ele>177.66666666666669</ele><time>2026-04-19T12:21:01.019Z</time></trkpt><trkpt lat="44.9567833" lon="8.0176533"><ele>178.0</ele><time>2026-04-19T12:21:02.018Z</time></trkpt><trkpt lat="44.95694" lon="8.0177167"><ele>178.0</ele><time>2026-04-19T12:21:03.019Z</time></trkpt><trkpt lat="44.957095" lon="8.0177683"><ele>178.0</ele><time>2026-04-19T12:21:04.019Z</time></trkpt><trkpt lat="44.9572567" lon="8.01783"><ele>178.0</ele><time>2026-04-19T12:21:05.019Z</time></trkpt><trkpt lat="44.9574133" lon="8.0179033"><ele>178.33333333333334</ele><time>2026-04-19T12:21:06.019Z</time></trkpt><trkpt lat="44.9575717" lon="8.0179717"><ele>178.66666666666666</ele><time>2026-04-19T12:21:07.018Z</time></trkpt><trkpt lat="44.9577333" lon="8.0180383"><ele>179.0</ele><time>2026-04-19T12:21:08.018Z</time></trkpt><trkpt lat="44.9578917" lon="8.0180933"><ele>179.0</ele><time>2026-04-19T12:21:09.018Z</time></trkpt><trkpt lat="44.9580483" lon="8.018135"><ele>179.0</ele><time>2026-04-19T12:21:10.019Z</time></trkpt><trkpt lat="44.95821" lon="8.0181467"><ele>179.0</ele><time>2026-04-19T12:21:11.018Z</time></trkpt><trkpt lat="44.95836" lon="8.01811"><ele>179.33333333333331</ele><time>2026-04-19T12:21:12.018Z</time></trkpt><trkpt lat="44.958515" lon="8.0180483"><ele>179.66666666666666</ele><time>2026-04-19T12:21:13.018Z</time></trkpt><trkpt lat="44.9586683" lon="8.01795"><ele>180.0</ele><time>2026-04-19T12:21:14.019Z</time></trkpt><trkpt lat="44.958815" lon="8.0178417"><ele>180.0</ele><time>2026-04-19T12:21:15.019Z</time></trkpt><trkpt lat="44.95895" lon="8.0177383"><ele>180.0</ele><time>2026-04-19T12:21:16.019Z</time></trkpt><trkpt lat="44.9590967" lon="8.017635"><ele>180.0</ele><time>2026-04-19T12:21:17.018Z</time></trkpt><trkpt lat="44.9592467" lon="8.017535"><ele>180.66666666666666</ele><time>2026-04-19T12:21:18.018Z</time></trkpt><trkpt lat="44.9593983" lon="8.0174433"><ele>181.33333333333331</ele><time>2026-04-19T12:21:19.019Z</time></trkpt><trkpt lat="44.95955" lon="8.0173417"><ele>182.0</ele><time>2026-04-19T12:21:20.018Z</time></trkpt><trkpt lat="44.9596967" lon="8.0172383"><ele>182.0</ele><time>2026-04-19T12:21:21.018Z</time></trkpt><trkpt lat="44.9598433" lon="8.01714"><ele>182.0</ele><time>2026-04-19T12:21:22.019Z</time></trkpt><trkpt lat="44.9599917" lon="8.0170417"><ele>182.0</ele><time>2026-04-19T12:21:23.018Z</time></trkpt><trkpt lat="44.9601267" lon="8.016935"><ele>181.66666666666666</ele><time>2026-04-19T12:21:24.018Z</time></trkpt><trkpt lat="44.9602733" lon="8.01683"><ele>181.33333333333334</ele><time>2026-04-19T12:21:25.019Z</time></trkpt><trkpt lat="44.9604217" lon="8.016745"><ele>181.0</ele><time>2026-04-19T12:21:26.018Z</time></trkpt><trkpt lat="44.9605717" lon="8.0166583"><ele>180.0</ele><time>2026-04-19T12:21:27.019Z</time></trkpt><trkpt lat="44.960725" lon="8.01658"><ele>179.0</ele><time>2026-04-19T12:21:28.019Z</time></trkpt><trkpt lat="44.960875" lon="8.0165083"><ele>178.0</ele><time>2026-04-19T12:21:29.018Z</time></trkpt><trkpt lat="44.9610283" lon="8.01643"><ele>178.0</ele><time>2026-04-19T12:21:30.019Z</time></trkpt><trkpt lat="44.961185" lon="8.0163467"><ele>178.0</ele><time>2026-04-19T12:21:31.019Z</time></trkpt><trkpt lat="44.9613483" lon="8.0162667"><ele>178.0</ele><time>2026-04-19T12:21:32.019Z</time></trkpt><trkpt lat="44.961505" lon="8.0161817"><ele>178.0</ele><time>2026-04-19T12:21:33.019Z</time></trkpt><trkpt lat="44.9616617" lon="8.0161067"><ele>178.0</ele><time>2026-04-19T12:21:34.019Z</time></trkpt><trkpt lat="44.9618183" lon="8.01602"><ele>178.0</ele><time>2026-04-19T12:21:35.019Z</time></trkpt><trkpt lat="44.961975" lon="8.01594"><ele>179.0</ele><time>2026-04-19T12:21:36.018Z</time></trkpt><trkpt lat="44.9621367" lon="8.015865"><ele>180.0</ele><time>2026-04-19T12:21:37.018Z</time></trkpt><trkpt lat="44.96229" lon="8.0157883"><ele>181.0</ele><time>2026-04-19T12:21:38.019Z</time></trkpt><trkpt lat="44.9624433" lon="8.0157083"><ele>182.0</ele><time>2026-04-19T12:21:39.018Z</time></trkpt><trkpt lat="44.9625917" lon="8.01562"><ele>183.0</ele><time>2026-04-19T12:21:40.019Z</time></trkpt><trkpt lat="44.96273" lon="8.01555"><ele>184.0</ele><time>2026-04-19T12:21:41.018Z</time></trkpt><trkpt lat="44.96286" lon="8.0154917"><ele>185.0</ele><time>2026-04-19T12:21:42.018Z</time></trkpt><trkpt lat="44.9629783" lon="8.0154367"><ele>185.0</ele><time>2026-04-19T12:21:43.018Z</time></trkpt><trkpt lat="44.9630867" lon="8.0153883"><ele>185.0</ele><time>2026-04-19T12:21:44.018Z</time></trkpt><trkpt lat="44.9631933" lon="8.0153283"><ele>185.0</ele><time>2026-04-19T12:21:45.018Z</time></trkpt><trkpt lat="44.9633167" lon="8.01527"><ele>185.0</ele><time>2026-04-19T12:21:46.018Z</time></trkpt><trkpt lat="44.9634383" lon="8.0152"><ele>184.5</ele><time>2026-04-19T12:21:47.019Z</time></trkpt><trkpt lat="44.9635667" lon="8.0151217"><ele>184.0</ele><time>2026-04-19T12:21:48.019Z</time></trkpt><trkpt lat="44.9637017" lon="8.0150383"><ele>183.5</ele><time>2026-04-19T12:21:49.018Z</time></trkpt><trkpt lat="44.96384" lon="8.0149367"><ele>183.0</ele><time>2026-04-19T12:21:50.019Z</time></trkpt><trkpt lat="44.963985" lon="8.0148133"><ele>182.75</ele><time>2026-04-19T12:21:51.018Z</time></trkpt><trkpt lat="44.9641233" lon="8.0146883"><ele>182.5</ele><time>2026-04-19T12:21:52.019Z</time></trkpt><trkpt lat="44.9642567" lon="8.01457"><ele>182.25</ele><time>2026-04-19T12:21:53.018Z</time></trkpt><trkpt lat="44.964355" lon="8.0144617"><ele>182.0</ele><time>2026-04-19T12:21:54.018Z</time></trkpt><trkpt lat="44.964485" lon="8.0143517"><ele>182.5</ele><time>2026-04-19T12:21:55.019Z</time></trkpt><trkpt lat="44.9646033" lon="8.0142417"><ele>183.0</ele><time>2026-04-19T12:21:56.018Z</time></trkpt><trkpt lat="44.9647217" lon="8.0141483"><ele>183.5</ele><time>2026-04-19T12:21:57.019Z</time></trkpt><trkpt lat="44.964835" lon="8.0140467"><ele>184.0</ele><time>2026-04-19T12:21:58.019Z</time></trkpt><trkpt lat="44.96494" lon="8.013955"><ele>183.6</ele><time>2026-04-19T12:21:59.018Z</time></trkpt><trkpt lat="44.965045" lon="8.0138783"><ele>183.2</ele><time>2026-04-19T12:22:00.019Z</time></trkpt><trkpt lat="44.965125" lon="8.0138033"><ele>182.79999999999998</ele><time>2026-04-19T12:22:01.018Z</time></trkpt><trkpt lat="44.965185" lon="8.0137517"><ele>182.39999999999998</ele><time>2026-04-19T12:22:02.018Z</time></trkpt><trkpt lat="44.96526" lon="8.0137783"><ele>182.0</ele><time>2026-04-19T12:22:04.019Z</time></trkpt><trkpt lat="44.9651683" lon="8.0139"><ele>182.0</ele><time>2026-04-19T12:22:07.018Z</time></trkpt><trkpt lat="44.9651067" lon="8.0139683"><ele>182.0</ele><time>2026-04-19T12:22:08.018Z</time></trkpt><trkpt lat="44.9650433" lon="8.0140317"><ele>182.0</ele><time>2026-04-19T12:22:09.017Z</time></trkpt><trkpt lat="44.964985" lon="8.014115"><ele>182.0</ele><time>2026-04-19T12:22:10.017Z</time></trkpt><trkpt lat="44.9649533" lon="8.0142233"><ele>182.0</ele><time>2026-04-19T12:22:11.018Z</time></trkpt><trkpt lat="44.9649417" lon="8.0143533"><ele>182.0</ele><time>2026-04-19T12:22:12.017Z</time></trkpt><trkpt lat="44.9649483" lon="8.01449"><ele>182.39999999999998</ele><time>2026-04-19T12:22:13.017Z</time></trkpt><trkpt lat="44.9649817" lon="8.0146417"><ele>182.79999999999998</ele><time>2026-04-19T12:22:14.017Z</time></trkpt><trkpt lat="44.9650117" lon="8.01479"><ele>183.2</ele><time>2026-04-19T12:22:15.018Z</time></trkpt><trkpt lat="44.9650317" lon="8.01494"><ele>183.6</ele><time>2026-04-19T12:22:16.017Z</time></trkpt><trkpt lat="44.9650483" lon="8.0150867"><ele>184.0</ele><time>2026-04-19T12:22:17.017Z</time></trkpt><trkpt lat="44.9650733" lon="8.0152283"><ele>185.79999999999998</ele><time>2026-04-19T12:22:18.018Z</time></trkpt><trkpt lat="44.9650883" lon="8.01538"><ele>187.6</ele><time>2026-04-19T12:22:19.018Z</time></trkpt><trkpt lat="44.9651067" lon="8.015535"><ele>189.4</ele><time>2026-04-19T12:22:20.017Z</time></trkpt><trkpt lat="44.9651233" lon="8.0156867"><ele>191.2</ele><time>2026-04-19T12:22:21.018Z</time></trkpt><trkpt lat="44.9651417" lon="8.0158333"><ele>193.0</ele><time>2026-04-19T12:22:22.017Z</time></trkpt><trkpt lat="44.9651583" lon="8.015975"><ele>196.0</ele><time>2026-04-19T12:22:23.018Z</time></trkpt><trkpt lat="44.965185" lon="8.0161033"><ele>199.0</ele><time>2026-04-19T12:22:24.017Z</time></trkpt><trkpt lat="44.9652267" lon="8.0162233"><ele>202.0</ele><time>2026-04-19T12:22:25.018Z</time></trkpt><trkpt lat="44.9653017" lon="8.0163217"><ele>205.0</ele><time>2026-04-19T12:22:26.017Z</time></trkpt><trkpt lat="44.9653883" lon="8.0164133"><ele>208.0</ele><time>2026-04-19T12:22:27.017Z</time></trkpt><trkpt lat="44.965485" lon="8.0165067"><ele>208.0</ele><time>2026-04-19T12:22:28.017Z</time></trkpt><trkpt lat="44.96557" lon="8.01659"><ele>208.0</ele><time>2026-04-19T12:22:29.017Z</time></trkpt><trkpt lat="44.9656483" lon="8.016655"><ele>208.0</ele><time>2026-04-19T12:22:30.017Z</time></trkpt><trkpt lat="44.96574" lon="8.0167283"><ele>208.0</ele><time>2026-04-19T12:22:31.018Z</time></trkpt><trkpt lat="44.96584" lon="8.0167883"><ele>208.0</ele><time>2026-04-19T12:22:32.017Z</time></trkpt><trkpt lat="44.9659433" lon="8.016845"><ele>209.4</ele><time>2026-04-19T12:22:33.017Z</time></trkpt><trkpt lat="44.9660383" lon="8.0169067"><ele>210.8</ele><time>2026-04-19T12:22:34.017Z</time></trkpt><trkpt lat="44.9661333" lon="8.0169717"><ele>212.2</ele><time>2026-04-19T12:22:35.017Z</time></trkpt><trkpt lat="44.966225" lon="8.0170283"><ele>213.6</ele><time>2026-04-19T12:22:36.018Z</time></trkpt><trkpt lat="44.9663367" lon="8.0170767"><ele>215.0</ele><time>2026-04-19T12:22:37.018Z</time></trkpt><trkpt lat="44.9664383" lon="8.0170867"><ele>215.0</ele><time>2026-04-19T12:22:38.018Z</time></trkpt><trkpt lat="44.9665433" lon="8.0170983"><ele>215.0</ele><time>2026-04-19T12:22:39.018Z</time></trkpt><trkpt lat="44.9666367" lon="8.0171183"><ele>215.0</ele><time>2026-04-19T12:22:40.018Z</time></trkpt><trkpt lat="44.966725" lon="8.01716"><ele>215.0</ele><time>2026-04-19T12:22:41.018Z</time></trkpt><trkpt lat="44.9668" lon="8.01725"><ele>215.0</ele><time>2026-04-19T12:22:42.017Z</time></trkpt><trkpt lat="44.9668667" lon="8.0173633"><ele>214.8</ele><time>2026-04-19T12:22:43.017Z</time></trkpt><trkpt lat="44.9669233" lon="8.0174767"><ele>214.6</ele><time>2026-04-19T12:22:44.017Z</time></trkpt><trkpt lat="44.966975" lon="8.0176033"><ele>214.39999999999998</ele><time>2026-04-19T12:22:45.017Z</time></trkpt><trkpt lat="44.9670267" lon="8.0177267"><ele>214.2</ele><time>2026-04-19T12:22:46.017Z</time></trkpt><trkpt lat="44.9670817" lon="8.0178517"><ele>214.0</ele><time>2026-04-19T12:22:47.017Z</time></trkpt><trkpt lat="44.967135" lon="8.01798"><ele>215.2</ele><time>2026-04-19T12:22:48.018Z</time></trkpt><trkpt lat="44.9671817" lon="8.0181067"><ele>216.39999999999998</ele><time>2026-04-19T12:22:49.018Z</time></trkpt><trkpt lat="44.967265" lon="8.018205"><ele>217.6</ele><time>2026-04-19T12:22:50.017Z</time></trkpt><trkpt lat="44.9673583" lon="8.0183"><ele>218.8</ele><time>2026-04-19T12:22:51.017Z</time></trkpt><trkpt lat="44.9674583" lon="8.0184"><ele>220.0</ele><time>2026-04-19T12:22:52.017Z</time></trkpt><trkpt lat="44.9675583" lon="8.0185083"><ele>222.4</ele><time>2026-04-19T12:22:53.017Z</time></trkpt><trkpt lat="44.9676317" lon="8.0186117"><ele>224.8</ele><time>2026-04-19T12:22:54.017Z</time></trkpt><trkpt lat="44.967715" lon="8.0187167"><ele>227.2</ele><time>2026-04-19T12:22:55.018Z</time></trkpt><trkpt lat="44.967805" lon="8.01878"><ele>229.6</ele><time>2026-04-19T12:22:56.018Z</time></trkpt><trkpt lat="44.96791" lon="8.0187983"><ele>232.0</ele><time>2026-04-19T12:22:57.017Z</time></trkpt><trkpt lat="44.968035" lon="8.01881"><ele>232.0</ele><time>2026-04-19T12:22:58.018Z</time></trkpt><trkpt lat="44.968155" lon="8.01883"><ele>232.0</ele><time>2026-04-19T12:22:59.017Z</time></trkpt><trkpt lat="44.9682667" lon="8.01886"><ele>232.0</ele><time>2026-04-19T12:23:00.018Z</time></trkpt><trkpt lat="44.9683583" lon="8.018885"><ele>232.0</ele><time>2026-04-19T12:23:01.017Z</time></trkpt><trkpt lat="44.9684433" lon="8.018905"><ele>232.0</ele><time>2026-04-19T12:23:02.017Z</time></trkpt><trkpt lat="44.9685333" lon="8.018925"><ele>234.0</ele><time>2026-04-19T12:23:03.017Z</time></trkpt><trkpt lat="44.968635" lon="8.018905"><ele>236.0</ele><time>2026-04-19T12:23:04.017Z</time></trkpt><trkpt lat="44.9687233" lon="8.0188467"><ele>238.0</ele><time>2026-04-19T12:23:05.017Z</time></trkpt><trkpt lat="44.9688083" lon="8.018765"><ele>240.0</ele><time>2026-04-19T12:23:06.017Z</time></trkpt><trkpt lat="44.96889" lon="8.0186833"><ele>242.0</ele><time>2026-04-19T12:23:07.017Z</time></trkpt><trkpt lat="44.9689617" lon="8.01861"><ele>242.00000000000003</ele><time>2026-04-19T12:23:08.018Z</time></trkpt><trkpt lat="44.9690333" lon="8.0185483"><ele>242.0</ele><time>2026-04-19T12:23:09.017Z</time></trkpt><trkpt lat="44.96911" lon="8.0184833"><ele>242.0</ele><time>2026-04-19T12:23:10.018Z</time></trkpt><trkpt lat="44.969195" lon="8.018425"><ele>242.0</ele><time>2026-04-19T12:23:11.017Z</time></trkpt><trkpt lat="44.969275" lon="8.0183717"><ele>242.00000000000003</ele><time>2026-04-19T12:23:12.017Z</time></trkpt><trkpt lat="44.9693483" lon="8.01833"><ele>242.0</ele><time>2026-04-19T12:23:13.018Z</time></trkpt><trkpt lat="44.9694217" lon="8.0182983"><ele>242.83333333333334</ele><time>2026-04-19T12:23:14.017Z</time></trkpt><trkpt lat="44.969545" lon="8.018325"><ele>243.66666666666669</ele><time>2026-04-19T12:23:16.018Z</time></trkpt><trkpt lat="44.9696167" lon="8.0183733"><ele>244.5</ele><time>2026-04-19T12:23:17.017Z</time></trkpt><trkpt lat="44.96969" lon="8.0184267"><ele>245.33333333333331</ele><time>2026-04-19T12:23:18.018Z</time></trkpt><trkpt lat="44.96976" lon="8.0184933"><ele>246.16666666666666</ele><time>2026-04-19T12:23:19.017Z</time></trkpt><trkpt lat="44.969815" lon="8.0185517"><ele>247.0</ele><time>2026-04-19T12:23:20.017Z</time></trkpt><trkpt lat="44.9698367" lon="8.0187083"><ele>246.99999999999997</ele><time>2026-04-19T12:23:22.018Z</time></trkpt><trkpt lat="44.9698283" lon="8.0188133"><ele>247.0</ele><time>2026-04-19T12:23:23.018Z</time></trkpt><trkpt lat="44.9698167" lon="8.0189333"><ele>247.0</ele><time>2026-04-19T12:23:24.017Z</time></trkpt><trkpt lat="44.9698217" lon="8.0190567"><ele>247.0</ele><time>2026-04-19T12:23:25.017Z</time></trkpt><trkpt lat="44.9698533" lon="8.019175"><ele>246.99999999999997</ele><time>2026-04-19T12:23:26.018Z</time></trkpt><trkpt lat="44.9699" lon="8.0192767"><ele>247.0</ele><time>2026-04-19T12:23:27.017Z</time></trkpt><trkpt lat="44.9699633" lon="8.019365"><ele>247.66666666666666</ele><time>2026-04-19T12:23:28.018Z</time></trkpt><trkpt lat="44.9700283" lon="8.0194517"><ele>248.33333333333331</ele><time>2026-04-19T12:23:29.017Z</time></trkpt><trkpt lat="44.9700933" lon="8.019555"><ele>249.0</ele><time>2026-04-19T12:23:30.018Z</time></trkpt><trkpt lat="44.9701567" lon="8.0196533"><ele>249.66666666666669</ele><time>2026-04-19T12:23:31.018Z</time></trkpt><trkpt lat="44.970205" lon="8.0197467"><ele>250.33333333333334</ele><time>2026-04-19T12:23:32.018Z</time></trkpt><trkpt lat="44.9702483" lon="8.01985"><ele>251.0</ele><time>2026-04-19T12:23:33.018Z</time></trkpt><trkpt lat="44.9703017" lon="8.0199467"><ele>252.00000000000003</ele><time>2026-04-19T12:23:34.018Z</time></trkpt><trkpt lat="44.9703667" lon="8.0200317"><ele>253.0</ele><time>2026-04-19T12:23:35.018Z</time></trkpt><trkpt lat="44.9704317" lon="8.0201067"><ele>254.0</ele><time>2026-04-19T12:23:36.017Z</time></trkpt><trkpt lat="44.9705033" lon="8.0201883"><ele>255.0</ele><time>2026-04-19T12:23:37.018Z</time></trkpt><trkpt lat="44.9705767" lon="8.0202567"><ele>256.0</ele><time>2026-04-19T12:23:38.017Z</time></trkpt><trkpt lat="44.97065" lon="8.0203133"><ele>257.0</ele><time>2026-04-19T12:23:39.017Z</time></trkpt><trkpt lat="44.9707417" lon="8.02033"><ele>257.0</ele><time>2026-04-19T12:23:40.017Z</time></trkpt><trkpt lat="44.97084" lon="8.0203483"><ele>257.0</ele><time>2026-04-19T12:23:41.017Z</time></trkpt><trkpt lat="44.9709483" lon="8.0203583"><ele>257.0</ele><time>2026-04-19T12:23:42.018Z</time></trkpt><trkpt lat="44.9710583" lon="8.02036"><ele>257.0</ele><time>2026-04-19T12:23:43.017Z</time></trkpt><trkpt lat="44.9711767" lon="8.0203633"><ele>257.0</ele><time>2026-04-19T12:23:44.017Z</time></trkpt><trkpt lat="44.9712817" lon="8.0203817"><ele>257.4</ele><time>2026-04-19T12:23:45.017Z</time></trkpt><trkpt lat="44.97138" lon="8.0204283"><ele>257.79999999999995</ele><time>2026-04-19T12:23:46.017Z</time></trkpt><trkpt lat="44.971485" lon="8.0204983"><ele>258.2</ele><time>2026-04-19T12:23:47.017Z</time></trkpt><trkpt lat="44.9715783" lon="8.0205867"><ele>258.59999999999997</ele><time>2026-04-19T12:23:48.017Z</time></trkpt><trkpt lat="44.9716683" lon="8.020675"><ele>259.0</ele><time>2026-04-19T12:23:49.017Z</time></trkpt><trkpt lat="44.9717633" lon="8.02076"><ele>261.0</ele><time>2026-04-19T12:23:50.018Z</time></trkpt><trkpt lat="44.97186" lon="8.0208167"><ele>263.0</ele><time>2026-04-19T12:23:51.017Z</time></trkpt><trkpt lat="44.97196" lon="8.0208467"><ele>265.0</ele><time>2026-04-19T12:23:52.017Z</time></trkpt><trkpt lat="44.9720633" lon="8.0208767"><ele>267.0</ele><time>2026-04-19T12:23:53.018Z</time></trkpt><trkpt lat="44.9721683" lon="8.0209017"><ele>269.0</ele><time>2026-04-19T12:23:54.018Z</time></trkpt><trkpt lat="44.9722683" lon="8.02094"><ele>269.0</ele><time>2026-04-19T12:23:55.018Z</time></trkpt><trkpt lat="44.9723633" lon="8.020985"><ele>269.0</ele><time>2026-04-19T12:23:56.018Z</time></trkpt><trkpt lat="44.972445" lon="8.0210283"><ele>269.0</ele><time>2026-04-19T12:23:57.017Z</time></trkpt><trkpt lat="44.97253" lon="8.0210817"><ele>269.0</ele><time>2026-04-19T12:23:58.017Z</time></trkpt><trkpt lat="44.9726383" lon="8.0211333"><ele>269.0</ele><time>2026-04-19T12:23:59.017Z</time></trkpt><trkpt lat="44.972745" lon="8.0211917"><ele>269.0</ele><time>2026-04-19T12:24:00.017Z</time></trkpt><trkpt lat="44.972855" lon="8.021245"><ele>269.0</ele><time>2026-04-19T12:24:01.018Z</time></trkpt><trkpt lat="44.9729583" lon="8.021305"><ele>269.0</ele><time>2026-04-19T12:24:02.018Z</time></trkpt><trkpt lat="44.9730583" lon="8.02137"><ele>269.0</ele><time>2026-04-19T12:24:03.018Z</time></trkpt><trkpt lat="44.9731383" lon="8.021455"><ele>269.0</ele><time>2026-04-19T12:24:04.017Z</time></trkpt><trkpt lat="44.9732317" lon="8.0215367"><ele>269.0</ele><time>2026-04-19T12:24:05.018Z</time></trkpt><trkpt lat="44.9733317" lon="8.0216283"><ele>269.0</ele><time>2026-04-19T12:24:06.017Z</time></trkpt><trkpt lat="44.9734283" lon="8.02173"><ele>269.0</ele><time>2026-04-19T12:24:07.017Z</time></trkpt><trkpt lat="44.9735017" lon="8.0218117"><ele>269.0</ele><time>2026-04-19T12:24:08.017Z</time></trkpt><trkpt lat="44.973565" lon="8.0218817"><ele>269.0</ele><time>2026-04-19T12:24:09.017Z</time></trkpt><trkpt lat="44.9736817" lon="8.02195"><ele>266.0</ele><time>2026-04-19T12:24:11.018Z</time></trkpt><trkpt lat="44.9737433" lon="8.02191"><ele>263.0</ele><time>2026-04-19T12:24:12.017Z</time></trkpt><trkpt lat="44.9738167" lon="8.0218383"><ele>260.0</ele><time>2026-04-19T12:24:13.017Z</time></trkpt><trkpt lat="44.973895" lon="8.02172"><ele>257.0</ele><time>2026-04-19T12:24:14.017Z</time></trkpt><trkpt lat="44.9739783" lon="8.0215917"><ele>254.0</ele><time>2026-04-19T12:24:15.018Z</time></trkpt><trkpt lat="44.9740633" lon="8.0214867"><ele>254.0</ele><time>2026-04-19T12:24:16.017Z</time></trkpt><trkpt lat="44.974135" lon="8.0214417"><ele>253.99999999999997</ele><time>2026-04-19T12:24:17.018Z</time></trkpt><trkpt lat="44.9742183" lon="8.0214433"><ele>253.99999999999997</ele><time>2026-04-19T12:24:18.017Z</time></trkpt><trkpt lat="44.9743183" lon="8.0214767"><ele>254.0</ele><time>2026-04-19T12:24:19.017Z</time></trkpt><trkpt lat="44.9744317" lon="8.0215133"><ele>254.0</ele><time>2026-04-19T12:24:20.017Z</time></trkpt><trkpt lat="44.97454" lon="8.0215567"><ele>253.6</ele><time>2026-04-19T12:24:21.017Z</time></trkpt><trkpt lat="44.9746483" lon="8.021595"><ele>253.2</ele><time>2026-04-19T12:24:22.017Z</time></trkpt><trkpt lat="44.9747467" lon="8.02163"><ele>252.79999999999998</ele><time>2026-04-19T12:24:23.017Z</time></trkpt><trkpt lat="44.9748333" lon="8.0216617"><ele>252.39999999999998</ele><time>2026-04-19T12:24:24.017Z</time></trkpt><trkpt lat="44.9749183" lon="8.0217083"><ele>252.0</ele><time>2026-04-19T12:24:25.017Z</time></trkpt><trkpt lat="44.975" lon="8.0217733"><ele>252.16666666666666</ele><time>2026-04-19T12:24:26.018Z</time></trkpt><trkpt lat="44.9750783" lon="8.0218333"><ele>252.33333333333331</ele><time>2026-04-19T12:24:27.017Z</time></trkpt><trkpt lat="44.97516" lon="8.0219"><ele>252.5</ele><time>2026-04-19T12:24:28.018Z</time></trkpt><trkpt lat="44.97524" lon="8.02195"><ele>252.66666666666666</ele><time>2026-04-19T12:24:29.017Z</time></trkpt><trkpt lat="44.9753067" lon="8.021995"><ele>252.83333333333331</ele><time>2026-04-19T12:24:30.018Z</time></trkpt><trkpt lat="44.9753833" lon="8.0220133"><ele>253.0</ele><time>2026-04-19T12:24:31.018Z</time></trkpt><trkpt lat="44.9754667" lon="8.02201"><ele>253.0</ele><time>2026-04-19T12:24:32.017Z</time></trkpt><trkpt lat="44.9755717" lon="8.0219833"><ele>253.0</ele><time>2026-04-19T12:24:33.018Z</time></trkpt><trkpt lat="44.97569" lon="8.02194"><ele>253.0</ele><time>2026-04-19T12:24:34.017Z</time></trkpt><trkpt lat="44.9758067" lon="8.021895"><ele>253.0</ele><time>2026-04-19T12:24:35.018Z</time></trkpt><trkpt lat="44.97593" lon="8.0218267"><ele>251.5</ele><time>2026-04-19T12:24:36.018Z</time></trkpt><trkpt lat="44.9760583" lon="8.0217383"><ele>250.0</ele><time>2026-04-19T12:24:37.017Z</time></trkpt><trkpt lat="44.9761767" lon="8.0216583"><ele>248.5</ele><time>2026-04-19T12:24:38.018Z</time></trkpt><trkpt lat="44.9762833" lon="8.0215933"><ele>247.0</ele><time>2026-04-19T12:24:39.018Z</time></trkpt><trkpt lat="44.976385" lon="8.0215367"><ele>247.0</ele><time>2026-04-19T12:24:40.017Z</time></trkpt><trkpt lat="44.9765033" lon="8.0214817"><ele>247.0</ele><time>2026-04-19T12:24:41.018Z</time></trkpt><trkpt lat="44.9766233" lon="8.021425"><ele>247.0</ele><time>2026-04-19T12:24:42.017Z</time></trkpt><trkpt lat="44.9767383" lon="8.0213733"><ele>247.0</ele><time>2026-04-19T12:24:43.017Z</time></trkpt><trkpt lat="44.97685" lon="8.0213233"><ele>248.0</ele><time>2026-04-19T12:24:44.018Z</time></trkpt><trkpt lat="44.9769567" lon="8.02127"><ele>249.0</ele><time>2026-04-19T12:24:45.018Z</time></trkpt><trkpt lat="44.9770667" lon="8.0212183"><ele>250.0</ele><time>2026-04-19T12:24:46.017Z</time></trkpt><trkpt lat="44.9771733" lon="8.0211533"><ele>251.0</ele><time>2026-04-19T12:24:47.017Z</time></trkpt><trkpt lat="44.977285" lon="8.02108"><ele>251.0</ele><time>2026-04-19T12:24:48.018Z</time></trkpt><trkpt lat="44.9773917" lon="8.0210117"><ele>251.0</ele><time>2026-04-19T12:24:49.017Z</time></trkpt><trkpt lat="44.9774883" lon="8.0209317"><ele>251.0</ele><time>2026-04-19T12:24:50.017Z</time></trkpt><trkpt lat="44.977595" lon="8.02084"><ele>251.0</ele><time>2026-04-19T12:24:51.018Z</time></trkpt><trkpt lat="44.9776867" lon="8.0207183"><ele>252.60000000000002</ele><time>2026-04-19T12:24:52.018Z</time></trkpt><trkpt lat="44.9777833" lon="8.02061"><ele>254.20000000000002</ele><time>2026-04-19T12:24:53.018Z</time></trkpt><trkpt lat="44.9778783" lon="8.02053"><ele>255.79999999999998</ele><time>2026-04-19T12:24:54.017Z</time></trkpt><trkpt lat="44.9779783" lon="8.0204583"><ele>257.4</ele><time>2026-04-19T12:24:55.018Z</time></trkpt><trkpt lat="44.9780683" lon="8.0204133"><ele>259.0</ele><time>2026-04-19T12:24:56.018Z</time></trkpt><trkpt lat="44.9781667" lon="8.0204"><ele>259.0</ele><time>2026-04-19T12:24:57.018Z</time></trkpt><trkpt lat="44.9782667" lon="8.0204067"><ele>259.0</ele><time>2026-04-19T12:24:58.018Z</time></trkpt><trkpt lat="44.9783667" lon="8.0204417"><ele>259.0</ele><time>2026-04-19T12:24:59.018Z</time></trkpt><trkpt lat="44.9784767" lon="8.0205"><ele>259.0</ele><time>2026-04-19T12:25:00.017Z</time></trkpt><trkpt lat="44.9785967" lon="8.0205783"><ele>257.75</ele><time>2026-04-19T12:25:01.018Z</time></trkpt><trkpt lat="44.9786933" lon="8.020665"><ele>256.5</ele><time>2026-04-19T12:25:02.017Z</time></trkpt><trkpt lat="44.9787933" lon="8.0207633"><ele>255.25</ele><time>2026-04-19T12:25:03.017Z</time></trkpt><trkpt lat="44.978895" lon="8.0208617"><ele>254.0</ele><time>2026-04-19T12:25:04.017Z</time></trkpt><trkpt lat="44.9790167" lon="8.0209333"><ele>254.0</ele><time>2026-04-19T12:25:05.017Z</time></trkpt><trkpt lat="44.979145" lon="8.0209917"><ele>254.0</ele><time>2026-04-19T12:25:06.018Z</time></trkpt><trkpt lat="44.979275" lon="8.021015"><ele>254.0</ele><time>2026-04-19T12:25:07.017Z</time></trkpt><trkpt lat="44.97941" lon="8.0210183"><ele>254.0</ele><time>2026-04-19T12:25:08.017Z</time></trkpt><trkpt lat="44.97955" lon="8.0210133"><ele>255.0</ele><time>2026-04-19T12:25:09.017Z</time></trkpt><trkpt lat="44.979695" lon="8.0210217"><ele>256.0</ele><time>2026-04-19T12:25:10.017Z</time></trkpt><trkpt lat="44.979815" lon="8.0210333"><ele>257.0</ele><time>2026-04-19T12:25:11.017Z</time></trkpt><trkpt lat="44.9799433" lon="8.0210567"><ele>258.0</ele><time>2026-04-19T12:25:12.018Z</time></trkpt><trkpt lat="44.9800633" lon="8.021085"><ele>258.25</ele><time>2026-04-19T12:25:13.018Z</time></trkpt><trkpt lat="44.9801867" lon="8.0211333"><ele>258.5</ele><time>2026-04-19T12:25:14.018Z</time></trkpt><trkpt lat="44.9803017" lon="8.0212033"><ele>258.75</ele><time>2026-04-19T12:25:15.017Z</time></trkpt><trkpt lat="44.9804033" lon="8.021285"><ele>259.0</ele><time>2026-04-19T12:25:16.017Z</time></trkpt><trkpt lat="44.9804967" lon="8.0213733"><ele>259.0</ele><time>2026-04-19T12:25:17.017Z</time></trkpt><trkpt lat="44.9805833" lon="8.0214617"><ele>259.0</ele><time>2026-04-19T12:25:18.017Z</time></trkpt><trkpt lat="44.980665" lon="8.0215467"><ele>259.0</ele><time>2026-04-19T12:25:19.017Z</time></trkpt><trkpt lat="44.9807617" lon="8.021625"><ele>259.0</ele><time>2026-04-19T12:25:20.018Z</time></trkpt><trkpt lat="44.9808717" lon="8.0216717"><ele>259.0</ele><time>2026-04-19T12:25:21.018Z</time></trkpt><trkpt lat="44.9809867" lon="8.021685"><ele>258.4</ele><time>2026-04-19T12:25:22.017Z</time></trkpt><trkpt lat="44.98109" lon="8.0216567"><ele>257.79999999999995</ele><time>2026-04-19T12:25:23.017Z</time></trkpt><trkpt lat="44.9811867" lon="8.0216017"><ele>257.20000000000005</ele><time>2026-04-19T12:25:24.018Z</time></trkpt><trkpt lat="44.9812817" lon="8.0215433"><ele>256.6</ele><time>2026-04-19T12:25:25.017Z</time></trkpt><trkpt lat="44.9813817" lon="8.0214883"><ele>256.0</ele><time>2026-04-19T12:25:26.017Z</time></trkpt><trkpt lat="44.9814817" lon="8.0214667"><ele>255.83333333333331</ele><time>2026-04-19T12:25:27.017Z</time></trkpt><trkpt lat="44.9815683" lon="8.021485"><ele>255.66666666666666</ele><time>2026-04-19T12:25:28.017Z</time></trkpt><trkpt lat="44.9816267" lon="8.0215333"><ele>255.5</ele><time>2026-04-19T12:25:29.017Z</time></trkpt><trkpt lat="44.9817083" lon="8.0216583"><ele>255.33333333333331</ele><time>2026-04-19T12:25:31.018Z</time></trkpt><trkpt lat="44.9817217" lon="8.0217517"><ele>255.16666666666666</ele><time>2026-04-19T12:25:32.018Z</time></trkpt><trkpt lat="44.9817383" lon="8.02186"><ele>255.0</ele><time>2026-04-19T12:25:33.018Z</time></trkpt><trkpt lat="44.9817483" lon="8.0219883"><ele>256.0</ele><time>2026-04-19T12:25:34.018Z</time></trkpt><trkpt lat="44.98176" lon="8.0221017"><ele>257.0</ele><time>2026-04-19T12:25:35.018Z</time></trkpt><trkpt lat="44.9817783" lon="8.0222067"><ele>258.0</ele><time>2026-04-19T12:25:36.018Z</time></trkpt><trkpt lat="44.981815" lon="8.0222933"><ele>259.0</ele><time>2026-04-19T12:25:37.018Z</time></trkpt><trkpt lat="44.9818817" lon="8.02236"><ele>260.0</ele><time>2026-04-19T12:25:38.017Z</time></trkpt><trkpt lat="44.98197" lon="8.0224167"><ele>261.0</ele><time>2026-04-19T12:25:39.017Z</time></trkpt><trkpt lat="44.9820683" lon="8.0224683"><ele>259.75</ele><time>2026-04-19T12:25:40.017Z</time></trkpt><trkpt lat="44.9821883" lon="8.0225083"><ele>258.5</ele><time>2026-04-19T12:25:41.017Z</time></trkpt><trkpt lat="44.9823267" lon="8.02254"><ele>257.25</ele><time>2026-04-19T12:25:42.018Z</time></trkpt><trkpt lat="44.9824683" lon="8.0226017"><ele>256.0</ele><time>2026-04-19T12:25:43.017Z</time></trkpt><trkpt lat="44.9825917" lon="8.0226917"><ele>253.0</ele><time>2026-04-19T12:25:44.018Z</time></trkpt><trkpt lat="44.9827" lon="8.0228333"><ele>250.0</ele><time>2026-04-19T12:25:45.017Z</time></trkpt><trkpt lat="44.9827967" lon="8.0229733"><ele>247.0</ele><time>2026-04-19T12:25:46.017Z</time></trkpt><trkpt lat="44.9828783" lon="8.0231333"><ele>244.0</ele><time>2026-04-19T12:25:47.017Z</time></trkpt><trkpt lat="44.9829617" lon="8.0232883"><ele>246.2</ele><time>2026-04-19T12:25:48.017Z</time></trkpt><trkpt lat="44.9830317" lon="8.02344"><ele>248.39999999999998</ele><time>2026-04-19T12:25:49.018Z</time></trkpt><trkpt lat="44.9831" lon="8.0235767"><ele>250.6</ele><time>2026-04-19T12:25:50.017Z</time></trkpt><trkpt lat="44.9831567" lon="8.0236867"><ele>252.8</ele><time>2026-04-19T12:25:51.017Z</time></trkpt><trkpt lat="44.9832017" lon="8.0237833"><ele>255.0</ele><time>2026-04-19T12:25:52.018Z</time></trkpt><trkpt lat="44.9832283" lon="8.023865"><ele>255.0</ele><time>2026-04-19T12:25:53.018Z</time></trkpt><trkpt lat="44.9832567" lon="8.0239567"><ele>255.0</ele><time>2026-04-19T12:25:54.017Z</time></trkpt><trkpt lat="44.983255" lon="8.0241417"><ele>255.0</ele><time>2026-04-19T12:25:56.018Z</time></trkpt><trkpt lat="44.9832367" lon="8.0242517"><ele>255.0</ele><time>2026-04-19T12:25:57.018Z</time></trkpt><trkpt lat="44.98321" lon="8.0243567"><ele>255.0</ele><time>2026-04-19T12:25:58.018Z</time></trkpt><trkpt lat="44.9831917" lon="8.02446"><ele>255.0</ele><time>2026-04-19T12:25:59.017Z</time></trkpt><trkpt lat="44.9831717" lon="8.0246283"><ele>256.1666666666667</ele><time>2026-04-19T12:26:01.018Z</time></trkpt><trkpt lat="44.98318" lon="8.024755"><ele>257.3333333333333</ele><time>2026-04-19T12:26:03.017Z</time></trkpt><trkpt lat="44.9831883" lon="8.0248483"><ele>258.5</ele><time>2026-04-19T12:26:05.018Z</time></trkpt><trkpt lat="44.98321" lon="8.024965"><ele>259.66666666666663</ele><time>2026-04-19T12:26:07.017Z</time></trkpt><trkpt lat="44.9832317" lon="8.025105"><ele>260.8333333333333</ele><time>2026-04-19T12:26:09.018Z</time></trkpt><trkpt lat="44.98324" lon="8.0252"><ele>262.0</ele><time>2026-04-19T12:26:10.017Z</time></trkpt><trkpt lat="44.9832483" lon="8.0253017"><ele>262.66666666666663</ele><time>2026-04-19T12:26:11.018Z</time></trkpt><trkpt lat="44.9832517" lon="8.02541"><ele>263.3333333333333</ele><time>2026-04-19T12:26:12.017Z</time></trkpt><trkpt lat="44.9832533" lon="8.0255217"><ele>264.0</ele><time>2026-04-19T12:26:13.018Z</time></trkpt><trkpt lat="44.9832567" lon="8.0256333"><ele>264.6666666666667</ele><time>2026-04-19T12:26:14.017Z</time></trkpt><trkpt lat="44.9832617" lon="8.0257417"><ele>265.33333333333337</ele><time>2026-04-19T12:26:15.017Z</time></trkpt><trkpt lat="44.9832683" lon="8.025855"><ele>266.0</ele><time>2026-04-19T12:26:16.017Z</time></trkpt><trkpt lat="44.983285" lon="8.0259783"><ele>266.0</ele><time>2026-04-19T12:26:17.017Z</time></trkpt><trkpt lat="44.9833133" lon="8.026095"><ele>266.0</ele><time>2026-04-19T12:26:18.018Z</time></trkpt><trkpt lat="44.9833367" lon="8.0262083"><ele>266.0</ele><time>2026-04-19T12:26:19.017Z</time></trkpt><trkpt lat="44.983365" lon="8.0263217"><ele>266.0</ele><time>2026-04-19T12:26:20.018Z</time></trkpt><trkpt lat="44.98341" lon="8.0264167"><ele>266.0</ele><time>2026-04-19T12:26:21.017Z</time></trkpt><trkpt lat="44.9834633" lon="8.0265133"><ele>266.0</ele><time>2026-04-19T12:26:22.018Z</time></trkpt><trkpt lat="44.9835383" lon="8.0266017"><ele>262.2</ele><time>2026-04-19T12:26:23.018Z</time></trkpt><trkpt lat="44.983615" lon="8.0267"><ele>258.40000000000003</ele><time>2026-04-19T12:26:24.018Z</time></trkpt><trkpt lat="44.9836883" lon="8.0268067"><ele>254.6</ele><time>2026-04-19T12:26:25.018Z</time></trkpt><trkpt lat="44.9837467" lon="8.0269167"><ele>250.8</ele><time>2026-04-19T12:26:26.017Z</time></trkpt><trkpt lat="44.9837833" lon="8.0270617"><ele>247.0</ele><time>2026-04-19T12:26:27.018Z</time></trkpt><trkpt lat="44.9837883" lon="8.02722"><ele>247.0</ele><time>2026-04-19T12:26:28.017Z</time></trkpt><trkpt lat="44.9837833" lon="8.027375"><ele>247.0</ele><time>2026-04-19T12:26:29.017Z</time></trkpt><trkpt lat="44.9837567" lon="8.0275433"><ele>247.0</ele><time>2026-04-19T12:26:30.017Z</time></trkpt><trkpt lat="44.98373" lon="8.0277183"><ele>247.0</ele><time>2026-04-19T12:26:31.017Z</time></trkpt><trkpt lat="44.983725" lon="8.0278767"><ele>248.16666666666666</ele><time>2026-04-19T12:26:32.018Z</time></trkpt><trkpt lat="44.98372" lon="8.028025"><ele>249.33333333333331</ele><time>2026-04-19T12:26:33.018Z</time></trkpt><trkpt lat="44.9837117" lon="8.0281617"><ele>250.5</ele><time>2026-04-19T12:26:34.018Z</time></trkpt><trkpt lat="44.9837117" lon="8.0282767"><ele>251.66666666666669</ele><time>2026-04-19T12:26:35.018Z</time></trkpt><trkpt lat="44.9837283" lon="8.02839"><ele>252.83333333333334</ele><time>2026-04-19T12:26:36.017Z</time></trkpt><trkpt lat="44.9837483" lon="8.0285"><ele>254.0</ele><time>2026-04-19T12:26:37.017Z</time></trkpt><trkpt lat="44.9837833" lon="8.0286033"><ele>256.0</ele><time>2026-04-19T12:26:38.018Z</time></trkpt><trkpt lat="44.983835" lon="8.028695"><ele>258.0</ele><time>2026-04-19T12:26:39.017Z</time></trkpt><trkpt lat="44.9839133" lon="8.0287783"><ele>260.0</ele><time>2026-04-19T12:26:40.018Z</time></trkpt><trkpt lat="44.9840167" lon="8.028855"><ele>262.0</ele><time>2026-04-19T12:26:41.018Z</time></trkpt><trkpt lat="44.98412" lon="8.0289317"><ele>264.0</ele><time>2026-04-19T12:26:42.018Z</time></trkpt><trkpt lat="44.9842267" lon="8.0290117"><ele>264.5</ele><time>2026-04-19T12:26:43.017Z</time></trkpt><trkpt lat="44.9843233" lon="8.029105"><ele>265.0</ele><time>2026-04-19T12:26:44.017Z</time></trkpt><trkpt lat="44.9844267" lon="8.0291883"><ele>265.5</ele><time>2026-04-19T12:26:45.018Z</time></trkpt><trkpt lat="44.9845283" lon="8.0292633"><ele>266.0</ele><time>2026-04-19T12:26:46.017Z</time></trkpt><trkpt lat="44.9846333" lon="8.0293233"><ele>265.8</ele><time>2026-04-19T12:26:47.018Z</time></trkpt><trkpt lat="44.9847333" lon="8.029385"><ele>265.6</ele><time>2026-04-19T12:26:48.017Z</time></trkpt><trkpt lat="44.9848333" lon="8.0294517"><ele>265.4</ele><time>2026-04-19T12:26:49.017Z</time></trkpt><trkpt lat="44.9849283" lon="8.0295367"><ele>265.2</ele><time>2026-04-19T12:26:50.018Z</time></trkpt><trkpt lat="44.9850333" lon="8.0296067"><ele>265.0</ele><time>2026-04-19T12:26:51.017Z</time></trkpt><trkpt lat="44.98513" lon="8.0296783"><ele>265.0</ele><time>2026-04-19T12:26:52.018Z</time></trkpt><trkpt lat="44.98524" lon="8.0297483"><ele>265.0</ele><time>2026-04-19T12:26:53.017Z</time></trkpt><trkpt lat="44.9853533" lon="8.0297933"><ele>265.0</ele><time>2026-04-19T12:26:54.017Z</time></trkpt><trkpt lat="44.9854717" lon="8.0298167"><ele>265.0</ele><time>2026-04-19T12:26:55.018Z</time></trkpt><trkpt lat="44.985575" lon="8.0298333"><ele>265.0</ele><time>2026-04-19T12:26:56.018Z</time></trkpt><trkpt lat="44.985695" lon="8.0298333"><ele>265.0</ele><time>2026-04-19T12:26:57.018Z</time></trkpt><trkpt lat="44.985805" lon="8.0298717"><ele>265.0</ele><time>2026-04-19T12:26:58.018Z</time></trkpt><trkpt lat="44.98592" lon="8.0299417"><ele>265.0</ele><time>2026-04-19T12:26:59.017Z</time></trkpt><trkpt lat="44.98603" lon="8.0300417"><ele>263.75</ele><time>2026-04-19T12:27:00.018Z</time></trkpt><trkpt lat="44.98615" lon="8.030145"><ele>262.5</ele><time>2026-04-19T12:27:01.017Z</time></trkpt><trkpt lat="44.98627" lon="8.0302483"><ele>261.25</ele><time>2026-04-19T12:27:02.017Z</time></trkpt><trkpt lat="44.98639" lon="8.03034"><ele>260.0</ele><time>2026-04-19T12:27:03.017Z</time></trkpt><trkpt lat="44.9865033" lon="8.0304417"><ele>260.0</ele><time>2026-04-19T12:27:04.017Z</time></trkpt><trkpt lat="44.986625" lon="8.03053"><ele>260.0</ele><time>2026-04-19T12:27:05.018Z</time></trkpt><trkpt lat="44.9867333" lon="8.0306233"><ele>260.0</ele><time>2026-04-19T12:27:06.017Z</time></trkpt><trkpt lat="44.9868583" lon="8.030725"><ele>260.0</ele><time>2026-04-19T12:27:07.018Z</time></trkpt><trkpt lat="44.9869667" lon="8.0308383"><ele>262.0</ele><time>2026-04-19T12:27:08.018Z</time></trkpt><trkpt lat="44.9870633" lon="8.0309617"><ele>264.0</ele><time>2026-04-19T12:27:09.017Z</time></trkpt><trkpt lat="44.9871533" lon="8.0310817"><ele>266.0</ele><time>2026-04-19T12:27:10.017Z</time></trkpt><trkpt lat="44.9872383" lon="8.0312"><ele>268.0</ele><time>2026-04-19T12:27:11.018Z</time></trkpt><trkpt lat="44.9873183" lon="8.0313"><ele>268.0</ele><time>2026-04-19T12:27:12.017Z</time></trkpt><trkpt lat="44.9874067" lon="8.031385"><ele>268.0</ele><time>2026-04-19T12:27:13.018Z</time></trkpt><trkpt lat="44.9874967" lon="8.03146"><ele>268.0</ele><time>2026-04-19T12:27:14.017Z</time></trkpt><trkpt lat="44.9876067" lon="8.0314933"><ele>268.0</ele><time>2026-04-19T12:27:15.017Z</time></trkpt><trkpt lat="44.9877283" lon="8.0315283"><ele>268.0</ele><time>2026-04-19T12:27:16.018Z</time></trkpt><trkpt lat="44.98786" lon="8.0315667"><ele>267.5</ele><time>2026-04-19T12:27:17.018Z</time></trkpt><trkpt lat="44.987995" lon="8.0316"><ele>267.0</ele><time>2026-04-19T12:27:18.018Z</time></trkpt><trkpt lat="44.9881333" lon="8.0316367"><ele>266.5</ele><time>2026-04-19T12:27:19.017Z</time></trkpt><trkpt lat="44.9882567" lon="8.03167"><ele>266.0</ele><time>2026-04-19T12:27:20.018Z</time></trkpt><trkpt lat="44.98838" lon="8.03171"><ele>265.40000000000003</ele><time>2026-04-19T12:27:21.017Z</time></trkpt><trkpt lat="44.9884933" lon="8.0317533"><ele>264.8</ele><time>2026-04-19T12:27:22.017Z</time></trkpt><trkpt lat="44.9885917" lon="8.0318267"><ele>264.20000000000005</ele><time>2026-04-19T12:27:23.018Z</time></trkpt><trkpt lat="44.9886767" lon="8.0319267"><ele>263.6</ele><time>2026-04-19T12:27:24.017Z</time></trkpt><trkpt lat="44.98874" lon="8.0320417"><ele>263.0</ele><time>2026-04-19T12:27:25.017Z</time></trkpt><trkpt lat="44.9887933" lon="8.03213"><ele>263.0</ele><time>2026-04-19T12:27:26.017Z</time></trkpt><trkpt lat="44.9888267" lon="8.0322067"><ele>263.0</ele><time>2026-04-19T12:27:27.017Z</time></trkpt><trkpt lat="44.9888933" lon="8.0322633"><ele>263.0</ele><time>2026-04-19T12:27:29.017Z</time></trkpt><trkpt lat="44.9889983" lon="8.0322517"><ele>263.0</ele><time>2026-04-19T12:27:31.017Z</time></trkpt><trkpt lat="44.9891017" lon="8.0321867"><ele>263.0</ele><time>2026-04-19T12:27:33.017Z</time></trkpt><trkpt lat="44.9891967" lon="8.0320983"><ele>262.8</ele><time>2026-04-19T12:27:35.018Z</time></trkpt><trkpt lat="44.9892567" lon="8.0320433"><ele>262.6</ele><time>2026-04-19T12:27:37.017Z</time></trkpt><trkpt lat="44.9893183" lon="8.0319217"><ele>262.4</ele><time>2026-04-19T12:27:40.017Z</time></trkpt><trkpt lat="44.989355" lon="8.03172"><ele>262.2</ele><time>2026-04-19T12:27:42.018Z</time></trkpt><trkpt lat="44.98936" lon="8.0315683"><ele>262.0</ele><time>2026-04-19T12:27:43.018Z</time></trkpt><trkpt lat="44.989355" lon="8.0314183"><ele>259.0</ele><time>2026-04-19T12:27:44.018Z</time></trkpt><trkpt lat="44.989345" lon="8.0312667"><ele>256.0</ele><time>2026-04-19T12:27:45.017Z</time></trkpt><trkpt lat="44.9893317" lon="8.0311067"><ele>253.0</ele><time>2026-04-19T12:27:46.017Z</time></trkpt><trkpt lat="44.9893117" lon="8.030945"><ele>250.0</ele><time>2026-04-19T12:27:47.016Z</time></trkpt><trkpt lat="44.9892783" lon="8.0307867"><ele>245.0</ele><time>2026-04-19T12:27:48.016Z</time></trkpt><trkpt lat="44.9892467" lon="8.0306333"><ele>240.0</ele><time>2026-04-19T12:27:49.016Z</time></trkpt><trkpt lat="44.989225" lon="8.03046"><ele>235.0</ele><time>2026-04-19T12:27:50.017Z</time></trkpt><trkpt lat="44.9892217" lon="8.0302633"><ele>230.0</ele><time>2026-04-19T12:27:51.017Z</time></trkpt><trkpt lat="44.9892183" lon="8.0300767"><ele>228.0</ele><time>2026-04-19T12:27:52.016Z</time></trkpt><trkpt lat="44.9892167" lon="8.029895"><ele>226.0</ele><time>2026-04-19T12:27:53.017Z</time></trkpt><trkpt lat="44.989235" lon="8.0297267"><ele>224.0</ele><time>2026-04-19T12:27:54.017Z</time></trkpt><trkpt lat="44.9892567" lon="8.0295667"><ele>222.0</ele><time>2026-04-19T12:27:55.016Z</time></trkpt><trkpt lat="44.98926" lon="8.0294"><ele>222.0</ele><time>2026-04-19T12:27:56.017Z</time></trkpt><trkpt lat="44.989275" lon="8.0292233"><ele>222.0</ele><time>2026-04-19T12:27:57.016Z</time></trkpt><trkpt lat="44.9893" lon="8.0290467"><ele>222.0</ele><time>2026-04-19T12:27:58.016Z</time></trkpt><trkpt lat="44.989335" lon="8.0288733"><ele>222.0</ele><time>2026-04-19T12:27:59.016Z</time></trkpt><trkpt lat="44.98936" lon="8.02871"><ele>223.25</ele><time>2026-04-19T12:28:00.016Z</time></trkpt><trkpt lat="44.9893867" lon="8.0285483"><ele>224.5</ele><time>2026-04-19T12:28:01.017Z</time></trkpt><trkpt lat="44.9894083" lon="8.028375"><ele>225.75</ele><time>2026-04-19T12:28:02.016Z</time></trkpt><trkpt lat="44.9894033" lon="8.028215"><ele>227.0</ele><time>2026-04-19T12:28:03.017Z</time></trkpt><trkpt lat="44.9893817" lon="8.02806"><ele>228.39999999999998</ele><time>2026-04-19T12:28:04.016Z</time></trkpt><trkpt lat="44.989355" lon="8.0279033"><ele>229.79999999999998</ele><time>2026-04-19T12:28:05.016Z</time></trkpt><trkpt lat="44.9893083" lon="8.0277717"><ele>231.2</ele><time>2026-04-19T12:28:06.016Z</time></trkpt><trkpt lat="44.9892617" lon="8.0276517"><ele>232.6</ele><time>2026-04-19T12:28:07.016Z</time></trkpt><trkpt lat="44.9892267" lon="8.02752"><ele>234.0</ele><time>2026-04-19T12:28:08.017Z</time></trkpt><trkpt lat="44.9891967" lon="8.0273867"><ele>236.39999999999998</ele><time>2026-04-19T12:28:09.017Z</time></trkpt><trkpt lat="44.9891717" lon="8.0272567"><ele>238.79999999999998</ele><time>2026-04-19T12:28:10.017Z</time></trkpt><trkpt lat="44.9891367" lon="8.0271317"><ele>241.20000000000002</ele><time>2026-04-19T12:28:11.017Z</time></trkpt><trkpt lat="44.9891033" lon="8.027005"><ele>243.60000000000002</ele><time>2026-04-19T12:28:12.016Z</time></trkpt><trkpt lat="44.989075" lon="8.026885"><ele>246.0</ele><time>2026-04-19T12:28:13.016Z</time></trkpt><trkpt lat="44.98905" lon="8.026775"><ele>246.0</ele><time>2026-04-19T12:28:14.017Z</time></trkpt><trkpt lat="44.9890433" lon="8.02666"><ele>246.0</ele><time>2026-04-19T12:28:15.017Z</time></trkpt><trkpt lat="44.9890283" lon="8.026555"><ele>246.0</ele><time>2026-04-19T12:28:16.016Z</time></trkpt><trkpt lat="44.989" lon="8.02646"><ele>246.0</ele><time>2026-04-19T12:28:17.016Z</time></trkpt><trkpt lat="44.9889867" lon="8.0263533"><ele>246.0</ele><time>2026-04-19T12:28:18.016Z</time></trkpt><trkpt lat="44.9889717" lon="8.026255"><ele>246.0</ele><time>2026-04-19T12:28:19.016Z</time></trkpt><trkpt lat="44.988955" lon="8.026155"><ele>245.0</ele><time>2026-04-19T12:28:20.017Z</time></trkpt><trkpt lat="44.988945" lon="8.0260517"><ele>244.0</ele><time>2026-04-19T12:28:21.016Z</time></trkpt><trkpt lat="44.9889333" lon="8.02595"><ele>243.0</ele><time>2026-04-19T12:28:22.017Z</time></trkpt><trkpt lat="44.9889033" lon="8.0258517"><ele>242.0</ele><time>2026-04-19T12:28:23.017Z</time></trkpt><trkpt lat="44.9889033" lon="8.02574"><ele>241.0</ele><time>2026-04-19T12:28:24.017Z</time></trkpt><trkpt lat="44.9888967" lon="8.025585"><ele>240.0</ele><time>2026-04-19T12:28:26.016Z</time></trkpt><trkpt lat="44.9889667" lon="8.025555"><ele>240.0</ele><time>2026-04-19T12:28:29.017Z</time></trkpt><trkpt lat="44.9890317" lon="8.0256783"><ele>240.0</ele><time>2026-04-19T12:28:31.017Z</time></trkpt><trkpt lat="44.9890783" lon="8.02575"><ele>240.0</ele><time>2026-04-19T12:28:32.016Z</time></trkpt><trkpt lat="44.989135" lon="8.02582"><ele>240.0</ele><time>2026-04-19T12:28:33.017Z</time></trkpt><trkpt lat="44.9892183" lon="8.025885"><ele>240.0</ele><time>2026-04-19T12:28:34.017Z</time></trkpt><trkpt lat="44.989305" lon="8.02591"><ele>240.0</ele><time>2026-04-19T12:28:35.016Z</time></trkpt><trkpt lat="44.9894033" lon="8.0259183"><ele>238.0</ele><time>2026-04-19T12:28:36.016Z</time></trkpt><trkpt lat="44.9895217" lon="8.0258933"><ele>236.0</ele><time>2026-04-19T12:28:37.016Z</time></trkpt><trkpt lat="44.98961" lon="8.0258583"><ele>234.0</ele><time>2026-04-19T12:28:38.017Z</time></trkpt><trkpt lat="44.9896883" lon="8.0258217"><ele>232.0</ele><time>2026-04-19T12:28:39.017Z</time></trkpt><trkpt lat="44.989765" lon="8.02579"><ele>230.0</ele><time>2026-04-19T12:28:40.016Z</time></trkpt><trkpt lat="44.9898417" lon="8.0257617"><ele>230.00000000000003</ele><time>2026-04-19T12:28:41.017Z</time></trkpt><trkpt lat="44.989925" lon="8.02574"><ele>230.0</ele><time>2026-04-19T12:28:42.017Z</time></trkpt><trkpt lat="44.990005" lon="8.0257367"><ele>230.0</ele><time>2026-04-19T12:28:43.016Z</time></trkpt><trkpt lat="44.99009" lon="8.02573"><ele>230.0</ele><time>2026-04-19T12:28:44.017Z</time></trkpt><trkpt lat="44.990185" lon="8.0257183"><ele>230.00000000000003</ele><time>2026-04-19T12:28:45.017Z</time></trkpt><trkpt lat="44.9902883" lon="8.0257233"><ele>230.0</ele><time>2026-04-19T12:28:46.017Z</time></trkpt><trkpt lat="44.990385" lon="8.0257467"><ele>227.2</ele><time>2026-04-19T12:28:47.016Z</time></trkpt><trkpt lat="44.9904867" lon="8.0257683"><ele>224.4</ele><time>2026-04-19T12:28:48.017Z</time></trkpt><trkpt lat="44.9905883" lon="8.0258017"><ele>221.60000000000002</ele><time>2026-04-19T12:28:49.016Z</time></trkpt><trkpt lat="44.9906867" lon="8.0258467"><ele>218.8</ele><time>2026-04-19T12:28:50.016Z</time></trkpt><trkpt lat="44.990795" lon="8.0258883"><ele>216.0</ele><time>2026-04-19T12:28:51.017Z</time></trkpt><trkpt lat="44.9908983" lon="8.025925"><ele>213.4</ele><time>2026-04-19T12:28:52.016Z</time></trkpt><trkpt lat="44.991" lon="8.0259633"><ele>210.8</ele><time>2026-04-19T12:28:53.016Z</time></trkpt><trkpt lat="44.9911017" lon="8.0259933"><ele>208.20000000000002</ele><time>2026-04-19T12:28:54.016Z</time></trkpt><trkpt lat="44.991195" lon="8.02602"><ele>205.60000000000002</ele><time>2026-04-19T12:28:55.017Z</time></trkpt><trkpt lat="44.9912867" lon="8.0260383"><ele>203.0</ele><time>2026-04-19T12:28:56.016Z</time></trkpt><trkpt lat="44.9913883" lon="8.0260167"><ele>203.0</ele><time>2026-04-19T12:28:57.017Z</time></trkpt><trkpt lat="44.991475" lon="8.0259683"><ele>203.0</ele><time>2026-04-19T12:28:58.017Z</time></trkpt><trkpt lat="44.9915683" lon="8.0258917"><ele>203.0</ele><time>2026-04-19T12:28:59.017Z</time></trkpt><trkpt lat="44.9916517" lon="8.0258167"><ele>203.0</ele><time>2026-04-19T12:29:00.016Z</time></trkpt><trkpt lat="44.9917467" lon="8.0257217"><ele>203.0</ele><time>2026-04-19T12:29:01.016Z</time></trkpt><trkpt lat="44.9918483" lon="8.02561"><ele>201.0</ele><time>2026-04-19T12:29:02.016Z</time></trkpt><trkpt lat="44.991945" lon="8.0254883"><ele>199.0</ele><time>2026-04-19T12:29:03.017Z</time></trkpt><trkpt lat="44.9920417" lon="8.025335"><ele>197.0</ele><time>2026-04-19T12:29:04.016Z</time></trkpt><trkpt lat="44.9921233" lon="8.0251733"><ele>195.0</ele><time>2026-04-19T12:29:05.016Z</time></trkpt><trkpt lat="44.9921967" lon="8.0250067"><ele>195.0</ele><time>2026-04-19T12:29:06.017Z</time></trkpt><trkpt lat="44.9922633" lon="8.0248317"><ele>195.0</ele><time>2026-04-19T12:29:07.017Z</time></trkpt><trkpt lat="44.992325" lon="8.02466"><ele>195.0</ele><time>2026-04-19T12:29:08.017Z</time></trkpt><trkpt lat="44.9923867" lon="8.024475"><ele>195.0</ele><time>2026-04-19T12:29:09.016Z</time></trkpt><trkpt lat="44.9924367" lon="8.024285"><ele>195.0</ele><time>2026-04-19T12:29:10.016Z</time></trkpt><trkpt lat="44.9924717" lon="8.0240983"><ele>195.0</ele><time>2026-04-19T12:29:11.016Z</time></trkpt><trkpt lat="44.9925083" lon="8.023915"><ele>195.0</ele><time>2026-04-19T12:29:12.017Z</time></trkpt><trkpt lat="44.99254" lon="8.0237217"><ele>195.0</ele><time>2026-04-19T12:29:13.016Z</time></trkpt><trkpt lat="44.992555" lon="8.02353"><ele>193.5</ele><time>2026-04-19T12:29:14.017Z</time></trkpt><trkpt lat="44.992565" lon="8.0233333"><ele>192.0</ele><time>2026-04-19T12:29:15.016Z</time></trkpt><trkpt lat="44.9925667" lon="8.0231467"><ele>190.5</ele><time>2026-04-19T12:29:16.016Z</time></trkpt><trkpt lat="44.9925567" lon="8.02296"><ele>189.0</ele><time>2026-04-19T12:29:17.016Z</time></trkpt><trkpt lat="44.9925417" lon="8.022775"><ele>188.75</ele><time>2026-04-19T12:29:18.017Z</time></trkpt><trkpt lat="44.9925383" lon="8.0225933"><ele>188.5</ele><time>2026-04-19T12:29:19.016Z</time></trkpt><trkpt lat="44.9925383" lon="8.0224117"><ele>188.25</ele><time>2026-04-19T12:29:20.016Z</time></trkpt><trkpt lat="44.9925433" lon="8.0222333"><ele>188.0</ele><time>2026-04-19T12:29:21.016Z</time></trkpt><trkpt lat="44.9925733" lon="8.0220467"><ele>187.75</ele><time>2026-04-19T12:29:22.017Z</time></trkpt><trkpt lat="44.9926217" lon="8.0218517"><ele>187.5</ele><time>2026-04-19T12:29:23.016Z</time></trkpt><trkpt lat="44.9926917" lon="8.0216733"><ele>187.25</ele><time>2026-04-19T12:29:24.017Z</time></trkpt><trkpt lat="44.9927633" lon="8.0214917"><ele>187.0</ele><time>2026-04-19T12:29:25.017Z</time></trkpt><trkpt lat="44.992815" lon="8.021315"><ele>186.5</ele><time>2026-04-19T12:29:26.016Z</time></trkpt><trkpt lat="44.9928683" lon="8.0211317"><ele>186.0</ele><time>2026-04-19T12:29:27.017Z</time></trkpt><trkpt lat="44.9929233" lon="8.02097"><ele>185.5</ele><time>2026-04-19T12:29:28.017Z</time></trkpt><trkpt lat="44.99297" lon="8.0208167"><ele>185.0</ele><time>2026-04-19T12:29:29.017Z</time></trkpt><trkpt lat="44.99301" lon="8.02068"><ele>185.0</ele><time>2026-04-19T12:29:30.016Z</time></trkpt><trkpt lat="44.9930433" lon="8.0205667"><ele>185.0</ele><time>2026-04-19T12:29:31.016Z</time></trkpt><trkpt lat="44.993075" lon="8.0204717"><ele>185.0</ele><time>2026-04-19T12:29:32.017Z</time></trkpt><trkpt lat="44.99313" lon="8.0203333"><ele>185.0</ele><time>2026-04-19T12:29:34.017Z</time></trkpt><trkpt lat="44.9932067" lon="8.0201917"><ele>185.0</ele><time>2026-04-19T12:29:36.016Z</time></trkpt><trkpt lat="44.993255" lon="8.0200933"><ele>185.0</ele><time>2026-04-19T12:29:37.017Z</time></trkpt><trkpt lat="44.9933067" lon="8.01998"><ele>185.0</ele><time>2026-04-19T12:29:38.016Z</time></trkpt><trkpt lat="44.9933633" lon="8.0198567"><ele>185.0</ele><time>2026-04-19T12:29:39.016Z</time></trkpt><trkpt lat="44.9934333" lon="8.0197167"><ele>185.0</ele><time>2026-04-19T12:29:40.016Z</time></trkpt><trkpt lat="44.99351" lon="8.01956"><ele>185.0</ele><time>2026-04-19T12:29:41.017Z</time></trkpt><trkpt lat="44.99359" lon="8.0193967"><ele>185.0</ele><time>2026-04-19T12:29:42.017Z</time></trkpt><trkpt lat="44.9936733" lon="8.01923"><ele>185.0</ele><time>2026-04-19T12:29:43.016Z</time></trkpt><trkpt lat="44.9937567" lon="8.0190483"><ele>185.0</ele><time>2026-04-19T12:29:44.017Z</time></trkpt><trkpt lat="44.99384" lon="8.0188683"><ele>185.0</ele><time>2026-04-19T12:29:45.016Z</time></trkpt><trkpt lat="44.9939317" lon="8.018685"><ele>185.0</ele><time>2026-04-19T12:29:46.017Z</time></trkpt><trkpt lat="44.9940217" lon="8.018505"><ele>185.0</ele><time>2026-04-19T12:29:47.017Z</time></trkpt><trkpt lat="44.99411" lon="8.0183133"><ele>185.0</ele><time>2026-04-19T12:29:48.016Z</time></trkpt><trkpt lat="44.994185" lon="8.0181083"><ele>185.0</ele><time>2026-04-19T12:29:49.016Z</time></trkpt><trkpt lat="44.994235" lon="8.0178833"><ele>185.0</ele><time>2026-04-19T12:29:50.017Z</time></trkpt><trkpt lat="44.9942767" lon="8.0176433"><ele>185.0</ele><time>2026-04-19T12:29:51.017Z</time></trkpt><trkpt lat="44.994305" lon="8.017415"><ele>185.0</ele><time>2026-04-19T12:29:52.016Z</time></trkpt><trkpt lat="44.9943383" lon="8.01718"><ele>185.0</ele><time>2026-04-19T12:29:53.017Z</time></trkpt><trkpt lat="44.9943733" lon="8.0169517"><ele>185.0</ele><time>2026-04-19T12:29:54.017Z</time></trkpt><trkpt lat="44.9944117" lon="8.016725"><ele>185.0</ele><time>2026-04-19T12:29:55.016Z</time></trkpt><trkpt lat="44.99444" lon="8.0165033"><ele>185.0</ele><time>2026-04-19T12:29:56.016Z</time></trkpt><trkpt lat="44.9944767" lon="8.0162683"><ele>185.66666666666666</ele><time>2026-04-19T12:29:57.016Z</time></trkpt><trkpt lat="44.9945083" lon="8.0160283"><ele>186.33333333333334</ele><time>2026-04-19T12:29:58.017Z</time></trkpt><trkpt lat="44.994545" lon="8.015795"><ele>187.0</ele><time>2026-04-19T12:29:59.016Z</time></trkpt><trkpt lat="44.9945833" lon="8.0155667"><ele>187.33333333333334</ele><time>2026-04-19T12:30:00.017Z</time></trkpt><trkpt lat="44.9946217" lon="8.0153433"><ele>187.66666666666666</ele><time>2026-04-19T12:30:01.016Z</time></trkpt><trkpt lat="44.9946567" lon="8.0151167"><ele>188.0</ele><time>2026-04-19T12:30:02.016Z</time></trkpt><trkpt lat="44.994685" lon="8.014885"><ele>188.0</ele><time>2026-04-19T12:30:03.017Z</time></trkpt><trkpt lat="44.9947233" lon="8.0146583"><ele>188.0</ele><time>2026-04-19T12:30:04.017Z</time></trkpt><trkpt lat="44.9947617" lon="8.014435"><ele>188.0</ele><time>2026-04-19T12:30:05.016Z</time></trkpt><trkpt lat="44.9948" lon="8.0142067"><ele>187.66666666666666</ele><time>2026-04-19T12:30:06.016Z</time></trkpt><trkpt lat="44.9948483" lon="8.013985"><ele>187.33333333333334</ele><time>2026-04-19T12:30:07.016Z</time></trkpt><trkpt lat="44.994905" lon="8.01376"><ele>187.0</ele><time>2026-04-19T12:30:08.016Z</time></trkpt><trkpt lat="44.9949783" lon="8.01356"><ele>188.66666666666669</ele><time>2026-04-19T12:30:09.016Z</time></trkpt><trkpt lat="44.99506" lon="8.0133683"><ele>190.33333333333334</ele><time>2026-04-19T12:30:10.017Z</time></trkpt><trkpt lat="44.9951533" lon="8.0131867"><ele>192.0</ele><time>2026-04-19T12:30:11.017Z</time></trkpt><trkpt lat="44.9952617" lon="8.01303"><ele>192.0</ele><time>2026-04-19T12:30:12.016Z</time></trkpt><trkpt lat="44.9953833" lon="8.0128817"><ele>192.0</ele><time>2026-04-19T12:30:13.016Z</time></trkpt><trkpt lat="44.9955017" lon="8.0127483"><ele>192.0</ele><time>2026-04-19T12:30:14.016Z</time></trkpt><trkpt lat="44.995635" lon="8.01263"><ele>192.0</ele><time>2026-04-19T12:30:15.016Z</time></trkpt><trkpt lat="44.9957667" lon="8.012495"><ele>192.0</ele><time>2026-04-19T12:30:16.016Z</time></trkpt><trkpt lat="44.9959067" lon="8.0123517"><ele>192.0</ele><time>2026-04-19T12:30:17.017Z</time></trkpt><trkpt lat="44.9960383" lon="8.0122067"><ele>191.0</ele><time>2026-04-19T12:30:18.017Z</time></trkpt><trkpt lat="44.996165" lon="8.0120633"><ele>190.0</ele><time>2026-04-19T12:30:19.017Z</time></trkpt><trkpt lat="44.9963033" lon="8.0119183"><ele>189.0</ele><time>2026-04-19T12:30:20.016Z</time></trkpt><trkpt lat="44.996445" lon="8.0117833"><ele>189.0</ele><time>2026-04-19T12:30:21.016Z</time></trkpt><trkpt lat="44.996585" lon="8.01164"><ele>189.0</ele><time>2026-04-19T12:30:22.017Z</time></trkpt><trkpt lat="44.9967133" lon="8.0114917"><ele>189.0</ele><time>2026-04-19T12:30:23.017Z</time></trkpt><trkpt lat="44.9968483" lon="8.011355"><ele>189.0</ele><time>2026-04-19T12:30:24.017Z</time></trkpt><trkpt lat="44.9969767" lon="8.0112133"><ele>189.0</ele><time>2026-04-19T12:30:25.016Z</time></trkpt><trkpt lat="44.9971117" lon="8.0110717"><ele>189.0</ele><time>2026-04-19T12:30:26.016Z</time></trkpt><trkpt lat="44.997245" lon="8.0109383"><ele>189.33333333333334</ele><time>2026-04-19T12:30:27.016Z</time></trkpt><trkpt lat="44.9973767" lon="8.0107967"><ele>189.66666666666669</ele><time>2026-04-19T12:30:28.017Z</time></trkpt><trkpt lat="44.9975117" lon="8.010655"><ele>190.0</ele><time>2026-04-19T12:30:29.016Z</time></trkpt><trkpt lat="44.9976483" lon="8.01051"><ele>190.0</ele><time>2026-04-19T12:30:30.016Z</time></trkpt><trkpt lat="44.9977867" lon="8.0103633"><ele>190.0</ele><time>2026-04-19T12:30:31.016Z</time></trkpt><trkpt lat="44.9979183" lon="8.0102167"><ele>190.0</ele><time>2026-04-19T12:30:32.017Z</time></trkpt><trkpt lat="44.9980517" lon="8.01007"><ele>190.33333333333334</ele><time>2026-04-19T12:30:33.017Z</time></trkpt><trkpt lat="44.99818" lon="8.0099283"><ele>190.66666666666666</ele><time>2026-04-19T12:30:34.017Z</time></trkpt><trkpt lat="44.9983117" lon="8.0097883"><ele>191.0</ele><time>2026-04-19T12:30:35.016Z</time></trkpt><trkpt lat="44.9984483" lon="8.0096517"><ele>191.0</ele><time>2026-04-19T12:30:36.016Z</time></trkpt><trkpt lat="44.99858" lon="8.009505"><ele>191.0</ele><time>2026-04-19T12:30:37.017Z</time></trkpt><trkpt lat="44.99871" lon="8.0093617"><ele>191.0</ele><time>2026-04-19T12:30:38.016Z</time></trkpt><trkpt lat="44.9988433" lon="8.0092217"><ele>191.33333333333331</ele><time>2026-04-19T12:30:39.017Z</time></trkpt><trkpt lat="44.9989783" lon="8.009085"><ele>191.66666666666666</ele><time>2026-04-19T12:30:40.017Z</time></trkpt><trkpt lat="44.9991" lon="8.0089433"><ele>192.0</ele><time>2026-04-19T12:30:41.017Z</time></trkpt><trkpt lat="44.999225" lon="8.0088117"><ele>193.33333333333331</ele><time>2026-04-19T12:30:42.016Z</time></trkpt><trkpt lat="44.99935" lon="8.0086733"><ele>194.66666666666666</ele><time>2026-04-19T12:30:43.017Z</time></trkpt><trkpt lat="44.999485" lon="8.0085383"><ele>196.0</ele><time>2026-04-19T12:30:44.016Z</time></trkpt><trkpt lat="44.99962" lon="8.0084083"><ele>195.33333333333331</ele><time>2026-04-19T12:30:45.016Z</time></trkpt><trkpt lat="44.9997517" lon="8.0083133"><ele>194.66666666666669</ele><time>2026-04-19T12:30:46.017Z</time></trkpt><trkpt lat="44.9999033" lon="8.0082367"><ele>194.0</ele><time>2026-04-19T12:30:47.016Z</time></trkpt><trkpt lat="45.0000667" lon="8.0081983"><ele>194.0</ele><time>2026-04-19T12:30:48.016Z</time></trkpt><trkpt lat="45.0002283" lon="8.0081917"><ele>194.0</ele><time>2026-04-19T12:30:49.016Z</time></trkpt><trkpt lat="45.0003967" lon="8.008215"><ele>194.0</ele><time>2026-04-19T12:30:50.017Z</time></trkpt><trkpt lat="45.0005633" lon="8.00822"><ele>194.0</ele><time>2026-04-19T12:30:51.016Z</time></trkpt><trkpt lat="45.0007183" lon="8.0081933"><ele>194.0</ele><time>2026-04-19T12:30:52.016Z</time></trkpt><trkpt lat="45.00087" lon="8.0081167"><ele>194.0</ele><time>2026-04-19T12:30:53.016Z</time></trkpt><trkpt lat="45.0010133" lon="8.0080033"><ele>195.66666666666669</ele><time>2026-04-19T12:30:54.017Z</time></trkpt><trkpt lat="45.00115" lon="8.0078733"><ele>197.33333333333331</ele><time>2026-04-19T12:30:55.016Z</time></trkpt><trkpt lat="45.0012717" lon="8.0077483"><ele>199.0</ele><time>2026-04-19T12:30:56.016Z</time></trkpt><trkpt lat="45.0014033" lon="8.0076233"><ele>199.0</ele><time>2026-04-19T12:30:57.017Z</time></trkpt><trkpt lat="45.00154" lon="8.0075017"><ele>199.0</ele><time>2026-04-19T12:30:58.016Z</time></trkpt><trkpt lat="45.0016767" lon="8.0073767"><ele>199.0</ele><time>2026-04-19T12:30:59.017Z</time></trkpt><trkpt lat="45.00182" lon="8.0072567"><ele>197.0</ele><time>2026-04-19T12:31:00.016Z</time></trkpt><trkpt lat="45.0019683" lon="8.0071417"><ele>195.0</ele><time>2026-04-19T12:31:01.016Z</time></trkpt><trkpt lat="45.002115" lon="8.00703"><ele>193.0</ele><time>2026-04-19T12:31:02.016Z</time></trkpt><trkpt lat="45.0022633" lon="8.0069133"><ele>193.0</ele><time>2026-04-19T12:31:03.017Z</time></trkpt><trkpt lat="45.0024083" lon="8.0068083"><ele>193.0</ele><time>2026-04-19T12:31:04.016Z</time></trkpt><trkpt lat="45.0025467" lon="8.00671"><ele>193.0</ele><time>2026-04-19T12:31:05.016Z</time></trkpt><trkpt lat="45.002675" lon="8.0066117"><ele>193.0</ele><time>2026-04-19T12:31:06.017Z</time></trkpt><trkpt lat="45.0028" lon="8.00652"><ele>193.0</ele><time>2026-04-19T12:31:07.017Z</time></trkpt><trkpt lat="45.0029233" lon="8.0064333"><ele>193.0</ele><time>2026-04-19T12:31:08.017Z</time></trkpt><trkpt lat="45.003025" lon="8.0063233"><ele>193.0</ele><time>2026-04-19T12:31:09.017Z</time></trkpt><trkpt lat="45.0030983" lon="8.006175"><ele>193.0</ele><time>2026-04-19T12:31:10.017Z</time></trkpt><trkpt lat="45.0031117" lon="8.0059867"><ele>193.0</ele><time>2026-04-19T12:31:11.017Z</time></trkpt><trkpt lat="45.0030867" lon="8.00577"><ele>193.0</ele><time>2026-04-19T12:31:12.016Z</time></trkpt><trkpt lat="45.0030367" lon="8.005555"><ele>193.0</ele><time>2026-04-19T12:31:13.017Z</time></trkpt><trkpt lat="45.00298" lon="8.005355"><ele>193.33333333333331</ele><time>2026-04-19T12:31:14.016Z</time></trkpt><trkpt lat="45.00292" lon="8.0051433"><ele>193.66666666666669</ele><time>2026-04-19T12:31:15.017Z</time></trkpt><trkpt lat="45.002865" lon="8.0049317"><ele>194.0</ele><time>2026-04-19T12:31:16.017Z</time></trkpt><trkpt lat="45.0028117" lon="8.004715"><ele>196.0</ele><time>2026-04-19T12:31:17.017Z</time></trkpt><trkpt lat="45.0027533" lon="8.00449"><ele>198.0</ele><time>2026-04-19T12:31:18.017Z</time></trkpt><trkpt lat="45.00269" lon="8.004265"><ele>200.0</ele><time>2026-04-19T12:31:19.016Z</time></trkpt><trkpt lat="45.0026333" lon="8.0040417"><ele>202.0</ele><time>2026-04-19T12:31:20.016Z</time></trkpt><trkpt lat="45.0025717" lon="8.0038183"><ele>204.0</ele><time>2026-04-19T12:31:21.017Z</time></trkpt><trkpt lat="45.00251" lon="8.0036"><ele>206.0</ele><time>2026-04-19T12:31:22.017Z</time></trkpt><trkpt lat="45.0024517" lon="8.0033733"><ele>208.66666666666669</ele><time>2026-04-19T12:31:23.016Z</time></trkpt><trkpt lat="45.0023917" lon="8.00316"><ele>211.33333333333331</ele><time>2026-04-19T12:31:24.017Z</time></trkpt><trkpt lat="45.0023333" lon="8.00294"><ele>214.0</ele><time>2026-04-19T12:31:25.016Z</time></trkpt><trkpt lat="45.0022783" lon="8.0027267"><ele>214.0</ele><time>2026-04-19T12:31:26.016Z</time></trkpt><trkpt lat="45.0022333" lon="8.002505"><ele>214.0</ele><time>2026-04-19T12:31:27.016Z</time></trkpt><trkpt lat="45.0021883" lon="8.0023017"><ele>214.0</ele><time>2026-04-19T12:31:28.017Z</time></trkpt><trkpt lat="45.0021383" lon="8.0020983"><ele>214.0</ele><time>2026-04-19T12:31:29.016Z</time></trkpt><trkpt lat="45.00209" lon="8.0018967"><ele>214.0</ele><time>2026-04-19T12:31:30.016Z</time></trkpt><trkpt lat="45.0020417" lon="8.0016967"><ele>214.0</ele><time>2026-04-19T12:31:31.016Z</time></trkpt><trkpt lat="45.0020167" lon="8.0015"><ele>214.0</ele><time>2026-04-19T12:31:32.016Z</time></trkpt><trkpt lat="45.0020133" lon="8.00131"><ele>214.0</ele><time>2026-04-19T12:31:33.017Z</time></trkpt><trkpt lat="45.0020467" lon="8.0011367"><ele>214.0</ele><time>2026-04-19T12:31:34.016Z</time></trkpt><trkpt lat="45.002115" lon="8.0009733"><ele>214.0</ele><time>2026-04-19T12:31:35.017Z</time></trkpt><trkpt lat="45.0022033" lon="8.00082"><ele>214.0</ele><time>2026-04-19T12:31:36.016Z</time></trkpt><trkpt lat="45.00229" lon="8.0006667"><ele>215.5</ele><time>2026-04-19T12:31:37.016Z</time></trkpt><trkpt lat="45.002365" lon="8.0005033"><ele>217.0</ele><time>2026-04-19T12:31:38.016Z</time></trkpt><trkpt lat="45.00244" lon="8.0003417"><ele>218.5</ele><time>2026-04-19T12:31:39.017Z</time></trkpt><trkpt lat="45.0025117" lon="8.000205"><ele>220.0</ele><time>2026-04-19T12:31:40.016Z</time></trkpt><trkpt lat="45.0025967" lon="8.00009"><ele>220.0</ele><time>2026-04-19T12:31:41.017Z</time></trkpt><trkpt lat="45.0027083" lon="8.0000117"><ele>220.0</ele><time>2026-04-19T12:31:42.016Z</time></trkpt><trkpt lat="45.0028317" lon="7.999995"><ele>220.0</ele><time>2026-04-19T12:31:43.017Z</time></trkpt><trkpt lat="45.002955" lon="8.0000317"><ele>220.0</ele><time>2026-04-19T12:31:44.016Z</time></trkpt><trkpt lat="45.0030517" lon="8.00012"><ele>220.0</ele><time>2026-04-19T12:31:45.016Z</time></trkpt><trkpt lat="45.003125" lon="8.0002533"><ele>220.0</ele><time>2026-04-19T12:31:46.016Z</time></trkpt><trkpt lat="45.00315" lon="8.0004017"><ele>220.0</ele><time>2026-04-19T12:31:47.017Z</time></trkpt><trkpt lat="45.0031183" lon="8.00057"><ele>220.0</ele><time>2026-04-19T12:31:48.017Z</time></trkpt><trkpt lat="45.0030367" lon="8.0007067"><ele>219.99999999999997</ele><time>2026-04-19T12:31:49.017Z</time></trkpt><trkpt lat="45.00298" lon="8.0008317"><ele>220.0</ele><time>2026-04-19T12:31:50.016Z</time></trkpt><trkpt lat="45.0029667" lon="8.00095"><ele>220.0</ele><time>2026-04-19T12:31:51.017Z</time></trkpt><trkpt lat="45.00299" lon="8.0010683"><ele>220.0</ele><time>2026-04-19T12:31:52.017Z</time></trkpt><trkpt lat="45.0030433" lon="8.00115"><ele>219.99999999999997</ele><time>2026-04-19T12:31:53.016Z</time></trkpt><trkpt lat="45.0031133" lon="8.00117"><ele>220.0</ele><time>2026-04-19T12:31:54.017Z</time></trkpt><trkpt lat="45.003195" lon="8.001135"><ele>220.75</ele><time>2026-04-19T12:31:55.016Z</time></trkpt><trkpt lat="45.00329" lon="8.00103"><ele>221.5</ele><time>2026-04-19T12:31:56.017Z</time></trkpt><trkpt lat="45.003395" lon="8.0008883"><ele>222.25</ele><time>2026-04-19T12:31:57.017Z</time></trkpt><trkpt lat="45.0034933" lon="8.0007217"><ele>223.0</ele><time>2026-04-19T12:31:58.016Z</time></trkpt><trkpt lat="45.003575" lon="8.000575"><ele>227.25</ele><time>2026-04-19T12:31:59.017Z</time></trkpt><trkpt lat="45.003645" lon="8.0004433"><ele>231.5</ele><time>2026-04-19T12:32:00.016Z</time></trkpt><trkpt lat="45.0036967" lon="8.0002917"><ele>235.75</ele><time>2026-04-19T12:32:01.017Z</time></trkpt><trkpt lat="45.0037433" lon="8.0001467"><ele>240.0</ele><time>2026-04-19T12:32:02.017Z</time></trkpt><trkpt lat="45.003785" lon="7.999995"><ele>240.0</ele><time>2026-04-19T12:32:03.017Z</time></trkpt><trkpt lat="45.0038283" lon="7.9998383"><ele>240.0</ele><time>2026-04-19T12:32:04.017Z</time></trkpt><trkpt lat="45.0038683" lon="7.9996717"><ele>240.0</ele><time>2026-04-19T12:32:05.016Z</time></trkpt><trkpt lat="45.0039133" lon="7.9995"><ele>240.0</ele><time>2026-04-19T12:32:06.016Z</time></trkpt><trkpt lat="45.0039467" lon="7.999325"><ele>239.75</ele><time>2026-04-19T12:32:07.016Z</time></trkpt><trkpt lat="45.0039867" lon="7.9991483"><ele>239.5</ele><time>2026-04-19T12:32:08.016Z</time></trkpt><trkpt lat="45.0040333" lon="7.998975"><ele>239.25</ele><time>2026-04-19T12:32:09.016Z</time></trkpt><trkpt lat="45.0040667" lon="7.9988017"><ele>239.0</ele><time>2026-04-19T12:32:10.016Z</time></trkpt><trkpt lat="45.0041067" lon="7.9986217"><ele>239.0</ele><time>2026-04-19T12:32:11.016Z</time></trkpt><trkpt lat="45.0041583" lon="7.9984617"><ele>239.0</ele><time>2026-04-19T12:32:12.017Z</time></trkpt><trkpt lat="45.0041883" lon="7.998305"><ele>239.0</ele><time>2026-04-19T12:32:13.016Z</time></trkpt><trkpt lat="45.0042017" lon="7.998155"><ele>239.0</ele><time>2026-04-19T12:32:14.017Z</time></trkpt><trkpt lat="45.0041817" lon="7.9980017"><ele>239.0</ele><time>2026-04-19T12:32:15.016Z</time></trkpt><trkpt lat="45.0041317" lon="7.99785"><ele>239.0</ele><time>2026-04-19T12:32:16.016Z</time></trkpt><trkpt lat="45.004065" lon="7.997695"><ele>239.0</ele><time>2026-04-19T12:32:17.016Z</time></trkpt><trkpt lat="45.0039817" lon="7.997555"><ele>239.0</ele><time>2026-04-19T12:32:18.017Z</time></trkpt><trkpt lat="45.0038667" lon="7.9974283"><ele>241.75</ele><time>2026-04-19T12:32:19.017Z</time></trkpt><trkpt lat="45.0037683" lon="7.9972783"><ele>244.5</ele><time>2026-04-19T12:32:20.017Z</time></trkpt><trkpt lat="45.0036767" lon="7.9971483"><ele>247.25</ele><time>2026-04-19T12:32:21.017Z</time></trkpt><trkpt lat="45.0035867" lon="7.9970317"><ele>250.0</ele><time>2026-04-19T12:32:22.016Z</time></trkpt><trkpt lat="45.0034883" lon="7.9969417"><ele>250.0</ele><time>2026-04-19T12:32:23.016Z</time></trkpt><trkpt lat="45.0034" lon="7.9968883"><ele>250.0</ele><time>2026-04-19T12:32:24.016Z</time></trkpt><trkpt lat="45.0033083" lon="7.9968317"><ele>250.0</ele><time>2026-04-19T12:32:25.016Z</time></trkpt><trkpt lat="45.00324" lon="7.9967467"><ele>250.0</ele><time>2026-04-19T12:32:26.017Z</time></trkpt><trkpt lat="45.0031967" lon="7.9966483"><ele>250.0</ele><time>2026-04-19T12:32:27.016Z</time></trkpt><trkpt lat="45.0031817" lon="7.996525"><ele>252.0</ele><time>2026-04-19T12:32:28.017Z</time></trkpt><trkpt lat="45.0032083" lon="7.9963967"><ele>254.0</ele><time>2026-04-19T12:32:29.017Z</time></trkpt><trkpt lat="45.0032717" lon="7.9962617"><ele>256.0</ele><time>2026-04-19T12:32:30.016Z</time></trkpt><trkpt lat="45.0033783" lon="7.9961117"><ele>258.0</ele><time>2026-04-19T12:32:31.016Z</time></trkpt><trkpt lat="45.0034667" lon="7.9959583"><ele>255.75</ele><time>2026-04-19T12:32:32.017Z</time></trkpt><trkpt lat="45.0035583" lon="7.9958217"><ele>253.5</ele><time>2026-04-19T12:32:33.017Z</time></trkpt><trkpt lat="45.0036567" lon="7.9956917"><ele>251.25</ele><time>2026-04-19T12:32:34.017Z</time></trkpt><trkpt lat="45.003765" lon="7.99559"><ele>249.0</ele><time>2026-04-19T12:32:35.017Z</time></trkpt><trkpt lat="45.0038967" lon="7.9955367"><ele>249.0</ele><time>2026-04-19T12:32:36.017Z</time></trkpt><trkpt lat="45.004045" lon="7.9955167"><ele>249.0</ele><time>2026-04-19T12:32:37.016Z</time></trkpt><trkpt lat="45.00418" lon="7.995505"><ele>249.0</ele><time>2026-04-19T12:32:38.017Z</time></trkpt><trkpt lat="45.0042917" lon="7.99549"><ele>249.0</ele><time>2026-04-19T12:32:39.017Z</time></trkpt><trkpt lat="45.0043883" lon="7.99543"><ele>248.5</ele><time>2026-04-19T12:32:40.017Z</time></trkpt><trkpt lat="45.0044733" lon="7.9953283"><ele>248.0</ele><time>2026-04-19T12:32:41.017Z</time></trkpt><trkpt lat="45.0045267" lon="7.9951783"><ele>247.5</ele><time>2026-04-19T12:32:42.017Z</time></trkpt><trkpt lat="45.0045483" lon="7.99501"><ele>247.0</ele><time>2026-04-19T12:32:43.016Z</time></trkpt><trkpt lat="45.0045433" lon="7.9948167"><ele>247.0</ele><time>2026-04-19T12:32:44.017Z</time></trkpt><trkpt lat="45.004535" lon="7.99461"><ele>247.0</ele><time>2026-04-19T12:32:45.016Z</time></trkpt><trkpt lat="45.0045333" lon="7.9944083"><ele>247.0</ele><time>2026-04-19T12:32:46.016Z</time></trkpt><trkpt lat="45.00454" lon="7.9942183"><ele>247.0</ele><time>2026-04-19T12:32:47.017Z</time></trkpt><trkpt lat="45.0045517" lon="7.9940383"><ele>245.25</ele><time>2026-04-19T12:32:48.017Z</time></trkpt><trkpt lat="45.00457" lon="7.99386"><ele>243.5</ele><time>2026-04-19T12:32:49.017Z</time></trkpt><trkpt lat="45.0045633" lon="7.9936917"><ele>241.75</ele><time>2026-04-19T12:32:50.017Z</time></trkpt><trkpt lat="45.0045317" lon="7.993525"><ele>240.0</ele><time>2026-04-19T12:32:51.017Z</time></trkpt><trkpt lat="45.004475" lon="7.9933617"><ele>238.75</ele><time>2026-04-19T12:32:52.016Z</time></trkpt><trkpt lat="45.0043917" lon="7.9932217"><ele>237.5</ele><time>2026-04-19T12:32:53.016Z</time></trkpt><trkpt lat="45.0043" lon="7.99309"><ele>236.25</ele><time>2026-04-19T12:32:54.017Z</time></trkpt><trkpt lat="45.0042367" lon="7.9929433"><ele>235.0</ele><time>2026-04-19T12:32:55.016Z</time></trkpt><trkpt lat="45.0042033" lon="7.9927933"><ele>235.0</ele><time>2026-04-19T12:32:56.016Z</time></trkpt><trkpt lat="45.004205" lon="7.9926233"><ele>235.0</ele><time>2026-04-19T12:32:57.017Z</time></trkpt><trkpt lat="45.0042183" lon="7.9924733"><ele>235.0</ele><time>2026-04-19T12:32:58.016Z</time></trkpt><trkpt lat="45.0042133" lon="7.99234"><ele>235.0</ele><time>2026-04-19T12:32:59.017Z</time></trkpt><trkpt lat="45.0041767" lon="7.9922233"><ele>235.0</ele><time>2026-04-19T12:33:00.017Z</time></trkpt><trkpt lat="45.00411" lon="7.992135"><ele>232.0</ele><time>2026-04-19T12:33:01.016Z</time></trkpt><trkpt lat="45.0040083" lon="7.992065"><ele>229.0</ele><time>2026-04-19T12:33:02.016Z</time></trkpt><trkpt lat="45.0038867" lon="7.9920033"><ele>226.0</ele><time>2026-04-19T12:33:03.017Z</time></trkpt><trkpt lat="45.00378" lon="7.9919233"><ele>223.0</ele><time>2026-04-19T12:33:04.016Z</time></trkpt><trkpt lat="45.0037017" lon="7.991795"><ele>223.0</ele><time>2026-04-19T12:33:05.016Z</time></trkpt><trkpt lat="45.00366" lon="7.9916283"><ele>223.0</ele><time>2026-04-19T12:33:06.016Z</time></trkpt><trkpt lat="45.0036633" lon="7.991435"><ele>223.0</ele><time>2026-04-19T12:33:07.016Z</time></trkpt><trkpt lat="45.0036717" lon="7.9912267"><ele>223.0</ele><time>2026-04-19T12:33:08.016Z</time></trkpt><trkpt lat="45.003675" lon="7.9910117"><ele>222.5</ele><time>2026-04-19T12:33:09.016Z</time></trkpt><trkpt lat="45.00368" lon="7.9908183"><ele>222.0</ele><time>2026-04-19T12:33:10.016Z</time></trkpt><trkpt lat="45.0037" lon="7.9906283"><ele>221.5</ele><time>2026-04-19T12:33:11.016Z</time></trkpt><trkpt lat="45.0037167" lon="7.99044"><ele>221.0</ele><time>2026-04-19T12:33:12.017Z</time></trkpt><trkpt lat="45.0037483" lon="7.99024"><ele>221.0</ele><time>2026-04-19T12:33:13.017Z</time></trkpt><trkpt lat="45.0038017" lon="7.990055"><ele>221.0</ele><time>2026-04-19T12:33:14.017Z</time></trkpt><trkpt lat="45.003875" lon="7.9898917"><ele>221.0</ele><time>2026-04-19T12:33:15.016Z</time></trkpt><trkpt lat="45.003945" lon="7.9897033"><ele>221.0</ele><time>2026-04-19T12:33:16.016Z</time></trkpt><trkpt lat="45.004025" lon="7.989525"><ele>219.0</ele><time>2026-04-19T12:33:17.017Z</time></trkpt><trkpt lat="45.0041117" lon="7.98933"><ele>217.0</ele><time>2026-04-19T12:33:18.017Z</time></trkpt><trkpt lat="45.0041967" lon="7.9891333"><ele>215.0</ele><time>2026-04-19T12:33:19.017Z</time></trkpt><trkpt lat="45.00428" lon="7.9889283"><ele>215.0</ele><time>2026-04-19T12:33:20.016Z</time></trkpt><trkpt lat="45.0043567" lon="7.9887367"><ele>215.0</ele><time>2026-04-19T12:33:21.016Z</time></trkpt><trkpt lat="45.0044383" lon="7.9885417"><ele>215.0</ele><time>2026-04-19T12:33:22.016Z</time></trkpt><trkpt lat="45.0045117" lon="7.9883517"><ele>213.0</ele><time>2026-04-19T12:33:23.016Z</time></trkpt><trkpt lat="45.004595" lon="7.9881633"><ele>211.0</ele><time>2026-04-19T12:33:24.016Z</time></trkpt><trkpt lat="45.0046817" lon="7.9879717"><ele>209.0</ele><time>2026-04-19T12:33:25.016Z</time></trkpt><trkpt lat="45.0047733" lon="7.98779"><ele>209.0</ele><time>2026-04-19T12:33:26.016Z</time></trkpt><trkpt lat="45.0048883" lon="7.987625"><ele>209.0</ele><time>2026-04-19T12:33:27.017Z</time></trkpt><trkpt lat="45.0050317" lon="7.98748"><ele>209.0</ele><time>2026-04-19T12:33:28.016Z</time></trkpt><trkpt lat="45.0051567" lon="7.987375"><ele>212.0</ele><time>2026-04-19T12:33:29.017Z</time></trkpt><trkpt lat="45.0052883" lon="7.9872717"><ele>215.0</ele><time>2026-04-19T12:33:30.016Z</time></trkpt><trkpt lat="45.0054217" lon="7.9871617"><ele>218.0</ele><time>2026-04-19T12:33:31.016Z</time></trkpt><trkpt lat="45.005555" lon="7.9870467"><ele>218.0</ele><time>2026-04-19T12:33:32.017Z</time></trkpt><trkpt lat="45.0056867" lon="7.9869267"><ele>218.0</ele><time>2026-04-19T12:33:33.016Z</time></trkpt><trkpt lat="45.0058183" lon="7.9868067"><ele>218.0</ele><time>2026-04-19T12:33:34.017Z</time></trkpt><trkpt lat="45.0059517" lon="7.9866983"><ele>218.66666666666669</ele><time>2026-04-19T12:33:35.016Z</time></trkpt><trkpt lat="45.00609" lon="7.986605"><ele>219.33333333333331</ele><time>2026-04-19T12:33:36.015Z</time></trkpt><trkpt lat="45.0062333" lon="7.9865333"><ele>220.0</ele><time>2026-04-19T12:33:37.016Z</time></trkpt><trkpt lat="45.006385" lon="7.98649"><ele>220.0</ele><time>2026-04-19T12:33:38.015Z</time></trkpt><trkpt lat="45.0065317" lon="7.9864517"><ele>220.0</ele><time>2026-04-19T12:33:39.016Z</time></trkpt><trkpt lat="45.0066867" lon="7.9864233"><ele>220.0</ele><time>2026-04-19T12:33:40.015Z</time></trkpt><trkpt lat="45.0068383" lon="7.9863933"><ele>221.0</ele><time>2026-04-19T12:33:41.015Z</time></trkpt><trkpt lat="45.006995" lon="7.9863717"><ele>222.0</ele><time>2026-04-19T12:33:42.016Z</time></trkpt><trkpt lat="45.0071567" lon="7.986345"><ele>223.0</ele><time>2026-04-19T12:33:43.015Z</time></trkpt><trkpt lat="45.007325" lon="7.9863217"><ele>223.0</ele><time>2026-04-19T12:33:44.016Z</time></trkpt><trkpt lat="45.0074867" lon="7.9863017"><ele>223.0</ele><time>2026-04-19T12:33:45.015Z</time></trkpt><trkpt lat="45.00765" lon="7.98628"><ele>223.0</ele><time>2026-04-19T12:33:46.016Z</time></trkpt><trkpt lat="45.0078133" lon="7.98625"><ele>223.33333333333331</ele><time>2026-04-19T12:33:47.015Z</time></trkpt><trkpt lat="45.0079733" lon="7.9862167"><ele>223.66666666666669</ele><time>2026-04-19T12:33:48.016Z</time></trkpt><trkpt lat="45.0081367" lon="7.98618"><ele>224.0</ele><time>2026-04-19T12:33:49.016Z</time></trkpt><trkpt lat="45.0082983" lon="7.98614"><ele>225.0</ele><time>2026-04-19T12:33:50.016Z</time></trkpt><trkpt lat="45.0084633" lon="7.9860933"><ele>226.0</ele><time>2026-04-19T12:33:51.015Z</time></trkpt><trkpt lat="45.0086333" lon="7.9860433"><ele>227.0</ele><time>2026-04-19T12:33:52.015Z</time></trkpt><trkpt lat="45.0087983" lon="7.986005"><ele>227.0</ele><time>2026-04-19T12:33:53.016Z</time></trkpt><trkpt lat="45.0089567" lon="7.9859783"><ele>227.0</ele><time>2026-04-19T12:33:54.015Z</time></trkpt><trkpt lat="45.0091133" lon="7.9859767"><ele>227.0</ele><time>2026-04-19T12:33:55.015Z</time></trkpt><trkpt lat="45.0092767" lon="7.986"><ele>226.33333333333334</ele><time>2026-04-19T12:33:56.015Z</time></trkpt><trkpt lat="45.009435" lon="7.9860567"><ele>225.66666666666669</ele><time>2026-04-19T12:33:57.016Z</time></trkpt><trkpt lat="45.0095967" lon="7.98612"><ele>225.0</ele><time>2026-04-19T12:33:58.015Z</time></trkpt><trkpt lat="45.009755" lon="7.9861883"><ele>225.0</ele><time>2026-04-19T12:33:59.015Z</time></trkpt><trkpt lat="45.0098967" lon="7.9862533"><ele>225.0</ele><time>2026-04-19T12:34:00.015Z</time></trkpt><trkpt lat="45.0100267" lon="7.9863067"><ele>225.0</ele><time>2026-04-19T12:34:01.016Z</time></trkpt><trkpt lat="45.0101467" lon="7.9863467"><ele>225.0</ele><time>2026-04-19T12:34:02.015Z</time></trkpt><trkpt lat="45.0102533" lon="7.9863767"><ele>223.6</ele><time>2026-04-19T12:34:03.016Z</time></trkpt><trkpt lat="45.01035" lon="7.98641"><ele>222.2</ele><time>2026-04-19T12:34:04.016Z</time></trkpt><trkpt lat="45.010425" lon="7.9864883"><ele>220.8</ele><time>2026-04-19T12:34:05.016Z</time></trkpt><trkpt lat="45.0104783" lon="7.9865967"><ele>219.4</ele><time>2026-04-19T12:34:06.015Z</time></trkpt><trkpt lat="45.0105217" lon="7.98673"><ele>218.0</ele><time>2026-04-19T12:34:07.015Z</time></trkpt><trkpt lat="45.0105433" lon="7.9868833"><ele>218.0</ele><time>2026-04-19T12:34:08.015Z</time></trkpt><trkpt lat="45.0105417" lon="7.98705"><ele>218.0</ele><time>2026-04-19T12:34:09.016Z</time></trkpt><trkpt lat="45.0105167" lon="7.9872317"><ele>218.0</ele><time>2026-04-19T12:34:10.015Z</time></trkpt><trkpt lat="45.0104917" lon="7.9874233"><ele>218.0</ele><time>2026-04-19T12:34:11.015Z</time></trkpt><trkpt lat="45.0104683" lon="7.9876317"><ele>219.25</ele><time>2026-04-19T12:34:12.016Z</time></trkpt><trkpt lat="45.0104417" lon="7.9878283"><ele>220.5</ele><time>2026-04-19T12:34:13.015Z</time></trkpt><trkpt lat="45.0104233" lon="7.988035"><ele>221.75</ele><time>2026-04-19T12:34:14.015Z</time></trkpt><trkpt lat="45.010395" lon="7.9882483"><ele>223.0</ele><time>2026-04-19T12:34:15.015Z</time></trkpt><trkpt lat="45.0103733" lon="7.9884567"><ele>224.75</ele><time>2026-04-19T12:34:16.016Z</time></trkpt><trkpt lat="45.0103583" lon="7.9886817"><ele>226.5</ele><time>2026-04-19T12:34:17.015Z</time></trkpt><trkpt lat="45.0103317" lon="7.9888883"><ele>228.25</ele><time>2026-04-19T12:34:18.015Z</time></trkpt><trkpt lat="45.010285" lon="7.989065"><ele>230.0</ele><time>2026-04-19T12:34:19.016Z</time></trkpt><trkpt lat="45.0102167" lon="7.9892067"><ele>233.75</ele><time>2026-04-19T12:34:20.016Z</time></trkpt><trkpt lat="45.01012" lon="7.9893083"><ele>237.5</ele><time>2026-04-19T12:34:21.016Z</time></trkpt><trkpt lat="45.009995" lon="7.9893917"><ele>241.25</ele><time>2026-04-19T12:34:22.015Z</time></trkpt><trkpt lat="45.00988" lon="7.9894533"><ele>245.0</ele><time>2026-04-19T12:34:23.016Z</time></trkpt><trkpt lat="45.009795" lon="7.98952"><ele>245.0</ele><time>2026-04-19T12:34:24.016Z</time></trkpt><trkpt lat="45.0097533" lon="7.9896133"><ele>245.0</ele><time>2026-04-19T12:34:25.015Z</time></trkpt><trkpt lat="45.0097483" lon="7.98971"><ele>245.0</ele><time>2026-04-19T12:34:26.015Z</time></trkpt><trkpt lat="45.0098317" lon="7.9898383"><ele>245.0</ele><time>2026-04-19T12:34:28.016Z</time></trkpt><trkpt lat="45.0099267" lon="7.98988"><ele>245.0</ele><time>2026-04-19T12:34:29.015Z</time></trkpt><trkpt lat="45.0100633" lon="7.9899067"><ele>245.0</ele><time>2026-04-19T12:34:30.016Z</time></trkpt><trkpt lat="45.010235" lon="7.9899167"><ele>245.0</ele><time>2026-04-19T12:34:31.016Z</time></trkpt><trkpt lat="45.0103983" lon="7.9899317"><ele>245.0</ele><time>2026-04-19T12:34:32.016Z</time></trkpt><trkpt lat="45.0105467" lon="7.9899517"><ele>245.0</ele><time>2026-04-19T12:34:33.016Z</time></trkpt><trkpt lat="45.0106817" lon="7.9899733"><ele>245.0</ele><time>2026-04-19T12:34:34.015Z</time></trkpt><trkpt lat="45.0108117" lon="7.9899967"><ele>245.0</ele><time>2026-04-19T12:34:35.015Z</time></trkpt><trkpt lat="45.0109417" lon="7.9900067"><ele>245.0</ele><time>2026-04-19T12:34:36.015Z</time></trkpt><trkpt lat="45.01108" lon="7.9900167"><ele>246.75</ele><time>2026-04-19T12:34:37.016Z</time></trkpt><trkpt lat="45.0112267" lon="7.9900333"><ele>248.5</ele><time>2026-04-19T12:34:38.016Z</time></trkpt><trkpt lat="45.0113617" lon="7.9900383"><ele>250.25</ele><time>2026-04-19T12:34:39.015Z</time></trkpt><trkpt lat="45.0115" lon="7.9900633"><ele>252.0</ele><time>2026-04-19T12:34:40.016Z</time></trkpt><trkpt lat="45.0116517" lon="7.99009"><ele>253.0</ele><time>2026-04-19T12:34:41.016Z</time></trkpt><trkpt lat="45.0117883" lon="7.990145"><ele>254.0</ele><time>2026-04-19T12:34:42.016Z</time></trkpt><trkpt lat="45.0119317" lon="7.9902033"><ele>255.0</ele><time>2026-04-19T12:34:43.016Z</time></trkpt><trkpt lat="45.0120717" lon="7.9902517"><ele>256.0</ele><time>2026-04-19T12:34:44.016Z</time></trkpt><trkpt lat="45.0122117" lon="7.990315"><ele>256.0</ele><time>2026-04-19T12:34:45.015Z</time></trkpt><trkpt lat="45.01235" lon="7.9904083"><ele>256.0</ele><time>2026-04-19T12:34:46.016Z</time></trkpt><trkpt lat="45.01248" lon="7.99053"><ele>256.0</ele><time>2026-04-19T12:34:47.015Z</time></trkpt><trkpt lat="45.012595" lon="7.99068"><ele>258.66666666666663</ele><time>2026-04-19T12:34:48.015Z</time></trkpt><trkpt lat="45.0126983" lon="7.9908483"><ele>261.3333333333333</ele><time>2026-04-19T12:34:49.015Z</time></trkpt><trkpt lat="45.012785" lon="7.9910317"><ele>264.0</ele><time>2026-04-19T12:34:50.015Z</time></trkpt><trkpt lat="45.0128667" lon="7.9912167"><ele>264.0</ele><time>2026-04-19T12:34:51.016Z</time></trkpt><trkpt lat="45.0129533" lon="7.9914033"><ele>264.0</ele><time>2026-04-19T12:34:52.016Z</time></trkpt><trkpt lat="45.0130283" lon="7.9915933"><ele>264.0</ele><time>2026-04-19T12:34:53.015Z</time></trkpt><trkpt lat="45.0131233" lon="7.9917567"><ele>263.5</ele><time>2026-04-19T12:34:54.016Z</time></trkpt><trkpt lat="45.013225" lon="7.9918933"><ele>263.0</ele><time>2026-04-19T12:34:55.016Z</time></trkpt><trkpt lat="45.0133367" lon="7.9920217"><ele>262.5</ele><time>2026-04-19T12:34:56.016Z</time></trkpt><trkpt lat="45.0134617" lon="7.992125"><ele>262.0</ele><time>2026-04-19T12:34:57.015Z</time></trkpt><trkpt lat="45.0135917" lon="7.99221"><ele>262.0</ele><time>2026-04-19T12:34:58.015Z</time></trkpt><trkpt lat="45.013735" lon="7.9922733"><ele>262.0</ele><time>2026-04-19T12:34:59.015Z</time></trkpt><trkpt lat="45.0138833" lon="7.9923267"><ele>262.0</ele><time>2026-04-19T12:35:00.016Z</time></trkpt><trkpt lat="45.014035" lon="7.9923733"><ele>263.66666666666663</ele><time>2026-04-19T12:35:01.015Z</time></trkpt><trkpt lat="45.0141983" lon="7.9923983"><ele>265.3333333333333</ele><time>2026-04-19T12:35:02.016Z</time></trkpt><trkpt lat="45.0143633" lon="7.9924367"><ele>267.0</ele><time>2026-04-19T12:35:03.015Z</time></trkpt><trkpt lat="45.01452" lon="7.992485"><ele>265.0</ele><time>2026-04-19T12:35:04.016Z</time></trkpt><trkpt lat="45.0146717" lon="7.99253"><ele>263.0</ele><time>2026-04-19T12:35:05.016Z</time></trkpt><trkpt lat="45.0148267" lon="7.9925733"><ele>261.0</ele><time>2026-04-19T12:35:06.015Z</time></trkpt><trkpt lat="45.0149767" lon="7.9926333"><ele>262.6666666666667</ele><time>2026-04-19T12:35:07.016Z</time></trkpt><trkpt lat="45.015125" lon="7.9926767"><ele>264.33333333333337</ele><time>2026-04-19T12:35:08.016Z</time></trkpt><trkpt lat="45.0152767" lon="7.992715"><ele>266.0</ele><time>2026-04-19T12:35:09.016Z</time></trkpt><trkpt lat="45.0154267" lon="7.9927333"><ele>266.0</ele><time>2026-04-19T12:35:10.016Z</time></trkpt><trkpt lat="45.0155717" lon="7.9927533"><ele>266.0</ele><time>2026-04-19T12:35:11.015Z</time></trkpt><trkpt lat="45.015715" lon="7.9927467"><ele>266.0</ele><time>2026-04-19T12:35:12.016Z</time></trkpt><trkpt lat="45.015875" lon="7.9927233"><ele>267.33333333333337</ele><time>2026-04-19T12:35:13.015Z</time></trkpt><trkpt lat="45.016035" lon="7.9926983"><ele>268.6666666666667</ele><time>2026-04-19T12:35:14.015Z</time></trkpt><trkpt lat="45.0161933" lon="7.992655"><ele>270.0</ele><time>2026-04-19T12:35:15.015Z</time></trkpt><trkpt lat="45.0163533" lon="7.9925933"><ele>270.0</ele><time>2026-04-19T12:35:16.015Z</time></trkpt><trkpt lat="45.0164983" lon="7.9925017"><ele>270.0</ele><time>2026-04-19T12:35:17.015Z</time></trkpt><trkpt lat="45.016645" lon="7.9924017"><ele>270.0</ele><time>2026-04-19T12:35:18.016Z</time></trkpt><trkpt lat="45.01679" lon="7.992285"><ele>270.0</ele><time>2026-04-19T12:35:19.016Z</time></trkpt><trkpt lat="45.0169417" lon="7.9921683"><ele>270.0</ele><time>2026-04-19T12:35:20.015Z</time></trkpt><trkpt lat="45.0170833" lon="7.992055"><ele>270.0</ele><time>2026-04-19T12:35:21.016Z</time></trkpt><trkpt lat="45.017225" lon="7.9919367"><ele>270.0</ele><time>2026-04-19T12:35:22.016Z</time></trkpt><trkpt lat="45.0173633" lon="7.99181"><ele>270.0</ele><time>2026-04-19T12:35:23.015Z</time></trkpt><trkpt lat="45.017495" lon="7.9916783"><ele>270.0</ele><time>2026-04-19T12:35:24.015Z</time></trkpt><trkpt lat="45.0176217" lon="7.9915333"><ele>268.6666666666667</ele><time>2026-04-19T12:35:25.015Z</time></trkpt><trkpt lat="45.0177283" lon="7.99137"><ele>267.33333333333337</ele><time>2026-04-19T12:35:26.015Z</time></trkpt><trkpt lat="45.01783" lon="7.9911867"><ele>266.0</ele><time>2026-04-19T12:35:27.016Z</time></trkpt><trkpt lat="45.017915" lon="7.9909883"><ele>265.33333333333337</ele><time>2026-04-19T12:35:28.015Z</time></trkpt><trkpt lat="45.018" lon="7.9907867"><ele>264.6666666666667</ele><time>2026-04-19T12:35:29.016Z</time></trkpt><trkpt lat="45.01808" lon="7.99058"><ele>264.0</ele><time>2026-04-19T12:35:30.016Z</time></trkpt><trkpt lat="45.018165" lon="7.9903783"><ele>264.0</ele><time>2026-04-19T12:35:31.015Z</time></trkpt><trkpt lat="45.018245" lon="7.9901717"><ele>264.0</ele><time>2026-04-19T12:35:32.016Z</time></trkpt><trkpt lat="45.01832" lon="7.9899667"><ele>264.0</ele><time>2026-04-19T12:35:33.016Z</time></trkpt><trkpt lat="45.0183817" lon="7.989775"><ele>266.0</ele><time>2026-04-19T12:35:34.016Z</time></trkpt><trkpt lat="45.018455" lon="7.98958"><ele>268.0</ele><time>2026-04-19T12:35:35.015Z</time></trkpt><trkpt lat="45.0185217" lon="7.9893833"><ele>270.0</ele><time>2026-04-19T12:35:36.015Z</time></trkpt><trkpt lat="45.0185883" lon="7.98918"><ele>271.6666666666667</ele><time>2026-04-19T12:35:37.016Z</time></trkpt><trkpt lat="45.0186617" lon="7.98897"><ele>273.33333333333337</ele><time>2026-04-19T12:35:38.016Z</time></trkpt><trkpt lat="45.0187283" lon="7.9887617"><ele>275.0</ele><time>2026-04-19T12:35:39.015Z</time></trkpt><trkpt lat="45.0187983" lon="7.9885517"><ele>275.0</ele><time>2026-04-19T12:35:40.015Z</time></trkpt><trkpt lat="45.0188817" lon="7.988345"><ele>275.0</ele><time>2026-04-19T12:35:41.016Z</time></trkpt><trkpt lat="45.0189917" lon="7.9881683"><ele>275.0</ele><time>2026-04-19T12:35:42.015Z</time></trkpt><trkpt lat="45.0191117" lon="7.98801"><ele>274.6666666666667</ele><time>2026-04-19T12:35:43.016Z</time></trkpt><trkpt lat="45.0192483" lon="7.9878783"><ele>274.3333333333333</ele><time>2026-04-19T12:35:44.016Z</time></trkpt><trkpt lat="45.0193833" lon="7.9877767"><ele>274.0</ele><time>2026-04-19T12:35:45.015Z</time></trkpt><trkpt lat="45.0195367" lon="7.98769"><ele>274.0</ele><time>2026-04-19T12:35:46.015Z</time></trkpt><trkpt lat="45.0196867" lon="7.9876517"><ele>274.0</ele><time>2026-04-19T12:35:47.015Z</time></trkpt><trkpt lat="45.0198367" lon="7.9876533"><ele>274.0</ele><time>2026-04-19T12:35:48.016Z</time></trkpt><trkpt lat="45.0199883" lon="7.9876883"><ele>274.3333333333333</ele><time>2026-04-19T12:35:49.015Z</time></trkpt><trkpt lat="45.020135" lon="7.9877633"><ele>274.6666666666667</ele><time>2026-04-19T12:35:50.016Z</time></trkpt><trkpt lat="45.0202833" lon="7.9878333"><ele>275.0</ele><time>2026-04-19T12:35:51.016Z</time></trkpt><trkpt lat="45.0204267" lon="7.987905"><ele>275.0</ele><time>2026-04-19T12:35:52.015Z</time></trkpt><trkpt lat="45.020565" lon="7.98797"><ele>275.0</ele><time>2026-04-19T12:35:53.016Z</time></trkpt><trkpt lat="45.0207033" lon="7.988055"><ele>275.0</ele><time>2026-04-19T12:35:54.016Z</time></trkpt><trkpt lat="45.0208567" lon="7.988115"><ele>274.6666666666667</ele><time>2026-04-19T12:35:55.016Z</time></trkpt><trkpt lat="45.0210083" lon="7.9881567"><ele>274.3333333333333</ele><time>2026-04-19T12:35:56.016Z</time></trkpt><trkpt lat="45.0211583" lon="7.98815"><ele>274.0</ele><time>2026-04-19T12:35:57.016Z</time></trkpt><trkpt lat="45.0213083" lon="7.9880983"><ele>274.0</ele><time>2026-04-19T12:35:58.016Z</time></trkpt><trkpt lat="45.021425" lon="7.9880583"><ele>274.0</ele><time>2026-04-19T12:35:59.015Z</time></trkpt><trkpt lat="45.0215783" lon="7.987975"><ele>274.0</ele><time>2026-04-19T12:36:00.015Z</time></trkpt><trkpt lat="45.0217283" lon="7.98791"><ele>274.0</ele><time>2026-04-19T12:36:01.015Z</time></trkpt><trkpt lat="45.021875" lon="7.9878417"><ele>272.0</ele><time>2026-04-19T12:36:02.015Z</time></trkpt><trkpt lat="45.0220067" lon="7.987785"><ele>270.0</ele><time>2026-04-19T12:36:03.015Z</time></trkpt><trkpt lat="45.0221367" lon="7.9877667"><ele>268.0</ele><time>2026-04-19T12:36:04.015Z</time></trkpt><trkpt lat="45.0222617" lon="7.9877833"><ele>266.0</ele><time>2026-04-19T12:36:05.015Z</time></trkpt><trkpt lat="45.022385" lon="7.9878383"><ele>263.6666666666667</ele><time>2026-04-19T12:36:06.015Z</time></trkpt><trkpt lat="45.02251" lon="7.987925"><ele>261.3333333333333</ele><time>2026-04-19T12:36:07.015Z</time></trkpt><trkpt lat="45.0226483" lon="7.98801"><ele>259.0</ele><time>2026-04-19T12:36:08.016Z</time></trkpt><trkpt lat="45.0227917" lon="7.98811"><ele>259.0</ele><time>2026-04-19T12:36:09.015Z</time></trkpt><trkpt lat="45.0229383" lon="7.9882083"><ele>259.0</ele><time>2026-04-19T12:36:10.015Z</time></trkpt><trkpt lat="45.0230917" lon="7.988295"><ele>259.0</ele><time>2026-04-19T12:36:11.016Z</time></trkpt><trkpt lat="45.023245" lon="7.9883683"><ele>256.0</ele><time>2026-04-19T12:36:12.016Z</time></trkpt><trkpt lat="45.023395" lon="7.9884383"><ele>253.0</ele><time>2026-04-19T12:36:13.016Z</time></trkpt><trkpt lat="45.02354" lon="7.9885183"><ele>250.0</ele><time>2026-04-19T12:36:14.016Z</time></trkpt><trkpt lat="45.0236867" lon="7.9885967"><ele>250.0</ele><time>2026-04-19T12:36:15.015Z</time></trkpt><trkpt lat="45.0238183" lon="7.9886783"><ele>250.0</ele><time>2026-04-19T12:36:16.016Z</time></trkpt><trkpt lat="45.0239383" lon="7.9887717"><ele>250.0</ele><time>2026-04-19T12:36:17.016Z</time></trkpt><trkpt lat="45.024055" lon="7.9888867"><ele>250.0</ele><time>2026-04-19T12:36:18.015Z</time></trkpt><trkpt lat="45.0241633" lon="7.9890083"><ele>251.25</ele><time>2026-04-19T12:36:19.016Z</time></trkpt><trkpt lat="45.0242617" lon="7.9891083"><ele>252.5</ele><time>2026-04-19T12:36:20.015Z</time></trkpt><trkpt lat="45.0243533" lon="7.9891933"><ele>253.75</ele><time>2026-04-19T12:36:21.015Z</time></trkpt><trkpt lat="45.0244533" lon="7.9892283"><ele>255.0</ele><time>2026-04-19T12:36:22.016Z</time></trkpt><trkpt lat="45.0245733" lon="7.9892083"><ele>257.75</ele><time>2026-04-19T12:36:23.015Z</time></trkpt><trkpt lat="45.0246917" lon="7.9891367"><ele>260.5</ele><time>2026-04-19T12:36:24.015Z</time></trkpt><trkpt lat="45.0248133" lon="7.9890617"><ele>263.25</ele><time>2026-04-19T12:36:25.015Z</time></trkpt><trkpt lat="45.02493" lon="7.98896"><ele>266.0</ele><time>2026-04-19T12:36:26.015Z</time></trkpt><trkpt lat="45.0250567" lon="7.98886"><ele>267.0</ele><time>2026-04-19T12:36:27.015Z</time></trkpt><trkpt lat="45.025175" lon="7.98875"><ele>268.0</ele><time>2026-04-19T12:36:28.015Z</time></trkpt><trkpt lat="45.0252933" lon="7.98863"><ele>269.0</ele><time>2026-04-19T12:36:29.015Z</time></trkpt><trkpt lat="45.0254" lon="7.9884967"><ele>270.0</ele><time>2026-04-19T12:36:30.015Z</time></trkpt><trkpt lat="45.0255" lon="7.9883333"><ele>273.0</ele><time>2026-04-19T12:36:31.015Z</time></trkpt><trkpt lat="45.025585" lon="7.9881567"><ele>276.0</ele><time>2026-04-19T12:36:32.015Z</time></trkpt><trkpt lat="45.0256667" lon="7.98797"><ele>279.0</ele><time>2026-04-19T12:36:33.015Z</time></trkpt><trkpt lat="45.025745" lon="7.9877817"><ele>276.6666666666667</ele><time>2026-04-19T12:36:34.015Z</time></trkpt><trkpt lat="45.0258617" lon="7.987625"><ele>274.33333333333337</ele><time>2026-04-19T12:36:35.016Z</time></trkpt><trkpt lat="45.0259933" lon="7.98748"><ele>272.0</ele><time>2026-04-19T12:36:36.015Z</time></trkpt><trkpt lat="45.0261333" lon="7.9873683"><ele>272.0</ele><time>2026-04-19T12:36:37.016Z</time></trkpt><trkpt lat="45.02628" lon="7.9872533"><ele>272.0</ele><time>2026-04-19T12:36:38.016Z</time></trkpt><trkpt lat="45.0264283" lon="7.9871683"><ele>272.0</ele><time>2026-04-19T12:36:39.015Z</time></trkpt><trkpt lat="45.0265733" lon="7.9870883"><ele>269.6666666666667</ele><time>2026-04-19T12:36:40.016Z</time></trkpt><trkpt lat="45.026715" lon="7.9870033"><ele>267.3333333333333</ele><time>2026-04-19T12:36:41.015Z</time></trkpt><trkpt lat="45.026865" lon="7.9869317"><ele>265.0</ele><time>2026-04-19T12:36:42.016Z</time></trkpt><trkpt lat="45.027025" lon="7.98688"><ele>265.0</ele><time>2026-04-19T12:36:43.015Z</time></trkpt><trkpt lat="45.0271817" lon="7.9868483"><ele>265.0</ele><time>2026-04-19T12:36:44.015Z</time></trkpt><trkpt lat="45.0273367" lon="7.98686"><ele>265.0</ele><time>2026-04-19T12:36:45.015Z</time></trkpt><trkpt lat="45.0274917" lon="7.9869"><ele>265.0</ele><time>2026-04-19T12:36:46.015Z</time></trkpt><trkpt lat="45.027635" lon="7.9869667"><ele>265.0</ele><time>2026-04-19T12:36:47.016Z</time></trkpt><trkpt lat="45.02778" lon="7.9870367"><ele>265.0</ele><time>2026-04-19T12:36:48.015Z</time></trkpt><trkpt lat="45.0279333" lon="7.9871033"><ele>265.0</ele><time>2026-04-19T12:36:49.015Z</time></trkpt><trkpt lat="45.0280767" lon="7.9871817"><ele>265.0</ele><time>2026-04-19T12:36:50.015Z</time></trkpt><trkpt lat="45.0282267" lon="7.9872533"><ele>265.0</ele><time>2026-04-19T12:36:51.015Z</time></trkpt><trkpt lat="45.0283767" lon="7.98729"><ele>267.0</ele><time>2026-04-19T12:36:52.015Z</time></trkpt><trkpt lat="45.0285317" lon="7.9873033"><ele>269.0</ele><time>2026-04-19T12:36:53.015Z</time></trkpt><trkpt lat="45.0286917" lon="7.9872867"><ele>271.0</ele><time>2026-04-19T12:36:54.015Z</time></trkpt><trkpt lat="45.0288467" lon="7.987265"><ele>271.0</ele><time>2026-04-19T12:36:55.015Z</time></trkpt><trkpt lat="45.0290067" lon="7.9872333"><ele>271.0</ele><time>2026-04-19T12:36:56.016Z</time></trkpt><trkpt lat="45.029165" lon="7.9871867"><ele>271.0</ele><time>2026-04-19T12:36:57.016Z</time></trkpt><trkpt lat="45.02932" lon="7.9871333"><ele>270.66666666666663</ele><time>2026-04-19T12:36:58.015Z</time></trkpt><trkpt lat="45.02948" lon="7.9870633"><ele>270.3333333333333</ele><time>2026-04-19T12:36:59.016Z</time></trkpt><trkpt lat="45.029625" lon="7.9869817"><ele>270.0</ele><time>2026-04-19T12:37:00.016Z</time></trkpt><trkpt lat="45.0297683" lon="7.9868717"><ele>270.0</ele><time>2026-04-19T12:37:01.016Z</time></trkpt><trkpt lat="45.029905" lon="7.98676"><ele>270.0</ele><time>2026-04-19T12:37:02.016Z</time></trkpt><trkpt lat="45.0300467" lon="7.9866633"><ele>270.0</ele><time>2026-04-19T12:37:03.015Z</time></trkpt><trkpt lat="45.0301833" lon="7.98658"><ele>271.0</ele><time>2026-04-19T12:37:04.016Z</time></trkpt><trkpt lat="45.0303233" lon="7.986515"><ele>272.0</ele><time>2026-04-19T12:37:05.016Z</time></trkpt><trkpt lat="45.03045" lon="7.9864417"><ele>273.0</ele><time>2026-04-19T12:37:06.016Z</time></trkpt><trkpt lat="45.0305583" lon="7.9863167"><ele>274.0</ele><time>2026-04-19T12:37:07.015Z</time></trkpt><trkpt lat="45.0306583" lon="7.986155"><ele>274.0</ele><time>2026-04-19T12:37:08.016Z</time></trkpt><trkpt lat="45.030735" lon="7.98598"><ele>274.0</ele><time>2026-04-19T12:37:09.015Z</time></trkpt><trkpt lat="45.0308317" lon="7.9858033"><ele>274.0</ele><time>2026-04-19T12:37:10.015Z</time></trkpt><trkpt lat="45.030945" lon="7.985645"><ele>273.0</ele><time>2026-04-19T12:37:11.015Z</time></trkpt><trkpt lat="45.031075" lon="7.9855117"><ele>272.0</ele><time>2026-04-19T12:37:12.015Z</time></trkpt><trkpt lat="45.031225" lon="7.9853867"><ele>271.0</ele><time>2026-04-19T12:37:13.015Z</time></trkpt><trkpt lat="45.0313667" lon="7.9852733"><ele>271.0</ele><time>2026-04-19T12:37:14.016Z</time></trkpt><trkpt lat="45.0315083" lon="7.9851517"><ele>271.0</ele><time>2026-04-19T12:37:15.015Z</time></trkpt><trkpt lat="45.031645" lon="7.98503"><ele>271.0</ele><time>2026-04-19T12:37:16.015Z</time></trkpt><trkpt lat="45.0317783" lon="7.9849133"><ele>271.3333333333333</ele><time>2026-04-19T12:37:17.015Z</time></trkpt><trkpt lat="45.0319167" lon="7.984775"><ele>271.6666666666667</ele><time>2026-04-19T12:37:18.016Z</time></trkpt><trkpt lat="45.0320417" lon="7.9846633"><ele>272.0</ele><time>2026-04-19T12:37:19.016Z</time></trkpt><trkpt lat="45.03218" lon="7.984565"><ele>272.0</ele><time>2026-04-19T12:37:20.015Z</time></trkpt><trkpt lat="45.0323333" lon="7.9845033"><ele>272.0</ele><time>2026-04-19T12:37:21.015Z</time></trkpt><trkpt lat="45.0324883" lon="7.9844783"><ele>272.0</ele><time>2026-04-19T12:37:22.015Z</time></trkpt><trkpt lat="45.032645" lon="7.9844733"><ele>272.0</ele><time>2026-04-19T12:37:23.016Z</time></trkpt><trkpt lat="45.032805" lon="7.984485"><ele>272.0</ele><time>2026-04-19T12:37:24.016Z</time></trkpt><trkpt lat="45.0329617" lon="7.9845333"><ele>272.0</ele><time>2026-04-19T12:37:25.016Z</time></trkpt><trkpt lat="45.0330867" lon="7.9846317"><ele>272.0</ele><time>2026-04-19T12:37:26.015Z</time></trkpt><trkpt lat="45.0332133" lon="7.9847567"><ele>272.0</ele><time>2026-04-19T12:37:27.016Z</time></trkpt><trkpt lat="45.03334" lon="7.9848667"><ele>272.0</ele><time>2026-04-19T12:37:28.015Z</time></trkpt><trkpt lat="45.0334633" lon="7.984975"><ele>272.0</ele><time>2026-04-19T12:37:29.016Z</time></trkpt><trkpt lat="45.0336" lon="7.985065"><ele>272.5</ele><time>2026-04-19T12:37:30.015Z</time></trkpt><trkpt lat="45.0337383" lon="7.985125"><ele>273.0</ele><time>2026-04-19T12:37:31.016Z</time></trkpt><trkpt lat="45.0338783" lon="7.9851583"><ele>273.5</ele><time>2026-04-19T12:37:32.016Z</time></trkpt><trkpt lat="45.0340267" lon="7.98516"><ele>274.0</ele><time>2026-04-19T12:37:33.016Z</time></trkpt><trkpt lat="45.0341683" lon="7.9851383"><ele>276.0</ele><time>2026-04-19T12:37:34.015Z</time></trkpt><trkpt lat="45.03431" lon="7.98507"><ele>278.0</ele><time>2026-04-19T12:37:35.016Z</time></trkpt><trkpt lat="45.034445" lon="7.98497"><ele>280.0</ele><time>2026-04-19T12:37:36.016Z</time></trkpt><trkpt lat="45.0345733" lon="7.9848867"><ele>282.0</ele><time>2026-04-19T12:37:37.015Z</time></trkpt><trkpt lat="45.0346917" lon="7.9848233"><ele>281.75</ele><time>2026-04-19T12:37:38.016Z</time></trkpt><trkpt lat="45.0348167" lon="7.9848067"><ele>281.5</ele><time>2026-04-19T12:37:39.015Z</time></trkpt><trkpt lat="45.0349483" lon="7.98482"><ele>281.25</ele><time>2026-04-19T12:37:40.016Z</time></trkpt><trkpt lat="45.0350783" lon="7.9848717"><ele>281.0</ele><time>2026-04-19T12:37:41.015Z</time></trkpt><trkpt lat="45.0352217" lon="7.9849283"><ele>281.0</ele><time>2026-04-19T12:37:42.016Z</time></trkpt><trkpt lat="45.0353567" lon="7.9849733"><ele>281.0</ele><time>2026-04-19T12:37:43.016Z</time></trkpt><trkpt lat="45.03547" lon="7.985035"><ele>281.0</ele><time>2026-04-19T12:37:44.016Z</time></trkpt><trkpt lat="45.03557" lon="7.9851217"><ele>281.0</ele><time>2026-04-19T12:37:45.015Z</time></trkpt><trkpt lat="45.0356517" lon="7.985255"><ele>280.25</ele><time>2026-04-19T12:37:46.015Z</time></trkpt><trkpt lat="45.035725" lon="7.9854033"><ele>279.5</ele><time>2026-04-19T12:37:47.015Z</time></trkpt><trkpt lat="45.0358117" lon="7.9855433"><ele>278.75</ele><time>2026-04-19T12:37:48.016Z</time></trkpt><trkpt lat="45.0359267" lon="7.985655"><ele>278.0</ele><time>2026-04-19T12:37:49.016Z</time></trkpt><trkpt lat="45.0360533" lon="7.9857083"><ele>280.6666666666667</ele><time>2026-04-19T12:37:50.015Z</time></trkpt><trkpt lat="45.0362017" lon="7.9857383"><ele>283.3333333333333</ele><time>2026-04-19T12:37:51.015Z</time></trkpt><trkpt lat="45.0363617" lon="7.9857267"><ele>286.0</ele><time>2026-04-19T12:37:52.015Z</time></trkpt><trkpt lat="45.0365217" lon="7.9856983"><ele>288.0</ele><time>2026-04-19T12:37:53.016Z</time></trkpt><trkpt lat="45.03668" lon="7.9857033"><ele>290.0</ele><time>2026-04-19T12:37:54.016Z</time></trkpt><trkpt lat="45.0368383" lon="7.985715"><ele>292.0</ele><time>2026-04-19T12:37:55.016Z</time></trkpt><trkpt lat="45.036975" lon="7.98569"><ele>292.0</ele><time>2026-04-19T12:37:56.016Z</time></trkpt><trkpt lat="45.0371117" lon="7.9856167"><ele>292.0</ele><time>2026-04-19T12:37:57.016Z</time></trkpt><trkpt lat="45.037225" lon="7.9854733"><ele>292.0</ele><time>2026-04-19T12:37:58.016Z</time></trkpt><trkpt lat="45.0373483" lon="7.9853283"><ele>293.25</ele><time>2026-04-19T12:37:59.016Z</time></trkpt><trkpt lat="45.0374733" lon="7.9852133"><ele>294.5</ele><time>2026-04-19T12:38:00.016Z</time></trkpt><trkpt lat="45.0376067" lon="7.9851417"><ele>295.75</ele><time>2026-04-19T12:38:01.016Z</time></trkpt><trkpt lat="45.0377433" lon="7.985095"><ele>297.0</ele><time>2026-04-19T12:38:02.016Z</time></trkpt><trkpt lat="45.037895" lon="7.98508"><ele>297.0</ele><time>2026-04-19T12:38:03.015Z</time></trkpt><trkpt lat="45.0380483" lon="7.9851033"><ele>297.0</ele><time>2026-04-19T12:38:04.016Z</time></trkpt><trkpt lat="45.0381967" lon="7.9850867"><ele>297.0</ele><time>2026-04-19T12:38:05.015Z</time></trkpt><trkpt lat="45.0383383" lon="7.9850083"><ele>294.3333333333333</ele><time>2026-04-19T12:38:06.015Z</time></trkpt><trkpt lat="45.038465" lon="7.9848883"><ele>291.66666666666663</ele><time>2026-04-19T12:38:07.016Z</time></trkpt><trkpt lat="45.0385867" lon="7.9847533"><ele>289.0</ele><time>2026-04-19T12:38:08.015Z</time></trkpt><trkpt lat="45.0387033" lon="7.984625"><ele>289.0</ele><time>2026-04-19T12:38:09.015Z</time></trkpt><trkpt lat="45.03884" lon="7.98452"><ele>289.0</ele><time>2026-04-19T12:38:10.015Z</time></trkpt><trkpt lat="45.03897" lon="7.9844217"><ele>289.0</ele><time>2026-04-19T12:38:11.016Z</time></trkpt><trkpt lat="45.0391233" lon="7.98432"><ele>288.66666666666663</ele><time>2026-04-19T12:38:12.015Z</time></trkpt><trkpt lat="45.0392683" lon="7.9842167"><ele>288.3333333333333</ele><time>2026-04-19T12:38:13.016Z</time></trkpt><trkpt lat="45.039405" lon="7.9841017"><ele>288.0</ele><time>2026-04-19T12:38:14.015Z</time></trkpt><trkpt lat="45.0395483" lon="7.9839783"><ele>290.3333333333333</ele><time>2026-04-19T12:38:15.015Z</time></trkpt><trkpt lat="45.039695" lon="7.983865"><ele>292.66666666666663</ele><time>2026-04-19T12:38:16.016Z</time></trkpt><trkpt lat="45.039845" lon="7.98375"><ele>295.0</ele><time>2026-04-19T12:38:17.016Z</time></trkpt><trkpt lat="45.039995" lon="7.983635"><ele>295.0</ele><time>2026-04-19T12:38:18.016Z</time></trkpt><trkpt lat="45.0401317" lon="7.9835217"><ele>295.0</ele><time>2026-04-19T12:38:19.016Z</time></trkpt><trkpt lat="45.0402717" lon="7.9834033"><ele>295.0</ele><time>2026-04-19T12:38:20.016Z</time></trkpt><trkpt lat="45.040405" lon="7.9833083"><ele>294.5</ele><time>2026-04-19T12:38:21.015Z</time></trkpt><trkpt lat="45.0405417" lon="7.9832283"><ele>294.0</ele><time>2026-04-19T12:38:22.015Z</time></trkpt><trkpt lat="45.0406817" lon="7.983165"><ele>293.5</ele><time>2026-04-19T12:38:23.016Z</time></trkpt><trkpt lat="45.040805" lon="7.9831167"><ele>293.0</ele><time>2026-04-19T12:38:24.016Z</time></trkpt><trkpt lat="45.0409417" lon="7.9830683"><ele>293.0</ele><time>2026-04-19T12:38:25.015Z</time></trkpt><trkpt lat="45.0410667" lon="7.982975"><ele>293.0</ele><time>2026-04-19T12:38:26.015Z</time></trkpt><trkpt lat="45.0411833" lon="7.9828417"><ele>293.0</ele><time>2026-04-19T12:38:27.015Z</time></trkpt><trkpt lat="45.0412933" lon="7.9826783"><ele>293.0</ele><time>2026-04-19T12:38:28.015Z</time></trkpt><trkpt lat="45.0413867" lon="7.9825167"><ele>293.0</ele><time>2026-04-19T12:38:29.016Z</time></trkpt><trkpt lat="45.04146" lon="7.9823433"><ele>293.0</ele><time>2026-04-19T12:38:30.016Z</time></trkpt><trkpt lat="45.0415267" lon="7.9821683"><ele>293.0</ele><time>2026-04-19T12:38:31.015Z</time></trkpt><trkpt lat="45.04158" lon="7.981985"><ele>293.5</ele><time>2026-04-19T12:38:32.016Z</time></trkpt><trkpt lat="45.04159" lon="7.9817883"><ele>294.0</ele><time>2026-04-19T12:38:33.016Z</time></trkpt><trkpt lat="45.0415717" lon="7.9815917"><ele>294.5</ele><time>2026-04-19T12:38:34.015Z</time></trkpt><trkpt lat="45.0415233" lon="7.9814017"><ele>295.0</ele><time>2026-04-19T12:38:35.015Z</time></trkpt><trkpt lat="45.0414767" lon="7.9812133"><ele>295.0</ele><time>2026-04-19T12:38:36.015Z</time></trkpt><trkpt lat="45.0414083" lon="7.9810267"><ele>295.0</ele><time>2026-04-19T12:38:37.016Z</time></trkpt><trkpt lat="45.0413683" lon="7.980815"><ele>295.0</ele><time>2026-04-19T12:38:38.015Z</time></trkpt><trkpt lat="45.0413367" lon="7.980605"><ele>292.5</ele><time>2026-04-19T12:38:39.015Z</time></trkpt><trkpt lat="45.0412933" lon="7.9804117"><ele>290.0</ele><time>2026-04-19T12:38:40.015Z</time></trkpt><trkpt lat="45.0412517" lon="7.980225"><ele>287.5</ele><time>2026-04-19T12:38:41.015Z</time></trkpt><trkpt lat="45.0412183" lon="7.9800633"><ele>285.0</ele><time>2026-04-19T12:38:42.016Z</time></trkpt><trkpt lat="45.0411983" lon="7.9799117"><ele>282.8333333333333</ele><time>2026-04-19T12:38:43.016Z</time></trkpt><trkpt lat="45.0411917" lon="7.9797883"><ele>280.6666666666667</ele><time>2026-04-19T12:38:44.016Z</time></trkpt><trkpt lat="45.0412067" lon="7.97969"><ele>278.5</ele><time>2026-04-19T12:38:45.016Z</time></trkpt><trkpt lat="45.0412617" lon="7.9796133"><ele>276.33333333333337</ele><time>2026-04-19T12:38:47.015Z</time></trkpt><trkpt lat="45.041345" lon="7.9797383"><ele>274.1666666666667</ele><time>2026-04-19T12:38:49.015Z</time></trkpt><trkpt lat="45.0413717" lon="7.97984"><ele>272.0</ele><time>2026-04-19T12:38:50.015Z</time></trkpt><trkpt lat="45.0413867" lon="7.97996"><ele>274.6</ele><time>2026-04-19T12:38:51.016Z</time></trkpt><trkpt lat="45.0413967" lon="7.9801017"><ele>277.2</ele><time>2026-04-19T12:38:52.015Z</time></trkpt><trkpt lat="45.04141" lon="7.98024"><ele>279.8</ele><time>2026-04-19T12:38:53.016Z</time></trkpt><trkpt lat="45.0414283" lon="7.980385"><ele>282.4</ele><time>2026-04-19T12:38:54.015Z</time></trkpt><trkpt lat="45.0414483" lon="7.98055"><ele>285.0</ele><time>2026-04-19T12:38:55.015Z</time></trkpt><trkpt lat="45.0414817" lon="7.9807"><ele>286.0</ele><time>2026-04-19T12:38:56.015Z</time></trkpt><trkpt lat="45.0415167" lon="7.9808567"><ele>287.0</ele><time>2026-04-19T12:38:57.015Z</time></trkpt><trkpt lat="45.0415567" lon="7.9810233"><ele>288.0</ele><time>2026-04-19T12:38:58.015Z</time></trkpt><trkpt lat="45.041605" lon="7.9811883"><ele>289.0</ele><time>2026-04-19T12:38:59.016Z</time></trkpt><trkpt lat="45.041635" lon="7.98133"><ele>289.0</ele><time>2026-04-19T12:39:00.015Z</time></trkpt><trkpt lat="45.041675" lon="7.9814933"><ele>289.0</ele><time>2026-04-19T12:39:01.015Z</time></trkpt><trkpt lat="45.0417183" lon="7.9816467"><ele>289.0</ele><time>2026-04-19T12:39:02.016Z</time></trkpt><trkpt lat="45.04179" lon="7.98182"><ele>289.0</ele><time>2026-04-19T12:39:03.015Z</time></trkpt><trkpt lat="45.0419" lon="7.9819683"><ele>287.66666666666663</ele><time>2026-04-19T12:39:04.016Z</time></trkpt><trkpt lat="45.04198" lon="7.982155"><ele>286.3333333333333</ele><time>2026-04-19T12:39:05.015Z</time></trkpt><trkpt lat="45.0420717" lon="7.9823883"><ele>285.0</ele><time>2026-04-19T12:39:06.016Z</time></trkpt><trkpt lat="45.042095" lon="7.982635"><ele>280.3333333333333</ele><time>2026-04-19T12:39:07.016Z</time></trkpt><trkpt lat="45.0421217" lon="7.9828833"><ele>275.66666666666663</ele><time>2026-04-19T12:39:08.016Z</time></trkpt><trkpt lat="45.0421067" lon="7.9831267"><ele>271.0</ele><time>2026-04-19T12:39:09.015Z</time></trkpt><trkpt lat="45.04205" lon="7.9833633"><ele>270.3333333333333</ele><time>2026-04-19T12:39:10.015Z</time></trkpt><trkpt lat="45.0419483" lon="7.98357"><ele>269.6666666666667</ele><time>2026-04-19T12:39:11.015Z</time></trkpt><trkpt lat="45.0418317" lon="7.9837633"><ele>269.0</ele><time>2026-04-19T12:39:12.015Z</time></trkpt><trkpt lat="45.0417333" lon="7.9839433"><ele>269.0</ele><time>2026-04-19T12:39:13.016Z</time></trkpt><trkpt lat="45.0416233" lon="7.9841083"><ele>269.0</ele><time>2026-04-19T12:39:14.015Z</time></trkpt><trkpt lat="45.041515" lon="7.9842783"><ele>269.0</ele><time>2026-04-19T12:39:15.016Z</time></trkpt><trkpt lat="45.0414083" lon="7.984455"><ele>269.0</ele><time>2026-04-19T12:39:16.015Z</time></trkpt><trkpt lat="45.0413133" lon="7.9846433"><ele>269.0</ele><time>2026-04-19T12:39:17.015Z</time></trkpt><trkpt lat="45.0412183" lon="7.98484"><ele>269.0</ele><time>2026-04-19T12:39:18.015Z</time></trkpt><trkpt lat="45.041115" lon="7.985035"><ele>267.6666666666667</ele><time>2026-04-19T12:39:19.016Z</time></trkpt><trkpt lat="45.0410233" lon="7.985235"><ele>266.3333333333333</ele><time>2026-04-19T12:39:20.016Z</time></trkpt><trkpt lat="45.0409383" lon="7.985435"><ele>265.0</ele><time>2026-04-19T12:39:21.016Z</time></trkpt><trkpt lat="45.0408417" lon="7.9856417"><ele>263.66666666666663</ele><time>2026-04-19T12:39:22.015Z</time></trkpt><trkpt lat="45.04075" lon="7.985845"><ele>262.3333333333333</ele><time>2026-04-19T12:39:23.015Z</time></trkpt><trkpt lat="45.040665" lon="7.986055"><ele>261.0</ele><time>2026-04-19T12:39:24.016Z</time></trkpt><trkpt lat="45.04058" lon="7.9862633"><ele>261.0</ele><time>2026-04-19T12:39:25.016Z</time></trkpt><trkpt lat="45.0404833" lon="7.9864633"><ele>261.0</ele><time>2026-04-19T12:39:26.016Z</time></trkpt><trkpt lat="45.0403917" lon="7.986655"><ele>261.0</ele><time>2026-04-19T12:39:27.015Z</time></trkpt><trkpt lat="45.0402983" lon="7.986855"><ele>262.6666666666667</ele><time>2026-04-19T12:39:28.015Z</time></trkpt><trkpt lat="45.0401867" lon="7.98704"><ele>264.33333333333337</ele><time>2026-04-19T12:39:29.015Z</time></trkpt><trkpt lat="45.040065" lon="7.9872067"><ele>266.0</ele><time>2026-04-19T12:39:30.016Z</time></trkpt><trkpt lat="45.0399333" lon="7.9873583"><ele>264.6666666666667</ele><time>2026-04-19T12:39:31.016Z</time></trkpt><trkpt lat="45.0397833" lon="7.9874883"><ele>263.3333333333333</ele><time>2026-04-19T12:39:32.015Z</time></trkpt><trkpt lat="45.0396417" lon="7.9876183"><ele>262.0</ele><time>2026-04-19T12:39:33.016Z</time></trkpt><trkpt lat="45.0394983" lon="7.9877483"><ele>262.0</ele><time>2026-04-19T12:39:34.015Z</time></trkpt><trkpt lat="45.0393517" lon="7.98787"><ele>262.0</ele><time>2026-04-19T12:39:35.015Z</time></trkpt><trkpt lat="45.039215" lon="7.9879817"><ele>262.0</ele><time>2026-04-19T12:39:36.016Z</time></trkpt><trkpt lat="45.03907" lon="7.9880717"><ele>259.3333333333333</ele><time>2026-04-19T12:39:37.016Z</time></trkpt><trkpt lat="45.0389167" lon="7.988145"><ele>256.6666666666667</ele><time>2026-04-19T12:39:38.015Z</time></trkpt><trkpt lat="45.0387633" lon="7.9881983"><ele>254.0</ele><time>2026-04-19T12:39:39.015Z</time></trkpt><trkpt lat="45.0386133" lon="7.98826"><ele>252.0</ele><time>2026-04-19T12:39:40.015Z</time></trkpt><trkpt lat="45.0384717" lon="7.9883433"><ele>250.0</ele><time>2026-04-19T12:39:41.015Z</time></trkpt><trkpt lat="45.0383283" lon="7.9884433"><ele>248.0</ele><time>2026-04-19T12:39:42.016Z</time></trkpt><trkpt lat="45.0382" lon="7.9885817"><ele>248.0</ele><time>2026-04-19T12:39:43.016Z</time></trkpt><trkpt lat="45.038085" lon="7.988715"><ele>248.0</ele><time>2026-04-19T12:39:44.015Z</time></trkpt><trkpt lat="45.0379817" lon="7.98886"><ele>248.0</ele><time>2026-04-19T12:39:45.015Z</time></trkpt><trkpt lat="45.0378867" lon="7.989015"><ele>248.0</ele><time>2026-04-19T12:39:46.016Z</time></trkpt><trkpt lat="45.0377917" lon="7.98918"><ele>250.0</ele><time>2026-04-19T12:39:47.014Z</time></trkpt><trkpt lat="45.0377133" lon="7.9893517"><ele>252.0</ele><time>2026-04-19T12:39:48.015Z</time></trkpt><trkpt lat="45.0376383" lon="7.9895167"><ele>254.0</ele><time>2026-04-19T12:39:49.014Z</time></trkpt><trkpt lat="45.0375617" lon="7.989685"><ele>256.0</ele><time>2026-04-19T12:39:50.014Z</time></trkpt><trkpt lat="45.03749" lon="7.989855"><ele>257.5</ele><time>2026-04-19T12:39:51.015Z</time></trkpt><trkpt lat="45.0374167" lon="7.9900267"><ele>259.0</ele><time>2026-04-19T12:39:52.014Z</time></trkpt><trkpt lat="45.0373433" lon="7.9902033"><ele>260.5</ele><time>2026-04-19T12:39:53.015Z</time></trkpt><trkpt lat="45.03727" lon="7.9903767"><ele>262.0</ele><time>2026-04-19T12:39:54.014Z</time></trkpt><trkpt lat="45.0371883" lon="7.9905483"><ele>262.0</ele><time>2026-04-19T12:39:55.015Z</time></trkpt><trkpt lat="45.0371467" lon="7.990745"><ele>262.0</ele><time>2026-04-19T12:39:56.015Z</time></trkpt><trkpt lat="45.0371217" lon="7.990945"><ele>262.0</ele><time>2026-04-19T12:39:57.015Z</time></trkpt><trkpt lat="45.0371267" lon="7.991155"><ele>262.0</ele><time>2026-04-19T12:39:58.014Z</time></trkpt><trkpt lat="45.03717" lon="7.9913733"><ele>260.0</ele><time>2026-04-19T12:39:59.014Z</time></trkpt><trkpt lat="45.0372367" lon="7.9915817"><ele>258.0</ele><time>2026-04-19T12:40:00.014Z</time></trkpt><trkpt lat="45.037295" lon="7.9918033"><ele>256.0</ele><time>2026-04-19T12:40:01.014Z</time></trkpt><trkpt lat="45.037345" lon="7.9920217"><ele>253.66666666666666</ele><time>2026-04-19T12:40:02.015Z</time></trkpt><trkpt lat="45.0373883" lon="7.992245"><ele>251.33333333333331</ele><time>2026-04-19T12:40:03.015Z</time></trkpt><trkpt lat="45.0374383" lon="7.99247"><ele>249.0</ele><time>2026-04-19T12:40:04.014Z</time></trkpt><trkpt lat="45.03749" lon="7.9926967"><ele>248.0</ele><time>2026-04-19T12:40:05.015Z</time></trkpt><trkpt lat="45.0375333" lon="7.9929233"><ele>247.0</ele><time>2026-04-19T12:40:06.014Z</time></trkpt><trkpt lat="45.0375817" lon="7.9931383"><ele>246.0</ele><time>2026-04-19T12:40:07.015Z</time></trkpt><trkpt lat="45.037635" lon="7.9933467"><ele>245.75</ele><time>2026-04-19T12:40:08.014Z</time></trkpt><trkpt lat="45.0376833" lon="7.99355"><ele>245.5</ele><time>2026-04-19T12:40:09.015Z</time></trkpt><trkpt lat="45.0377233" lon="7.9937367"><ele>245.25</ele><time>2026-04-19T12:40:10.015Z</time></trkpt><trkpt lat="45.0377567" lon="7.9939183"><ele>245.0</ele><time>2026-04-19T12:40:11.015Z</time></trkpt><trkpt lat="45.0377917" lon="7.9940667"><ele>244.6</ele><time>2026-04-19T12:40:12.015Z</time></trkpt><trkpt lat="45.037825" lon="7.9942217"><ele>244.2</ele><time>2026-04-19T12:40:13.015Z</time></trkpt><trkpt lat="45.0378567" lon="7.994355"><ele>243.8</ele><time>2026-04-19T12:40:14.014Z</time></trkpt><trkpt lat="45.0378883" lon="7.994465"><ele>243.4</ele><time>2026-04-19T12:40:15.015Z</time></trkpt><trkpt lat="45.0379717" lon="7.9945567"><ele>243.0</ele><time>2026-04-19T12:40:17.015Z</time></trkpt><trkpt lat="45.0380867" lon="7.9944567"><ele>243.0</ele><time>2026-04-19T12:40:19.014Z</time></trkpt><trkpt lat="45.0381467" lon="7.994325"><ele>243.0</ele><time>2026-04-19T12:40:20.015Z</time></trkpt><trkpt lat="45.0381983" lon="7.9941783"><ele>243.0</ele><time>2026-04-19T12:40:21.014Z</time></trkpt><trkpt lat="45.038255" lon="7.9940317"><ele>243.0</ele><time>2026-04-19T12:40:22.015Z</time></trkpt><trkpt lat="45.0383283" lon="7.9939017"><ele>245.5</ele><time>2026-04-19T12:40:23.014Z</time></trkpt><trkpt lat="45.0384133" lon="7.9937733"><ele>248.0</ele><time>2026-04-19T12:40:24.014Z</time></trkpt><trkpt lat="45.0385" lon="7.9936417"><ele>250.5</ele><time>2026-04-19T12:40:25.015Z</time></trkpt><trkpt lat="45.038585" lon="7.993505"><ele>253.0</ele><time>2026-04-19T12:40:26.014Z</time></trkpt><trkpt lat="45.0386717" lon="7.99337"><ele>252.0</ele><time>2026-04-19T12:40:27.014Z</time></trkpt><trkpt lat="45.0387633" lon="7.9932333"><ele>251.0</ele><time>2026-04-19T12:40:28.014Z</time></trkpt><trkpt lat="45.0388667" lon="7.9930983"><ele>250.0</ele><time>2026-04-19T12:40:29.015Z</time></trkpt><trkpt lat="45.038975" lon="7.9929683"><ele>249.0</ele><time>2026-04-19T12:40:30.014Z</time></trkpt><trkpt lat="45.0390983" lon="7.9928683"><ele>250.33333333333331</ele><time>2026-04-19T12:40:31.015Z</time></trkpt><trkpt lat="45.0392067" lon="7.9927383"><ele>251.66666666666666</ele><time>2026-04-19T12:40:32.014Z</time></trkpt><trkpt lat="45.0393283" lon="7.9926033"><ele>253.0</ele><time>2026-04-19T12:40:33.014Z</time></trkpt><trkpt lat="45.039455" lon="7.992475"><ele>253.0</ele><time>2026-04-19T12:40:34.014Z</time></trkpt><trkpt lat="45.039585" lon="7.9923433"><ele>253.0</ele><time>2026-04-19T12:40:35.015Z</time></trkpt><trkpt lat="45.03972" lon="7.9922117"><ele>253.0</ele><time>2026-04-19T12:40:36.014Z</time></trkpt><trkpt lat="45.0398467" lon="7.9920783"><ele>253.0</ele><time>2026-04-19T12:40:37.015Z</time></trkpt><trkpt lat="45.039965" lon="7.9919367"><ele>253.0</ele><time>2026-04-19T12:40:38.015Z</time></trkpt><trkpt lat="45.0400783" lon="7.9917933"><ele>253.0</ele><time>2026-04-19T12:40:39.014Z</time></trkpt><trkpt lat="45.0401833" lon="7.9916733"><ele>253.0</ele><time>2026-04-19T12:40:40.014Z</time></trkpt><trkpt lat="45.0403067" lon="7.991565"><ele>254.33333333333331</ele><time>2026-04-19T12:40:41.014Z</time></trkpt><trkpt lat="45.0404433" lon="7.99147"><ele>255.66666666666669</ele><time>2026-04-19T12:40:42.015Z</time></trkpt><trkpt lat="45.0405883" lon="7.991385"><ele>257.0</ele><time>2026-04-19T12:40:43.014Z</time></trkpt><trkpt lat="45.0407317" lon="7.991315"><ele>261.0</ele><time>2026-04-19T12:40:44.015Z</time></trkpt><trkpt lat="45.040875" lon="7.991245"><ele>265.0</ele><time>2026-04-19T12:40:45.015Z</time></trkpt><trkpt lat="45.0410217" lon="7.9911783"><ele>269.0</ele><time>2026-04-19T12:40:46.014Z</time></trkpt><trkpt lat="45.0411617" lon="7.99112"><ele>269.0</ele><time>2026-04-19T12:40:47.015Z</time></trkpt><trkpt lat="45.04131" lon="7.99109"><ele>269.0</ele><time>2026-04-19T12:40:48.015Z</time></trkpt><trkpt lat="45.0414583" lon="7.9910517"><ele>269.0</ele><time>2026-04-19T12:40:49.014Z</time></trkpt><trkpt lat="45.0415817" lon="7.9910117"><ele>269.0</ele><time>2026-04-19T12:40:50.014Z</time></trkpt><trkpt lat="45.0417217" lon="7.9909967"><ele>270.75</ele><time>2026-04-19T12:40:51.014Z</time></trkpt><trkpt lat="45.0418633" lon="7.9910167"><ele>272.5</ele><time>2026-04-19T12:40:52.015Z</time></trkpt><trkpt lat="45.042005" lon="7.991045"><ele>274.25</ele><time>2026-04-19T12:40:53.015Z</time></trkpt><trkpt lat="45.04213" lon="7.9910633"><ele>276.0</ele><time>2026-04-19T12:40:54.014Z</time></trkpt><trkpt lat="45.0422683" lon="7.9910817"><ele>276.0</ele><time>2026-04-19T12:40:55.014Z</time></trkpt><trkpt lat="45.0424033" lon="7.9910667"><ele>276.0</ele><time>2026-04-19T12:40:56.014Z</time></trkpt><trkpt lat="45.0425283" lon="7.991005"><ele>276.0</ele><time>2026-04-19T12:40:57.014Z</time></trkpt><trkpt lat="45.0426483" lon="7.9908767"><ele>276.0</ele><time>2026-04-19T12:40:58.014Z</time></trkpt><trkpt lat="45.0427583" lon="7.99074"><ele>272.0</ele><time>2026-04-19T12:40:59.015Z</time></trkpt><trkpt lat="45.0428833" lon="7.99061"><ele>268.0</ele><time>2026-04-19T12:41:00.015Z</time></trkpt><trkpt lat="45.04301" lon="7.990475"><ele>264.0</ele><time>2026-04-19T12:41:01.014Z</time></trkpt><trkpt lat="45.0431383" lon="7.990335"><ele>264.0</ele><time>2026-04-19T12:41:02.014Z</time></trkpt><trkpt lat="45.0432717" lon="7.9901883"><ele>264.0</ele><time>2026-04-19T12:41:03.014Z</time></trkpt><trkpt lat="45.0433917" lon="7.9900583"><ele>264.0</ele><time>2026-04-19T12:41:04.014Z</time></trkpt><trkpt lat="45.0435367" lon="7.9899367"><ele>264.3333333333333</ele><time>2026-04-19T12:41:05.015Z</time></trkpt><trkpt lat="45.04368" lon="7.9898317"><ele>264.66666666666663</ele><time>2026-04-19T12:41:06.015Z</time></trkpt><trkpt lat="45.043825" lon="7.9897383"><ele>265.0</ele><time>2026-04-19T12:41:07.014Z</time></trkpt><trkpt lat="45.04395" lon="7.989675"><ele>265.0</ele><time>2026-04-19T12:41:08.014Z</time></trkpt><trkpt lat="45.044095" lon="7.9896133"><ele>265.0</ele><time>2026-04-19T12:41:09.014Z</time></trkpt><trkpt lat="45.04424" lon="7.9895717"><ele>265.0</ele><time>2026-04-19T12:41:10.015Z</time></trkpt><trkpt lat="45.0443917" lon="7.9895367"><ele>267.3333333333333</ele><time>2026-04-19T12:41:11.015Z</time></trkpt><trkpt lat="45.0445483" lon="7.9895183"><ele>269.6666666666667</ele><time>2026-04-19T12:41:12.014Z</time></trkpt><trkpt lat="45.0447" lon="7.9894917"><ele>272.0</ele><time>2026-04-19T12:41:13.014Z</time></trkpt><trkpt lat="45.0448367" lon="7.9894217"><ele>273.0</ele><time>2026-04-19T12:41:14.014Z</time></trkpt><trkpt lat="45.0449667" lon="7.98931"><ele>274.0</ele><time>2026-04-19T12:41:15.015Z</time></trkpt><trkpt lat="45.0450933" lon="7.9891567"><ele>275.0</ele><time>2026-04-19T12:41:16.014Z</time></trkpt><trkpt lat="45.0452083" lon="7.9890117"><ele>275.6666666666667</ele><time>2026-04-19T12:41:17.014Z</time></trkpt><trkpt lat="45.04532" lon="7.9888667"><ele>276.3333333333333</ele><time>2026-04-19T12:41:18.015Z</time></trkpt><trkpt lat="45.04545" lon="7.9887317"><ele>277.0</ele><time>2026-04-19T12:41:19.014Z</time></trkpt><trkpt lat="45.0455667" lon="7.988615"><ele>277.0</ele><time>2026-04-19T12:41:20.014Z</time></trkpt><trkpt lat="45.0456983" lon="7.98851"><ele>277.0</ele><time>2026-04-19T12:41:21.015Z</time></trkpt><trkpt lat="45.045825" lon="7.988425"><ele>277.0</ele><time>2026-04-19T12:41:22.014Z</time></trkpt><trkpt lat="45.045975" lon="7.9883517"><ele>279.3333333333333</ele><time>2026-04-19T12:41:23.014Z</time></trkpt><trkpt lat="45.04612" lon="7.9883017"><ele>281.6666666666667</ele><time>2026-04-19T12:41:24.014Z</time></trkpt><trkpt lat="45.0462717" lon="7.9882883"><ele>284.0</ele><time>2026-04-19T12:41:25.014Z</time></trkpt><trkpt lat="45.04643" lon="7.98826"><ele>284.0</ele><time>2026-04-19T12:41:26.015Z</time></trkpt><trkpt lat="45.046595" lon="7.9882417"><ele>284.0</ele><time>2026-04-19T12:41:27.014Z</time></trkpt><trkpt lat="45.0467683" lon="7.9882367"><ele>284.0</ele><time>2026-04-19T12:41:28.014Z</time></trkpt><trkpt lat="45.0469433" lon="7.9882333"><ele>288.0</ele><time>2026-04-19T12:41:29.015Z</time></trkpt><trkpt lat="45.0471167" lon="7.9882217"><ele>292.0</ele><time>2026-04-19T12:41:30.014Z</time></trkpt><trkpt lat="45.0472917" lon="7.9882033"><ele>296.0</ele><time>2026-04-19T12:41:31.014Z</time></trkpt><trkpt lat="45.04747" lon="7.9881883"><ele>297.0</ele><time>2026-04-19T12:41:32.014Z</time></trkpt><trkpt lat="45.0476533" lon="7.98817"><ele>298.0</ele><time>2026-04-19T12:41:33.014Z</time></trkpt><trkpt lat="45.047825" lon="7.9881617"><ele>299.0</ele><time>2026-04-19T12:41:34.014Z</time></trkpt><trkpt lat="45.0479933" lon="7.9881267"><ele>299.0</ele><time>2026-04-19T12:41:35.015Z</time></trkpt><trkpt lat="45.0481533" lon="7.9880567"><ele>299.0</ele><time>2026-04-19T12:41:36.014Z</time></trkpt><trkpt lat="45.0483133" lon="7.9879617"><ele>299.0</ele><time>2026-04-19T12:41:37.015Z</time></trkpt><trkpt lat="45.048465" lon="7.98783"><ele>299.33333333333337</ele><time>2026-04-19T12:41:38.015Z</time></trkpt><trkpt lat="45.048625" lon="7.98769"><ele>299.6666666666667</ele><time>2026-04-19T12:41:39.015Z</time></trkpt><trkpt lat="45.0487817" lon="7.9875417"><ele>300.0</ele><time>2026-04-19T12:41:40.014Z</time></trkpt><trkpt lat="45.048935" lon="7.9874117"><ele>300.0</ele><time>2026-04-19T12:41:41.015Z</time></trkpt><trkpt lat="45.0490767" lon="7.987295"><ele>300.0</ele><time>2026-04-19T12:41:42.015Z</time></trkpt><trkpt lat="45.0492267" lon="7.9871967"><ele>300.0</ele><time>2026-04-19T12:41:43.015Z</time></trkpt><trkpt lat="45.0493767" lon="7.987105"><ele>303.6666666666667</ele><time>2026-04-19T12:41:44.014Z</time></trkpt><trkpt lat="45.049525" lon="7.9870483"><ele>307.33333333333337</ele><time>2026-04-19T12:41:45.015Z</time></trkpt><trkpt lat="45.0496817" lon="7.9870067"><ele>311.0</ele><time>2026-04-19T12:41:46.015Z</time></trkpt><trkpt lat="45.0498483" lon="7.9869833"><ele>313.0</ele><time>2026-04-19T12:41:47.015Z</time></trkpt><trkpt lat="45.0500317" lon="7.9869683"><ele>315.0</ele><time>2026-04-19T12:41:48.015Z</time></trkpt><trkpt lat="45.05021" lon="7.9869483"><ele>317.0</ele><time>2026-04-19T12:41:49.014Z</time></trkpt><trkpt lat="45.050395" lon="7.986935"><ele>317.0</ele><time>2026-04-19T12:41:50.014Z</time></trkpt><trkpt lat="45.0505783" lon="7.9869133"><ele>317.0</ele><time>2026-04-19T12:41:51.015Z</time></trkpt><trkpt lat="45.0507583" lon="7.9868917"><ele>317.0</ele><time>2026-04-19T12:41:52.014Z</time></trkpt><trkpt lat="45.050945" lon="7.98688"><ele>318.0</ele><time>2026-04-19T12:41:53.014Z</time></trkpt><trkpt lat="45.051145" lon="7.986865"><ele>319.0</ele><time>2026-04-19T12:41:54.015Z</time></trkpt><trkpt lat="45.0513383" lon="7.9868483"><ele>320.0</ele><time>2026-04-19T12:41:55.014Z</time></trkpt><trkpt lat="45.051545" lon="7.9868217"><ele>321.6666666666667</ele><time>2026-04-19T12:41:56.014Z</time></trkpt><trkpt lat="45.0517417" lon="7.9867967"><ele>323.3333333333333</ele><time>2026-04-19T12:41:57.015Z</time></trkpt><trkpt lat="45.0519417" lon="7.9867733"><ele>325.0</ele><time>2026-04-19T12:41:58.015Z</time></trkpt><trkpt lat="45.05214" lon="7.9867483"><ele>325.0</ele><time>2026-04-19T12:41:59.014Z</time></trkpt><trkpt lat="45.0523267" lon="7.9867267"><ele>325.0</ele><time>2026-04-19T12:42:00.014Z</time></trkpt><trkpt lat="45.0524933" lon="7.9867067"><ele>325.0</ele><time>2026-04-19T12:42:01.014Z</time></trkpt><trkpt lat="45.0526583" lon="7.98669"><ele>329.66666666666663</ele><time>2026-04-19T12:42:02.014Z</time></trkpt><trkpt lat="45.05281" lon="7.98668"><ele>334.3333333333333</ele><time>2026-04-19T12:42:03.014Z</time></trkpt><trkpt lat="45.0529667" lon="7.9866617"><ele>339.0</ele><time>2026-04-19T12:42:04.015Z</time></trkpt><trkpt lat="45.0531267" lon="7.9866433"><ele>342.6666666666667</ele><time>2026-04-19T12:42:05.014Z</time></trkpt><trkpt lat="45.0532933" lon="7.9866267"><ele>346.33333333333337</ele><time>2026-04-19T12:42:06.014Z</time></trkpt><trkpt lat="45.0534567" lon="7.9866117"><ele>350.0</ele><time>2026-04-19T12:42:07.014Z</time></trkpt><trkpt lat="45.05361" lon="7.9865833"><ele>350.0</ele><time>2026-04-19T12:42:08.014Z</time></trkpt><trkpt lat="45.0537633" lon="7.9865667"><ele>350.0</ele><time>2026-04-19T12:42:09.014Z</time></trkpt><trkpt lat="45.0539167" lon="7.9865633"><ele>350.0</ele><time>2026-04-19T12:42:10.014Z</time></trkpt><trkpt lat="45.0540617" lon="7.9865467"><ele>350.75</ele><time>2026-04-19T12:42:11.015Z</time></trkpt><trkpt lat="45.0541967" lon="7.98654"><ele>351.5</ele><time>2026-04-19T12:42:12.015Z</time></trkpt><trkpt lat="45.0543183" lon="7.9865283"><ele>352.25</ele><time>2026-04-19T12:42:13.015Z</time></trkpt><trkpt lat="45.0544467" lon="7.9865517"><ele>353.0</ele><time>2026-04-19T12:42:14.014Z</time></trkpt><trkpt lat="45.054555" lon="7.9865183"><ele>353.0</ele><time>2026-04-19T12:42:15.015Z</time></trkpt><trkpt lat="45.0546483" lon="7.9864567"><ele>353.0</ele><time>2026-04-19T12:42:16.014Z</time></trkpt><trkpt lat="45.054745" lon="7.9863883"><ele>353.0</ele><time>2026-04-19T12:42:17.015Z</time></trkpt><trkpt lat="45.0548367" lon="7.9863267"><ele>353.0</ele><time>2026-04-19T12:42:18.015Z</time></trkpt><trkpt lat="45.0549217" lon="7.98624"><ele>353.0</ele><time>2026-04-19T12:42:19.014Z</time></trkpt><trkpt lat="45.055015" lon="7.9861583"><ele>354.75</ele><time>2026-04-19T12:42:20.014Z</time></trkpt><trkpt lat="45.055115" lon="7.98607"><ele>356.5</ele><time>2026-04-19T12:42:21.015Z</time></trkpt><trkpt lat="45.0552233" lon="7.9860033"><ele>358.25</ele><time>2026-04-19T12:42:22.015Z</time></trkpt><trkpt lat="45.0553333" lon="7.9859483"><ele>360.0</ele><time>2026-04-19T12:42:23.014Z</time></trkpt><trkpt lat="45.055445" lon="7.9858967"><ele>360.0</ele><time>2026-04-19T12:42:24.014Z</time></trkpt><trkpt lat="45.0555583" lon="7.9858517"><ele>360.0</ele><time>2026-04-19T12:42:25.014Z</time></trkpt><trkpt lat="45.0556717" lon="7.9857583"><ele>360.0</ele><time>2026-04-19T12:42:26.014Z</time></trkpt><trkpt lat="45.055785" lon="7.9856483"><ele>360.0</ele><time>2026-04-19T12:42:27.015Z</time></trkpt><trkpt lat="45.0558917" lon="7.9855317"><ele>360.5</ele><time>2026-04-19T12:42:28.014Z</time></trkpt><trkpt lat="45.05601" lon="7.9854267"><ele>361.0</ele><time>2026-04-19T12:42:29.014Z</time></trkpt><trkpt lat="45.0561" lon="7.985365"><ele>361.5</ele><time>2026-04-19T12:42:30.014Z</time></trkpt><trkpt lat="45.0561967" lon="7.98532"><ele>362.0</ele><time>2026-04-19T12:42:31.014Z</time></trkpt><trkpt lat="45.0563067" lon="7.9853"><ele>362.0</ele><time>2026-04-19T12:42:32.015Z</time></trkpt><trkpt lat="45.05643" lon="7.98528"><ele>362.0</ele><time>2026-04-19T12:42:33.014Z</time></trkpt><trkpt lat="45.0565517" lon="7.9852733"><ele>362.0</ele><time>2026-04-19T12:42:34.015Z</time></trkpt><trkpt lat="45.05669" lon="7.9852633"><ele>362.0</ele><time>2026-04-19T12:42:35.014Z</time></trkpt><trkpt lat="45.0568317" lon="7.9852467"><ele>365.20000000000005</ele><time>2026-04-19T12:42:36.015Z</time></trkpt><trkpt lat="45.0569617" lon="7.9852317"><ele>368.4</ele><time>2026-04-19T12:42:37.015Z</time></trkpt><trkpt lat="45.0570767" lon="7.9852217"><ele>371.6</ele><time>2026-04-19T12:42:38.015Z</time></trkpt><trkpt lat="45.0571733" lon="7.985215"><ele>374.79999999999995</ele><time>2026-04-19T12:42:39.014Z</time></trkpt><trkpt lat="45.057275" lon="7.98526"><ele>378.0</ele><time>2026-04-19T12:42:40.015Z</time></trkpt><trkpt lat="45.05738" lon="7.9853233"><ele>380.0</ele><time>2026-04-19T12:42:41.014Z</time></trkpt><trkpt lat="45.0574867" lon="7.9853733"><ele>382.0</ele><time>2026-04-19T12:42:42.014Z</time></trkpt><trkpt lat="45.0575867" lon="7.98541"><ele>384.0</ele><time>2026-04-19T12:42:43.015Z</time></trkpt><trkpt lat="45.057685" lon="7.9854417"><ele>386.0</ele><time>2026-04-19T12:42:44.014Z</time></trkpt><trkpt lat="45.05778" lon="7.9854717"><ele>388.0</ele><time>2026-04-19T12:42:45.014Z</time></trkpt><trkpt lat="45.0578683" lon="7.985465"><ele>388.0</ele><time>2026-04-19T12:42:46.015Z</time></trkpt><trkpt lat="45.0579533" lon="7.9854017"><ele>388.0</ele><time>2026-04-19T12:42:47.015Z</time></trkpt><trkpt lat="45.058025" lon="7.9852967"><ele>388.0</ele><time>2026-04-19T12:42:48.014Z</time></trkpt><trkpt lat="45.058065" lon="7.9851567"><ele>388.0</ele><time>2026-04-19T12:42:49.014Z</time></trkpt><trkpt lat="45.058055" lon="7.9849633"><ele>388.0</ele><time>2026-04-19T12:42:50.015Z</time></trkpt><trkpt lat="45.0580267" lon="7.9847833"><ele>385.59999999999997</ele><time>2026-04-19T12:42:51.014Z</time></trkpt><trkpt lat="45.058" lon="7.9846217"><ele>383.2</ele><time>2026-04-19T12:42:52.014Z</time></trkpt><trkpt lat="45.057985" lon="7.9844617"><ele>380.8</ele><time>2026-04-19T12:42:53.015Z</time></trkpt><trkpt lat="45.0579717" lon="7.9843183"><ele>378.4</ele><time>2026-04-19T12:42:54.015Z</time></trkpt><trkpt lat="45.057985" lon="7.9842"><ele>376.0</ele><time>2026-04-19T12:42:55.014Z</time></trkpt><trkpt lat="45.0580167" lon="7.9841133"><ele>376.0</ele><time>2026-04-19T12:42:56.014Z</time></trkpt><trkpt lat="45.0580683" lon="7.9840433"><ele>376.0</ele><time>2026-04-19T12:42:57.014Z</time></trkpt><trkpt lat="45.05816" lon="7.98401"><ele>376.0</ele><time>2026-04-19T12:42:58.014Z</time></trkpt><trkpt lat="45.0582733" lon="7.9840083"><ele>376.0</ele><time>2026-04-19T12:42:59.015Z</time></trkpt><trkpt lat="45.0583783" lon="7.9840417"><ele>376.0</ele><time>2026-04-19T12:43:00.015Z</time></trkpt><trkpt lat="45.05848" lon="7.9840717"><ele>377.8</ele><time>2026-04-19T12:43:01.014Z</time></trkpt><trkpt lat="45.05858" lon="7.9840967"><ele>379.6</ele><time>2026-04-19T12:43:02.014Z</time></trkpt><trkpt lat="45.0586833" lon="7.9841333"><ele>381.4</ele><time>2026-04-19T12:43:03.014Z</time></trkpt><trkpt lat="45.0587833" lon="7.9841783"><ele>383.2</ele><time>2026-04-19T12:43:04.014Z</time></trkpt><trkpt lat="45.0588867" lon="7.9842217"><ele>385.0</ele><time>2026-04-19T12:43:05.014Z</time></trkpt><trkpt lat="45.0589817" lon="7.98426"><ele>387.2</ele><time>2026-04-19T12:43:06.015Z</time></trkpt><trkpt lat="45.0590717" lon="7.98431"><ele>389.4</ele><time>2026-04-19T12:43:07.014Z</time></trkpt><trkpt lat="45.05917" lon="7.9843467"><ele>391.6</ele><time>2026-04-19T12:43:08.015Z</time></trkpt><trkpt lat="45.0592717" lon="7.9843483"><ele>393.8</ele><time>2026-04-19T12:43:09.015Z</time></trkpt><trkpt lat="45.0593733" lon="7.98434"><ele>396.0</ele><time>2026-04-19T12:43:10.015Z</time></trkpt><trkpt lat="45.0594733" lon="7.9843133"><ele>396.8</ele><time>2026-04-19T12:43:11.014Z</time></trkpt><trkpt lat="45.0595683" lon="7.9842717"><ele>397.6</ele><time>2026-04-19T12:43:12.014Z</time></trkpt><trkpt lat="45.0596683" lon="7.9842233"><ele>398.4</ele><time>2026-04-19T12:43:13.015Z</time></trkpt><trkpt lat="45.0597767" lon="7.9841567"><ele>399.2</ele><time>2026-04-19T12:43:14.014Z</time></trkpt><trkpt lat="45.05989" lon="7.98408"><ele>400.0</ele><time>2026-04-19T12:43:15.015Z</time></trkpt><trkpt lat="45.06" lon="7.9840033"><ele>394.0</ele><time>2026-04-19T12:43:16.015Z</time></trkpt><trkpt lat="45.0601167" lon="7.9839283"><ele>388.0</ele><time>2026-04-19T12:43:17.015Z</time></trkpt><trkpt lat="45.06024" lon="7.9838817"><ele>382.0</ele><time>2026-04-19T12:43:18.015Z</time></trkpt><trkpt lat="45.06037" lon="7.983845"><ele>376.0</ele><time>2026-04-19T12:43:19.014Z</time></trkpt><trkpt lat="45.06052" lon="7.9838517"><ele>376.0</ele><time>2026-04-19T12:43:20.015Z</time></trkpt><trkpt lat="45.0606717" lon="7.98389"><ele>376.0</ele><time>2026-04-19T12:43:21.014Z</time></trkpt><trkpt lat="45.0608367" lon="7.983925"><ele>376.0</ele><time>2026-04-19T12:43:22.015Z</time></trkpt><trkpt lat="45.060995" lon="7.9839517"><ele>375.0</ele><time>2026-04-19T12:43:23.014Z</time></trkpt><trkpt lat="45.0611517" lon="7.983985"><ele>374.0</ele><time>2026-04-19T12:43:24.015Z</time></trkpt><trkpt lat="45.0613" lon="7.98403"><ele>373.0</ele><time>2026-04-19T12:43:25.014Z</time></trkpt><trkpt lat="45.0614117" lon="7.984085"><ele>372.0</ele><time>2026-04-19T12:43:26.015Z</time></trkpt><trkpt lat="45.061505" lon="7.98414"><ele>372.0</ele><time>2026-04-19T12:43:27.014Z</time></trkpt><trkpt lat="45.0616133" lon="7.9841733"><ele>372.0</ele><time>2026-04-19T12:43:28.014Z</time></trkpt><trkpt lat="45.0617167" lon="7.984155"><ele>372.0</ele><time>2026-04-19T12:43:29.014Z</time></trkpt><trkpt lat="45.0618133" lon="7.9840733"><ele>372.0</ele><time>2026-04-19T12:43:30.014Z</time></trkpt><trkpt lat="45.0619183" lon="7.9839733"><ele>370.25</ele><time>2026-04-19T12:43:31.014Z</time></trkpt><trkpt lat="45.0620317" lon="7.9838683"><ele>368.5</ele><time>2026-04-19T12:43:32.014Z</time></trkpt><trkpt lat="45.062145" lon="7.9837667"><ele>366.75</ele><time>2026-04-19T12:43:33.015Z</time></trkpt><trkpt lat="45.06226" lon="7.9836483"><ele>365.0</ele><time>2026-04-19T12:43:34.014Z</time></trkpt><trkpt lat="45.062365" lon="7.98351"><ele>365.0</ele><time>2026-04-19T12:43:35.015Z</time></trkpt><trkpt lat="45.0624667" lon="7.9833633"><ele>365.0</ele><time>2026-04-19T12:43:36.015Z</time></trkpt><trkpt lat="45.0625817" lon="7.9832183"><ele>365.0</ele><time>2026-04-19T12:43:37.015Z</time></trkpt><trkpt lat="45.0626933" lon="7.983075"><ele>365.0</ele><time>2026-04-19T12:43:38.014Z</time></trkpt><trkpt lat="45.0628067" lon="7.9829317"><ele>365.0</ele><time>2026-04-19T12:43:39.014Z</time></trkpt><trkpt lat="45.0629283" lon="7.9827817"><ele>365.0</ele><time>2026-04-19T12:43:40.015Z</time></trkpt><trkpt lat="45.0630383" lon="7.982635"><ele>365.33333333333337</ele><time>2026-04-19T12:43:41.015Z</time></trkpt><trkpt lat="45.0631667" lon="7.9824933"><ele>365.6666666666667</ele><time>2026-04-19T12:43:42.014Z</time></trkpt><trkpt lat="45.0632817" lon="7.9823583"><ele>366.0</ele><time>2026-04-19T12:43:43.014Z</time></trkpt><trkpt lat="45.0633917" lon="7.982215"><ele>368.0</ele><time>2026-04-19T12:43:44.014Z</time></trkpt><trkpt lat="45.0635" lon="7.982065"><ele>370.0</ele><time>2026-04-19T12:43:45.015Z</time></trkpt><trkpt lat="45.0636033" lon="7.9819083"><ele>372.0</ele><time>2026-04-19T12:43:46.014Z</time></trkpt><trkpt lat="45.06369" lon="7.9817283"><ele>372.25</ele><time>2026-04-19T12:43:47.015Z</time></trkpt><trkpt lat="45.06374" lon="7.9815517"><ele>372.5</ele><time>2026-04-19T12:43:48.015Z</time></trkpt><trkpt lat="45.0638" lon="7.9813767"><ele>372.75</ele><time>2026-04-19T12:43:49.015Z</time></trkpt><trkpt lat="45.0638767" lon="7.9812317"><ele>373.0</ele><time>2026-04-19T12:43:50.015Z</time></trkpt><trkpt lat="45.0639717" lon="7.9811133"><ele>373.0</ele><time>2026-04-19T12:43:51.014Z</time></trkpt><trkpt lat="45.06409" lon="7.981025"><ele>373.0</ele><time>2026-04-19T12:43:52.014Z</time></trkpt><trkpt lat="45.0642267" lon="7.98096"><ele>373.0</ele><time>2026-04-19T12:43:53.014Z</time></trkpt><trkpt lat="45.064375" lon="7.9808983"><ele>373.0</ele><time>2026-04-19T12:43:54.015Z</time></trkpt><trkpt lat="45.06452" lon="7.9808317"><ele>374.0</ele><time>2026-04-19T12:43:55.015Z</time></trkpt><trkpt lat="45.064655" lon="7.9807417"><ele>375.0</ele><time>2026-04-19T12:43:56.014Z</time></trkpt><trkpt lat="45.0647917" lon="7.980625"><ele>376.0</ele><time>2026-04-19T12:43:57.014Z</time></trkpt><trkpt lat="45.06492" lon="7.9804933"><ele>374.3333333333333</ele><time>2026-04-19T12:43:58.014Z</time></trkpt><trkpt lat="45.065045" lon="7.9803517"><ele>372.6666666666667</ele><time>2026-04-19T12:43:59.015Z</time></trkpt><trkpt lat="45.0651583" lon="7.9801967"><ele>371.0</ele><time>2026-04-19T12:44:00.014Z</time></trkpt><trkpt lat="45.065275" lon="7.9800467"><ele>373.0</ele><time>2026-04-19T12:44:01.014Z</time></trkpt><trkpt lat="45.0653867" lon="7.979875"><ele>375.0</ele><time>2026-04-19T12:44:02.014Z</time></trkpt><trkpt lat="45.065485" lon="7.97972"><ele>377.0</ele><time>2026-04-19T12:44:03.014Z</time></trkpt><trkpt lat="45.0655967" lon="7.9795617"><ele>377.0</ele><time>2026-04-19T12:44:04.014Z</time></trkpt><trkpt lat="45.0657217" lon="7.9793967"><ele>377.0</ele><time>2026-04-19T12:44:05.014Z</time></trkpt><trkpt lat="45.0658467" lon="7.9792117"><ele>377.0</ele><time>2026-04-19T12:44:06.015Z</time></trkpt><trkpt lat="45.06597" lon="7.97901"><ele>380.0</ele><time>2026-04-19T12:44:07.015Z</time></trkpt><trkpt lat="45.06609" lon="7.9787983"><ele>383.0</ele><time>2026-04-19T12:44:08.014Z</time></trkpt><trkpt lat="45.0661983" lon="7.9785783"><ele>386.0</ele><time>2026-04-19T12:44:09.015Z</time></trkpt><trkpt lat="45.0663267" lon="7.9783867"><ele>385.66666666666663</ele><time>2026-04-19T12:44:10.015Z</time></trkpt><trkpt lat="45.066465" lon="7.97821"><ele>385.33333333333337</ele><time>2026-04-19T12:44:11.015Z</time></trkpt><trkpt lat="45.0666033" lon="7.97804"><ele>385.0</ele><time>2026-04-19T12:44:12.015Z</time></trkpt><trkpt lat="45.0667283" lon="7.97786"><ele>384.0</ele><time>2026-04-19T12:44:13.014Z</time></trkpt><trkpt lat="45.0668483" lon="7.97767"><ele>383.0</ele><time>2026-04-19T12:44:14.015Z</time></trkpt><trkpt lat="45.0669683" lon="7.9774867"><ele>382.0</ele><time>2026-04-19T12:44:15.014Z</time></trkpt><trkpt lat="45.0670883" lon="7.977305"><ele>382.0</ele><time>2026-04-19T12:44:16.015Z</time></trkpt><trkpt lat="45.06722" lon="7.9771267"><ele>382.0</ele><time>2026-04-19T12:44:17.015Z</time></trkpt><trkpt lat="45.067345" lon="7.9769817"><ele>382.0</ele><time>2026-04-19T12:44:18.014Z</time></trkpt><trkpt lat="45.0674567" lon="7.97681"><ele>386.3333333333333</ele><time>2026-04-19T12:44:19.014Z</time></trkpt><trkpt lat="45.0675417" lon="7.9766317"><ele>390.66666666666663</ele><time>2026-04-19T12:44:20.015Z</time></trkpt><trkpt lat="45.0676" lon="7.9764217"><ele>395.0</ele><time>2026-04-19T12:44:21.015Z</time></trkpt><trkpt lat="45.0676717" lon="7.97621"><ele>395.0</ele><time>2026-04-19T12:44:22.015Z</time></trkpt><trkpt lat="45.0677367" lon="7.9760033"><ele>395.0</ele><time>2026-04-19T12:44:23.014Z</time></trkpt><trkpt lat="45.06782" lon="7.9758083"><ele>395.0</ele><time>2026-04-19T12:44:24.014Z</time></trkpt><trkpt lat="45.067895" lon="7.9756167"><ele>395.3333333333333</ele><time>2026-04-19T12:44:25.015Z</time></trkpt><trkpt lat="45.0679717" lon="7.9754117"><ele>395.66666666666663</ele><time>2026-04-19T12:44:26.015Z</time></trkpt><trkpt lat="45.0680517" lon="7.9752133"><ele>396.0</ele><time>2026-04-19T12:44:27.014Z</time></trkpt><trkpt lat="45.0681267" lon="7.975025"><ele>394.66666666666663</ele><time>2026-04-19T12:44:28.015Z</time></trkpt><trkpt lat="45.0682017" lon="7.97483"><ele>393.3333333333333</ele><time>2026-04-19T12:44:29.015Z</time></trkpt><trkpt lat="45.0682817" lon="7.9746467"><ele>392.0</ele><time>2026-04-19T12:44:30.014Z</time></trkpt><trkpt lat="45.0683817" lon="7.9744767"><ele>397.0</ele><time>2026-04-19T12:44:31.014Z</time></trkpt><trkpt lat="45.0684967" lon="7.9743367"><ele>402.0</ele><time>2026-04-19T12:44:32.014Z</time></trkpt><trkpt lat="45.0686283" lon="7.9742367"><ele>407.0</ele><time>2026-04-19T12:44:33.014Z</time></trkpt><trkpt lat="45.068775" lon="7.9741517"><ele>407.0</ele><time>2026-04-19T12:44:34.015Z</time></trkpt><trkpt lat="45.068935" lon="7.974065"><ele>407.0</ele><time>2026-04-19T12:44:35.014Z</time></trkpt><trkpt lat="45.0690867" lon="7.97397"><ele>407.0</ele><time>2026-04-19T12:44:36.014Z</time></trkpt><trkpt lat="45.0692333" lon="7.9738717"><ele>408.5</ele><time>2026-04-19T12:44:37.015Z</time></trkpt><trkpt lat="45.0693783" lon="7.97378"><ele>410.0</ele><time>2026-04-19T12:44:38.015Z</time></trkpt><trkpt lat="45.0695017" lon="7.973725"><ele>411.5</ele><time>2026-04-19T12:44:39.015Z</time></trkpt><trkpt lat="45.0696" lon="7.97366"><ele>413.0</ele><time>2026-04-19T12:44:40.015Z</time></trkpt><trkpt lat="45.06967" lon="7.97355"><ele>413.0</ele><time>2026-04-19T12:44:41.014Z</time></trkpt><trkpt lat="45.0697017" lon="7.9733983"><ele>413.0</ele><time>2026-04-19T12:44:42.014Z</time></trkpt><trkpt lat="45.0697133" lon="7.97323"><ele>413.0</ele><time>2026-04-19T12:44:43.015Z</time></trkpt><trkpt lat="45.0697317" lon="7.9730583"><ele>413.0</ele><time>2026-04-19T12:44:44.014Z</time></trkpt><trkpt lat="45.0697683" lon="7.9728933"><ele>414.25</ele><time>2026-04-19T12:44:45.014Z</time></trkpt><trkpt lat="45.0698233" lon="7.972745"><ele>415.5</ele><time>2026-04-19T12:44:46.014Z</time></trkpt><trkpt lat="45.069915" lon="7.9726367"><ele>416.75</ele><time>2026-04-19T12:44:47.015Z</time></trkpt><trkpt lat="45.07002" lon="7.9725567"><ele>418.0</ele><time>2026-04-19T12:44:48.014Z</time></trkpt><trkpt lat="45.0701367" lon="7.9724767"><ele>419.79999999999995</ele><time>2026-04-19T12:44:49.014Z</time></trkpt><trkpt lat="45.07025" lon="7.9723933"><ele>421.6</ele><time>2026-04-19T12:44:50.014Z</time></trkpt><trkpt lat="45.070335" lon="7.9722833"><ele>423.40000000000003</ele><time>2026-04-19T12:44:51.014Z</time></trkpt><trkpt lat="45.07042" lon="7.9722"><ele>425.20000000000005</ele><time>2026-04-19T12:44:52.014Z</time></trkpt><trkpt lat="45.070505" lon="7.972145"><ele>427.0</ele><time>2026-04-19T12:44:53.014Z</time></trkpt><trkpt lat="45.070585" lon="7.9721133"><ele>427.00000000000006</ele><time>2026-04-19T12:44:54.014Z</time></trkpt><trkpt lat="45.070655" lon="7.972085"><ele>427.0</ele><time>2026-04-19T12:44:55.015Z</time></trkpt><trkpt lat="45.0707317" lon="7.97206"><ele>427.0</ele><time>2026-04-19T12:44:56.015Z</time></trkpt><trkpt lat="45.0707933" lon="7.9720033"><ele>427.0</ele><time>2026-04-19T12:44:57.015Z</time></trkpt><trkpt lat="45.070875" lon="7.9719333"><ele>427.00000000000006</ele><time>2026-04-19T12:44:58.015Z</time></trkpt><trkpt lat="45.0709667" lon="7.9718667"><ele>427.0</ele><time>2026-04-19T12:44:59.015Z</time></trkpt><trkpt lat="45.071065" lon="7.9717983"><ele>427.25</ele><time>2026-04-19T12:45:00.015Z</time></trkpt><trkpt lat="45.0711683" lon="7.9717217"><ele>427.5</ele><time>2026-04-19T12:45:01.015Z</time></trkpt><trkpt lat="45.0712817" lon="7.971655"><ele>427.75</ele><time>2026-04-19T12:45:02.014Z</time></trkpt><trkpt lat="45.0714067" lon="7.971575"><ele>428.0</ele><time>2026-04-19T12:45:03.014Z</time></trkpt><trkpt lat="45.07154" lon="7.9714783"><ele>428.3333333333333</ele><time>2026-04-19T12:45:04.014Z</time></trkpt><trkpt lat="45.071695" lon="7.9713817"><ele>428.66666666666663</ele><time>2026-04-19T12:45:05.015Z</time></trkpt><trkpt lat="45.0718583" lon="7.971285"><ele>429.0</ele><time>2026-04-19T12:45:06.014Z</time></trkpt><trkpt lat="45.072015" lon="7.9711767"><ele>429.0</ele><time>2026-04-19T12:45:07.015Z</time></trkpt><trkpt lat="45.0721667" lon="7.97107"><ele>429.0</ele><time>2026-04-19T12:45:08.015Z</time></trkpt><trkpt lat="45.0723333" lon="7.97095"><ele>429.0</ele><time>2026-04-19T12:45:09.015Z</time></trkpt><trkpt lat="45.0725" lon="7.97083"><ele>433.33333333333337</ele><time>2026-04-19T12:45:10.014Z</time></trkpt><trkpt lat="45.0726583" lon="7.9706983"><ele>437.6666666666667</ele><time>2026-04-19T12:45:11.015Z</time></trkpt><trkpt lat="45.072825" lon="7.97058"><ele>442.0</ele><time>2026-04-19T12:45:12.015Z</time></trkpt><trkpt lat="45.07301" lon="7.97048"><ele>442.0</ele><time>2026-04-19T12:45:13.014Z</time></trkpt><trkpt lat="45.07318" lon="7.9703683"><ele>442.0</ele><time>2026-04-19T12:45:14.015Z</time></trkpt><trkpt lat="45.0733517" lon="7.97025"><ele>442.0</ele><time>2026-04-19T12:45:15.015Z</time></trkpt><trkpt lat="45.0735167" lon="7.970105"><ele>448.0</ele><time>2026-04-19T12:45:16.015Z</time></trkpt><trkpt lat="45.0736467" lon="7.969935"><ele>454.0</ele><time>2026-04-19T12:45:17.014Z</time></trkpt><trkpt lat="45.07376" lon="7.9697683"><ele>460.0</ele><time>2026-04-19T12:45:18.015Z</time></trkpt><trkpt lat="45.073865" lon="7.9696333"><ele>460.0</ele><time>2026-04-19T12:45:19.014Z</time></trkpt><trkpt lat="45.07398" lon="7.969505"><ele>460.0</ele><time>2026-04-19T12:45:20.015Z</time></trkpt><trkpt lat="45.0740883" lon="7.9693983"><ele>460.0</ele><time>2026-04-19T12:45:21.015Z</time></trkpt><trkpt lat="45.074205" lon="7.969355"><ele>460.0</ele><time>2026-04-19T12:45:22.014Z</time></trkpt><trkpt lat="45.074345" lon="7.9693883"><ele>458.33333333333337</ele><time>2026-04-19T12:45:23.014Z</time></trkpt><trkpt lat="45.0745017" lon="7.96946"><ele>456.66666666666663</ele><time>2026-04-19T12:45:24.015Z</time></trkpt><trkpt lat="45.0746483" lon="7.9695433"><ele>455.0</ele><time>2026-04-19T12:45:25.015Z</time></trkpt><trkpt lat="45.074795" lon="7.9696083"><ele>455.0</ele><time>2026-04-19T12:45:26.014Z</time></trkpt><trkpt lat="45.0749367" lon="7.96968"><ele>455.0</ele><time>2026-04-19T12:45:27.015Z</time></trkpt><trkpt lat="45.0750667" lon="7.9697333"><ele>455.0</ele><time>2026-04-19T12:45:28.014Z</time></trkpt><trkpt lat="45.0751767" lon="7.9697917"><ele>455.0</ele><time>2026-04-19T12:45:29.015Z</time></trkpt><trkpt lat="45.0752567" lon="7.96992"><ele>455.5</ele><time>2026-04-19T12:45:30.015Z</time></trkpt><trkpt lat="45.0752983" lon="7.9700817"><ele>456.0</ele><time>2026-04-19T12:45:31.014Z</time></trkpt><trkpt lat="45.07532" lon="7.97025"><ele>456.5</ele><time>2026-04-19T12:45:32.014Z</time></trkpt><trkpt lat="45.07533" lon="7.970435"><ele>457.0</ele><time>2026-04-19T12:45:33.015Z</time></trkpt><trkpt lat="45.0753733" lon="7.970615"><ele>457.0</ele><time>2026-04-19T12:45:34.014Z</time></trkpt><trkpt lat="45.0754433" lon="7.9707783"><ele>457.0</ele><time>2026-04-19T12:45:35.015Z</time></trkpt><trkpt lat="45.0755417" lon="7.9709233"><ele>457.0</ele><time>2026-04-19T12:45:36.014Z</time></trkpt><trkpt lat="45.075635" lon="7.9710883"><ele>457.0</ele><time>2026-04-19T12:45:37.014Z</time></trkpt><trkpt lat="45.0757067" lon="7.9712783"><ele>456.0</ele><time>2026-04-19T12:45:38.014Z</time></trkpt><trkpt lat="45.075745" lon="7.9714667"><ele>455.0</ele><time>2026-04-19T12:45:39.014Z</time></trkpt><trkpt lat="45.0757483" lon="7.9716583"><ele>454.0</ele><time>2026-04-19T12:45:40.014Z</time></trkpt><trkpt lat="45.0757267" lon="7.97186"><ele>453.0</ele><time>2026-04-19T12:45:41.014Z</time></trkpt><trkpt lat="45.0756983" lon="7.97205"><ele>455.75</ele><time>2026-04-19T12:45:42.015Z</time></trkpt><trkpt lat="45.0756433" lon="7.97223"><ele>458.5</ele><time>2026-04-19T12:45:43.015Z</time></trkpt><trkpt lat="45.075555" lon="7.9723783"><ele>461.25</ele><time>2026-04-19T12:45:44.015Z</time></trkpt><trkpt lat="45.0754433" lon="7.9725033"><ele>464.0</ele><time>2026-04-19T12:45:45.015Z</time></trkpt><trkpt lat="45.07535" lon="7.972605"><ele>464.8333333333333</ele><time>2026-04-19T12:45:46.014Z</time></trkpt><trkpt lat="45.0752833" lon="7.9727167"><ele>465.66666666666663</ele><time>2026-04-19T12:45:47.014Z</time></trkpt><trkpt lat="45.0752317" lon="7.972835"><ele>466.5</ele><time>2026-04-19T12:45:48.014Z</time></trkpt><trkpt lat="45.0752417" lon="7.9729333"><ele>467.33333333333337</ele><time>2026-04-19T12:45:49.014Z</time></trkpt><trkpt lat="45.0752833" lon="7.9730033"><ele>468.1666666666667</ele><time>2026-04-19T12:45:50.014Z</time></trkpt><trkpt lat="45.075345" lon="7.9730233"><ele>469.0</ele><time>2026-04-19T12:45:51.014Z</time></trkpt><trkpt lat="45.0754217" lon="7.9729817"><ele>469.0</ele><time>2026-04-19T12:45:52.014Z</time></trkpt><trkpt lat="45.0755083" lon="7.972875"><ele>469.0</ele><time>2026-04-19T12:45:53.014Z</time></trkpt><trkpt lat="45.0756017" lon="7.97271"><ele>469.0</ele><time>2026-04-19T12:45:54.014Z</time></trkpt><trkpt lat="45.0756933" lon="7.9725483"><ele>469.0</ele><time>2026-04-19T12:45:55.015Z</time></trkpt><trkpt lat="45.0757833" lon="7.972385"><ele>473.5</ele><time>2026-04-19T12:45:56.015Z</time></trkpt><trkpt lat="45.0758617" lon="7.97224"><ele>478.0</ele><time>2026-04-19T12:45:57.015Z</time></trkpt><trkpt lat="45.07593" lon="7.97208"><ele>482.5</ele><time>2026-04-19T12:45:58.015Z</time></trkpt><trkpt lat="45.0759867" lon="7.9719067"><ele>487.0</ele><time>2026-04-19T12:45:59.015Z</time></trkpt><trkpt lat="45.0760483" lon="7.9717283"><ele>485.0</ele><time>2026-04-19T12:46:00.014Z</time></trkpt><trkpt lat="45.07613" lon="7.97157"><ele>483.0</ele><time>2026-04-19T12:46:01.015Z</time></trkpt><trkpt lat="45.0762133" lon="7.9714233"><ele>481.0</ele><time>2026-04-19T12:46:02.015Z</time></trkpt><trkpt lat="45.0762883" lon="7.9712767"><ele>479.0</ele><time>2026-04-19T12:46:03.015Z</time></trkpt><trkpt lat="45.0763117" lon="7.97111"><ele>479.0</ele><time>2026-04-19T12:46:04.014Z</time></trkpt><trkpt lat="45.0762817" lon="7.97095"><ele>479.0</ele><time>2026-04-19T12:46:05.014Z</time></trkpt><trkpt lat="45.076215" lon="7.9707867"><ele>479.0</ele><time>2026-04-19T12:46:06.014Z</time></trkpt><trkpt lat="45.0761417" lon="7.970625"><ele>479.0</ele><time>2026-04-19T12:46:07.015Z</time></trkpt><trkpt lat="45.0760883" lon="7.970475"><ele>479.5</ele><time>2026-04-19T12:46:08.014Z</time></trkpt><trkpt lat="45.0760717" lon="7.970295"><ele>480.0</ele><time>2026-04-19T12:46:09.014Z</time></trkpt><trkpt lat="45.0760883" lon="7.97013"><ele>480.5</ele><time>2026-04-19T12:46:10.015Z</time></trkpt><trkpt lat="45.0761133" lon="7.9699517"><ele>481.0</ele><time>2026-04-19T12:46:11.015Z</time></trkpt><trkpt lat="45.0761417" lon="7.96976"><ele>482.5</ele><time>2026-04-19T12:46:12.014Z</time></trkpt><trkpt lat="45.0761583" lon="7.9695517"><ele>484.0</ele><time>2026-04-19T12:46:13.015Z</time></trkpt><trkpt lat="45.0761967" lon="7.9693683"><ele>485.5</ele><time>2026-04-19T12:46:14.014Z</time></trkpt><trkpt lat="45.0762333" lon="7.9691983"><ele>487.0</ele><time>2026-04-19T12:46:15.015Z</time></trkpt><trkpt lat="45.0762883" lon="7.9690317"><ele>488.0</ele><time>2026-04-19T12:46:16.015Z</time></trkpt><trkpt lat="45.0763483" lon="7.9688683"><ele>489.0</ele><time>2026-04-19T12:46:17.015Z</time></trkpt><trkpt lat="45.0764117" lon="7.9687217"><ele>490.0</ele><time>2026-04-19T12:46:18.014Z</time></trkpt><trkpt lat="45.076495" lon="7.9685783"><ele>491.0</ele><time>2026-04-19T12:46:19.014Z</time></trkpt><trkpt lat="45.0765967" lon="7.9684617"><ele>493.0</ele><time>2026-04-19T12:46:20.015Z</time></trkpt><trkpt lat="45.0767117" lon="7.96837"><ele>495.0</ele><time>2026-04-19T12:46:21.014Z</time></trkpt><trkpt lat="45.07684" lon="7.96828"><ele>497.0</ele><time>2026-04-19T12:46:22.015Z</time></trkpt><trkpt lat="45.0769767" lon="7.9681867"><ele>499.0</ele><time>2026-04-19T12:46:23.015Z</time></trkpt><trkpt lat="45.0771167" lon="7.9680817"><ele>499.0</ele><time>2026-04-19T12:46:24.014Z</time></trkpt><trkpt lat="45.0772533" lon="7.9679917"><ele>499.0</ele><time>2026-04-19T12:46:25.014Z</time></trkpt><trkpt lat="45.077375" lon="7.9679067"><ele>499.0</ele><time>2026-04-19T12:46:26.015Z</time></trkpt><trkpt lat="45.077505" lon="7.967825"><ele>499.0</ele><time>2026-04-19T12:46:27.015Z</time></trkpt><trkpt lat="45.0776383" lon="7.9677417"><ele>501.0</ele><time>2026-04-19T12:46:28.015Z</time></trkpt><trkpt lat="45.0777667" lon="7.9676617"><ele>503.0</ele><time>2026-04-19T12:46:29.014Z</time></trkpt><trkpt lat="45.0778883" lon="7.96759"><ele>505.0</ele><time>2026-04-19T12:46:30.014Z</time></trkpt><trkpt lat="45.0780217" lon="7.967555"><ele>507.0</ele><time>2026-04-19T12:46:31.015Z</time></trkpt><trkpt lat="45.07815" lon="7.9675467"><ele>507.75</ele><time>2026-04-19T12:46:32.014Z</time></trkpt><trkpt lat="45.0782917" lon="7.9675733"><ele>508.5</ele><time>2026-04-19T12:46:33.014Z</time></trkpt><trkpt lat="45.078435" lon="7.96764"><ele>509.25</ele><time>2026-04-19T12:46:34.014Z</time></trkpt><trkpt lat="45.0785683" lon="7.967735"><ele>510.0</ele><time>2026-04-19T12:46:35.014Z</time></trkpt><trkpt lat="45.07868" lon="7.9678383"><ele>510.0</ele><time>2026-04-19T12:46:36.014Z</time></trkpt><trkpt lat="45.078785" lon="7.9679733"><ele>510.0</ele><time>2026-04-19T12:46:37.014Z</time></trkpt><trkpt lat="45.078875" lon="7.96812"><ele>510.0</ele><time>2026-04-19T12:46:38.014Z</time></trkpt><trkpt lat="45.0789767" lon="7.968255"><ele>510.0</ele><time>2026-04-19T12:46:39.014Z</time></trkpt><trkpt lat="45.0790833" lon="7.96839"><ele>513.0</ele><time>2026-04-19T12:46:40.014Z</time></trkpt><trkpt lat="45.07919" lon="7.968505"><ele>516.0</ele><time>2026-04-19T12:46:41.014Z</time></trkpt><trkpt lat="45.0792867" lon="7.9686033"><ele>519.0</ele><time>2026-04-19T12:46:42.015Z</time></trkpt><trkpt lat="45.07938" lon="7.96868"><ele>522.0</ele><time>2026-04-19T12:46:43.014Z</time></trkpt><trkpt lat="45.0794617" lon="7.9687467"><ele>522.0</ele><time>2026-04-19T12:46:44.015Z</time></trkpt><trkpt lat="45.07953" lon="7.9687867"><ele>522.0</ele><time>2026-04-19T12:46:45.014Z</time></trkpt><trkpt lat="45.07961" lon="7.968785"><ele>522.0</ele><time>2026-04-19T12:46:46.014Z</time></trkpt><trkpt lat="45.0796967" lon="7.9687417"><ele>522.0</ele><time>2026-04-19T12:46:47.015Z</time></trkpt><trkpt lat="45.0797717" lon="7.9686433"><ele>522.0</ele><time>2026-04-19T12:46:48.015Z</time></trkpt><trkpt lat="45.07985" lon="7.9684983"><ele>516.6666666666666</ele><time>2026-04-19T12:46:49.015Z</time></trkpt><trkpt lat="45.0799467" lon="7.9683217"><ele>511.3333333333333</ele><time>2026-04-19T12:46:50.015Z</time></trkpt><trkpt lat="45.080035" lon="7.9681533"><ele>506.0</ele><time>2026-04-19T12:46:51.015Z</time></trkpt><trkpt lat="45.0801383" lon="7.9679933"><ele>506.0</ele><time>2026-04-19T12:46:52.014Z</time></trkpt><trkpt lat="45.0802367" lon="7.9678233"><ele>506.0</ele><time>2026-04-19T12:46:53.014Z</time></trkpt><trkpt lat="45.0803483" lon="7.9676617"><ele>506.0</ele><time>2026-04-19T12:46:54.014Z</time></trkpt><trkpt lat="45.080455" lon="7.9674717"><ele>503.0</ele><time>2026-04-19T12:46:55.014Z</time></trkpt><trkpt lat="45.0805567" lon="7.96727"><ele>500.0</ele><time>2026-04-19T12:46:56.015Z</time></trkpt><trkpt lat="45.080655" lon="7.967075"><ele>497.0</ele><time>2026-04-19T12:46:57.015Z</time></trkpt><trkpt lat="45.0807483" lon="7.96687"><ele>501.0</ele><time>2026-04-19T12:46:58.014Z</time></trkpt><trkpt lat="45.0808483" lon="7.966665"><ele>505.0</ele><time>2026-04-19T12:46:59.015Z</time></trkpt><trkpt lat="45.0809483" lon="7.9664767"><ele>509.0</ele><time>2026-04-19T12:47:00.014Z</time></trkpt><trkpt lat="45.081025" lon="7.9662833"><ele>509.0</ele><time>2026-04-19T12:47:01.015Z</time></trkpt><trkpt lat="45.0811117" lon="7.9660833"><ele>509.0</ele><time>2026-04-19T12:47:02.014Z</time></trkpt><trkpt lat="45.0811967" lon="7.9659017"><ele>509.0</ele><time>2026-04-19T12:47:03.014Z</time></trkpt><trkpt lat="45.0812833" lon="7.9657117"><ele>507.5</ele><time>2026-04-19T12:47:04.014Z</time></trkpt><trkpt lat="45.08134" lon="7.9655217"><ele>506.0</ele><time>2026-04-19T12:47:05.014Z</time></trkpt><trkpt lat="45.08138" lon="7.96532"><ele>504.5</ele><time>2026-04-19T12:47:06.014Z</time></trkpt><trkpt lat="45.0814017" lon="7.96512"><ele>503.0</ele><time>2026-04-19T12:47:07.014Z</time></trkpt><trkpt lat="45.081415" lon="7.9649383"><ele>503.0</ele><time>2026-04-19T12:47:08.014Z</time></trkpt><trkpt lat="45.0814367" lon="7.96476"><ele>503.0</ele><time>2026-04-19T12:47:09.015Z</time></trkpt><trkpt lat="45.0814767" lon="7.9645917"><ele>503.0</ele><time>2026-04-19T12:47:10.014Z</time></trkpt><trkpt lat="45.0815517" lon="7.964445"><ele>503.0</ele><time>2026-04-19T12:47:11.014Z</time></trkpt><trkpt lat="45.0816333" lon="7.9643267"><ele>506.75</ele><time>2026-04-19T12:47:12.014Z</time></trkpt><trkpt lat="45.081735" lon="7.9642383"><ele>510.5</ele><time>2026-04-19T12:47:13.014Z</time></trkpt><trkpt lat="45.08188" lon="7.9641533"><ele>514.25</ele><time>2026-04-19T12:47:14.015Z</time></trkpt><trkpt lat="45.0820283" lon="7.9640583"><ele>518.0</ele><time>2026-04-19T12:47:15.014Z</time></trkpt><trkpt lat="45.08218" lon="7.9639583"><ele>518.0</ele><time>2026-04-19T12:47:16.014Z</time></trkpt><trkpt lat="45.0823283" lon="7.9638533"><ele>518.0</ele><time>2026-04-19T12:47:17.015Z</time></trkpt><trkpt lat="45.082475" lon="7.963755"><ele>518.0</ele><time>2026-04-19T12:47:18.015Z</time></trkpt><trkpt lat="45.082615" lon="7.9636633"><ele>513.0</ele><time>2026-04-19T12:47:19.015Z</time></trkpt><trkpt lat="45.0827583" lon="7.9635583"><ele>508.0</ele><time>2026-04-19T12:47:20.015Z</time></trkpt><trkpt lat="45.082885" lon="7.9634283"><ele>503.0</ele><time>2026-04-19T12:47:21.014Z</time></trkpt><trkpt lat="45.0830117" lon="7.963305"><ele>499.3333333333333</ele><time>2026-04-19T12:47:22.014Z</time></trkpt><trkpt lat="45.0831467" lon="7.96319"><ele>495.66666666666663</ele><time>2026-04-19T12:47:23.015Z</time></trkpt><trkpt lat="45.083305" lon="7.9631167"><ele>492.0</ele><time>2026-04-19T12:47:24.014Z</time></trkpt><trkpt lat="45.0834567" lon="7.9630533"><ele>491.66666666666663</ele><time>2026-04-19T12:47:25.015Z</time></trkpt><trkpt lat="45.0836183" lon="7.9630117"><ele>491.3333333333333</ele><time>2026-04-19T12:47:26.014Z</time></trkpt><trkpt lat="45.0837683" lon="7.9629883"><ele>491.0</ele><time>2026-04-19T12:47:27.015Z</time></trkpt><trkpt lat="45.0839233" lon="7.9629433"><ele>491.0</ele><time>2026-04-19T12:47:28.015Z</time></trkpt><trkpt lat="45.08409" lon="7.962925"><ele>491.0</ele><time>2026-04-19T12:47:29.015Z</time></trkpt><trkpt lat="45.0842483" lon="7.9629517"><ele>491.0</ele><time>2026-04-19T12:47:30.014Z</time></trkpt><trkpt lat="45.0843883" lon="7.9630167"><ele>490.0</ele><time>2026-04-19T12:47:31.015Z</time></trkpt><trkpt lat="45.0845083" lon="7.9631267"><ele>489.0</ele><time>2026-04-19T12:47:32.014Z</time></trkpt><trkpt lat="45.08463" lon="7.963245"><ele>488.0</ele><time>2026-04-19T12:47:33.015Z</time></trkpt><trkpt lat="45.0847417" lon="7.963375"><ele>487.0</ele><time>2026-04-19T12:47:34.014Z</time></trkpt><trkpt lat="45.08485" lon="7.9634783"><ele>487.0</ele><time>2026-04-19T12:47:35.014Z</time></trkpt><trkpt lat="45.0849767" lon="7.9634917"><ele>487.0</ele><time>2026-04-19T12:47:36.014Z</time></trkpt><trkpt lat="45.0850767" lon="7.9634783"><ele>487.0</ele><time>2026-04-19T12:47:37.014Z</time></trkpt><trkpt lat="45.0851667" lon="7.9633883"><ele>487.0</ele><time>2026-04-19T12:47:38.014Z</time></trkpt><trkpt lat="45.0852083" lon="7.96322"><ele>487.0</ele><time>2026-04-19T12:47:39.013Z</time></trkpt><trkpt lat="45.08524" lon="7.96305"><ele>487.0</ele><time>2026-04-19T12:47:40.014Z</time></trkpt><trkpt lat="45.0853233" lon="7.962915"><ele>487.0</ele><time>2026-04-19T12:47:41.013Z</time></trkpt><trkpt lat="45.085435" lon="7.962825"><ele>487.0</ele><time>2026-04-19T12:47:42.014Z</time></trkpt><trkpt lat="45.085565" lon="7.962765"><ele>487.0</ele><time>2026-04-19T12:47:43.014Z</time></trkpt><trkpt lat="45.0857033" lon="7.96275"><ele>487.0</ele><time>2026-04-19T12:47:44.013Z</time></trkpt><trkpt lat="45.0858533" lon="7.962765"><ele>487.0</ele><time>2026-04-19T12:47:45.013Z</time></trkpt><trkpt lat="45.086005" lon="7.96278"><ele>487.0</ele><time>2026-04-19T12:47:46.014Z</time></trkpt><trkpt lat="45.0861583" lon="7.96277"><ele>479.33333333333337</ele><time>2026-04-19T12:47:47.013Z</time></trkpt><trkpt lat="45.0863083" lon="7.9627683"><ele>471.66666666666663</ele><time>2026-04-19T12:47:48.014Z</time></trkpt><trkpt lat="45.0864617" lon="7.96275"><ele>464.0</ele><time>2026-04-19T12:47:49.013Z</time></trkpt><trkpt lat="45.08662" lon="7.9627233"><ele>461.0</ele><time>2026-04-19T12:47:50.014Z</time></trkpt><trkpt lat="45.0867767" lon="7.9626733"><ele>458.0</ele><time>2026-04-19T12:47:51.013Z</time></trkpt><trkpt lat="45.0869267" lon="7.9626083"><ele>455.0</ele><time>2026-04-19T12:47:52.013Z</time></trkpt><trkpt lat="45.087075" lon="7.96253"><ele>454.75</ele><time>2026-04-19T12:47:53.014Z</time></trkpt><trkpt lat="45.0872033" lon="7.9624533"><ele>454.5</ele><time>2026-04-19T12:47:54.013Z</time></trkpt><trkpt lat="45.0873267" lon="7.9623783"><ele>454.25</ele><time>2026-04-19T12:47:55.014Z</time></trkpt><trkpt lat="45.087465" lon="7.9623183"><ele>454.0</ele><time>2026-04-19T12:47:56.014Z</time></trkpt><trkpt lat="45.0875917" lon="7.9622417"><ele>454.0</ele><time>2026-04-19T12:47:57.014Z</time></trkpt><trkpt lat="45.0877" lon="7.9621717"><ele>454.0</ele><time>2026-04-19T12:47:58.013Z</time></trkpt><trkpt lat="45.087805" lon="7.96213"><ele>454.0</ele><time>2026-04-19T12:47:59.014Z</time></trkpt><trkpt lat="45.0879" lon="7.9621383"><ele>454.0</ele><time>2026-04-19T12:48:00.013Z</time></trkpt><trkpt lat="45.0879833" lon="7.962205"><ele>454.0</ele><time>2026-04-19T12:48:01.014Z</time></trkpt><trkpt lat="45.0880383" lon="7.96233"><ele>454.0</ele><time>2026-04-19T12:48:02.013Z</time></trkpt><trkpt lat="45.088055" lon="7.96246"><ele>454.0</ele><time>2026-04-19T12:48:03.013Z</time></trkpt><trkpt lat="45.0880133" lon="7.9625833"><ele>454.0</ele><time>2026-04-19T12:48:04.013Z</time></trkpt><trkpt lat="45.0879217" lon="7.9627017"><ele>454.0</ele><time>2026-04-19T12:48:05.013Z</time></trkpt><trkpt lat="45.0877983" lon="7.9628133"><ele>452.5</ele><time>2026-04-19T12:48:06.013Z</time></trkpt><trkpt lat="45.0876733" lon="7.9629333"><ele>451.0</ele><time>2026-04-19T12:48:07.014Z</time></trkpt><trkpt lat="45.08758" lon="7.9630817"><ele>449.5</ele><time>2026-04-19T12:48:08.013Z</time></trkpt><trkpt lat="45.08752" lon="7.9632183"><ele>448.0</ele><time>2026-04-19T12:48:09.014Z</time></trkpt><trkpt lat="45.087525" lon="7.9633567"><ele>448.4</ele><time>2026-04-19T12:48:10.014Z</time></trkpt><trkpt lat="45.087565" lon="7.9634683"><ele>448.79999999999995</ele><time>2026-04-19T12:48:11.013Z</time></trkpt><trkpt lat="45.0876367" lon="7.9635467"><ele>449.2</ele><time>2026-04-19T12:48:12.013Z</time></trkpt><trkpt lat="45.0877367" lon="7.963595"><ele>449.6</ele><time>2026-04-19T12:48:13.013Z</time></trkpt><trkpt lat="45.0878783" lon="7.96365"><ele>450.0</ele><time>2026-04-19T12:48:14.013Z</time></trkpt><trkpt lat="45.0880267" lon="7.9637433"><ele>450.0</ele><time>2026-04-19T12:48:15.014Z</time></trkpt><trkpt lat="45.088165" lon="7.9638433"><ele>450.0</ele><time>2026-04-19T12:48:16.014Z</time></trkpt><trkpt lat="45.0883017" lon="7.9639433"><ele>450.0</ele><time>2026-04-19T12:48:17.013Z</time></trkpt><trkpt lat="45.088415" lon="7.96405"><ele>450.0</ele><time>2026-04-19T12:48:18.013Z</time></trkpt><trkpt lat="45.0885367" lon="7.9641633"><ele>446.0</ele><time>2026-04-19T12:48:19.013Z</time></trkpt><trkpt lat="45.0886517" lon="7.9642717"><ele>442.0</ele><time>2026-04-19T12:48:20.013Z</time></trkpt><trkpt lat="45.0887583" lon="7.9643867"><ele>438.0</ele><time>2026-04-19T12:48:21.013Z</time></trkpt><trkpt lat="45.088855" lon="7.964515"><ele>434.0</ele><time>2026-04-19T12:48:22.013Z</time></trkpt><trkpt lat="45.0889217" lon="7.9646433"><ele>434.0</ele><time>2026-04-19T12:48:23.014Z</time></trkpt><trkpt lat="45.0889917" lon="7.964785"><ele>434.0</ele><time>2026-04-19T12:48:24.014Z</time></trkpt><trkpt lat="45.0890667" lon="7.9649083"><ele>434.0</ele><time>2026-04-19T12:48:25.014Z</time></trkpt><trkpt lat="45.08913" lon="7.9650317"><ele>434.0</ele><time>2026-04-19T12:48:26.013Z</time></trkpt><trkpt lat="45.089205" lon="7.9651533"><ele>432.16666666666663</ele><time>2026-04-19T12:48:27.013Z</time></trkpt><trkpt lat="45.0892767" lon="7.9652367"><ele>430.3333333333333</ele><time>2026-04-19T12:48:28.013Z</time></trkpt><trkpt lat="45.0893517" lon="7.965265"><ele>428.5</ele><time>2026-04-19T12:48:29.014Z</time></trkpt><trkpt lat="45.0894367" lon="7.96525"><ele>426.66666666666663</ele><time>2026-04-19T12:48:30.014Z</time></trkpt><trkpt lat="45.0895117" lon="7.9651967"><ele>424.8333333333333</ele><time>2026-04-19T12:48:31.013Z</time></trkpt><trkpt lat="45.0895683" lon="7.965095"><ele>423.0</ele><time>2026-04-19T12:48:32.013Z</time></trkpt><trkpt lat="45.0895917" lon="7.9649683"><ele>423.0</ele><time>2026-04-19T12:48:33.014Z</time></trkpt><trkpt lat="45.0895817" lon="7.9648283"><ele>423.0</ele><time>2026-04-19T12:48:34.013Z</time></trkpt><trkpt lat="45.08954" lon="7.96468"><ele>423.0</ele><time>2026-04-19T12:48:35.014Z</time></trkpt><trkpt lat="45.0894617" lon="7.9645167"><ele>423.0</ele><time>2026-04-19T12:48:36.013Z</time></trkpt><trkpt lat="45.0893967" lon="7.96437"><ele>423.0</ele><time>2026-04-19T12:48:37.013Z</time></trkpt><trkpt lat="45.089355" lon="7.9642367"><ele>423.0</ele><time>2026-04-19T12:48:38.014Z</time></trkpt><trkpt lat="45.0893583" lon="7.9641167"><ele>423.0</ele><time>2026-04-19T12:48:39.013Z</time></trkpt><trkpt lat="45.0893833" lon="7.9640333"><ele>423.0</ele><time>2026-04-19T12:48:40.013Z</time></trkpt><trkpt lat="45.0894417" lon="7.963985"><ele>423.0</ele><time>2026-04-19T12:48:41.014Z</time></trkpt><trkpt lat="45.0895183" lon="7.9640017"><ele>423.0</ele><time>2026-04-19T12:48:42.013Z</time></trkpt><trkpt lat="45.0896083" lon="7.9640817"><ele>423.0</ele><time>2026-04-19T12:48:43.014Z</time></trkpt><trkpt lat="45.0896967" lon="7.9642217"><ele>423.0</ele><time>2026-04-19T12:48:44.013Z</time></trkpt><trkpt lat="45.089795" lon="7.9643683"><ele>423.0</ele><time>2026-04-19T12:48:45.014Z</time></trkpt><trkpt lat="45.08988" lon="7.9644583"><ele>423.0</ele><time>2026-04-19T12:48:46.014Z</time></trkpt><trkpt lat="45.0899867" lon="7.964495"><ele>422.5</ele><time>2026-04-19T12:48:47.013Z</time></trkpt><trkpt lat="45.0900983" lon="7.964485"><ele>422.0</ele><time>2026-04-19T12:48:48.014Z</time></trkpt><trkpt lat="45.09022" lon="7.9644567"><ele>421.5</ele><time>2026-04-19T12:48:49.013Z</time></trkpt><trkpt lat="45.090355" lon="7.9644183"><ele>421.0</ele><time>2026-04-19T12:48:50.013Z</time></trkpt><trkpt lat="45.0905017" lon="7.964375"><ele>421.0</ele><time>2026-04-19T12:48:51.013Z</time></trkpt><trkpt lat="45.090665" lon="7.9643383"><ele>421.0</ele><time>2026-04-19T12:48:52.013Z</time></trkpt><trkpt lat="45.09083" lon="7.9643"><ele>421.0</ele><time>2026-04-19T12:48:53.014Z</time></trkpt><trkpt lat="45.091005" lon="7.9642717"><ele>421.0</ele><time>2026-04-19T12:48:54.014Z</time></trkpt><trkpt lat="45.0911633" lon="7.964235"><ele>421.0</ele><time>2026-04-19T12:48:55.014Z</time></trkpt><trkpt lat="45.0913117" lon="7.96417"><ele>421.0</ele><time>2026-04-19T12:48:56.013Z</time></trkpt><trkpt lat="45.0914267" lon="7.9640667"><ele>417.25</ele><time>2026-04-19T12:48:57.013Z</time></trkpt><trkpt lat="45.0915033" lon="7.96392"><ele>413.5</ele><time>2026-04-19T12:48:58.013Z</time></trkpt><trkpt lat="45.09152" lon="7.9637267"><ele>409.75</ele><time>2026-04-19T12:48:59.013Z</time></trkpt><trkpt lat="45.0915067" lon="7.9635083"><ele>406.0</ele><time>2026-04-19T12:49:00.013Z</time></trkpt><trkpt lat="45.0914467" lon="7.9633033"><ele>403.0</ele><time>2026-04-19T12:49:01.013Z</time></trkpt><trkpt lat="45.0913783" lon="7.9631"><ele>400.0</ele><time>2026-04-19T12:49:02.013Z</time></trkpt><trkpt lat="45.0913183" lon="7.9628983"><ele>397.0</ele><time>2026-04-19T12:49:03.014Z</time></trkpt><trkpt lat="45.0912817" lon="7.9627067"><ele>397.75</ele><time>2026-04-19T12:49:04.014Z</time></trkpt><trkpt lat="45.0912667" lon="7.9625133"><ele>398.5</ele><time>2026-04-19T12:49:05.013Z</time></trkpt><trkpt lat="45.0912733" lon="7.9623067"><ele>399.25</ele><time>2026-04-19T12:49:06.013Z</time></trkpt><trkpt lat="45.0913367" lon="7.96213"><ele>400.0</ele><time>2026-04-19T12:49:07.013Z</time></trkpt><trkpt lat="45.091425" lon="7.961955"><ele>400.0</ele><time>2026-04-19T12:49:08.014Z</time></trkpt><trkpt lat="45.0915183" lon="7.96178"><ele>400.0</ele><time>2026-04-19T12:49:09.014Z</time></trkpt><trkpt lat="45.09162" lon="7.9616033"><ele>400.0</ele><time>2026-04-19T12:49:10.014Z</time></trkpt><trkpt lat="45.0917217" lon="7.9614133"><ele>394.6666666666667</ele><time>2026-04-19T12:49:11.013Z</time></trkpt><trkpt lat="45.0918067" lon="7.96121"><ele>389.33333333333337</ele><time>2026-04-19T12:49:12.013Z</time></trkpt><trkpt lat="45.09192" lon="7.9610167"><ele>384.0</ele><time>2026-04-19T12:49:13.013Z</time></trkpt><trkpt lat="45.09202" lon="7.96082"><ele>384.0</ele><time>2026-04-19T12:49:14.014Z</time></trkpt><trkpt lat="45.092115" lon="7.96062"><ele>384.0</ele><time>2026-04-19T12:49:15.014Z</time></trkpt><trkpt lat="45.0922" lon="7.96042"><ele>384.0</ele><time>2026-04-19T12:49:16.014Z</time></trkpt><trkpt lat="45.0923017" lon="7.9602333"><ele>384.0</ele><time>2026-04-19T12:49:17.013Z</time></trkpt><trkpt lat="45.09239" lon="7.96004"><ele>384.0</ele><time>2026-04-19T12:49:18.013Z</time></trkpt><trkpt lat="45.0924733" lon="7.9598667"><ele>384.0</ele><time>2026-04-19T12:49:19.014Z</time></trkpt><trkpt lat="45.092575" lon="7.9596883"><ele>382.75</ele><time>2026-04-19T12:49:20.013Z</time></trkpt><trkpt lat="45.0926567" lon="7.9595017"><ele>381.5</ele><time>2026-04-19T12:49:21.013Z</time></trkpt><trkpt lat="45.0927217" lon="7.9593067"><ele>380.25</ele><time>2026-04-19T12:49:22.013Z</time></trkpt><trkpt lat="45.0927583" lon="7.9591183"><ele>379.0</ele><time>2026-04-19T12:49:23.013Z</time></trkpt><trkpt lat="45.0927767" lon="7.9589017"><ele>378.3333333333333</ele><time>2026-04-19T12:49:24.014Z</time></trkpt><trkpt lat="45.0927817" lon="7.958685"><ele>377.6666666666667</ele><time>2026-04-19T12:49:25.013Z</time></trkpt><trkpt lat="45.0927883" lon="7.9584583"><ele>377.0</ele><time>2026-04-19T12:49:26.013Z</time></trkpt><trkpt lat="45.09279" lon="7.958235"><ele>377.0</ele><time>2026-04-19T12:49:27.014Z</time></trkpt><trkpt lat="45.0927933" lon="7.9580083"><ele>377.0</ele><time>2026-04-19T12:49:28.014Z</time></trkpt><trkpt lat="45.0927983" lon="7.957795"><ele>377.0</ele><time>2026-04-19T12:49:29.013Z</time></trkpt><trkpt lat="45.0928167" lon="7.9575883"><ele>377.5</ele><time>2026-04-19T12:49:30.013Z</time></trkpt><trkpt lat="45.092845" lon="7.9573817"><ele>378.0</ele><time>2026-04-19T12:49:31.013Z</time></trkpt><trkpt lat="45.0929033" lon="7.9572067"><ele>378.5</ele><time>2026-04-19T12:49:32.013Z</time></trkpt><trkpt lat="45.0930067" lon="7.95706"><ele>379.0</ele><time>2026-04-19T12:49:33.013Z</time></trkpt><trkpt lat="45.0931333" lon="7.95695"><ele>382.3333333333333</ele><time>2026-04-19T12:49:34.014Z</time></trkpt><trkpt lat="45.0932667" lon="7.9568433"><ele>385.66666666666663</ele><time>2026-04-19T12:49:35.014Z</time></trkpt><trkpt lat="45.093405" lon="7.9567317"><ele>389.0</ele><time>2026-04-19T12:49:36.013Z</time></trkpt><trkpt lat="45.09354" lon="7.9566217"><ele>389.0</ele><time>2026-04-19T12:49:37.014Z</time></trkpt><trkpt lat="45.0936733" lon="7.9564933"><ele>389.0</ele><time>2026-04-19T12:49:38.013Z</time></trkpt><trkpt lat="45.0938067" lon="7.9563717"><ele>389.0</ele><time>2026-04-19T12:49:39.014Z</time></trkpt><trkpt lat="45.0939367" lon="7.9562117"><ele>389.0</ele><time>2026-04-19T12:49:40.013Z</time></trkpt><trkpt lat="45.0940683" lon="7.956045"><ele>389.0</ele><time>2026-04-19T12:49:41.014Z</time></trkpt><trkpt lat="45.0941883" lon="7.9558867"><ele>389.0</ele><time>2026-04-19T12:49:42.013Z</time></trkpt><trkpt lat="45.09432" lon="7.9557417"><ele>390.3333333333333</ele><time>2026-04-19T12:49:43.013Z</time></trkpt><trkpt lat="45.09444" lon="7.955605"><ele>391.66666666666663</ele><time>2026-04-19T12:49:44.014Z</time></trkpt><trkpt lat="45.0945683" lon="7.9554767"><ele>393.0</ele><time>2026-04-19T12:49:45.013Z</time></trkpt><trkpt lat="45.0946833" lon="7.95533"><ele>393.0</ele><time>2026-04-19T12:49:46.013Z</time></trkpt><trkpt lat="45.0947867" lon="7.955195"><ele>393.0</ele><time>2026-04-19T12:49:47.014Z</time></trkpt><trkpt lat="45.0948783" lon="7.9550583"><ele>393.0</ele><time>2026-04-19T12:49:48.013Z</time></trkpt><trkpt lat="45.094975" lon="7.9549433"><ele>393.0</ele><time>2026-04-19T12:49:49.014Z</time></trkpt><trkpt lat="45.09506" lon="7.9548117"><ele>393.5</ele><time>2026-04-19T12:49:50.013Z</time></trkpt><trkpt lat="45.0951433" lon="7.9546817"><ele>394.0</ele><time>2026-04-19T12:49:51.014Z</time></trkpt><trkpt lat="45.095225" lon="7.95455"><ele>394.5</ele><time>2026-04-19T12:49:52.013Z</time></trkpt><trkpt lat="45.0952967" lon="7.9544167"><ele>395.0</ele><time>2026-04-19T12:49:53.013Z</time></trkpt><trkpt lat="45.0953567" lon="7.9542733"><ele>394.5</ele><time>2026-04-19T12:49:54.013Z</time></trkpt><trkpt lat="45.0954117" lon="7.954115"><ele>394.0</ele><time>2026-04-19T12:49:55.013Z</time></trkpt><trkpt lat="45.0954467" lon="7.9539433"><ele>393.5</ele><time>2026-04-19T12:49:56.014Z</time></trkpt><trkpt lat="45.0954733" lon="7.9537717"><ele>393.0</ele><time>2026-04-19T12:49:57.013Z</time></trkpt><trkpt lat="45.095475" lon="7.9536033"><ele>393.0</ele><time>2026-04-19T12:49:58.013Z</time></trkpt><trkpt lat="45.0954583" lon="7.9534567"><ele>393.0</ele><time>2026-04-19T12:49:59.014Z</time></trkpt><trkpt lat="45.095435" lon="7.9533333"><ele>393.0</ele><time>2026-04-19T12:50:00.014Z</time></trkpt><trkpt lat="45.0954017" lon="7.953235"><ele>393.0</ele><time>2026-04-19T12:50:01.013Z</time></trkpt><trkpt lat="45.0953667" lon="7.9531517"><ele>393.0</ele><time>2026-04-19T12:50:02.013Z</time></trkpt><trkpt lat="45.0953133" lon="7.95304"><ele>393.0</ele><time>2026-04-19T12:50:04.013Z</time></trkpt><trkpt lat="45.0953533" lon="7.952955"><ele>393.2</ele><time>2026-04-19T12:50:08.014Z</time></trkpt><trkpt lat="45.0954167" lon="7.9529317"><ele>393.4</ele><time>2026-04-19T12:50:09.013Z</time></trkpt><trkpt lat="45.0954933" lon="7.952885"><ele>393.59999999999997</ele><time>2026-04-19T12:50:10.013Z</time></trkpt><trkpt lat="45.0955683" lon="7.9528"><ele>393.79999999999995</ele><time>2026-04-19T12:50:11.013Z</time></trkpt><trkpt lat="45.0956633" lon="7.9527"><ele>394.0</ele><time>2026-04-19T12:50:12.014Z</time></trkpt><trkpt lat="45.0957633" lon="7.95257"><ele>393.5</ele><time>2026-04-19T12:50:13.013Z</time></trkpt><trkpt lat="45.0958717" lon="7.9524283"><ele>393.0</ele><time>2026-04-19T12:50:14.013Z</time></trkpt><trkpt lat="45.0959717" lon="7.9522967"><ele>392.5</ele><time>2026-04-19T12:50:15.014Z</time></trkpt><trkpt lat="45.096075" lon="7.95219"><ele>392.0</ele><time>2026-04-19T12:50:16.013Z</time></trkpt><trkpt lat="45.0961833" lon="7.9521217"><ele>392.0</ele><time>2026-04-19T12:50:17.014Z</time></trkpt><trkpt lat="45.096325" lon="7.9520767"><ele>392.0</ele><time>2026-04-19T12:50:18.014Z</time></trkpt><trkpt lat="45.09647" lon="7.9520233"><ele>392.0</ele><time>2026-04-19T12:50:19.014Z</time></trkpt><trkpt lat="45.0965983" lon="7.951945"><ele>392.0</ele><time>2026-04-19T12:50:20.013Z</time></trkpt><trkpt lat="45.09674" lon="7.9518733"><ele>393.0</ele><time>2026-04-19T12:50:21.014Z</time></trkpt><trkpt lat="45.09687" lon="7.9517883"><ele>394.0</ele><time>2026-04-19T12:50:22.013Z</time></trkpt><trkpt lat="45.097" lon="7.9517083"><ele>395.0</ele><time>2026-04-19T12:50:23.014Z</time></trkpt><trkpt lat="45.097115" lon="7.9516083"><ele>396.0</ele><time>2026-04-19T12:50:24.013Z</time></trkpt><trkpt lat="45.0972183" lon="7.9515117"><ele>393.6</ele><time>2026-04-19T12:50:25.013Z</time></trkpt><trkpt lat="45.0973283" lon="7.951415"><ele>391.20000000000005</ele><time>2026-04-19T12:50:26.013Z</time></trkpt><trkpt lat="45.0974233" lon="7.9513367"><ele>388.79999999999995</ele><time>2026-04-19T12:50:27.013Z</time></trkpt><trkpt lat="45.0975133" lon="7.951285"><ele>386.4</ele><time>2026-04-19T12:50:28.014Z</time></trkpt><trkpt lat="45.0975783" lon="7.9512283"><ele>384.0</ele><time>2026-04-19T12:50:29.013Z</time></trkpt><trkpt lat="45.09762" lon="7.9511467"><ele>384.0</ele><time>2026-04-19T12:50:30.013Z</time></trkpt><trkpt lat="45.0976267" lon="7.95105"><ele>384.0</ele><time>2026-04-19T12:50:31.014Z</time></trkpt><trkpt lat="45.0976" lon="7.95096"><ele>384.0</ele><time>2026-04-19T12:50:32.014Z</time></trkpt><trkpt lat="45.09755" lon="7.950895"><ele>384.0</ele><time>2026-04-19T12:50:33.013Z</time></trkpt><trkpt lat="45.09738" lon="7.9509333"><ele>384.0</ele><time>2026-04-19T12:50:35.014Z</time></trkpt><trkpt lat="45.0972483" lon="7.9510417"><ele>382.5</ele><time>2026-04-19T12:50:36.014Z</time></trkpt><trkpt lat="45.09713" lon="7.9511683"><ele>381.0</ele><time>2026-04-19T12:50:37.013Z</time></trkpt><trkpt lat="45.0970083" lon="7.9512667"><ele>379.5</ele><time>2026-04-19T12:50:38.014Z</time></trkpt><trkpt lat="45.0968917" lon="7.9513517"><ele>378.0</ele><time>2026-04-19T12:50:39.013Z</time></trkpt><trkpt lat="45.0967767" lon="7.9514067"><ele>378.0</ele><time>2026-04-19T12:50:40.014Z</time></trkpt><trkpt lat="45.0966783" lon="7.95145"><ele>378.0</ele><time>2026-04-19T12:50:41.013Z</time></trkpt><trkpt lat="45.096575" lon="7.9514483"><ele>378.0</ele><time>2026-04-19T12:50:42.014Z</time></trkpt><trkpt lat="45.0964783" lon="7.9514367"><ele>378.0</ele><time>2026-04-19T12:50:43.014Z</time></trkpt><trkpt lat="45.0964033" lon="7.9513933"><ele>378.0</ele><time>2026-04-19T12:50:44.013Z</time></trkpt><trkpt lat="45.0963483" lon="7.95131"><ele>377.0</ele><time>2026-04-19T12:50:45.013Z</time></trkpt><trkpt lat="45.09632" lon="7.9512017"><ele>376.0</ele><time>2026-04-19T12:50:46.013Z</time></trkpt><trkpt lat="45.0963283" lon="7.9510833"><ele>375.0</ele><time>2026-04-19T12:50:47.013Z</time></trkpt><trkpt lat="45.0963967" lon="7.9509967"><ele>374.0</ele><time>2026-04-19T12:50:48.014Z</time></trkpt><trkpt lat="45.0965117" lon="7.9509217"><ele>373.0</ele><time>2026-04-19T12:50:49.014Z</time></trkpt><trkpt lat="45.0966717" lon="7.9508733"><ele>369.66666666666663</ele><time>2026-04-19T12:50:50.014Z</time></trkpt><trkpt lat="45.09685" lon="7.9508083"><ele>366.3333333333333</ele><time>2026-04-19T12:50:51.013Z</time></trkpt><trkpt lat="45.09701" lon="7.95071"><ele>363.0</ele><time>2026-04-19T12:50:52.013Z</time></trkpt><trkpt lat="45.097145" lon="7.9505983"><ele>363.0</ele><time>2026-04-19T12:50:53.013Z</time></trkpt><trkpt lat="45.0972683" lon="7.9504383"><ele>363.0</ele><time>2026-04-19T12:50:54.014Z</time></trkpt><trkpt lat="45.09737" lon="7.95026"><ele>363.0</ele><time>2026-04-19T12:50:55.013Z</time></trkpt><trkpt lat="45.0974567" lon="7.9500817"><ele>360.3333333333333</ele><time>2026-04-19T12:50:56.013Z</time></trkpt><trkpt lat="45.09753" lon="7.949925"><ele>357.66666666666663</ele><time>2026-04-19T12:50:57.013Z</time></trkpt><trkpt lat="45.0976183" lon="7.9497333"><ele>355.0</ele><time>2026-04-19T12:50:58.013Z</time></trkpt><trkpt lat="45.097715" lon="7.9495517"><ele>355.0</ele><time>2026-04-19T12:50:59.014Z</time></trkpt><trkpt lat="45.0978083" lon="7.9494167"><ele>355.0</ele><time>2026-04-19T12:51:00.013Z</time></trkpt><trkpt lat="45.097915" lon="7.9492983"><ele>355.0</ele><time>2026-04-19T12:51:01.013Z</time></trkpt><trkpt lat="45.098035" lon="7.9491983"><ele>355.0</ele><time>2026-04-19T12:51:02.014Z</time></trkpt><trkpt lat="45.0981567" lon="7.9491033"><ele>353.66666666666663</ele><time>2026-04-19T12:51:03.013Z</time></trkpt><trkpt lat="45.09829" lon="7.948995"><ele>352.3333333333333</ele><time>2026-04-19T12:51:04.013Z</time></trkpt><trkpt lat="45.0984117" lon="7.9488683"><ele>351.0</ele><time>2026-04-19T12:51:05.013Z</time></trkpt><trkpt lat="45.0985183" lon="7.9487133"><ele>351.0</ele><time>2026-04-19T12:51:06.013Z</time></trkpt><trkpt lat="45.0986317" lon="7.9485433"><ele>351.0</ele><time>2026-04-19T12:51:07.014Z</time></trkpt><trkpt lat="45.09874" lon="7.9483817"><ele>351.0</ele><time>2026-04-19T12:51:08.014Z</time></trkpt><trkpt lat="45.0988483" lon="7.9482317"><ele>349.0</ele><time>2026-04-19T12:51:09.014Z</time></trkpt><trkpt lat="45.09896" lon="7.94809"><ele>347.0</ele><time>2026-04-19T12:51:10.014Z</time></trkpt><trkpt lat="45.0990733" lon="7.9479533"><ele>345.0</ele><time>2026-04-19T12:51:11.013Z</time></trkpt><trkpt lat="45.09918" lon="7.9478167"><ele>343.0</ele><time>2026-04-19T12:51:12.013Z</time></trkpt><trkpt lat="45.0993" lon="7.9477133"><ele>343.0</ele><time>2026-04-19T12:51:13.013Z</time></trkpt><trkpt lat="45.0994267" lon="7.947615"><ele>343.0</ele><time>2026-04-19T12:51:14.013Z</time></trkpt><trkpt lat="45.0995667" lon="7.9475533"><ele>343.0</ele><time>2026-04-19T12:51:15.013Z</time></trkpt><trkpt lat="45.099715" lon="7.9475017"><ele>343.0</ele><time>2026-04-19T12:51:16.013Z</time></trkpt><trkpt lat="45.0998633" lon="7.9474567"><ele>340.5</ele><time>2026-04-19T12:51:17.013Z</time></trkpt><trkpt lat="45.1000033" lon="7.947405"><ele>338.0</ele><time>2026-04-19T12:51:18.013Z</time></trkpt><trkpt lat="45.1001367" lon="7.94735"><ele>335.5</ele><time>2026-04-19T12:51:19.013Z</time></trkpt><trkpt lat="45.1002683" lon="7.9472933"><ele>333.0</ele><time>2026-04-19T12:51:20.013Z</time></trkpt><trkpt lat="45.1003933" lon="7.94724"><ele>333.0</ele><time>2026-04-19T12:51:21.013Z</time></trkpt><trkpt lat="45.100515" lon="7.9471817"><ele>333.0</ele><time>2026-04-19T12:51:22.013Z</time></trkpt><trkpt lat="45.1006167" lon="7.9470917"><ele>333.0</ele><time>2026-04-19T12:51:23.014Z</time></trkpt><trkpt lat="45.1006883" lon="7.9469717"><ele>333.0</ele><time>2026-04-19T12:51:24.014Z</time></trkpt><trkpt lat="45.1007383" lon="7.9468167"><ele>329.25</ele><time>2026-04-19T12:51:25.013Z</time></trkpt><trkpt lat="45.1007467" lon="7.9466483"><ele>325.5</ele><time>2026-04-19T12:51:26.014Z</time></trkpt><trkpt lat="45.1007183" lon="7.94649"><ele>321.75</ele><time>2026-04-19T12:51:27.014Z</time></trkpt><trkpt lat="45.1006767" lon="7.946325"><ele>318.0</ele><time>2026-04-19T12:51:28.013Z</time></trkpt><trkpt lat="45.1006267" lon="7.9461667"><ele>318.0</ele><time>2026-04-19T12:51:29.013Z</time></trkpt><trkpt lat="45.1005767" lon="7.9460033"><ele>318.0</ele><time>2026-04-19T12:51:30.013Z</time></trkpt><trkpt lat="45.1005367" lon="7.945835"><ele>318.0</ele><time>2026-04-19T12:51:31.014Z</time></trkpt><trkpt lat="45.1005033" lon="7.945665"><ele>318.0</ele><time>2026-04-19T12:51:32.013Z</time></trkpt><trkpt lat="45.1004883" lon="7.9455033"><ele>315.25</ele><time>2026-04-19T12:51:33.014Z</time></trkpt><trkpt lat="45.1004983" lon="7.9453433"><ele>312.5</ele><time>2026-04-19T12:51:34.013Z</time></trkpt><trkpt lat="45.10053" lon="7.94518"><ele>309.75</ele><time>2026-04-19T12:51:35.013Z</time></trkpt><trkpt lat="45.1005767" lon="7.94501"><ele>307.0</ele><time>2026-04-19T12:51:36.014Z</time></trkpt><trkpt lat="45.1006367" lon="7.9448483"><ele>306.0</ele><time>2026-04-19T12:51:37.014Z</time></trkpt><trkpt lat="45.1006983" lon="7.9446967"><ele>305.0</ele><time>2026-04-19T12:51:38.013Z</time></trkpt><trkpt lat="45.1007617" lon="7.944545"><ele>304.0</ele><time>2026-04-19T12:51:39.013Z</time></trkpt><trkpt lat="45.1008233" lon="7.944405"><ele>303.0</ele><time>2026-04-19T12:51:40.014Z</time></trkpt><trkpt lat="45.1009017" lon="7.9442833"><ele>304.0</ele><time>2026-04-19T12:51:41.014Z</time></trkpt><trkpt lat="45.100985" lon="7.9441983"><ele>305.0</ele><time>2026-04-19T12:51:42.013Z</time></trkpt><trkpt lat="45.1010733" lon="7.9441733"><ele>306.0</ele><time>2026-04-19T12:51:43.013Z</time></trkpt><trkpt lat="45.10117" lon="7.94418"><ele>307.0</ele><time>2026-04-19T12:51:44.013Z</time></trkpt><trkpt lat="45.101255" lon="7.9441833"><ele>308.0</ele><time>2026-04-19T12:51:45.013Z</time></trkpt><trkpt lat="45.1013267" lon="7.94416"><ele>309.0</ele><time>2026-04-19T12:51:46.013Z</time></trkpt><trkpt lat="45.10138" lon="7.9440933"><ele>309.0</ele><time>2026-04-19T12:51:47.013Z</time></trkpt><trkpt lat="45.101415" lon="7.943995"><ele>309.0</ele><time>2026-04-19T12:51:48.014Z</time></trkpt><trkpt lat="45.1014133" lon="7.9438783"><ele>309.0</ele><time>2026-04-19T12:51:49.013Z</time></trkpt><trkpt lat="45.10137" lon="7.9437783"><ele>309.0</ele><time>2026-04-19T12:51:50.013Z</time></trkpt><trkpt lat="45.1012883" lon="7.94372"><ele>309.0</ele><time>2026-04-19T12:51:51.013Z</time></trkpt><trkpt lat="45.1011783" lon="7.9437183"><ele>309.0</ele><time>2026-04-19T12:51:52.013Z</time></trkpt><trkpt lat="45.1010667" lon="7.9437533"><ele>309.0</ele><time>2026-04-19T12:51:53.013Z</time></trkpt><trkpt lat="45.100965" lon="7.9438183"><ele>309.0</ele><time>2026-04-19T12:51:54.013Z</time></trkpt><trkpt lat="45.1008683" lon="7.9439017"><ele>309.0</ele><time>2026-04-19T12:51:55.013Z</time></trkpt><trkpt lat="45.1007667" lon="7.944015"><ele>309.0</ele><time>2026-04-19T12:51:56.014Z</time></trkpt><trkpt lat="45.10067" lon="7.94414"><ele>307.5</ele><time>2026-04-19T12:51:57.013Z</time></trkpt><trkpt lat="45.1005717" lon="7.94427"><ele>306.0</ele><time>2026-04-19T12:51:58.014Z</time></trkpt><trkpt lat="45.1004717" lon="7.944385"><ele>304.5</ele><time>2026-04-19T12:51:59.014Z</time></trkpt><trkpt lat="45.1003767" lon="7.9445017"><ele>303.0</ele><time>2026-04-19T12:52:00.013Z</time></trkpt><trkpt lat="45.10029" lon="7.9446117"><ele>303.0</ele><time>2026-04-19T12:52:01.014Z</time></trkpt><trkpt lat="45.10021" lon="7.9447117"><ele>303.0</ele><time>2026-04-19T12:52:02.013Z</time></trkpt><trkpt lat="45.1001283" lon="7.9448183"><ele>303.0</ele><time>2026-04-19T12:52:03.013Z</time></trkpt><trkpt lat="45.100055" lon="7.9449467"><ele>303.0</ele><time>2026-04-19T12:52:04.013Z</time></trkpt><trkpt lat="45.1000067" lon="7.9451233"><ele>304.0</ele><time>2026-04-19T12:52:05.013Z</time></trkpt><trkpt lat="45.09999" lon="7.9453033"><ele>305.0</ele><time>2026-04-19T12:52:06.014Z</time></trkpt><trkpt lat="45.0999883" lon="7.94548"><ele>306.0</ele><time>2026-04-19T12:52:07.014Z</time></trkpt><trkpt lat="45.0999733" lon="7.9456433"><ele>307.0</ele><time>2026-04-19T12:52:08.014Z</time></trkpt><trkpt lat="45.0999533" lon="7.9457717"><ele>306.8333333333333</ele><time>2026-04-19T12:52:09.013Z</time></trkpt><trkpt lat="45.0999167" lon="7.9458633"><ele>306.66666666666663</ele><time>2026-04-19T12:52:10.014Z</time></trkpt><trkpt lat="45.0998683" lon="7.9459267"><ele>306.5</ele><time>2026-04-19T12:52:11.013Z</time></trkpt><trkpt lat="45.0997633" lon="7.9458967"><ele>306.3333333333333</ele><time>2026-04-19T12:52:13.014Z</time></trkpt><trkpt lat="45.0997283" lon="7.9458017"><ele>306.1666666666667</ele><time>2026-04-19T12:52:14.013Z</time></trkpt><trkpt lat="45.0997233" lon="7.9456817"><ele>306.0</ele><time>2026-04-19T12:52:15.014Z</time></trkpt><trkpt lat="45.099755" lon="7.9455683"><ele>306.0</ele><time>2026-04-19T12:52:16.014Z</time></trkpt><trkpt lat="45.099815" lon="7.94547"><ele>306.0</ele><time>2026-04-19T12:52:17.014Z</time></trkpt><trkpt lat="45.099855" lon="7.9453717"><ele>306.0</ele><time>2026-04-19T12:52:18.013Z</time></trkpt><trkpt lat="45.0998733" lon="7.945245"><ele>306.0</ele><time>2026-04-19T12:52:19.013Z</time></trkpt><trkpt lat="45.0998567" lon="7.9451117"><ele>306.0</ele><time>2026-04-19T12:52:20.013Z</time></trkpt><trkpt lat="45.0998333" lon="7.9449667"><ele>302.8</ele><time>2026-04-19T12:52:21.013Z</time></trkpt><trkpt lat="45.099815" lon="7.9448217"><ele>299.6</ele><time>2026-04-19T12:52:22.013Z</time></trkpt><trkpt lat="45.0997967" lon="7.9446933"><ele>296.4</ele><time>2026-04-19T12:52:23.014Z</time></trkpt><trkpt lat="45.0997983" lon="7.944555"><ele>293.2</ele><time>2026-04-19T12:52:24.013Z</time></trkpt><trkpt lat="45.0998283" lon="7.9444133"><ele>290.0</ele><time>2026-04-19T12:52:25.013Z</time></trkpt><trkpt lat="45.0998817" lon="7.9442417"><ele>292.6666666666667</ele><time>2026-04-19T12:52:26.013Z</time></trkpt><trkpt lat="45.09994" lon="7.9440383"><ele>295.3333333333333</ele><time>2026-04-19T12:52:27.014Z</time></trkpt><trkpt lat="45.1000083" lon="7.9438217"><ele>298.0</ele><time>2026-04-19T12:52:28.013Z</time></trkpt><trkpt lat="45.1000817" lon="7.9435783"><ele>295.66666666666663</ele><time>2026-04-19T12:52:29.014Z</time></trkpt><trkpt lat="45.1001733" lon="7.943335"><ele>293.3333333333333</ele><time>2026-04-19T12:52:30.013Z</time></trkpt><trkpt lat="45.1002617" lon="7.9430767"><ele>291.0</ele><time>2026-04-19T12:52:31.013Z</time></trkpt><trkpt lat="45.10035" lon="7.9428383"><ele>291.0</ele><time>2026-04-19T12:52:32.013Z</time></trkpt><trkpt lat="45.1004383" lon="7.9426067"><ele>291.0</ele><time>2026-04-19T12:52:33.013Z</time></trkpt><trkpt lat="45.1005233" lon="7.9423733"><ele>291.0</ele><time>2026-04-19T12:52:34.014Z</time></trkpt><trkpt lat="45.1006067" lon="7.942145"><ele>292.0</ele><time>2026-04-19T12:52:35.014Z</time></trkpt><trkpt lat="45.100695" lon="7.9419233"><ele>293.0</ele><time>2026-04-19T12:52:36.014Z</time></trkpt><trkpt lat="45.1007983" lon="7.9417183"><ele>294.0</ele><time>2026-04-19T12:52:37.013Z</time></trkpt><trkpt lat="45.1009067" lon="7.9415517"><ele>291.75</ele><time>2026-04-19T12:52:38.013Z</time></trkpt><trkpt lat="45.1010083" lon="7.9414183"><ele>289.5</ele><time>2026-04-19T12:52:39.013Z</time></trkpt><trkpt lat="45.1011117" lon="7.9413717"><ele>287.25</ele><time>2026-04-19T12:52:40.013Z</time></trkpt><trkpt lat="45.1012217" lon="7.9413833"><ele>285.0</ele><time>2026-04-19T12:52:41.014Z</time></trkpt><trkpt lat="45.1013183" lon="7.94146"><ele>285.0</ele><time>2026-04-19T12:52:42.014Z</time></trkpt><trkpt lat="45.1014067" lon="7.9414883"><ele>285.0</ele><time>2026-04-19T12:52:43.013Z</time></trkpt><trkpt lat="45.1014983" lon="7.9414483"><ele>285.0</ele><time>2026-04-19T12:52:44.014Z</time></trkpt><trkpt lat="45.1015783" lon="7.9413583"><ele>285.0</ele><time>2026-04-19T12:52:45.013Z</time></trkpt><trkpt lat="45.1016317" lon="7.9412083"><ele>285.0</ele><time>2026-04-19T12:52:46.013Z</time></trkpt><trkpt lat="45.1016567" lon="7.94102"><ele>282.5</ele><time>2026-04-19T12:52:47.013Z</time></trkpt><trkpt lat="45.1016833" lon="7.9408217"><ele>280.0</ele><time>2026-04-19T12:52:48.014Z</time></trkpt><trkpt lat="45.1017067" lon="7.9406483"><ele>277.5</ele><time>2026-04-19T12:52:49.013Z</time></trkpt><trkpt lat="45.1017633" lon="7.9404933"><ele>275.0</ele><time>2026-04-19T12:52:50.013Z</time></trkpt><trkpt lat="45.10183" lon="7.9403783"><ele>275.0</ele><time>2026-04-19T12:52:51.013Z</time></trkpt><trkpt lat="45.1019483" lon="7.94031"><ele>275.0</ele><time>2026-04-19T12:52:52.014Z</time></trkpt><trkpt lat="45.102095" lon="7.9402667"><ele>275.0</ele><time>2026-04-19T12:52:53.013Z</time></trkpt><trkpt lat="45.10225" lon="7.940235"><ele>275.0</ele><time>2026-04-19T12:52:54.013Z</time></trkpt><trkpt lat="45.1024133" lon="7.94018"><ele>276.0</ele><time>2026-04-19T12:52:55.013Z</time></trkpt><trkpt lat="45.1025767" lon="7.9401167"><ele>277.0</ele><time>2026-04-19T12:52:56.014Z</time></trkpt><trkpt lat="45.1027267" lon="7.9400633"><ele>278.0</ele><time>2026-04-19T12:52:57.013Z</time></trkpt><trkpt lat="45.1028567" lon="7.9400383"><ele>278.0</ele><time>2026-04-19T12:52:58.014Z</time></trkpt><trkpt lat="45.102985" lon="7.940085"><ele>278.0</ele><time>2026-04-19T12:52:59.014Z</time></trkpt><trkpt lat="45.1030933" lon="7.9402"><ele>278.0</ele><time>2026-04-19T12:53:00.014Z</time></trkpt><trkpt lat="45.1031867" lon="7.9403417"><ele>278.0</ele><time>2026-04-19T12:53:01.013Z</time></trkpt><trkpt lat="45.10329" lon="7.940435"><ele>276.75</ele><time>2026-04-19T12:53:02.013Z</time></trkpt><trkpt lat="45.1034167" lon="7.9404517"><ele>275.5</ele><time>2026-04-19T12:53:03.014Z</time></trkpt><trkpt lat="45.1035633" lon="7.94039"><ele>274.25</ele><time>2026-04-19T12:53:04.014Z</time></trkpt><trkpt lat="45.1037017" lon="7.9403133"><ele>273.0</ele><time>2026-04-19T12:53:05.013Z</time></trkpt><trkpt lat="45.10385" lon="7.94025"><ele>273.0</ele><time>2026-04-19T12:53:06.013Z</time></trkpt><trkpt lat="45.1039983" lon="7.9402483"><ele>273.0</ele><time>2026-04-19T12:53:07.014Z</time></trkpt><trkpt lat="45.1041433" lon="7.940285"><ele>273.0</ele><time>2026-04-19T12:53:08.013Z</time></trkpt><trkpt lat="45.1042833" lon="7.9403617"><ele>273.0</ele><time>2026-04-19T12:53:09.014Z</time></trkpt><trkpt lat="45.1044117" lon="7.9404533"><ele>269.3333333333333</ele><time>2026-04-19T12:53:10.013Z</time></trkpt><trkpt lat="45.10455" lon="7.9405583"><ele>265.66666666666663</ele><time>2026-04-19T12:53:11.013Z</time></trkpt><trkpt lat="45.1046983" lon="7.9406683"><ele>262.0</ele><time>2026-04-19T12:53:12.014Z</time></trkpt><trkpt lat="45.10486" lon="7.9407633"><ele>259.66666666666663</ele><time>2026-04-19T12:53:13.014Z</time></trkpt><trkpt lat="45.1050267" lon="7.94085"><ele>257.3333333333333</ele><time>2026-04-19T12:53:14.014Z</time></trkpt><trkpt lat="45.1052217" lon="7.940925"><ele>255.0</ele><time>2026-04-19T12:53:15.014Z</time></trkpt><trkpt lat="45.10541" lon="7.9409867"><ele>255.0</ele><time>2026-04-19T12:53:16.014Z</time></trkpt><trkpt lat="45.1056" lon="7.9410317"><ele>255.0</ele><time>2026-04-19T12:53:17.013Z</time></trkpt><trkpt lat="45.105785" lon="7.94109"><ele>255.0</ele><time>2026-04-19T12:53:18.013Z</time></trkpt><trkpt lat="45.1059683" lon="7.9411583"><ele>251.66666666666669</ele><time>2026-04-19T12:53:19.013Z</time></trkpt><trkpt lat="45.1061467" lon="7.941215"><ele>248.33333333333334</ele><time>2026-04-19T12:53:20.013Z</time></trkpt><trkpt lat="45.1063133" lon="7.94127"><ele>245.0</ele><time>2026-04-19T12:53:21.013Z</time></trkpt><trkpt lat="45.1064833" lon="7.941345"><ele>244.0</ele><time>2026-04-19T12:53:22.014Z</time></trkpt><trkpt lat="45.1066533" lon="7.9414333"><ele>243.0</ele><time>2026-04-19T12:53:23.014Z</time></trkpt><trkpt lat="45.10683" lon="7.94153"><ele>242.0</ele><time>2026-04-19T12:53:24.013Z</time></trkpt><trkpt lat="45.1070017" lon="7.9416233"><ele>242.66666666666669</ele><time>2026-04-19T12:53:25.013Z</time></trkpt><trkpt lat="45.1071683" lon="7.94172"><ele>243.33333333333331</ele><time>2026-04-19T12:53:26.013Z</time></trkpt><trkpt lat="45.1073233" lon="7.9417983"><ele>244.0</ele><time>2026-04-19T12:53:27.013Z</time></trkpt><trkpt lat="45.1074633" lon="7.9418667"><ele>241.66666666666666</ele><time>2026-04-19T12:53:28.013Z</time></trkpt><trkpt lat="45.1076083" lon="7.94189"><ele>239.33333333333331</ele><time>2026-04-19T12:53:29.013Z</time></trkpt><trkpt lat="45.107755" lon="7.9418533"><ele>237.0</ele><time>2026-04-19T12:53:30.013Z</time></trkpt><trkpt lat="45.1079067" lon="7.9417817"><ele>238.33333333333331</ele><time>2026-04-19T12:53:31.014Z</time></trkpt><trkpt lat="45.1080533" lon="7.9416867"><ele>239.66666666666666</ele><time>2026-04-19T12:53:32.014Z</time></trkpt><trkpt lat="45.1082117" lon="7.9416"><ele>241.0</ele><time>2026-04-19T12:53:33.013Z</time></trkpt><trkpt lat="45.1083767" lon="7.941505"><ele>241.0</ele><time>2026-04-19T12:53:34.014Z</time></trkpt><trkpt lat="45.1085467" lon="7.9414117"><ele>241.0</ele><time>2026-04-19T12:53:35.014Z</time></trkpt><trkpt lat="45.1087133" lon="7.94134"><ele>241.0</ele><time>2026-04-19T12:53:36.013Z</time></trkpt><trkpt lat="45.1088917" lon="7.941315"><ele>241.0</ele><time>2026-04-19T12:53:37.014Z</time></trkpt><trkpt lat="45.1090617" lon="7.9413233"><ele>241.0</ele><time>2026-04-19T12:53:38.014Z</time></trkpt><trkpt lat="45.1092483" lon="7.9413633"><ele>241.0</ele><time>2026-04-19T12:53:39.013Z</time></trkpt><trkpt lat="45.109435" lon="7.9413933"><ele>240.33333333333331</ele><time>2026-04-19T12:53:40.014Z</time></trkpt><trkpt lat="45.10964" lon="7.941425"><ele>239.66666666666669</ele><time>2026-04-19T12:53:41.014Z</time></trkpt><trkpt lat="45.1098383" lon="7.941465"><ele>239.0</ele><time>2026-04-19T12:53:42.014Z</time></trkpt><trkpt lat="45.1100317" lon="7.94149"><ele>238.66666666666669</ele><time>2026-04-19T12:53:43.013Z</time></trkpt><trkpt lat="45.1102333" lon="7.941525"><ele>238.33333333333331</ele><time>2026-04-19T12:53:44.013Z</time></trkpt><trkpt lat="45.1104333" lon="7.9415767"><ele>238.0</ele><time>2026-04-19T12:53:45.014Z</time></trkpt><trkpt lat="45.1106317" lon="7.941615"><ele>240.0</ele><time>2026-04-19T12:53:46.014Z</time></trkpt><trkpt lat="45.11082" lon="7.9416717"><ele>242.0</ele><time>2026-04-19T12:53:47.013Z</time></trkpt><trkpt lat="45.1109967" lon="7.9417417"><ele>244.0</ele><time>2026-04-19T12:53:48.013Z</time></trkpt><trkpt lat="45.1111533" lon="7.94181"><ele>240.33333333333331</ele><time>2026-04-19T12:53:49.013Z</time></trkpt><trkpt lat="45.1113067" lon="7.9418467"><ele>236.66666666666669</ele><time>2026-04-19T12:53:50.013Z</time></trkpt><trkpt lat="45.1114583" lon="7.9418533"><ele>233.0</ele><time>2026-04-19T12:53:51.013Z</time></trkpt><trkpt lat="45.11161" lon="7.9418383"><ele>233.0</ele><time>2026-04-19T12:53:52.014Z</time></trkpt><trkpt lat="45.1117617" lon="7.9418133"><ele>233.0</ele><time>2026-04-19T12:53:53.014Z</time></trkpt><trkpt lat="45.111905" lon="7.941775"><ele>233.0</ele><time>2026-04-19T12:53:54.013Z</time></trkpt><trkpt lat="45.1120467" lon="7.9417567"><ele>233.0</ele><time>2026-04-19T12:53:55.013Z</time></trkpt><trkpt lat="45.11217" lon="7.9417617"><ele>233.0</ele><time>2026-04-19T12:53:56.013Z</time></trkpt><trkpt lat="45.1122717" lon="7.9417967"><ele>233.0</ele><time>2026-04-19T12:53:57.013Z</time></trkpt><trkpt lat="45.11237" lon="7.941895"><ele>233.0</ele><time>2026-04-19T12:53:58.013Z</time></trkpt><trkpt lat="45.1124667" lon="7.9420083"><ele>233.0</ele><time>2026-04-19T12:53:59.014Z</time></trkpt><trkpt lat="45.1125617" lon="7.9420933"><ele>233.5</ele><time>2026-04-19T12:54:00.013Z</time></trkpt><trkpt lat="45.1126833" lon="7.9421067"><ele>234.0</ele><time>2026-04-19T12:54:01.014Z</time></trkpt><trkpt lat="45.1128283" lon="7.94208"><ele>234.5</ele><time>2026-04-19T12:54:02.013Z</time></trkpt><trkpt lat="45.112985" lon="7.942035"><ele>235.0</ele><time>2026-04-19T12:54:03.014Z</time></trkpt><trkpt lat="45.1131367" lon="7.942"><ele>233.66666666666666</ele><time>2026-04-19T12:54:04.013Z</time></trkpt><trkpt lat="45.1132967" lon="7.9419717"><ele>232.33333333333331</ele><time>2026-04-19T12:54:05.013Z</time></trkpt><trkpt lat="45.1134633" lon="7.9419567"><ele>231.0</ele><time>2026-04-19T12:54:06.013Z</time></trkpt><trkpt lat="45.11363" lon="7.941945"><ele>231.0</ele><time>2026-04-19T12:54:07.013Z</time></trkpt><trkpt lat="45.1138017" lon="7.9419167"><ele>231.0</ele><time>2026-04-19T12:54:08.014Z</time></trkpt><trkpt lat="45.1139667" lon="7.9418983"><ele>231.0</ele><time>2026-04-19T12:54:09.013Z</time></trkpt><trkpt lat="45.1141483" lon="7.9418767"><ele>231.33333333333331</ele><time>2026-04-19T12:54:10.013Z</time></trkpt><trkpt lat="45.1143167" lon="7.9418217"><ele>231.66666666666666</ele><time>2026-04-19T12:54:11.014Z</time></trkpt><trkpt lat="45.1144833" lon="7.9417417"><ele>232.0</ele><time>2026-04-19T12:54:12.013Z</time></trkpt><trkpt lat="45.1146583" lon="7.9416583"><ele>233.33333333333331</ele><time>2026-04-19T12:54:13.013Z</time></trkpt><trkpt lat="45.114835" lon="7.9415867"><ele>234.66666666666669</ele><time>2026-04-19T12:54:14.014Z</time></trkpt><trkpt lat="45.1150233" lon="7.9415283"><ele>236.0</ele><time>2026-04-19T12:54:15.013Z</time></trkpt><trkpt lat="45.1152033" lon="7.9414767"><ele>236.0</ele><time>2026-04-19T12:54:16.014Z</time></trkpt><trkpt lat="45.1153867" lon="7.9414117"><ele>236.0</ele><time>2026-04-19T12:54:17.013Z</time></trkpt><trkpt lat="45.115565" lon="7.9413433"><ele>236.0</ele><time>2026-04-19T12:54:18.013Z</time></trkpt><trkpt lat="45.115735" lon="7.9412933"><ele>234.5</ele><time>2026-04-19T12:54:19.014Z</time></trkpt><trkpt lat="45.1158883" lon="7.9412417"><ele>233.0</ele><time>2026-04-19T12:54:20.013Z</time></trkpt><trkpt lat="45.1160383" lon="7.9412183"><ele>231.5</ele><time>2026-04-19T12:54:21.013Z</time></trkpt><trkpt lat="45.1161767" lon="7.9412533"><ele>230.0</ele><time>2026-04-19T12:54:22.013Z</time></trkpt><trkpt lat="45.116315" lon="7.94135"><ele>230.0</ele><time>2026-04-19T12:54:23.013Z</time></trkpt><trkpt lat="45.116445" lon="7.9414583"><ele>230.0</ele><time>2026-04-19T12:54:24.013Z</time></trkpt><trkpt lat="45.1165817" lon="7.9415717"><ele>230.0</ele><time>2026-04-19T12:54:25.014Z</time></trkpt><trkpt lat="45.116705" lon="7.9416183"><ele>230.0</ele><time>2026-04-19T12:54:26.013Z</time></trkpt><trkpt lat="45.11685" lon="7.941695"><ele>229.66666666666669</ele><time>2026-04-19T12:54:27.013Z</time></trkpt><trkpt lat="45.1169983" lon="7.9417233"><ele>229.33333333333331</ele><time>2026-04-19T12:54:28.013Z</time></trkpt><trkpt lat="45.117155" lon="7.9417067"><ele>229.0</ele><time>2026-04-19T12:54:29.014Z</time></trkpt><trkpt lat="45.117315" lon="7.9416567"><ele>228.0</ele><time>2026-04-19T12:54:30.013Z</time></trkpt><trkpt lat="45.1174933" lon="7.9415967"><ele>227.0</ele><time>2026-04-19T12:54:31.014Z</time></trkpt><trkpt lat="45.1176833" lon="7.9415417"><ele>226.0</ele><time>2026-04-19T12:54:32.014Z</time></trkpt><trkpt lat="45.117865" lon="7.941505"><ele>226.0</ele><time>2026-04-19T12:54:33.014Z</time></trkpt><trkpt lat="45.11805" lon="7.9414817"><ele>226.0</ele><time>2026-04-19T12:54:34.013Z</time></trkpt><trkpt lat="45.118235" lon="7.9414567"><ele>226.0</ele><time>2026-04-19T12:54:35.013Z</time></trkpt><trkpt lat="45.1184267" lon="7.9414167"><ele>225.0</ele><time>2026-04-19T12:54:36.013Z</time></trkpt><trkpt lat="45.1186083" lon="7.941375"><ele>224.0</ele><time>2026-04-19T12:54:37.013Z</time></trkpt><trkpt lat="45.1187817" lon="7.941305"><ele>223.0</ele><time>2026-04-19T12:54:38.014Z</time></trkpt><trkpt lat="45.1189567" lon="7.9412267"><ele>221.33333333333331</ele><time>2026-04-19T12:54:39.013Z</time></trkpt><trkpt lat="45.119135" lon="7.9411217"><ele>219.66666666666669</ele><time>2026-04-19T12:54:40.014Z</time></trkpt><trkpt lat="45.1193" lon="7.941"><ele>218.0</ele><time>2026-04-19T12:54:41.014Z</time></trkpt><trkpt lat="45.11947" lon="7.9408833"><ele>220.0</ele><time>2026-04-19T12:54:42.014Z</time></trkpt><trkpt lat="45.1196267" lon="7.940735"><ele>222.0</ele><time>2026-04-19T12:54:43.013Z</time></trkpt><trkpt lat="45.1197567" lon="7.94058"><ele>224.0</ele><time>2026-04-19T12:54:44.013Z</time></trkpt><trkpt lat="45.1198833" lon="7.940425"><ele>221.66666666666669</ele><time>2026-04-19T12:54:45.014Z</time></trkpt><trkpt lat="45.1200233" lon="7.9402833"><ele>219.33333333333331</ele><time>2026-04-19T12:54:46.013Z</time></trkpt><trkpt lat="45.1201733" lon="7.9401667"><ele>217.0</ele><time>2026-04-19T12:54:47.013Z</time></trkpt><trkpt lat="45.1203167" lon="7.940075"><ele>216.66666666666666</ele><time>2026-04-19T12:54:48.014Z</time></trkpt><trkpt lat="45.1204633" lon="7.9400283"><ele>216.33333333333331</ele><time>2026-04-19T12:54:49.013Z</time></trkpt><trkpt lat="45.120615" lon="7.9399967"><ele>216.0</ele><time>2026-04-19T12:54:50.013Z</time></trkpt><trkpt lat="45.12077" lon="7.9399767"><ele>215.66666666666669</ele><time>2026-04-19T12:54:51.013Z</time></trkpt><trkpt lat="45.1209333" lon="7.9399783"><ele>215.33333333333334</ele><time>2026-04-19T12:54:52.014Z</time></trkpt><trkpt lat="45.1211" lon="7.940035"><ele>215.0</ele><time>2026-04-19T12:54:53.014Z</time></trkpt><trkpt lat="45.1212633" lon="7.9401267"><ele>215.0</ele><time>2026-04-19T12:54:54.014Z</time></trkpt><trkpt lat="45.1214283" lon="7.94022"><ele>215.0</ele><time>2026-04-19T12:54:55.014Z</time></trkpt><trkpt lat="45.1215983" lon="7.9403233"><ele>215.0</ele><time>2026-04-19T12:54:56.014Z</time></trkpt><trkpt lat="45.1217633" lon="7.9404267"><ele>214.66666666666669</ele><time>2026-04-19T12:54:57.013Z</time></trkpt><trkpt lat="45.121935" lon="7.94055"><ele>214.33333333333331</ele><time>2026-04-19T12:54:58.013Z</time></trkpt><trkpt lat="45.12209" lon="7.9406833"><ele>214.0</ele><time>2026-04-19T12:54:59.013Z</time></trkpt><trkpt lat="45.1222267" lon="7.94083"><ele>213.66666666666666</ele><time>2026-04-19T12:55:00.013Z</time></trkpt><trkpt lat="45.1223667" lon="7.9409567"><ele>213.33333333333331</ele><time>2026-04-19T12:55:01.014Z</time></trkpt><trkpt lat="45.122505" lon="7.9410817"><ele>213.0</ele><time>2026-04-19T12:55:02.013Z</time></trkpt><trkpt lat="45.122645" lon="7.9412017"><ele>212.33333333333331</ele><time>2026-04-19T12:55:03.014Z</time></trkpt><trkpt lat="45.1228067" lon="7.941315"><ele>211.66666666666666</ele><time>2026-04-19T12:55:04.013Z</time></trkpt><trkpt lat="45.122965" lon="7.94143"><ele>211.0</ele><time>2026-04-19T12:55:05.013Z</time></trkpt><trkpt lat="45.1231267" lon="7.94154"><ele>210.66666666666666</ele><time>2026-04-19T12:55:06.014Z</time></trkpt><trkpt lat="45.1232883" lon="7.9416433"><ele>210.33333333333331</ele><time>2026-04-19T12:55:07.014Z</time></trkpt><trkpt lat="45.123455" lon="7.94176"><ele>210.0</ele><time>2026-04-19T12:55:08.013Z</time></trkpt><trkpt lat="45.123615" lon="7.9419"><ele>210.0</ele><time>2026-04-19T12:55:09.014Z</time></trkpt><trkpt lat="45.1237683" lon="7.9420467"><ele>210.0</ele><time>2026-04-19T12:55:10.014Z</time></trkpt><trkpt lat="45.1239117" lon="7.9422117"><ele>210.0</ele><time>2026-04-19T12:55:11.013Z</time></trkpt><trkpt lat="45.12405" lon="7.9423883"><ele>209.33333333333331</ele><time>2026-04-19T12:55:12.013Z</time></trkpt><trkpt lat="45.1242083" lon="7.9425517"><ele>208.66666666666666</ele><time>2026-04-19T12:55:13.013Z</time></trkpt><trkpt lat="45.1243633" lon="7.94272"><ele>208.0</ele><time>2026-04-19T12:55:14.013Z</time></trkpt><trkpt lat="45.1245283" lon="7.9428817"><ele>208.0</ele><time>2026-04-19T12:55:15.014Z</time></trkpt><trkpt lat="45.1246967" lon="7.9430267"><ele>208.0</ele><time>2026-04-19T12:55:16.013Z</time></trkpt><trkpt lat="45.12486" lon="7.94316"><ele>208.0</ele><time>2026-04-19T12:55:17.013Z</time></trkpt><trkpt lat="45.12503" lon="7.9432733"><ele>208.0</ele><time>2026-04-19T12:55:18.013Z</time></trkpt><trkpt lat="45.1252" lon="7.9433733"><ele>208.0</ele><time>2026-04-19T12:55:19.014Z</time></trkpt><trkpt lat="45.1253817" lon="7.9434283"><ele>208.0</ele><time>2026-04-19T12:55:20.013Z</time></trkpt><trkpt lat="45.12556" lon="7.9434583"><ele>207.66666666666666</ele><time>2026-04-19T12:55:21.013Z</time></trkpt><trkpt lat="45.1257367" lon="7.9434867"><ele>207.33333333333331</ele><time>2026-04-19T12:55:22.013Z</time></trkpt><trkpt lat="45.125925" lon="7.943505"><ele>207.0</ele><time>2026-04-19T12:55:23.014Z</time></trkpt><trkpt lat="45.126105" lon="7.9435283"><ele>207.0</ele><time>2026-04-19T12:55:24.013Z</time></trkpt><trkpt lat="45.1262867" lon="7.9435567"><ele>207.0</ele><time>2026-04-19T12:55:25.014Z</time></trkpt><trkpt lat="45.1264583" lon="7.9435617"><ele>207.0</ele><time>2026-04-19T12:55:26.013Z</time></trkpt><trkpt lat="45.1266067" lon="7.9435833"><ele>207.0</ele><time>2026-04-19T12:55:27.013Z</time></trkpt><trkpt lat="45.1267567" lon="7.9435983"><ele>207.0</ele><time>2026-04-19T12:55:28.013Z</time></trkpt><trkpt lat="45.1269017" lon="7.9436167"><ele>207.0</ele><time>2026-04-19T12:55:29.013Z</time></trkpt><trkpt lat="45.1270383" lon="7.943635"><ele>207.0</ele><time>2026-04-19T12:55:30.013Z</time></trkpt><trkpt lat="45.127175" lon="7.9436633"><ele>207.0</ele><time>2026-04-19T12:55:31.013Z</time></trkpt><trkpt lat="45.1273067" lon="7.9436717"><ele>207.0</ele><time>2026-04-19T12:55:32.014Z</time></trkpt><trkpt lat="45.127445" lon="7.94368"><ele>207.0</ele><time>2026-04-19T12:55:33.014Z</time></trkpt><trkpt lat="45.127575" lon="7.9436933"><ele>207.0</ele><time>2026-04-19T12:55:34.013Z</time></trkpt><trkpt lat="45.1277117" lon="7.94369"><ele>207.25</ele><time>2026-04-19T12:55:35.013Z</time></trkpt><trkpt lat="45.1278567" lon="7.9436617"><ele>207.5</ele><time>2026-04-19T12:55:36.013Z</time></trkpt><trkpt lat="45.1279917" lon="7.9436"><ele>207.75</ele><time>2026-04-19T12:55:37.014Z</time></trkpt><trkpt lat="45.12812" lon="7.9435333"><ele>208.0</ele><time>2026-04-19T12:55:38.013Z</time></trkpt><trkpt lat="45.1282483" lon="7.9434567"><ele>208.25</ele><time>2026-04-19T12:55:39.013Z</time></trkpt><trkpt lat="45.1283817" lon="7.94338"><ele>208.5</ele><time>2026-04-19T12:55:40.014Z</time></trkpt><trkpt lat="45.1285017" lon="7.9433117"><ele>208.75</ele><time>2026-04-19T12:55:41.013Z</time></trkpt><trkpt lat="45.1286183" lon="7.94324"><ele>209.0</ele><time>2026-04-19T12:55:42.014Z</time></trkpt><trkpt lat="45.1287317" lon="7.9431717"><ele>209.0</ele><time>2026-04-19T12:55:43.014Z</time></trkpt><trkpt lat="45.1288533" lon="7.9431117"><ele>209.0</ele><time>2026-04-19T12:55:44.014Z</time></trkpt><trkpt lat="45.1289517" lon="7.943055"><ele>209.0</ele><time>2026-04-19T12:55:45.014Z</time></trkpt><trkpt lat="45.1290517" lon="7.9429967"><ele>209.0</ele><time>2026-04-19T12:55:46.013Z</time></trkpt><trkpt lat="45.1291433" lon="7.9429533"><ele>209.0</ele><time>2026-04-19T12:55:47.014Z</time></trkpt><trkpt lat="45.1292133" lon="7.942905"><ele>208.79999999999998</ele><time>2026-04-19T12:55:48.013Z</time></trkpt><trkpt lat="45.1293217" lon="7.94296"><ele>208.6</ele><time>2026-04-19T12:55:50.013Z</time></trkpt><trkpt lat="45.1294217" lon="7.9429867"><ele>208.4</ele><time>2026-04-19T12:55:52.013Z</time></trkpt><trkpt lat="45.12953" lon="7.94293"><ele>208.2</ele><time>2026-04-19T12:55:54.013Z</time></trkpt><trkpt lat="45.1295933" lon="7.9428967"><ele>208.0</ele><time>2026-04-19T12:55:55.014Z</time></trkpt><trkpt lat="45.1296767" lon="7.9428533"><ele>208.0</ele><time>2026-04-19T12:55:56.014Z</time></trkpt><trkpt lat="45.12977" lon="7.9428033"><ele>208.0</ele><time>2026-04-19T12:55:57.013Z</time></trkpt><trkpt lat="45.1298667" lon="7.9427467"><ele>208.0</ele><time>2026-04-19T12:55:58.013Z</time></trkpt><trkpt lat="45.1299717" lon="7.9426883"><ele>208.0</ele><time>2026-04-19T12:55:59.014Z</time></trkpt><trkpt lat="45.1300717" lon="7.9426267"><ele>208.0</ele><time>2026-04-19T12:56:00.014Z</time></trkpt><trkpt lat="45.130175" lon="7.9425717"><ele>207.5</ele><time>2026-04-19T12:56:01.013Z</time></trkpt><trkpt lat="45.1302783" lon="7.9424983"><ele>207.0</ele><time>2026-04-19T12:56:02.013Z</time></trkpt><trkpt lat="45.1303933" lon="7.9424483"><ele>206.5</ele><time>2026-04-19T12:56:03.014Z</time></trkpt><trkpt lat="45.1304983" lon="7.9423867"><ele>206.0</ele><time>2026-04-19T12:56:04.014Z</time></trkpt><trkpt lat="45.1306117" lon="7.9423267"><ele>206.0</ele><time>2026-04-19T12:56:05.014Z</time></trkpt><trkpt lat="45.1307183" lon="7.9422667"><ele>206.0</ele><time>2026-04-19T12:56:06.014Z</time></trkpt><trkpt lat="45.1308233" lon="7.9422017"><ele>206.0</ele><time>2026-04-19T12:56:07.014Z</time></trkpt><trkpt lat="45.1309217" lon="7.942135"><ele>206.0</ele><time>2026-04-19T12:56:08.013Z</time></trkpt><trkpt lat="45.131035" lon="7.9420933"><ele>205.75</ele><time>2026-04-19T12:56:09.014Z</time></trkpt><trkpt lat="45.1311367" lon="7.94205"><ele>205.5</ele><time>2026-04-19T12:56:10.013Z</time></trkpt><trkpt lat="45.131245" lon="7.942"><ele>205.25</ele><time>2026-04-19T12:56:11.013Z</time></trkpt><trkpt lat="45.131355" lon="7.94194"><ele>205.0</ele><time>2026-04-19T12:56:12.013Z</time></trkpt><trkpt lat="45.131465" lon="7.94187"><ele>204.75</ele><time>2026-04-19T12:56:13.013Z</time></trkpt><trkpt lat="45.131585" lon="7.941795"><ele>204.5</ele><time>2026-04-19T12:56:14.014Z</time></trkpt><trkpt lat="45.1317083" lon="7.941725"><ele>204.25</ele><time>2026-04-19T12:56:15.013Z</time></trkpt><trkpt lat="45.131835" lon="7.94165"><ele>204.0</ele><time>2026-04-19T12:56:16.014Z</time></trkpt><trkpt lat="45.1319633" lon="7.9415733"><ele>204.0</ele><time>2026-04-19T12:56:17.014Z</time></trkpt><trkpt lat="45.1320883" lon="7.9415017"><ele>204.0</ele><time>2026-04-19T12:56:18.013Z</time></trkpt><trkpt lat="45.1322217" lon="7.9414333"><ele>204.0</ele><time>2026-04-19T12:56:19.013Z</time></trkpt><trkpt lat="45.13235" lon="7.9413633"><ele>204.0</ele><time>2026-04-19T12:56:20.014Z</time></trkpt><trkpt lat="45.1324833" lon="7.9412917"><ele>203.5</ele><time>2026-04-19T12:56:21.014Z</time></trkpt><trkpt lat="45.1326067" lon="7.9412283"><ele>203.0</ele><time>2026-04-19T12:56:22.014Z</time></trkpt><trkpt lat="45.1327217" lon="7.9411633"><ele>202.5</ele><time>2026-04-19T12:56:23.014Z</time></trkpt><trkpt lat="45.1328383" lon="7.9410867"><ele>202.0</ele><time>2026-04-19T12:56:24.014Z</time></trkpt><trkpt lat="45.1329367" lon="7.941025"><ele>202.0</ele><time>2026-04-19T12:56:25.014Z</time></trkpt><trkpt lat="45.13304" lon="7.9409617"><ele>202.0</ele><time>2026-04-19T12:56:26.014Z</time></trkpt><trkpt lat="45.133145" lon="7.9409067"><ele>202.0</ele><time>2026-04-19T12:56:27.013Z</time></trkpt><trkpt lat="45.1332333" lon="7.9408533"><ele>202.0</ele><time>2026-04-19T12:56:28.013Z</time></trkpt><trkpt lat="45.1333117" lon="7.9408017"><ele>202.0</ele><time>2026-04-19T12:56:29.013Z</time></trkpt><trkpt lat="45.1333933" lon="7.9407683"><ele>201.83333333333331</ele><time>2026-04-19T12:56:30.014Z</time></trkpt><trkpt lat="45.1334583" lon="7.94073"><ele>201.66666666666666</ele><time>2026-04-19T12:56:31.014Z</time></trkpt><trkpt lat="45.1335467" lon="7.9406483"><ele>201.5</ele><time>2026-04-19T12:56:33.014Z</time></trkpt><trkpt lat="45.1335867" lon="7.9405633"><ele>201.33333333333331</ele><time>2026-04-19T12:56:37.013Z</time></trkpt><trkpt lat="45.1336683" lon="7.9404067"><ele>201.16666666666666</ele><time>2026-04-19T13:04:07.013Z</time></trkpt><trkpt lat="45.1337083" lon="7.9404767"><ele>201.0</ele><time>2026-04-19T13:04:09.012Z</time></trkpt><trkpt lat="45.13366" lon="7.940555"><ele>201.0</ele><time>2026-04-19T13:04:12.012Z</time></trkpt><trkpt lat="45.13353" lon="7.9406517"><ele>201.0</ele><time>2026-04-19T13:04:14.013Z</time></trkpt><trkpt lat="45.13344" lon="7.9407117"><ele>201.0</ele><time>2026-04-19T13:04:15.012Z</time></trkpt><trkpt lat="45.133335" lon="7.9407867"><ele>201.0</ele><time>2026-04-19T13:04:16.012Z</time></trkpt><trkpt lat="45.1332183" lon="7.94086"><ele>201.20000000000002</ele><time>2026-04-19T13:04:17.013Z</time></trkpt><trkpt lat="45.1331067" lon="7.9409283"><ele>201.4</ele><time>2026-04-19T13:04:18.012Z</time></trkpt><trkpt lat="45.1330167" lon="7.9409767"><ele>201.6</ele><time>2026-04-19T13:04:19.013Z</time></trkpt><trkpt lat="45.132925" lon="7.94102"><ele>201.8</ele><time>2026-04-19T13:04:20.012Z</time></trkpt><trkpt lat="45.1328433" lon="7.941065"><ele>202.0</ele><time>2026-04-19T13:04:21.012Z</time></trkpt><trkpt lat="45.1327583" lon="7.94111"><ele>202.0</ele><time>2026-04-19T13:04:22.013Z</time></trkpt><trkpt lat="45.13266" lon="7.941165"><ele>202.0</ele><time>2026-04-19T13:04:23.012Z</time></trkpt><trkpt lat="45.1325567" lon="7.9412133"><ele>202.0</ele><time>2026-04-19T13:04:24.012Z</time></trkpt><trkpt lat="45.1324467" lon="7.9412717"><ele>202.0</ele><time>2026-04-19T13:04:25.013Z</time></trkpt><trkpt lat="45.1323433" lon="7.941325"><ele>202.0</ele><time>2026-04-19T13:04:26.013Z</time></trkpt><trkpt lat="45.1322333" lon="7.94138"><ele>202.5</ele><time>2026-04-19T13:04:27.013Z</time></trkpt><trkpt lat="45.13212" lon="7.9414433"><ele>203.0</ele><time>2026-04-19T13:04:28.012Z</time></trkpt><trkpt lat="45.1319933" lon="7.94152"><ele>203.5</ele><time>2026-04-19T13:04:29.012Z</time></trkpt><trkpt lat="45.131865" lon="7.9415983"><ele>204.0</ele><time>2026-04-19T13:04:30.013Z</time></trkpt><trkpt lat="45.13175" lon="7.9416717"><ele>203.79999999999998</ele><time>2026-04-19T13:04:31.012Z</time></trkpt><trkpt lat="45.131645" lon="7.9417433"><ele>203.6</ele><time>2026-04-19T13:04:32.012Z</time></trkpt><trkpt lat="45.1315383" lon="7.9417933"><ele>203.4</ele><time>2026-04-19T13:04:33.012Z</time></trkpt><trkpt lat="45.1314333" lon="7.94185"><ele>203.2</ele><time>2026-04-19T13:04:34.013Z</time></trkpt><trkpt lat="45.131335" lon="7.9419"><ele>203.0</ele><time>2026-04-19T13:04:35.012Z</time></trkpt><trkpt lat="45.1312317" lon="7.9419633"><ele>203.5</ele><time>2026-04-19T13:04:36.013Z</time></trkpt><trkpt lat="45.131115" lon="7.9420117"><ele>204.0</ele><time>2026-04-19T13:04:37.012Z</time></trkpt><trkpt lat="45.1309967" lon="7.9420567"><ele>204.5</ele><time>2026-04-19T13:04:38.012Z</time></trkpt><trkpt lat="45.130885" lon="7.9421133"><ele>205.0</ele><time>2026-04-19T13:04:39.013Z</time></trkpt><trkpt lat="45.1307883" lon="7.9421733"><ele>205.25</ele><time>2026-04-19T13:04:40.013Z</time></trkpt><trkpt lat="45.1306817" lon="7.9422317"><ele>205.5</ele><time>2026-04-19T13:04:41.012Z</time></trkpt><trkpt lat="45.1305767" lon="7.9423017"><ele>205.75</ele><time>2026-04-19T13:04:42.012Z</time></trkpt><trkpt lat="45.1304733" lon="7.942365"><ele>206.0</ele><time>2026-04-19T13:04:43.013Z</time></trkpt><trkpt lat="45.1303633" lon="7.94242"><ele>206.0</ele><time>2026-04-19T13:04:44.012Z</time></trkpt><trkpt lat="45.1302567" lon="7.9424667"><ele>206.0</ele><time>2026-04-19T13:04:45.012Z</time></trkpt><trkpt lat="45.13017" lon="7.9425167"><ele>206.0</ele><time>2026-04-19T13:04:46.012Z</time></trkpt><trkpt lat="45.1300883" lon="7.9425683"><ele>206.0</ele><time>2026-04-19T13:04:47.012Z</time></trkpt><trkpt lat="45.1300033" lon="7.9426233"><ele>206.0</ele><time>2026-04-19T13:04:48.013Z</time></trkpt><trkpt lat="45.12993" lon="7.942665"><ele>206.33333333333334</ele><time>2026-04-19T13:04:49.013Z</time></trkpt><trkpt lat="45.12982" lon="7.9427367"><ele>206.66666666666669</ele><time>2026-04-19T13:04:51.012Z</time></trkpt><trkpt lat="45.129765" lon="7.9427817"><ele>207.0</ele><time>2026-04-19T13:04:52.012Z</time></trkpt><trkpt lat="45.1296733" lon="7.9428417"><ele>207.33333333333331</ele><time>2026-04-19T13:04:54.012Z</time></trkpt><trkpt lat="45.1296083" lon="7.9428517"><ele>207.66666666666666</ele><time>2026-04-19T13:04:56.012Z</time></trkpt><trkpt lat="45.1295167" lon="7.9428117"><ele>208.0</ele><time>2026-04-19T13:04:59.012Z</time></trkpt><trkpt lat="45.1293967" lon="7.9428683"><ele>207.99999999999997</ele><time>2026-04-19T13:05:01.012Z</time></trkpt><trkpt lat="45.1293367" lon="7.9429333"><ele>208.0</ele><time>2026-04-19T13:05:02.012Z</time></trkpt><trkpt lat="45.1292867" lon="7.9430283"><ele>208.0</ele><time>2026-04-19T13:05:03.012Z</time></trkpt><trkpt lat="45.12924" lon="7.9431217"><ele>208.0</ele><time>2026-04-19T13:05:04.013Z</time></trkpt><trkpt lat="45.1292" lon="7.9432417"><ele>207.99999999999997</ele><time>2026-04-19T13:05:05.013Z</time></trkpt><trkpt lat="45.129145" lon="7.9433633"><ele>208.0</ele><time>2026-04-19T13:05:06.013Z</time></trkpt><trkpt lat="45.1290933" lon="7.9434883"><ele>208.0</ele><time>2026-04-19T13:05:07.013Z</time></trkpt><trkpt lat="45.12905" lon="7.94363"><ele>208.0</ele><time>2026-04-19T13:05:08.012Z</time></trkpt><trkpt lat="45.1289967" lon="7.9437783"><ele>208.0</ele><time>2026-04-19T13:05:09.013Z</time></trkpt><trkpt lat="45.128965" lon="7.9439133"><ele>208.0</ele><time>2026-04-19T13:05:10.013Z</time></trkpt><trkpt lat="45.12892" lon="7.9440767"><ele>207.75</ele><time>2026-04-19T13:05:11.013Z</time></trkpt><trkpt lat="45.1288717" lon="7.9442417"><ele>207.5</ele><time>2026-04-19T13:05:12.012Z</time></trkpt><trkpt lat="45.128825" lon="7.94441"><ele>207.25</ele><time>2026-04-19T13:05:13.012Z</time></trkpt><trkpt lat="45.12878" lon="7.9445733"><ele>207.0</ele><time>2026-04-19T13:05:14.012Z</time></trkpt><trkpt lat="45.128735" lon="7.9447367"><ele>207.0</ele><time>2026-04-19T13:05:15.013Z</time></trkpt><trkpt lat="45.1286933" lon="7.9448933"><ele>207.0</ele><time>2026-04-19T13:05:16.012Z</time></trkpt><trkpt lat="45.12865" lon="7.9450467"><ele>207.0</ele><time>2026-04-19T13:05:17.012Z</time></trkpt><trkpt lat="45.1286217" lon="7.9452033"><ele>207.0</ele><time>2026-04-19T13:05:18.013Z</time></trkpt><trkpt lat="45.12859" lon="7.9453533"><ele>206.75</ele><time>2026-04-19T13:05:19.013Z</time></trkpt><trkpt lat="45.1285933" lon="7.94551"><ele>206.5</ele><time>2026-04-19T13:05:20.013Z</time></trkpt><trkpt lat="45.1286183" lon="7.9456683"><ele>206.25</ele><time>2026-04-19T13:05:21.012Z</time></trkpt><trkpt lat="45.1286517" lon="7.9458283"><ele>206.0</ele><time>2026-04-19T13:05:22.012Z</time></trkpt><trkpt lat="45.1286833" lon="7.94599"><ele>205.75</ele><time>2026-04-19T13:05:23.012Z</time></trkpt><trkpt lat="45.1287283" lon="7.9461567"><ele>205.5</ele><time>2026-04-19T13:05:24.013Z</time></trkpt><trkpt lat="45.12876" lon="7.9463183"><ele>205.25</ele><time>2026-04-19T13:05:25.013Z</time></trkpt><trkpt lat="45.1287917" lon="7.9464783"><ele>205.0</ele><time>2026-04-19T13:05:26.012Z</time></trkpt><trkpt lat="45.1288133" lon="7.9466367"><ele>205.75</ele><time>2026-04-19T13:05:27.012Z</time></trkpt><trkpt lat="45.12885" lon="7.9467983"><ele>206.5</ele><time>2026-04-19T13:05:28.013Z</time></trkpt><trkpt lat="45.1288833" lon="7.94696"><ele>207.25</ele><time>2026-04-19T13:05:29.013Z</time></trkpt><trkpt lat="45.1289317" lon="7.9471233"><ele>208.0</ele><time>2026-04-19T13:05:30.012Z</time></trkpt><trkpt lat="45.128965" lon="7.9472917"><ele>208.0</ele><time>2026-04-19T13:05:31.013Z</time></trkpt><trkpt lat="45.12899" lon="7.9474533"><ele>208.0</ele><time>2026-04-19T13:05:32.012Z</time></trkpt><trkpt lat="45.1290117" lon="7.9476117"><ele>208.0</ele><time>2026-04-19T13:05:33.013Z</time></trkpt><trkpt lat="45.1290533" lon="7.9477767"><ele>208.0</ele><time>2026-04-19T13:05:34.013Z</time></trkpt><trkpt lat="45.1291133" lon="7.9479417"><ele>207.5</ele><time>2026-04-19T13:05:35.013Z</time></trkpt><trkpt lat="45.1291783" lon="7.948105"><ele>207.0</ele><time>2026-04-19T13:05:36.012Z</time></trkpt><trkpt lat="45.1292583" lon="7.948265"><ele>206.5</ele><time>2026-04-19T13:05:37.012Z</time></trkpt><trkpt lat="45.1293367" lon="7.9484333"><ele>206.0</ele><time>2026-04-19T13:05:38.012Z</time></trkpt><trkpt lat="45.1294333" lon="7.948585"><ele>205.5</ele><time>2026-04-19T13:05:39.012Z</time></trkpt><trkpt lat="45.1295217" lon="7.9487483"><ele>205.0</ele><time>2026-04-19T13:05:40.013Z</time></trkpt><trkpt lat="45.1296083" lon="7.9489"><ele>204.5</ele><time>2026-04-19T13:05:41.013Z</time></trkpt><trkpt lat="45.1297" lon="7.9490533"><ele>204.0</ele><time>2026-04-19T13:05:42.013Z</time></trkpt><trkpt lat="45.1297883" lon="7.9491983"><ele>204.5</ele><time>2026-04-19T13:05:43.013Z</time></trkpt><trkpt lat="45.1298633" lon="7.9493733"><ele>205.0</ele><time>2026-04-19T13:05:44.012Z</time></trkpt><trkpt lat="45.129935" lon="7.94954"><ele>205.5</ele><time>2026-04-19T13:05:45.013Z</time></trkpt><trkpt lat="45.1299967" lon="7.94972"><ele>206.0</ele><time>2026-04-19T13:05:46.012Z</time></trkpt><trkpt lat="45.1300433" lon="7.9498933"><ele>208.5</ele><time>2026-04-19T13:05:47.012Z</time></trkpt><trkpt lat="45.1300633" lon="7.9500733"><ele>211.0</ele><time>2026-04-19T13:05:48.013Z</time></trkpt><trkpt lat="45.13007" lon="7.950255"><ele>213.5</ele><time>2026-04-19T13:05:49.012Z</time></trkpt><trkpt lat="45.13005" lon="7.9504233"><ele>216.0</ele><time>2026-04-19T13:05:50.013Z</time></trkpt><trkpt lat="45.1300133" lon="7.9506033"><ele>216.0</ele><time>2026-04-19T13:05:51.013Z</time></trkpt><trkpt lat="45.129975" lon="7.9507933"><ele>216.0</ele><time>2026-04-19T13:05:52.013Z</time></trkpt><trkpt lat="45.1299417" lon="7.9509783"><ele>216.0</ele><time>2026-04-19T13:05:53.012Z</time></trkpt><trkpt lat="45.1299283" lon="7.9511717"><ele>216.0</ele><time>2026-04-19T13:05:54.012Z</time></trkpt><trkpt lat="45.1299267" lon="7.951375"><ele>217.25</ele><time>2026-04-19T13:05:55.012Z</time></trkpt><trkpt lat="45.129925" lon="7.9515817"><ele>218.5</ele><time>2026-04-19T13:05:56.013Z</time></trkpt><trkpt lat="45.1299517" lon="7.9517883"><ele>219.75</ele><time>2026-04-19T13:05:57.013Z</time></trkpt><trkpt lat="45.1300017" lon="7.9519917"><ele>221.0</ele><time>2026-04-19T13:05:58.012Z</time></trkpt><trkpt lat="45.1300567" lon="7.95218"><ele>221.0</ele><time>2026-04-19T13:05:59.013Z</time></trkpt><trkpt lat="45.1301233" lon="7.9523617"><ele>221.0</ele><time>2026-04-19T13:06:00.012Z</time></trkpt><trkpt lat="45.130185" lon="7.952545"><ele>221.0</ele><time>2026-04-19T13:06:01.013Z</time></trkpt><trkpt lat="45.1302467" lon="7.95276"><ele>220.0</ele><time>2026-04-19T13:06:02.012Z</time></trkpt><trkpt lat="45.13031" lon="7.9529717"><ele>219.0</ele><time>2026-04-19T13:06:03.012Z</time></trkpt><trkpt lat="45.1303483" lon="7.953175"><ele>218.0</ele><time>2026-04-19T13:06:04.012Z</time></trkpt><trkpt lat="45.1303817" lon="7.95339"><ele>217.0</ele><time>2026-04-19T13:06:05.013Z</time></trkpt><trkpt lat="45.130405" lon="7.953605"><ele>216.0</ele><time>2026-04-19T13:06:06.013Z</time></trkpt><trkpt lat="45.1304383" lon="7.953805"><ele>215.0</ele><time>2026-04-19T13:06:07.013Z</time></trkpt><trkpt lat="45.130495" lon="7.9539867"><ele>214.0</ele><time>2026-04-19T13:06:08.012Z</time></trkpt><trkpt lat="45.1305517" lon="7.9541467"><ele>213.79999999999998</ele><time>2026-04-19T13:06:09.013Z</time></trkpt><trkpt lat="45.1306133" lon="7.9542833"><ele>213.59999999999997</ele><time>2026-04-19T13:06:10.012Z</time></trkpt><trkpt lat="45.1306533" lon="7.95442"><ele>213.4</ele><time>2026-04-19T13:06:11.012Z</time></trkpt><trkpt lat="45.1306567" lon="7.9545633"><ele>213.2</ele><time>2026-04-19T13:06:12.013Z</time></trkpt><trkpt lat="45.1306467" lon="7.954715"><ele>213.0</ele><time>2026-04-19T13:06:13.012Z</time></trkpt><trkpt lat="45.130635" lon="7.9548633"><ele>213.0</ele><time>2026-04-19T13:06:14.012Z</time></trkpt><trkpt lat="45.1306383" lon="7.9550033"><ele>213.0</ele><time>2026-04-19T13:06:15.012Z</time></trkpt><trkpt lat="45.13063" lon="7.95516"><ele>213.0</ele><time>2026-04-19T13:06:16.012Z</time></trkpt><trkpt lat="45.130595" lon="7.9552983"><ele>213.0</ele><time>2026-04-19T13:06:17.012Z</time></trkpt><trkpt lat="45.1305267" lon="7.9554117"><ele>213.0</ele><time>2026-04-19T13:06:18.011Z</time></trkpt><trkpt lat="45.1304333" lon="7.955495"><ele>212.8</ele><time>2026-04-19T13:06:19.012Z</time></trkpt><trkpt lat="45.1303483" lon="7.9555717"><ele>212.60000000000002</ele><time>2026-04-19T13:06:20.012Z</time></trkpt><trkpt lat="45.1302817" lon="7.9556717"><ele>212.39999999999998</ele><time>2026-04-19T13:06:21.012Z</time></trkpt><trkpt lat="45.1302383" lon="7.9557983"><ele>212.2</ele><time>2026-04-19T13:06:22.011Z</time></trkpt><trkpt lat="45.13022" lon="7.95592"><ele>212.0</ele><time>2026-04-19T13:06:23.012Z</time></trkpt><trkpt lat="45.1302267" lon="7.956025"><ele>212.0</ele><time>2026-04-19T13:06:24.012Z</time></trkpt><trkpt lat="45.1302483" lon="7.956125"><ele>212.0</ele><time>2026-04-19T13:06:25.011Z</time></trkpt><trkpt lat="45.1302683" lon="7.95624"><ele>212.0</ele><time>2026-04-19T13:06:26.011Z</time></trkpt><trkpt lat="45.1302817" lon="7.9563667"><ele>212.0</ele><time>2026-04-19T13:06:27.012Z</time></trkpt><trkpt lat="45.1303" lon="7.956515"><ele>212.0</ele><time>2026-04-19T13:06:28.012Z</time></trkpt><trkpt lat="45.1303283" lon="7.9566767"><ele>213.0</ele><time>2026-04-19T13:06:29.012Z</time></trkpt><trkpt lat="45.1303517" lon="7.9568517"><ele>214.0</ele><time>2026-04-19T13:06:30.011Z</time></trkpt><trkpt lat="45.1303767" lon="7.95704"><ele>215.0</ele><time>2026-04-19T13:06:31.012Z</time></trkpt><trkpt lat="45.1304083" lon="7.9572467"><ele>216.0</ele><time>2026-04-19T13:06:32.012Z</time></trkpt><trkpt lat="45.1304433" lon="7.957455"><ele>217.0</ele><time>2026-04-19T13:06:33.012Z</time></trkpt><trkpt lat="45.1304717" lon="7.9576667"><ele>218.0</ele><time>2026-04-19T13:06:34.012Z</time></trkpt><trkpt lat="45.1304933" lon="7.95788"><ele>219.0</ele><time>2026-04-19T13:06:35.011Z</time></trkpt><trkpt lat="45.1305167" lon="7.9581083"><ele>219.0</ele><time>2026-04-19T13:06:36.011Z</time></trkpt><trkpt lat="45.130515" lon="7.9583333"><ele>219.0</ele><time>2026-04-19T13:06:37.012Z</time></trkpt><trkpt lat="45.1304817" lon="7.9585467"><ele>219.0</ele><time>2026-04-19T13:06:38.011Z</time></trkpt><trkpt lat="45.1304583" lon="7.9587733"><ele>221.0</ele><time>2026-04-19T13:06:39.012Z</time></trkpt><trkpt lat="45.1304317" lon="7.9589883"><ele>223.0</ele><time>2026-04-19T13:06:40.011Z</time></trkpt><trkpt lat="45.130435" lon="7.9592133"><ele>225.0</ele><time>2026-04-19T13:06:41.011Z</time></trkpt><trkpt lat="45.130445" lon="7.9594367"><ele>227.0</ele><time>2026-04-19T13:06:42.011Z</time></trkpt><trkpt lat="45.1304517" lon="7.9596717"><ele>229.0</ele><time>2026-04-19T13:06:43.011Z</time></trkpt><trkpt lat="45.1304433" lon="7.9599133"><ele>231.0</ele><time>2026-04-19T13:06:44.011Z</time></trkpt><trkpt lat="45.1304183" lon="7.9601667"><ele>232.33333333333331</ele><time>2026-04-19T13:06:45.012Z</time></trkpt><trkpt lat="45.13039" lon="7.9604167"><ele>233.66666666666666</ele><time>2026-04-19T13:06:46.012Z</time></trkpt><trkpt lat="45.1303667" lon="7.960645"><ele>235.0</ele><time>2026-04-19T13:06:47.011Z</time></trkpt><trkpt lat="45.13036" lon="7.9608433"><ele>235.75</ele><time>2026-04-19T13:06:48.012Z</time></trkpt><trkpt lat="45.1303767" lon="7.9610317"><ele>236.5</ele><time>2026-04-19T13:06:49.012Z</time></trkpt><trkpt lat="45.1304117" lon="7.961215"><ele>237.25</ele><time>2026-04-19T13:06:50.011Z</time></trkpt><trkpt lat="45.1304633" lon="7.9614017"><ele>238.0</ele><time>2026-04-19T13:06:51.011Z</time></trkpt><trkpt lat="45.1305233" lon="7.9615967"><ele>239.33333333333331</ele><time>2026-04-19T13:06:52.011Z</time></trkpt><trkpt lat="45.1305867" lon="7.9618133"><ele>240.66666666666669</ele><time>2026-04-19T13:06:53.011Z</time></trkpt><trkpt lat="45.13066" lon="7.962015"><ele>242.0</ele><time>2026-04-19T13:06:54.011Z</time></trkpt><trkpt lat="45.1307233" lon="7.9622283"><ele>246.33333333333334</ele><time>2026-04-19T13:06:55.012Z</time></trkpt><trkpt lat="45.130785" lon="7.9624467"><ele>250.66666666666669</ele><time>2026-04-19T13:06:56.012Z</time></trkpt><trkpt lat="45.13085" lon="7.96266"><ele>255.0</ele><time>2026-04-19T13:06:57.012Z</time></trkpt><trkpt lat="45.1309117" lon="7.9628633"><ele>256.5</ele><time>2026-04-19T13:06:58.011Z</time></trkpt><trkpt lat="45.1309517" lon="7.9630467"><ele>258.0</ele><time>2026-04-19T13:06:59.012Z</time></trkpt><trkpt lat="45.130985" lon="7.9632417"><ele>259.5</ele><time>2026-04-19T13:07:00.011Z</time></trkpt><trkpt lat="45.1309733" lon="7.9634267"><ele>261.0</ele><time>2026-04-19T13:07:01.011Z</time></trkpt><trkpt lat="45.1309367" lon="7.96361"><ele>262.5</ele><time>2026-04-19T13:07:02.011Z</time></trkpt><trkpt lat="45.1309017" lon="7.96379"><ele>264.0</ele><time>2026-04-19T13:07:03.012Z</time></trkpt><trkpt lat="45.1308367" lon="7.9639667"><ele>265.5</ele><time>2026-04-19T13:07:04.011Z</time></trkpt><trkpt lat="45.1307683" lon="7.9641567"><ele>267.0</ele><time>2026-04-19T13:07:05.012Z</time></trkpt><trkpt lat="45.130705" lon="7.964365"><ele>267.0</ele><time>2026-04-19T13:07:06.011Z</time></trkpt><trkpt lat="45.13066" lon="7.964595"><ele>267.0</ele><time>2026-04-19T13:07:07.011Z</time></trkpt><trkpt lat="45.1306117" lon="7.96481"><ele>267.0</ele><time>2026-04-19T13:07:08.011Z</time></trkpt><trkpt lat="45.13056" lon="7.9650317"><ele>270.0</ele><time>2026-04-19T13:07:09.011Z</time></trkpt><trkpt lat="45.1305083" lon="7.9652667"><ele>273.0</ele><time>2026-04-19T13:07:10.011Z</time></trkpt><trkpt lat="45.1304483" lon="7.965495"><ele>276.0</ele><time>2026-04-19T13:07:11.012Z</time></trkpt><trkpt lat="45.130395" lon="7.9657283"><ele>280.0</ele><time>2026-04-19T13:07:12.012Z</time></trkpt><trkpt lat="45.13035" lon="7.9659617"><ele>284.0</ele><time>2026-04-19T13:07:13.012Z</time></trkpt><trkpt lat="45.130315" lon="7.9662"><ele>288.0</ele><time>2026-04-19T13:07:14.011Z</time></trkpt><trkpt lat="45.1302867" lon="7.96644"><ele>288.0</ele><time>2026-04-19T13:07:15.011Z</time></trkpt><trkpt lat="45.1302783" lon="7.966665"><ele>288.0</ele><time>2026-04-19T13:07:16.012Z</time></trkpt><trkpt lat="45.1302767" lon="7.9668833"><ele>288.0</ele><time>2026-04-19T13:07:17.012Z</time></trkpt><trkpt lat="45.1302783" lon="7.9670983"><ele>290.75</ele><time>2026-04-19T13:07:18.012Z</time></trkpt><trkpt lat="45.130285" lon="7.9672967"><ele>293.5</ele><time>2026-04-19T13:07:19.012Z</time></trkpt><trkpt lat="45.13029" lon="7.9674917"><ele>296.25</ele><time>2026-04-19T13:07:20.011Z</time></trkpt><trkpt lat="45.1302533" lon="7.967695"><ele>299.0</ele><time>2026-04-19T13:07:21.012Z</time></trkpt><trkpt lat="45.1302033" lon="7.9679067"><ele>302.0</ele><time>2026-04-19T13:07:22.011Z</time></trkpt><trkpt lat="45.13014" lon="7.96811"><ele>305.0</ele><time>2026-04-19T13:07:23.011Z</time></trkpt><trkpt lat="45.1300833" lon="7.9683133"><ele>308.0</ele><time>2026-04-19T13:07:24.011Z</time></trkpt><trkpt lat="45.13001" lon="7.9685033"><ele>308.25</ele><time>2026-04-19T13:07:25.011Z</time></trkpt><trkpt lat="45.1299417" lon="7.968695"><ele>308.5</ele><time>2026-04-19T13:07:26.012Z</time></trkpt><trkpt lat="45.1298783" lon="7.96888"><ele>308.75</ele><time>2026-04-19T13:07:27.011Z</time></trkpt><trkpt lat="45.1298267" lon="7.9690717"><ele>309.0</ele><time>2026-04-19T13:07:28.011Z</time></trkpt><trkpt lat="45.1297983" lon="7.9692717"><ele>310.3333333333333</ele><time>2026-04-19T13:07:29.011Z</time></trkpt><trkpt lat="45.1297867" lon="7.96948"><ele>311.66666666666663</ele><time>2026-04-19T13:07:30.011Z</time></trkpt><trkpt lat="45.129805" lon="7.9696967"><ele>313.0</ele><time>2026-04-19T13:07:31.011Z</time></trkpt><trkpt lat="45.1298417" lon="7.969905"><ele>313.5</ele><time>2026-04-19T13:07:32.012Z</time></trkpt><trkpt lat="45.12987" lon="7.9701033"><ele>314.0</ele><time>2026-04-19T13:07:33.011Z</time></trkpt><trkpt lat="45.1299067" lon="7.9702717"><ele>314.5</ele><time>2026-04-19T13:07:34.012Z</time></trkpt><trkpt lat="45.1299133" lon="7.970425"><ele>315.0</ele><time>2026-04-19T13:07:35.012Z</time></trkpt><trkpt lat="45.1298817" lon="7.9705667"><ele>315.0</ele><time>2026-04-19T13:07:36.011Z</time></trkpt><trkpt lat="45.1298283" lon="7.9707017"><ele>315.0</ele><time>2026-04-19T13:07:37.011Z</time></trkpt><trkpt lat="45.1297767" lon="7.97085"><ele>315.0</ele><time>2026-04-19T13:07:38.011Z</time></trkpt><trkpt lat="45.1297267" lon="7.9710083"><ele>315.0</ele><time>2026-04-19T13:07:39.011Z</time></trkpt><trkpt lat="45.1297083" lon="7.9711783"><ele>317.0</ele><time>2026-04-19T13:07:40.012Z</time></trkpt><trkpt lat="45.1296883" lon="7.9713317"><ele>319.0</ele><time>2026-04-19T13:07:41.012Z</time></trkpt><trkpt lat="45.1296833" lon="7.97148"><ele>321.0</ele><time>2026-04-19T13:07:42.012Z</time></trkpt><trkpt lat="45.1297" lon="7.9716367"><ele>323.0</ele><time>2026-04-19T13:07:43.011Z</time></trkpt><trkpt lat="45.12973" lon="7.9717883"><ele>325.0</ele><time>2026-04-19T13:07:44.012Z</time></trkpt><trkpt lat="45.12972" lon="7.971945"><ele>329.0</ele><time>2026-04-19T13:07:45.011Z</time></trkpt><trkpt lat="45.1296717" lon="7.9720983"><ele>333.0</ele><time>2026-04-19T13:07:46.012Z</time></trkpt><trkpt lat="45.1295917" lon="7.9722667"><ele>337.0</ele><time>2026-04-19T13:07:47.011Z</time></trkpt><trkpt lat="45.1295033" lon="7.97243"><ele>341.0</ele><time>2026-04-19T13:07:48.012Z</time></trkpt><trkpt lat="45.1294317" lon="7.9726033"><ele>341.0</ele><time>2026-04-19T13:07:49.012Z</time></trkpt><trkpt lat="45.129355" lon="7.9727683"><ele>341.0</ele><time>2026-04-19T13:07:50.012Z</time></trkpt><trkpt lat="45.12929" lon="7.9729"><ele>341.0</ele><time>2026-04-19T13:07:51.011Z</time></trkpt><trkpt lat="45.1292233" lon="7.9730017"><ele>341.0</ele><time>2026-04-19T13:07:52.011Z</time></trkpt><trkpt lat="45.1291467" lon="7.97307"><ele>341.0</ele><time>2026-04-19T13:07:53.011Z</time></trkpt><trkpt lat="45.129045" lon="7.9731067"><ele>341.0</ele><time>2026-04-19T13:07:54.012Z</time></trkpt><trkpt lat="45.1289317" lon="7.9731117"><ele>341.0</ele><time>2026-04-19T13:07:55.011Z</time></trkpt><trkpt lat="45.1288233" lon="7.9731217"><ele>341.0</ele><time>2026-04-19T13:07:56.012Z</time></trkpt><trkpt lat="45.12872" lon="7.9731767"><ele>341.0</ele><time>2026-04-19T13:07:57.011Z</time></trkpt><trkpt lat="45.1286483" lon="7.973275"><ele>341.0</ele><time>2026-04-19T13:07:58.011Z</time></trkpt><trkpt lat="45.128615" lon="7.9734"><ele>342.25</ele><time>2026-04-19T13:07:59.012Z</time></trkpt><trkpt lat="45.1285983" lon="7.973545"><ele>343.5</ele><time>2026-04-19T13:08:00.012Z</time></trkpt><trkpt lat="45.1285917" lon="7.9737017"><ele>344.75</ele><time>2026-04-19T13:08:01.012Z</time></trkpt><trkpt lat="45.1285983" lon="7.9738783"><ele>346.0</ele><time>2026-04-19T13:08:02.012Z</time></trkpt><trkpt lat="45.12859" lon="7.9740667"><ele>348.25</ele><time>2026-04-19T13:08:03.011Z</time></trkpt><trkpt lat="45.1285683" lon="7.97425"><ele>350.5</ele><time>2026-04-19T13:08:04.012Z</time></trkpt><trkpt lat="45.1285167" lon="7.9744183"><ele>352.75</ele><time>2026-04-19T13:08:05.011Z</time></trkpt><trkpt lat="45.128455" lon="7.9745583"><ele>355.0</ele><time>2026-04-19T13:08:06.011Z</time></trkpt><trkpt lat="45.1284217" lon="7.9746867"><ele>355.0</ele><time>2026-04-19T13:08:07.012Z</time></trkpt><trkpt lat="45.1284233" lon="7.9748383"><ele>355.0</ele><time>2026-04-19T13:08:08.011Z</time></trkpt><trkpt lat="45.128455" lon="7.9749967"><ele>355.0</ele><time>2026-04-19T13:08:09.012Z</time></trkpt><trkpt lat="45.12853" lon="7.9751467"><ele>355.0</ele><time>2026-04-19T13:08:10.011Z</time></trkpt><trkpt lat="45.128615" lon="7.9752783"><ele>356.6</ele><time>2026-04-19T13:08:11.012Z</time></trkpt><trkpt lat="45.1286983" lon="7.975375"><ele>358.2</ele><time>2026-04-19T13:08:12.011Z</time></trkpt><trkpt lat="45.1287683" lon="7.97549"><ele>359.79999999999995</ele><time>2026-04-19T13:08:13.011Z</time></trkpt><trkpt lat="45.128805" lon="7.975605"><ele>361.4</ele><time>2026-04-19T13:08:14.012Z</time></trkpt><trkpt lat="45.1287967" lon="7.9757283"><ele>363.0</ele><time>2026-04-19T13:08:15.011Z</time></trkpt><trkpt lat="45.1287317" lon="7.97587"><ele>369.0</ele><time>2026-04-19T13:08:16.011Z</time></trkpt><trkpt lat="45.1286317" lon="7.97602"><ele>375.0</ele><time>2026-04-19T13:08:17.011Z</time></trkpt><trkpt lat="45.1285333" lon="7.9761633"><ele>381.0</ele><time>2026-04-19T13:08:18.012Z</time></trkpt><trkpt lat="45.1284217" lon="7.9762783"><ele>387.0</ele><time>2026-04-19T13:08:19.012Z</time></trkpt><trkpt lat="45.1282883" lon="7.97633"><ele>385.25</ele><time>2026-04-19T13:08:20.012Z</time></trkpt><trkpt lat="45.1281533" lon="7.9763317"><ele>383.5</ele><time>2026-04-19T13:08:21.012Z</time></trkpt><trkpt lat="45.1280183" lon="7.9762817"><ele>381.75</ele><time>2026-04-19T13:08:22.012Z</time></trkpt><trkpt lat="45.127895" lon="7.9762833"><ele>380.0</ele><time>2026-04-19T13:08:23.012Z</time></trkpt><trkpt lat="45.1277783" lon="7.9763367"><ele>380.0</ele><time>2026-04-19T13:08:24.011Z</time></trkpt><trkpt lat="45.1276983" lon="7.9764217"><ele>380.0</ele><time>2026-04-19T13:08:25.012Z</time></trkpt><trkpt lat="45.1276183" lon="7.976495"><ele>380.0</ele><time>2026-04-19T13:08:26.011Z</time></trkpt><trkpt lat="45.1275283" lon="7.9765367"><ele>380.0</ele><time>2026-04-19T13:08:27.012Z</time></trkpt><trkpt lat="45.127435" lon="7.976525"><ele>380.0</ele><time>2026-04-19T13:08:28.012Z</time></trkpt><trkpt lat="45.1273433" lon="7.976505"><ele>375.6666666666667</ele><time>2026-04-19T13:08:29.012Z</time></trkpt><trkpt lat="45.1272633" lon="7.9765283"><ele>371.33333333333337</ele><time>2026-04-19T13:08:30.012Z</time></trkpt><trkpt lat="45.1271983" lon="7.976565"><ele>367.0</ele><time>2026-04-19T13:08:31.011Z</time></trkpt><trkpt lat="45.12715" lon="7.976635"><ele>362.6666666666667</ele><time>2026-04-19T13:08:32.011Z</time></trkpt><trkpt lat="45.1271217" lon="7.9767367"><ele>358.3333333333333</ele><time>2026-04-19T13:08:33.012Z</time></trkpt><trkpt lat="45.1271233" lon="7.9768683"><ele>354.0</ele><time>2026-04-19T13:08:34.012Z</time></trkpt><trkpt lat="45.1271417" lon="7.9770283"><ele>353.0</ele><time>2026-04-19T13:08:35.012Z</time></trkpt><trkpt lat="45.1271817" lon="7.9772083"><ele>352.0</ele><time>2026-04-19T13:08:36.012Z</time></trkpt><trkpt lat="45.1272283" lon="7.97739"><ele>351.0</ele><time>2026-04-19T13:08:37.011Z</time></trkpt><trkpt lat="45.1272567" lon="7.9775767"><ele>350.0</ele><time>2026-04-19T13:08:38.012Z</time></trkpt><trkpt lat="45.1272417" lon="7.977745"><ele>352.5</ele><time>2026-04-19T13:08:39.012Z</time></trkpt><trkpt lat="45.1272283" lon="7.977925"><ele>355.0</ele><time>2026-04-19T13:08:40.011Z</time></trkpt><trkpt lat="45.1272117" lon="7.9781067"><ele>357.5</ele><time>2026-04-19T13:08:41.011Z</time></trkpt><trkpt lat="45.1272133" lon="7.9782767"><ele>360.0</ele><time>2026-04-19T13:08:42.011Z</time></trkpt><trkpt lat="45.1272167" lon="7.9784617"><ele>363.5</ele><time>2026-04-19T13:08:43.011Z</time></trkpt><trkpt lat="45.12722" lon="7.978645"><ele>367.0</ele><time>2026-04-19T13:08:44.011Z</time></trkpt><trkpt lat="45.1272067" lon="7.9788267"><ele>370.5</ele><time>2026-04-19T13:08:45.012Z</time></trkpt><trkpt lat="45.127185" lon="7.9790033"><ele>374.0</ele><time>2026-04-19T13:08:46.012Z</time></trkpt><trkpt lat="45.12715" lon="7.9791533"><ele>372.0</ele><time>2026-04-19T13:08:47.011Z</time></trkpt><trkpt lat="45.1270833" lon="7.97926"><ele>370.0</ele><time>2026-04-19T13:08:48.012Z</time></trkpt><trkpt lat="45.1269917" lon="7.9793483"><ele>368.0</ele><time>2026-04-19T13:08:49.011Z</time></trkpt><trkpt lat="45.1268867" lon="7.979385"><ele>366.0</ele><time>2026-04-19T13:08:50.012Z</time></trkpt><trkpt lat="45.126755" lon="7.979365"><ele>366.0</ele><time>2026-04-19T13:08:51.012Z</time></trkpt><trkpt lat="45.1266267" lon="7.97931"><ele>366.0</ele><time>2026-04-19T13:08:52.011Z</time></trkpt><trkpt lat="45.1264933" lon="7.9792417"><ele>366.0</ele><time>2026-04-19T13:08:53.012Z</time></trkpt><trkpt lat="45.12636" lon="7.97917"><ele>366.0</ele><time>2026-04-19T13:08:54.011Z</time></trkpt><trkpt lat="45.1262283" lon="7.9791217"><ele>369.25</ele><time>2026-04-19T13:08:55.011Z</time></trkpt><trkpt lat="45.1260883" lon="7.9790817"><ele>372.5</ele><time>2026-04-19T13:08:56.012Z</time></trkpt><trkpt lat="45.125955" lon="7.97907"><ele>375.75</ele><time>2026-04-19T13:08:57.012Z</time></trkpt><trkpt lat="45.1258267" lon="7.97909"><ele>379.0</ele><time>2026-04-19T13:08:58.012Z</time></trkpt><trkpt lat="45.1256983" lon="7.9791333"><ele>382.25</ele><time>2026-04-19T13:08:59.011Z</time></trkpt><trkpt lat="45.1255667" lon="7.9791817"><ele>385.5</ele><time>2026-04-19T13:09:00.012Z</time></trkpt><trkpt lat="45.1254283" lon="7.9792283"><ele>388.75</ele><time>2026-04-19T13:09:01.011Z</time></trkpt><trkpt lat="45.1252867" lon="7.9792817"><ele>392.0</ele><time>2026-04-19T13:09:02.011Z</time></trkpt><trkpt lat="45.1251383" lon="7.9793283"><ele>393.75</ele><time>2026-04-19T13:09:03.012Z</time></trkpt><trkpt lat="45.1250017" lon="7.9794017"><ele>395.5</ele><time>2026-04-19T13:09:04.011Z</time></trkpt><trkpt lat="45.124865" lon="7.9794783"><ele>397.25</ele><time>2026-04-19T13:09:05.011Z</time></trkpt><trkpt lat="45.1247417" lon="7.9795467"><ele>399.0</ele><time>2026-04-19T13:09:06.011Z</time></trkpt><trkpt lat="45.12462" lon="7.9796117"><ele>399.25</ele><time>2026-04-19T13:09:07.011Z</time></trkpt><trkpt lat="45.1245033" lon="7.9796733"><ele>399.5</ele><time>2026-04-19T13:09:08.012Z</time></trkpt><trkpt lat="45.1243917" lon="7.9797367"><ele>399.75</ele><time>2026-04-19T13:09:09.011Z</time></trkpt><trkpt lat="45.1242933" lon="7.9798333"><ele>400.0</ele><time>2026-04-19T13:09:10.011Z</time></trkpt><trkpt lat="45.1241933" lon="7.9799483"><ele>399.75</ele><time>2026-04-19T13:09:11.012Z</time></trkpt><trkpt lat="45.1240833" lon="7.980065"><ele>399.5</ele><time>2026-04-19T13:09:12.012Z</time></trkpt><trkpt lat="45.123955" lon="7.98017"><ele>399.25</ele><time>2026-04-19T13:09:13.012Z</time></trkpt><trkpt lat="45.1238217" lon="7.980265"><ele>399.0</ele><time>2026-04-19T13:09:14.011Z</time></trkpt><trkpt lat="45.1236767" lon="7.98035"><ele>399.0</ele><time>2026-04-19T13:09:15.011Z</time></trkpt><trkpt lat="45.1235283" lon="7.980425"><ele>399.0</ele><time>2026-04-19T13:09:16.012Z</time></trkpt><trkpt lat="45.1234067" lon="7.9804967"><ele>399.0</ele><time>2026-04-19T13:09:17.012Z</time></trkpt><trkpt lat="45.1232817" lon="7.9805567"><ele>399.0</ele><time>2026-04-19T13:09:18.012Z</time></trkpt><trkpt lat="45.12316" lon="7.9806067"><ele>397.5</ele><time>2026-04-19T13:09:19.012Z</time></trkpt><trkpt lat="45.1230483" lon="7.9806533"><ele>396.0</ele><time>2026-04-19T13:09:20.011Z</time></trkpt><trkpt lat="45.122925" lon="7.9807383"><ele>394.5</ele><time>2026-04-19T13:09:21.011Z</time></trkpt><trkpt lat="45.1228083" lon="7.98084"><ele>393.0</ele><time>2026-04-19T13:09:22.012Z</time></trkpt><trkpt lat="45.12269" lon="7.9809533"><ele>393.0</ele><time>2026-04-19T13:09:23.011Z</time></trkpt><trkpt lat="45.1225783" lon="7.9810533"><ele>393.0</ele><time>2026-04-19T13:09:24.011Z</time></trkpt><trkpt lat="45.122475" lon="7.9811483"><ele>393.0</ele><time>2026-04-19T13:09:25.011Z</time></trkpt><trkpt lat="45.1223833" lon="7.9812367"><ele>393.0</ele><time>2026-04-19T13:09:26.012Z</time></trkpt><trkpt lat="45.122315" lon="7.9813267"><ele>391.0</ele><time>2026-04-19T13:09:27.011Z</time></trkpt><trkpt lat="45.1222683" lon="7.9814333"><ele>389.0</ele><time>2026-04-19T13:09:28.012Z</time></trkpt><trkpt lat="45.1222133" lon="7.9815433"><ele>387.0</ele><time>2026-04-19T13:09:29.011Z</time></trkpt><trkpt lat="45.12217" lon="7.98168"><ele>385.0</ele><time>2026-04-19T13:09:30.012Z</time></trkpt><trkpt lat="45.122135" lon="7.9818417"><ele>383.0</ele><time>2026-04-19T13:09:31.011Z</time></trkpt><trkpt lat="45.1221" lon="7.9819917"><ele>383.0</ele><time>2026-04-19T13:09:32.011Z</time></trkpt><trkpt lat="45.1220517" lon="7.9821617"><ele>383.0</ele><time>2026-04-19T13:09:33.011Z</time></trkpt><trkpt lat="45.1219867" lon="7.98232"><ele>383.0</ele><time>2026-04-19T13:09:34.012Z</time></trkpt><trkpt lat="45.1218983" lon="7.9824683"><ele>383.0</ele><time>2026-04-19T13:09:35.012Z</time></trkpt><trkpt lat="45.1217917" lon="7.9826"><ele>381.25</ele><time>2026-04-19T13:09:36.012Z</time></trkpt><trkpt lat="45.1216617" lon="7.9827133"><ele>379.5</ele><time>2026-04-19T13:09:37.012Z</time></trkpt><trkpt lat="45.121525" lon="7.9827867"><ele>377.75</ele><time>2026-04-19T13:09:38.012Z</time></trkpt><trkpt lat="45.1214" lon="7.9828333"><ele>376.0</ele><time>2026-04-19T13:09:39.012Z</time></trkpt><trkpt lat="45.121265" lon="7.98286"><ele>380.75</ele><time>2026-04-19T13:09:40.012Z</time></trkpt><trkpt lat="45.1211383" lon="7.9828517"><ele>385.5</ele><time>2026-04-19T13:09:41.011Z</time></trkpt><trkpt lat="45.1210067" lon="7.9828183"><ele>390.25</ele><time>2026-04-19T13:09:42.011Z</time></trkpt><trkpt lat="45.120875" lon="7.982775"><ele>395.0</ele><time>2026-04-19T13:09:43.011Z</time></trkpt><trkpt lat="45.1207433" lon="7.9827483"><ele>397.5</ele><time>2026-04-19T13:09:44.011Z</time></trkpt><trkpt lat="45.1206067" lon="7.9827517"><ele>400.0</ele><time>2026-04-19T13:09:45.012Z</time></trkpt><trkpt lat="45.1204583" lon="7.9827983"><ele>402.5</ele><time>2026-04-19T13:09:46.011Z</time></trkpt><trkpt lat="45.1203383" lon="7.9828733"><ele>405.0</ele><time>2026-04-19T13:09:47.011Z</time></trkpt><trkpt lat="45.1202333" lon="7.9829733"><ele>405.0</ele><time>2026-04-19T13:09:48.012Z</time></trkpt><trkpt lat="45.1201167" lon="7.9830583"><ele>405.0</ele><time>2026-04-19T13:09:49.011Z</time></trkpt><trkpt lat="45.1200383" lon="7.9831667"><ele>405.0</ele><time>2026-04-19T13:09:50.012Z</time></trkpt><trkpt lat="45.11996" lon="7.9832967"><ele>405.0</ele><time>2026-04-19T13:09:51.012Z</time></trkpt><trkpt lat="45.1199067" lon="7.983445"><ele>406.6</ele><time>2026-04-19T13:09:52.012Z</time></trkpt><trkpt lat="45.1198467" lon="7.9835883"><ele>408.2</ele><time>2026-04-19T13:09:53.011Z</time></trkpt><trkpt lat="45.1197967" lon="7.98373"><ele>409.79999999999995</ele><time>2026-04-19T13:09:54.012Z</time></trkpt><trkpt lat="45.1197583" lon="7.983865"><ele>411.4</ele><time>2026-04-19T13:09:55.011Z</time></trkpt><trkpt lat="45.11971" lon="7.9839783"><ele>413.0</ele><time>2026-04-19T13:09:56.011Z</time></trkpt><trkpt lat="45.119665" lon="7.9840867"><ele>415.49999999999994</ele><time>2026-04-19T13:09:57.012Z</time></trkpt><trkpt lat="45.1196367" lon="7.9841817"><ele>418.0</ele><time>2026-04-19T13:09:58.011Z</time></trkpt><trkpt lat="45.1196017" lon="7.9842683"><ele>420.5</ele><time>2026-04-19T13:09:59.011Z</time></trkpt><trkpt lat="45.1195233" lon="7.9843967"><ele>423.0</ele><time>2026-04-19T13:10:01.012Z</time></trkpt><trkpt lat="45.1194417" lon="7.9845167"><ele>425.49999999999994</ele><time>2026-04-19T13:10:03.011Z</time></trkpt><trkpt lat="45.119405" lon="7.9845917"><ele>428.0</ele><time>2026-04-19T13:10:04.012Z</time></trkpt><trkpt lat="45.1193683" lon="7.98468"><ele>428.0</ele><time>2026-04-19T13:10:05.011Z</time></trkpt><trkpt lat="45.1193267" lon="7.9847733"><ele>427.99999999999994</ele><time>2026-04-19T13:10:06.011Z</time></trkpt><trkpt lat="45.11929" lon="7.984875"><ele>427.99999999999994</ele><time>2026-04-19T13:10:07.011Z</time></trkpt><trkpt lat="45.119245" lon="7.984975"><ele>428.0</ele><time>2026-04-19T13:10:08.011Z</time></trkpt><trkpt lat="45.11921" lon="7.9851017"><ele>428.0</ele><time>2026-04-19T13:10:09.012Z</time></trkpt><trkpt lat="45.119165" lon="7.98525"><ele>428.3333333333333</ele><time>2026-04-19T13:10:10.011Z</time></trkpt><trkpt lat="45.119155" lon="7.985385"><ele>428.66666666666663</ele><time>2026-04-19T13:10:11.012Z</time></trkpt><trkpt lat="45.11916" lon="7.98551"><ele>429.0</ele><time>2026-04-19T13:10:12.011Z</time></trkpt><trkpt lat="45.1191783" lon="7.985635"><ele>429.33333333333337</ele><time>2026-04-19T13:10:13.011Z</time></trkpt><trkpt lat="45.119205" lon="7.9857517"><ele>429.6666666666667</ele><time>2026-04-19T13:10:14.011Z</time></trkpt><trkpt lat="45.1192333" lon="7.9858633"><ele>430.0</ele><time>2026-04-19T13:10:15.012Z</time></trkpt><trkpt lat="45.1192733" lon="7.9859567"><ele>432.00000000000006</ele><time>2026-04-19T13:10:16.011Z</time></trkpt><trkpt lat="45.11931" lon="7.9860417"><ele>434.0</ele><time>2026-04-19T13:10:17.011Z</time></trkpt><trkpt lat="45.1193367" lon="7.986125"><ele>436.0</ele><time>2026-04-19T13:10:18.011Z</time></trkpt><trkpt lat="45.11937" lon="7.98622"><ele>438.0</ele><time>2026-04-19T13:10:19.011Z</time></trkpt><trkpt lat="45.11941" lon="7.9863233"><ele>440.00000000000006</ele><time>2026-04-19T13:10:20.011Z</time></trkpt><trkpt lat="45.11945" lon="7.986445"><ele>442.0</ele><time>2026-04-19T13:10:21.011Z</time></trkpt><trkpt lat="45.119495" lon="7.98657"><ele>442.8</ele><time>2026-04-19T13:10:22.012Z</time></trkpt><trkpt lat="45.119535" lon="7.9866817"><ele>443.6</ele><time>2026-04-19T13:10:23.012Z</time></trkpt><trkpt lat="45.1195567" lon="7.986805"><ele>444.40000000000003</ele><time>2026-04-19T13:10:24.011Z</time></trkpt><trkpt lat="45.1195517" lon="7.9869483"><ele>445.20000000000005</ele><time>2026-04-19T13:10:25.012Z</time></trkpt><trkpt lat="45.1195283" lon="7.9870883"><ele>446.0</ele><time>2026-04-19T13:10:26.011Z</time></trkpt><trkpt lat="45.119495" lon="7.9872133"><ele>445.99999999999994</ele><time>2026-04-19T13:10:27.012Z</time></trkpt><trkpt lat="45.1194517" lon="7.9873117"><ele>446.0</ele><time>2026-04-19T13:10:28.012Z</time></trkpt><trkpt lat="45.1193767" lon="7.9873933"><ele>446.0</ele><time>2026-04-19T13:10:29.011Z</time></trkpt><trkpt lat="45.1193117" lon="7.987475"><ele>446.0</ele><time>2026-04-19T13:10:30.012Z</time></trkpt><trkpt lat="45.1192733" lon="7.9875767"><ele>445.99999999999994</ele><time>2026-04-19T13:10:31.012Z</time></trkpt><trkpt lat="45.1192733" lon="7.9877"><ele>446.0</ele><time>2026-04-19T13:10:32.012Z</time></trkpt><trkpt lat="45.119285" lon="7.987835"><ele>447.5</ele><time>2026-04-19T13:10:33.011Z</time></trkpt><trkpt lat="45.1192967" lon="7.9880183"><ele>449.0</ele><time>2026-04-19T13:10:34.012Z</time></trkpt><trkpt lat="45.1193183" lon="7.9882067"><ele>450.5</ele><time>2026-04-19T13:10:35.012Z</time></trkpt><trkpt lat="45.119345" lon="7.9884033"><ele>452.0</ele><time>2026-04-19T13:10:36.012Z</time></trkpt><trkpt lat="45.1193983" lon="7.9885833"><ele>456.75</ele><time>2026-04-19T13:10:37.011Z</time></trkpt><trkpt lat="45.11946" lon="7.9887583"><ele>461.5</ele><time>2026-04-19T13:10:38.011Z</time></trkpt><trkpt lat="45.1195567" lon="7.9889033"><ele>466.25</ele><time>2026-04-19T13:10:39.012Z</time></trkpt><trkpt lat="45.1196483" lon="7.9890183"><ele>471.0</ele><time>2026-04-19T13:10:40.012Z</time></trkpt><trkpt lat="45.1197233" lon="7.98914"><ele>469.25</ele><time>2026-04-19T13:10:41.011Z</time></trkpt><trkpt lat="45.1198083" lon="7.9893"><ele>467.5</ele><time>2026-04-19T13:10:42.011Z</time></trkpt><trkpt lat="45.1198983" lon="7.989465"><ele>465.75</ele><time>2026-04-19T13:10:43.011Z</time></trkpt><trkpt lat="45.1199983" lon="7.9896333"><ele>464.0</ele><time>2026-04-19T13:10:44.011Z</time></trkpt><trkpt lat="45.12009" lon="7.9897767"><ele>464.0</ele><time>2026-04-19T13:10:45.011Z</time></trkpt><trkpt lat="45.120175" lon="7.9899133"><ele>464.0</ele><time>2026-04-19T13:10:46.011Z</time></trkpt><trkpt lat="45.120245" lon="7.9900517"><ele>464.0</ele><time>2026-04-19T13:10:47.012Z</time></trkpt><trkpt lat="45.120335" lon="7.99015"><ele>464.0</ele><time>2026-04-19T13:10:48.011Z</time></trkpt><trkpt lat="45.1204233" lon="7.990225"><ele>465.8333333333333</ele><time>2026-04-19T13:10:49.012Z</time></trkpt><trkpt lat="45.1205233" lon="7.9902733"><ele>467.66666666666663</ele><time>2026-04-19T13:10:50.012Z</time></trkpt><trkpt lat="45.12062" lon="7.9902567"><ele>469.5</ele><time>2026-04-19T13:10:51.011Z</time></trkpt><trkpt lat="45.1207133" lon="7.990245"><ele>471.33333333333337</ele><time>2026-04-19T13:10:52.012Z</time></trkpt><trkpt lat="45.1207933" lon="7.99028"><ele>473.1666666666667</ele><time>2026-04-19T13:10:53.011Z</time></trkpt><trkpt lat="45.12084" lon="7.9903483"><ele>475.0</ele><time>2026-04-19T13:10:54.012Z</time></trkpt><trkpt lat="45.1208483" lon="7.9905317"><ele>472.5</ele><time>2026-04-19T13:10:56.012Z</time></trkpt><trkpt lat="45.1207967" lon="7.99066"><ele>470.0</ele><time>2026-04-19T13:10:57.011Z</time></trkpt><trkpt lat="45.12074" lon="7.99082"><ele>467.5</ele><time>2026-04-19T13:10:58.012Z</time></trkpt><trkpt lat="45.1206933" lon="7.9910033"><ele>465.0</ele><time>2026-04-19T13:10:59.011Z</time></trkpt><trkpt lat="45.1206433" lon="7.9911917"><ele>465.0</ele><time>2026-04-19T13:11:00.012Z</time></trkpt><trkpt lat="45.120605" lon="7.9913733"><ele>465.0</ele><time>2026-04-19T13:11:01.011Z</time></trkpt><trkpt lat="45.120565" lon="7.99156"><ele>465.0</ele><time>2026-04-19T13:11:02.011Z</time></trkpt><trkpt lat="45.1205433" lon="7.99175"><ele>465.0</ele><time>2026-04-19T13:11:03.011Z</time></trkpt><trkpt lat="45.1205367" lon="7.9919233"><ele>462.2</ele><time>2026-04-19T13:11:04.012Z</time></trkpt><trkpt lat="45.12055" lon="7.9921017"><ele>459.4</ele><time>2026-04-19T13:11:05.011Z</time></trkpt><trkpt lat="45.120565" lon="7.992265"><ele>456.6</ele><time>2026-04-19T13:11:06.011Z</time></trkpt><trkpt lat="45.1205833" lon="7.9924117"><ele>453.8</ele><time>2026-04-19T13:11:07.011Z</time></trkpt><trkpt lat="45.1206217" lon="7.9925283"><ele>451.0</ele><time>2026-04-19T13:11:08.011Z</time></trkpt><trkpt lat="45.1206467" lon="7.99262"><ele>450.00000000000006</ele><time>2026-04-19T13:11:09.012Z</time></trkpt><trkpt lat="45.1206867" lon="7.99276"><ele>449.0</ele><time>2026-04-19T13:11:11.011Z</time></trkpt><trkpt lat="45.1207133" lon="7.9928467"><ele>448.0</ele><time>2026-04-19T13:11:12.011Z</time></trkpt><trkpt lat="45.12074" lon="7.9929383"><ele>447.0</ele><time>2026-04-19T13:11:13.012Z</time></trkpt><trkpt lat="45.1207667" lon="7.993045"><ele>446.00000000000006</ele><time>2026-04-19T13:11:14.011Z</time></trkpt><trkpt lat="45.1207883" lon="7.9931633"><ele>445.0</ele><time>2026-04-19T13:11:15.012Z</time></trkpt><trkpt lat="45.12081" lon="7.9932917"><ele>451.4</ele><time>2026-04-19T13:11:16.012Z</time></trkpt><trkpt lat="45.1208333" lon="7.9934233"><ele>457.8</ele><time>2026-04-19T13:11:17.011Z</time></trkpt><trkpt lat="45.1208783" lon="7.9935383"><ele>464.20000000000005</ele><time>2026-04-19T13:11:18.012Z</time></trkpt><trkpt lat="45.1209317" lon="7.9936533"><ele>470.6</ele><time>2026-04-19T13:11:19.011Z</time></trkpt><trkpt lat="45.1209983" lon="7.9937617"><ele>477.0</ele><time>2026-04-19T13:11:20.011Z</time></trkpt><trkpt lat="45.1210767" lon="7.9938517"><ele>477.0</ele><time>2026-04-19T13:11:21.012Z</time></trkpt><trkpt lat="45.1211667" lon="7.993935"><ele>477.0</ele><time>2026-04-19T13:11:22.011Z</time></trkpt><trkpt lat="45.1212567" lon="7.99402"><ele>477.0</ele><time>2026-04-19T13:11:23.011Z</time></trkpt><trkpt lat="45.121365" lon="7.9941117"><ele>477.0</ele><time>2026-04-19T13:11:24.011Z</time></trkpt><trkpt lat="45.1214483" lon="7.99422"><ele>475.0</ele><time>2026-04-19T13:11:25.011Z</time></trkpt><trkpt lat="45.1215617" lon="7.99434"><ele>473.0</ele><time>2026-04-19T13:11:26.011Z</time></trkpt><trkpt lat="45.1216767" lon="7.994475"><ele>471.0</ele><time>2026-04-19T13:11:27.011Z</time></trkpt><trkpt lat="45.121785" lon="7.9946083"><ele>469.0</ele><time>2026-04-19T13:11:28.012Z</time></trkpt><trkpt lat="45.1218833" lon="7.9947283"><ele>466.75</ele><time>2026-04-19T13:11:29.012Z</time></trkpt><trkpt lat="45.1219883" lon="7.9948283"><ele>464.5</ele><time>2026-04-19T13:11:30.012Z</time></trkpt><trkpt lat="45.1220967" lon="7.9949283"><ele>462.25</ele><time>2026-04-19T13:11:31.011Z</time></trkpt><trkpt lat="45.122205" lon="7.995025"><ele>460.0</ele><time>2026-04-19T13:11:32.011Z</time></trkpt><trkpt lat="45.1222983" lon="7.9951"><ele>456.75</ele><time>2026-04-19T13:11:33.011Z</time></trkpt><trkpt lat="45.122405" lon="7.9951533"><ele>453.5</ele><time>2026-04-19T13:11:34.011Z</time></trkpt><trkpt lat="45.1225183" lon="7.995185"><ele>450.25</ele><time>2026-04-19T13:11:35.011Z</time></trkpt><trkpt lat="45.1226317" lon="7.9952067"><ele>447.0</ele><time>2026-04-19T13:11:36.011Z</time></trkpt><trkpt lat="45.1227483" lon="7.9952217"><ele>447.0</ele><time>2026-04-19T13:11:37.012Z</time></trkpt><trkpt lat="45.1228583" lon="7.995235"><ele>447.00000000000006</ele><time>2026-04-19T13:11:38.011Z</time></trkpt><trkpt lat="45.1229683" lon="7.9952483"><ele>447.00000000000006</ele><time>2026-04-19T13:11:39.011Z</time></trkpt><trkpt lat="45.1230767" lon="7.9952733"><ele>447.0</ele><time>2026-04-19T13:11:40.011Z</time></trkpt><trkpt lat="45.1231683" lon="7.995325"><ele>447.0</ele><time>2026-04-19T13:11:41.011Z</time></trkpt><trkpt lat="45.1232567" lon="7.9953917"><ele>450.75</ele><time>2026-04-19T13:11:42.012Z</time></trkpt><trkpt lat="45.12333" lon="7.9955133"><ele>454.5</ele><time>2026-04-19T13:11:43.012Z</time></trkpt><trkpt lat="45.1233767" lon="7.995665"><ele>458.25</ele><time>2026-04-19T13:11:44.012Z</time></trkpt><trkpt lat="45.1233683" lon="7.9958383"><ele>462.0</ele><time>2026-04-19T13:11:45.011Z</time></trkpt><trkpt lat="45.123345" lon="7.996015"><ele>462.5</ele><time>2026-04-19T13:11:46.011Z</time></trkpt><trkpt lat="45.1233083" lon="7.9962067"><ele>463.0</ele><time>2026-04-19T13:11:47.011Z</time></trkpt><trkpt lat="45.1232567" lon="7.9964017"><ele>463.5</ele><time>2026-04-19T13:11:48.012Z</time></trkpt><trkpt lat="45.12321" lon="7.9965883"><ele>464.0</ele><time>2026-04-19T13:11:49.012Z</time></trkpt><trkpt lat="45.1231733" lon="7.9967667"><ele>458.0</ele><time>2026-04-19T13:11:50.012Z</time></trkpt><trkpt lat="45.1231483" lon="7.996925"><ele>452.0</ele><time>2026-04-19T13:11:51.011Z</time></trkpt><trkpt lat="45.12313" lon="7.9970733"><ele>446.0</ele><time>2026-04-19T13:11:52.012Z</time></trkpt><trkpt lat="45.1231167" lon="7.99721"><ele>440.0</ele><time>2026-04-19T13:11:53.011Z</time></trkpt><trkpt lat="45.1231033" lon="7.9973517"><ele>434.0</ele><time>2026-04-19T13:11:54.011Z</time></trkpt><trkpt lat="45.1230867" lon="7.9974883"><ele>435.0</ele><time>2026-04-19T13:11:55.011Z</time></trkpt><trkpt lat="45.1230583" lon="7.997605"><ele>436.0</ele><time>2026-04-19T13:11:56.012Z</time></trkpt><trkpt lat="45.1230283" lon="7.99775"><ele>437.0</ele><time>2026-04-19T13:11:58.011Z</time></trkpt><trkpt lat="45.122925" lon="7.9978567"><ele>438.0</ele><time>2026-04-19T13:12:00.011Z</time></trkpt><trkpt lat="45.12285" lon="7.9979167"><ele>439.0</ele><time>2026-04-19T13:12:01.011Z</time></trkpt><trkpt lat="45.1227517" lon="7.997975"><ele>439.0</ele><time>2026-04-19T13:12:02.011Z</time></trkpt><trkpt lat="45.12264" lon="7.9980417"><ele>439.0</ele><time>2026-04-19T13:12:03.012Z</time></trkpt><trkpt lat="45.122525" lon="7.9981383"><ele>439.0</ele><time>2026-04-19T13:12:04.011Z</time></trkpt><trkpt lat="45.1223967" lon="7.9982417"><ele>439.0</ele><time>2026-04-19T13:12:05.011Z</time></trkpt><trkpt lat="45.12227" lon="7.998345"><ele>436.5</ele><time>2026-04-19T13:12:06.012Z</time></trkpt><trkpt lat="45.1221633" lon="7.9984583"><ele>434.0</ele><time>2026-04-19T13:12:07.012Z</time></trkpt><trkpt lat="45.12206" lon="7.9985883"><ele>431.5</ele><time>2026-04-19T13:12:08.011Z</time></trkpt><trkpt lat="45.1219633" lon="7.9987183"><ele>429.0</ele><time>2026-04-19T13:12:09.012Z</time></trkpt><trkpt lat="45.1218667" lon="7.998845"><ele>429.0</ele><time>2026-04-19T13:12:10.012Z</time></trkpt><trkpt lat="45.1217733" lon="7.9989767"><ele>429.0</ele><time>2026-04-19T13:12:11.011Z</time></trkpt><trkpt lat="45.1216933" lon="7.9991033"><ele>429.0</ele><time>2026-04-19T13:12:12.012Z</time></trkpt><trkpt lat="45.1216117" lon="7.9992317"><ele>429.0</ele><time>2026-04-19T13:12:13.012Z</time></trkpt><trkpt lat="45.121545" lon="7.999375"><ele>426.0</ele><time>2026-04-19T13:12:14.012Z</time></trkpt><trkpt lat="45.1215217" lon="7.9995417"><ele>423.0</ele><time>2026-04-19T13:12:15.011Z</time></trkpt><trkpt lat="45.121525" lon="7.9997267"><ele>420.0</ele><time>2026-04-19T13:12:16.011Z</time></trkpt><trkpt lat="45.1215383" lon="7.9999117"><ele>417.0</ele><time>2026-04-19T13:12:17.011Z</time></trkpt><trkpt lat="45.1215317" lon="8.0000933"><ele>417.0</ele><time>2026-04-19T13:12:18.012Z</time></trkpt><trkpt lat="45.121485" lon="8.0002517"><ele>417.0</ele><time>2026-04-19T13:12:19.011Z</time></trkpt><trkpt lat="45.1213967" lon="8.0003983"><ele>417.0</ele><time>2026-04-19T13:12:20.012Z</time></trkpt><trkpt lat="45.1212983" lon="8.0005417"><ele>417.0</ele><time>2026-04-19T13:12:21.011Z</time></trkpt><trkpt lat="45.121235" lon="8.0006883"><ele>417.0</ele><time>2026-04-19T13:12:22.011Z</time></trkpt><trkpt lat="45.12113" lon="8.0007917"><ele>417.0</ele><time>2026-04-19T13:12:23.011Z</time></trkpt><trkpt lat="45.121" lon="8.0008583"><ele>417.0</ele><time>2026-04-19T13:12:24.011Z</time></trkpt><trkpt lat="45.12086" lon="8.0008967"><ele>417.0</ele><time>2026-04-19T13:12:25.012Z</time></trkpt><trkpt lat="45.1207183" lon="8.0009567"><ele>418.25</ele><time>2026-04-19T13:12:26.011Z</time></trkpt><trkpt lat="45.1205817" lon="8.0010433"><ele>419.5</ele><time>2026-04-19T13:12:27.011Z</time></trkpt><trkpt lat="45.1204617" lon="8.001145"><ele>420.75</ele><time>2026-04-19T13:12:28.012Z</time></trkpt><trkpt lat="45.1203333" lon="8.0012367"><ele>422.0</ele><time>2026-04-19T13:12:29.011Z</time></trkpt><trkpt lat="45.120205" lon="8.001335"><ele>422.0</ele><time>2026-04-19T13:12:30.012Z</time></trkpt><trkpt lat="45.12007" lon="8.001435"><ele>422.0</ele><time>2026-04-19T13:12:31.012Z</time></trkpt><trkpt lat="45.1199433" lon="8.0015483"><ele>422.0</ele><time>2026-04-19T13:12:32.011Z</time></trkpt><trkpt lat="45.11982" lon="8.0016533"><ele>422.0</ele><time>2026-04-19T13:12:33.011Z</time></trkpt><trkpt lat="45.1197017" lon="8.001755"><ele>423.5</ele><time>2026-04-19T13:12:34.011Z</time></trkpt><trkpt lat="45.1195917" lon="8.0018617"><ele>425.0</ele><time>2026-04-19T13:12:35.011Z</time></trkpt><trkpt lat="45.1194967" lon="8.00195"><ele>426.5</ele><time>2026-04-19T13:12:36.011Z</time></trkpt><trkpt lat="45.1194017" lon="8.0020083"><ele>428.0</ele><time>2026-04-19T13:12:37.011Z</time></trkpt><trkpt lat="45.1193" lon="8.002045"><ele>428.0</ele><time>2026-04-19T13:12:38.012Z</time></trkpt><trkpt lat="45.119195" lon="8.0020767"><ele>427.99999999999994</ele><time>2026-04-19T13:12:39.012Z</time></trkpt><trkpt lat="45.1190933" lon="8.0021083"><ele>427.99999999999994</ele><time>2026-04-19T13:12:40.011Z</time></trkpt><trkpt lat="45.1189867" lon="8.0021267"><ele>428.0</ele><time>2026-04-19T13:12:41.011Z</time></trkpt><trkpt lat="45.11887" lon="8.0021367"><ele>428.0</ele><time>2026-04-19T13:12:42.012Z</time></trkpt><trkpt lat="45.1187667" lon="8.0021717"><ele>429.4</ele><time>2026-04-19T13:12:43.011Z</time></trkpt><trkpt lat="45.1186633" lon="8.002225"><ele>430.79999999999995</ele><time>2026-04-19T13:12:44.012Z</time></trkpt><trkpt lat="45.1185567" lon="8.002255"><ele>432.2</ele><time>2026-04-19T13:12:45.012Z</time></trkpt><trkpt lat="45.11845" lon="8.0022783"><ele>433.6</ele><time>2026-04-19T13:12:46.011Z</time></trkpt><trkpt lat="45.11835" lon="8.00231"><ele>435.0</ele><time>2026-04-19T13:12:47.012Z</time></trkpt><trkpt lat="45.118245" lon="8.00232"><ele>437.8</ele><time>2026-04-19T13:12:48.011Z</time></trkpt><trkpt lat="45.1181367" lon="8.0023133"><ele>440.6</ele><time>2026-04-19T13:12:49.012Z</time></trkpt><trkpt lat="45.1180283" lon="8.0023117"><ele>443.4</ele><time>2026-04-19T13:12:50.012Z</time></trkpt><trkpt lat="45.1179167" lon="8.0022933"><ele>446.2</ele><time>2026-04-19T13:12:51.011Z</time></trkpt><trkpt lat="45.117815" lon="8.0022833"><ele>449.0</ele><time>2026-04-19T13:12:52.012Z</time></trkpt><trkpt lat="45.1177267" lon="8.0022917"><ele>449.0</ele><time>2026-04-19T13:12:53.011Z</time></trkpt><trkpt lat="45.1176317" lon="8.0023133"><ele>449.0</ele><time>2026-04-19T13:12:54.011Z</time></trkpt><trkpt lat="45.1175367" lon="8.002365"><ele>449.0</ele><time>2026-04-19T13:12:55.012Z</time></trkpt><trkpt lat="45.1174333" lon="8.0024283"><ele>449.0</ele><time>2026-04-19T13:12:56.011Z</time></trkpt><trkpt lat="45.11734" lon="8.0025"><ele>449.0</ele><time>2026-04-19T13:12:57.011Z</time></trkpt><trkpt lat="45.11726" lon="8.002565"><ele>446.66666666666663</ele><time>2026-04-19T13:12:58.012Z</time></trkpt><trkpt lat="45.1171933" lon="8.0026117"><ele>444.3333333333333</ele><time>2026-04-19T13:12:59.011Z</time></trkpt><trkpt lat="45.1171233" lon="8.0026517"><ele>442.0</ele><time>2026-04-19T13:13:00.011Z</time></trkpt><trkpt lat="45.1170583" lon="8.00272"><ele>439.66666666666663</ele><time>2026-04-19T13:13:01.011Z</time></trkpt><trkpt lat="45.1170033" lon="8.0027917"><ele>437.3333333333333</ele><time>2026-04-19T13:13:02.012Z</time></trkpt><trkpt lat="45.1169533" lon="8.0028683"><ele>435.0</ele><time>2026-04-19T13:13:03.011Z</time></trkpt><trkpt lat="45.1169017" lon="8.0029533"><ele>435.0</ele><time>2026-04-19T13:13:04.012Z</time></trkpt><trkpt lat="45.1168583" lon="8.003055"><ele>435.0</ele><time>2026-04-19T13:13:05.011Z</time></trkpt><trkpt lat="45.116805" lon="8.0031667"><ele>435.0</ele><time>2026-04-19T13:13:06.011Z</time></trkpt><trkpt lat="45.1167583" lon="8.003275"><ele>435.0</ele><time>2026-04-19T13:13:07.011Z</time></trkpt><trkpt lat="45.1167167" lon="8.00339"><ele>435.0</ele><time>2026-04-19T13:13:08.011Z</time></trkpt><trkpt lat="45.116665" lon="8.0034983"><ele>435.6</ele><time>2026-04-19T13:13:09.011Z</time></trkpt><trkpt lat="45.1166183" lon="8.0036"><ele>436.2</ele><time>2026-04-19T13:13:10.011Z</time></trkpt><trkpt lat="45.1165567" lon="8.0036933"><ele>436.79999999999995</ele><time>2026-04-19T13:13:11.011Z</time></trkpt><trkpt lat="45.1164733" lon="8.0037933"><ele>437.4</ele><time>2026-04-19T13:13:12.011Z</time></trkpt><trkpt lat="45.1163867" lon="8.0038683"><ele>438.0</ele><time>2026-04-19T13:13:13.012Z</time></trkpt><trkpt lat="45.1163033" lon="8.00393"><ele>435.0</ele><time>2026-04-19T13:13:14.011Z</time></trkpt><trkpt lat="45.1162117" lon="8.0039817"><ele>431.99999999999994</ele><time>2026-04-19T13:13:15.012Z</time></trkpt><trkpt lat="45.116125" lon="8.0040283"><ele>429.0</ele><time>2026-04-19T13:13:16.012Z</time></trkpt><trkpt lat="45.1160267" lon="8.00405"><ele>426.0</ele><time>2026-04-19T13:13:17.012Z</time></trkpt><trkpt lat="45.1159167" lon="8.0040517"><ele>423.0</ele><time>2026-04-19T13:13:18.011Z</time></trkpt><trkpt lat="45.1158117" lon="8.00407"><ele>422.75</ele><time>2026-04-19T13:13:19.011Z</time></trkpt><trkpt lat="45.115705" lon="8.0041083"><ele>422.5</ele><time>2026-04-19T13:13:20.011Z</time></trkpt><trkpt lat="45.1156083" lon="8.0041783"><ele>422.25</ele><time>2026-04-19T13:13:21.011Z</time></trkpt><trkpt lat="45.1155167" lon="8.0042733"><ele>422.0</ele><time>2026-04-19T13:13:22.011Z</time></trkpt><trkpt lat="45.11542" lon="8.0043767"><ele>425.25</ele><time>2026-04-19T13:13:23.011Z</time></trkpt><trkpt lat="45.1153267" lon="8.004485"><ele>428.5</ele><time>2026-04-19T13:13:24.011Z</time></trkpt><trkpt lat="45.115225" lon="8.0045833"><ele>431.75</ele><time>2026-04-19T13:13:25.011Z</time></trkpt><trkpt lat="45.11513" lon="8.0046783"><ele>435.0</ele><time>2026-04-19T13:13:26.012Z</time></trkpt><trkpt lat="45.115035" lon="8.0047767"><ele>435.0</ele><time>2026-04-19T13:13:27.012Z</time></trkpt><trkpt lat="45.11495" lon="8.004885"><ele>435.0</ele><time>2026-04-19T13:13:28.011Z</time></trkpt><trkpt lat="45.11487" lon="8.005015"><ele>435.0</ele><time>2026-04-19T13:13:29.011Z</time></trkpt><trkpt lat="45.1147933" lon="8.0051633"><ele>435.0</ele><time>2026-04-19T13:13:30.011Z</time></trkpt><trkpt lat="45.11473" lon="8.005315"><ele>434.5</ele><time>2026-04-19T13:13:31.011Z</time></trkpt><trkpt lat="45.1146567" lon="8.00545"><ele>434.0</ele><time>2026-04-19T13:13:32.012Z</time></trkpt><trkpt lat="45.11456" lon="8.0055767"><ele>433.5</ele><time>2026-04-19T13:13:33.011Z</time></trkpt><trkpt lat="45.1144483" lon="8.0057067"><ele>433.0</ele><time>2026-04-19T13:13:34.011Z</time></trkpt><trkpt lat="45.11433" lon="8.0058217"><ele>439.0</ele><time>2026-04-19T13:13:35.012Z</time></trkpt><trkpt lat="45.114205" lon="8.0058933"><ele>445.0</ele><time>2026-04-19T13:13:36.011Z</time></trkpt><trkpt lat="45.1140967" lon="8.0059317"><ele>451.0</ele><time>2026-04-19T13:13:37.011Z</time></trkpt><trkpt lat="45.1139717" lon="8.0059067"><ele>457.0</ele><time>2026-04-19T13:13:38.011Z</time></trkpt><trkpt lat="45.1138467" lon="8.0058817"><ele>457.0</ele><time>2026-04-19T13:13:39.011Z</time></trkpt><trkpt lat="45.113715" lon="8.005855"><ele>457.0</ele><time>2026-04-19T13:13:40.012Z</time></trkpt><trkpt lat="45.1135833" lon="8.005845"><ele>457.0</ele><time>2026-04-19T13:13:41.011Z</time></trkpt><trkpt lat="45.11346" lon="8.0058933"><ele>457.0</ele><time>2026-04-19T13:13:42.011Z</time></trkpt><trkpt lat="45.113345" lon="8.0059567"><ele>457.6</ele><time>2026-04-19T13:13:43.012Z</time></trkpt><trkpt lat="45.1132367" lon="8.0060083"><ele>458.20000000000005</ele><time>2026-04-19T13:13:44.012Z</time></trkpt><trkpt lat="45.11314" lon="8.00606"><ele>458.8</ele><time>2026-04-19T13:13:45.011Z</time></trkpt><trkpt lat="45.11306" lon="8.0061233"><ele>459.4</ele><time>2026-04-19T13:13:46.011Z</time></trkpt><trkpt lat="45.112995" lon="8.00621"><ele>460.0</ele><time>2026-04-19T13:13:47.011Z</time></trkpt><trkpt lat="45.1129567" lon="8.0063033"><ele>460.0</ele><time>2026-04-19T13:13:48.011Z</time></trkpt><trkpt lat="45.1129583" lon="8.0064133"><ele>460.0</ele><time>2026-04-19T13:13:49.011Z</time></trkpt><trkpt lat="45.1129767" lon="8.006535"><ele>460.0</ele><time>2026-04-19T13:13:50.011Z</time></trkpt><trkpt lat="45.113015" lon="8.0066533"><ele>460.0</ele><time>2026-04-19T13:13:51.012Z</time></trkpt><trkpt lat="45.1130917" lon="8.0067667"><ele>460.0</ele><time>2026-04-19T13:13:52.012Z</time></trkpt><trkpt lat="45.1131967" lon="8.00687"><ele>461.6666666666667</ele><time>2026-04-19T13:13:53.012Z</time></trkpt><trkpt lat="45.1133633" lon="8.0069517"><ele>463.33333333333337</ele><time>2026-04-19T13:13:54.012Z</time></trkpt><trkpt lat="45.1135567" lon="8.00703"><ele>465.0</ele><time>2026-04-19T13:13:55.012Z</time></trkpt><trkpt lat="45.1137483" lon="8.0071167"><ele>465.0</ele><time>2026-04-19T13:13:56.011Z</time></trkpt><trkpt lat="45.1139133" lon="8.00722"><ele>465.0</ele><time>2026-04-19T13:13:57.012Z</time></trkpt><trkpt lat="45.1140783" lon="8.0073167"><ele>465.0</ele><time>2026-04-19T13:13:58.011Z</time></trkpt><trkpt lat="45.1142283" lon="8.0074133"><ele>463.5</ele><time>2026-04-19T13:13:59.012Z</time></trkpt><trkpt lat="45.1143683" lon="8.0075083"><ele>462.0</ele><time>2026-04-19T13:14:00.011Z</time></trkpt><trkpt lat="45.1145" lon="8.0075967"><ele>460.5</ele><time>2026-04-19T13:14:01.012Z</time></trkpt><trkpt lat="45.11462" lon="8.0077033"><ele>459.0</ele><time>2026-04-19T13:14:02.011Z</time></trkpt><trkpt lat="45.114715" lon="8.0078333"><ele>459.0</ele><time>2026-04-19T13:14:03.012Z</time></trkpt><trkpt lat="45.114785" lon="8.0079933"><ele>459.0</ele><time>2026-04-19T13:14:04.012Z</time></trkpt><trkpt lat="45.1148283" lon="8.0081833"><ele>459.0</ele><time>2026-04-19T13:14:05.012Z</time></trkpt><trkpt lat="45.1148483" lon="8.008415"><ele>459.0</ele><time>2026-04-19T13:14:06.011Z</time></trkpt><trkpt lat="45.1148533" lon="8.00866"><ele>452.33333333333337</ele><time>2026-04-19T13:14:07.011Z</time></trkpt><trkpt lat="45.1148617" lon="8.0089033"><ele>445.6666666666667</ele><time>2026-04-19T13:14:08.011Z</time></trkpt><trkpt lat="45.1148833" lon="8.0091467"><ele>439.0</ele><time>2026-04-19T13:14:09.011Z</time></trkpt><trkpt lat="45.1148917" lon="8.0094033"><ele>436.33333333333337</ele><time>2026-04-19T13:14:10.011Z</time></trkpt><trkpt lat="45.1148917" lon="8.0096483"><ele>433.66666666666663</ele><time>2026-04-19T13:14:11.012Z</time></trkpt><trkpt lat="45.114885" lon="8.0098917"><ele>431.0</ele><time>2026-04-19T13:14:12.011Z</time></trkpt><trkpt lat="45.11487" lon="8.01013"><ele>431.0</ele><time>2026-04-19T13:14:13.011Z</time></trkpt><trkpt lat="45.1148483" lon="8.0103783"><ele>431.0</ele><time>2026-04-19T13:14:14.011Z</time></trkpt><trkpt lat="45.1148233" lon="8.0106333"><ele>431.0</ele><time>2026-04-19T13:14:15.011Z</time></trkpt><trkpt lat="45.1147967" lon="8.0108833"><ele>430.0</ele><time>2026-04-19T13:14:16.012Z</time></trkpt><trkpt lat="45.1147933" lon="8.01114"><ele>429.0</ele><time>2026-04-19T13:14:17.011Z</time></trkpt><trkpt lat="45.1147733" lon="8.0113817"><ele>428.0</ele><time>2026-04-19T13:14:18.012Z</time></trkpt><trkpt lat="45.1147483" lon="8.0116033"><ele>427.75</ele><time>2026-04-19T13:14:19.011Z</time></trkpt><trkpt lat="45.1147383" lon="8.0118183"><ele>427.5</ele><time>2026-04-19T13:14:20.012Z</time></trkpt><trkpt lat="45.1147083" lon="8.0120117"><ele>427.25</ele><time>2026-04-19T13:14:21.011Z</time></trkpt><trkpt lat="45.1146883" lon="8.0122"><ele>427.0</ele><time>2026-04-19T13:14:22.011Z</time></trkpt><trkpt lat="45.114655" lon="8.012395"><ele>429.5</ele><time>2026-04-19T13:14:23.012Z</time></trkpt><trkpt lat="45.1146" lon="8.0125733"><ele>432.0</ele><time>2026-04-19T13:14:24.011Z</time></trkpt><trkpt lat="45.11451" lon="8.0127383"><ele>434.5</ele><time>2026-04-19T13:14:25.012Z</time></trkpt><trkpt lat="45.1143967" lon="8.0128733"><ele>437.0</ele><time>2026-04-19T13:14:26.012Z</time></trkpt><trkpt lat="45.1142667" lon="8.0129667"><ele>437.0</ele><time>2026-04-19T13:14:27.011Z</time></trkpt><trkpt lat="45.1141383" lon="8.0130517"><ele>437.0</ele><time>2026-04-19T13:14:28.012Z</time></trkpt><trkpt lat="45.113985" lon="8.0131233"><ele>437.0</ele><time>2026-04-19T13:14:29.012Z</time></trkpt><trkpt lat="45.1138483" lon="8.01319"><ele>437.0</ele><time>2026-04-19T13:14:30.011Z</time></trkpt><trkpt lat="45.1137283" lon="8.0132883"><ele>434.0</ele><time>2026-04-19T13:14:31.011Z</time></trkpt><trkpt lat="45.1136267" lon="8.0134183"><ele>431.0</ele><time>2026-04-19T13:14:32.012Z</time></trkpt><trkpt lat="45.1135383" lon="8.013575"><ele>428.0</ele><time>2026-04-19T13:14:33.011Z</time></trkpt><trkpt lat="45.1134467" lon="8.0137433"><ele>425.0</ele><time>2026-04-19T13:14:34.011Z</time></trkpt><trkpt lat="45.1133433" lon="8.0139183"><ele>426.0</ele><time>2026-04-19T13:14:35.012Z</time></trkpt><trkpt lat="45.1132383" lon="8.014095"><ele>427.0</ele><time>2026-04-19T13:14:36.012Z</time></trkpt><trkpt lat="45.113135" lon="8.014265"><ele>428.0</ele><time>2026-04-19T13:14:37.011Z</time></trkpt><trkpt lat="45.1130267" lon="8.0144383"><ele>428.0</ele><time>2026-04-19T13:14:38.011Z</time></trkpt><trkpt lat="45.11293" lon="8.01458"><ele>428.0</ele><time>2026-04-19T13:14:39.011Z</time></trkpt><trkpt lat="45.1128517" lon="8.0147267"><ele>428.0</ele><time>2026-04-19T13:14:40.011Z</time></trkpt><trkpt lat="45.11278" lon="8.014865"><ele>428.0</ele><time>2026-04-19T13:14:41.011Z</time></trkpt><trkpt lat="45.1127133" lon="8.01502"><ele>430.66666666666663</ele><time>2026-04-19T13:14:42.012Z</time></trkpt><trkpt lat="45.1126717" lon="8.0152117"><ele>433.33333333333337</ele><time>2026-04-19T13:14:43.011Z</time></trkpt><trkpt lat="45.1126617" lon="8.0154367"><ele>436.0</ele><time>2026-04-19T13:14:44.012Z</time></trkpt><trkpt lat="45.1126583" lon="8.0156783"><ele>434.33333333333337</ele><time>2026-04-19T13:14:45.012Z</time></trkpt><trkpt lat="45.1126533" lon="8.0159183"><ele>432.66666666666663</ele><time>2026-04-19T13:14:46.012Z</time></trkpt><trkpt lat="45.1126417" lon="8.016165"><ele>431.0</ele><time>2026-04-19T13:14:47.011Z</time></trkpt><trkpt lat="45.1126267" lon="8.0164033"><ele>431.0</ele><time>2026-04-19T13:14:48.011Z</time></trkpt><trkpt lat="45.11258" lon="8.0166433"><ele>431.0</ele><time>2026-04-19T13:14:49.012Z</time></trkpt><trkpt lat="45.1125" lon="8.016865"><ele>431.0</ele><time>2026-04-19T13:14:50.012Z</time></trkpt><trkpt lat="45.1123933" lon="8.0170783"><ele>427.0</ele><time>2026-04-19T13:14:51.011Z</time></trkpt><trkpt lat="45.112295" lon="8.0173067"><ele>423.0</ele><time>2026-04-19T13:14:52.011Z</time></trkpt><trkpt lat="45.1121917" lon="8.0175383"><ele>419.0</ele><time>2026-04-19T13:14:53.011Z</time></trkpt><trkpt lat="45.11209" lon="8.01778"><ele>419.0</ele><time>2026-04-19T13:14:54.011Z</time></trkpt><trkpt lat="45.1119867" lon="8.0180417"><ele>419.0</ele><time>2026-04-19T13:14:55.012Z</time></trkpt><trkpt lat="45.1118683" lon="8.0183067"><ele>419.0</ele><time>2026-04-19T13:14:56.012Z</time></trkpt><trkpt lat="45.1117567" lon="8.0185867"><ele>418.3333333333333</ele><time>2026-04-19T13:14:57.011Z</time></trkpt><trkpt lat="45.111655" lon="8.0188483"><ele>417.66666666666663</ele><time>2026-04-19T13:14:58.011Z</time></trkpt><trkpt lat="45.1115483" lon="8.0191067"><ele>417.0</ele><time>2026-04-19T13:14:59.011Z</time></trkpt><trkpt lat="45.1114533" lon="8.0193367"><ele>417.0</ele><time>2026-04-19T13:15:00.012Z</time></trkpt><trkpt lat="45.111355" lon="8.019555"><ele>417.0</ele><time>2026-04-19T13:15:01.012Z</time></trkpt><trkpt lat="45.111265" lon="8.0197333"><ele>417.0</ele><time>2026-04-19T13:15:02.011Z</time></trkpt><trkpt lat="45.1111467" lon="8.019885"><ele>418.0</ele><time>2026-04-19T13:15:03.011Z</time></trkpt><trkpt lat="45.1110083" lon="8.0199967"><ele>419.0</ele><time>2026-04-19T13:15:04.011Z</time></trkpt><trkpt lat="45.1108383" lon="8.020075"><ele>420.0</ele><time>2026-04-19T13:15:05.011Z</time></trkpt><trkpt lat="45.1106417" lon="8.020175"><ele>417.0</ele><time>2026-04-19T13:15:06.012Z</time></trkpt><trkpt lat="45.11046" lon="8.02026"><ele>414.0</ele><time>2026-04-19T13:15:07.011Z</time></trkpt><trkpt lat="45.1102717" lon="8.0203583"><ele>411.0</ele><time>2026-04-19T13:15:08.012Z</time></trkpt><trkpt lat="45.11007" lon="8.0204833"><ele>412.0</ele><time>2026-04-19T13:15:09.012Z</time></trkpt><trkpt lat="45.1098717" lon="8.0206167"><ele>413.0</ele><time>2026-04-19T13:15:10.012Z</time></trkpt><trkpt lat="45.109695" lon="8.0207817"><ele>414.0</ele><time>2026-04-19T13:15:11.012Z</time></trkpt><trkpt lat="45.1095317" lon="8.0209967"><ele>414.0</ele><time>2026-04-19T13:15:12.011Z</time></trkpt><trkpt lat="45.109365" lon="8.02123"><ele>414.0</ele><time>2026-04-19T13:15:13.012Z</time></trkpt><trkpt lat="45.1092167" lon="8.0214333"><ele>414.0</ele><time>2026-04-19T13:15:14.011Z</time></trkpt><trkpt lat="45.1090667" lon="8.0216367"><ele>413.66666666666663</ele><time>2026-04-19T13:15:15.011Z</time></trkpt><trkpt lat="45.10891" lon="8.021845"><ele>413.3333333333333</ele><time>2026-04-19T13:15:16.012Z</time></trkpt><trkpt lat="45.1087483" lon="8.0220133"><ele>413.0</ele><time>2026-04-19T13:15:17.011Z</time></trkpt><trkpt lat="45.1085617" lon="8.0221417"><ele>413.0</ele><time>2026-04-19T13:15:18.011Z</time></trkpt><trkpt lat="45.1083833" lon="8.0222567"><ele>413.0</ele><time>2026-04-19T13:15:19.012Z</time></trkpt><trkpt lat="45.1082083" lon="8.0223617"><ele>413.0</ele><time>2026-04-19T13:15:20.011Z</time></trkpt><trkpt lat="45.1080517" lon="8.022455"><ele>419.0</ele><time>2026-04-19T13:15:21.011Z</time></trkpt><trkpt lat="45.107895" lon="8.0225517"><ele>425.0</ele><time>2026-04-19T13:15:22.012Z</time></trkpt><trkpt lat="45.1077567" lon="8.0226433"><ele>431.0</ele><time>2026-04-19T13:15:23.011Z</time></trkpt><trkpt lat="45.1076117" lon="8.0227417"><ele>431.0</ele><time>2026-04-19T13:15:24.011Z</time></trkpt><trkpt lat="45.1074767" lon="8.0228333"><ele>431.0</ele><time>2026-04-19T13:15:25.011Z</time></trkpt><trkpt lat="45.1073533" lon="8.0228967"><ele>431.0</ele><time>2026-04-19T13:15:26.011Z</time></trkpt><trkpt lat="45.107235" lon="8.0229733"><ele>431.0</ele><time>2026-04-19T13:15:27.011Z</time></trkpt><trkpt lat="45.1071133" lon="8.02302"><ele>431.0</ele><time>2026-04-19T13:15:28.011Z</time></trkpt><trkpt lat="45.107" lon="8.0230367"><ele>431.0</ele><time>2026-04-19T13:15:29.012Z</time></trkpt><trkpt lat="45.1068983" lon="8.0230083"><ele>431.0</ele><time>2026-04-19T13:15:30.011Z</time></trkpt><trkpt lat="45.1067917" lon="8.02298"><ele>431.0</ele><time>2026-04-19T13:15:31.011Z</time></trkpt><trkpt lat="45.10669" lon="8.0229467"><ele>431.0</ele><time>2026-04-19T13:15:32.011Z</time></trkpt><trkpt lat="45.1065717" lon="8.02293"><ele>431.4</ele><time>2026-04-19T13:15:33.012Z</time></trkpt><trkpt lat="45.10646" lon="8.02291"><ele>431.8</ele><time>2026-04-19T13:15:34.011Z</time></trkpt><trkpt lat="45.10634" lon="8.0228817"><ele>432.19999999999993</ele><time>2026-04-19T13:15:35.011Z</time></trkpt><trkpt lat="45.1062333" lon="8.0228567"><ele>432.59999999999997</ele><time>2026-04-19T13:15:36.011Z</time></trkpt><trkpt lat="45.1061433" lon="8.0228317"><ele>433.0</ele><time>2026-04-19T13:15:37.011Z</time></trkpt><trkpt lat="45.1060467" lon="8.0227933"><ele>433.0</ele><time>2026-04-19T13:15:38.011Z</time></trkpt><trkpt lat="45.105945" lon="8.022755"><ele>432.99999999999994</ele><time>2026-04-19T13:15:39.011Z</time></trkpt><trkpt lat="45.1058433" lon="8.02269"><ele>432.99999999999994</ele><time>2026-04-19T13:15:40.012Z</time></trkpt><trkpt lat="45.10575" lon="8.0226067"><ele>433.0</ele><time>2026-04-19T13:15:41.012Z</time></trkpt><trkpt lat="45.1056483" lon="8.0225133"><ele>433.0</ele><time>2026-04-19T13:15:42.011Z</time></trkpt><trkpt lat="45.10555" lon="8.0224083"><ele>434.59999999999997</ele><time>2026-04-19T13:15:43.012Z</time></trkpt><trkpt lat="45.1054517" lon="8.0223283"><ele>436.19999999999993</ele><time>2026-04-19T13:15:44.011Z</time></trkpt><trkpt lat="45.1053617" lon="8.02226"><ele>437.8</ele><time>2026-04-19T13:15:45.012Z</time></trkpt><trkpt lat="45.105275" lon="8.0221633"><ele>439.4</ele><time>2026-04-19T13:15:46.011Z</time></trkpt><trkpt lat="45.1051833" lon="8.0220917"><ele>441.0</ele><time>2026-04-19T13:15:47.011Z</time></trkpt><trkpt lat="45.1050933" lon="8.02202"><ele>441.0</ele><time>2026-04-19T13:15:48.011Z</time></trkpt><trkpt lat="45.1050033" lon="8.021935"><ele>441.0</ele><time>2026-04-19T13:15:49.012Z</time></trkpt><trkpt lat="45.104905" lon="8.0218633"><ele>441.0</ele><time>2026-04-19T13:15:50.011Z</time></trkpt><trkpt lat="45.1048133" lon="8.0217733"><ele>441.0</ele><time>2026-04-19T13:15:51.012Z</time></trkpt><trkpt lat="45.104715" lon="8.021715"><ele>441.0</ele><time>2026-04-19T13:15:52.012Z</time></trkpt><trkpt lat="45.1046217" lon="8.0216817"><ele>440.4</ele><time>2026-04-19T13:15:53.011Z</time></trkpt><trkpt lat="45.1045167" lon="8.02167"><ele>439.8</ele><time>2026-04-19T13:15:54.011Z</time></trkpt><trkpt lat="45.104405" lon="8.0216817"><ele>439.19999999999993</ele><time>2026-04-19T13:15:55.011Z</time></trkpt><trkpt lat="45.1042917" lon="8.0216967"><ele>438.59999999999997</ele><time>2026-04-19T13:15:56.012Z</time></trkpt><trkpt lat="45.1041817" lon="8.0216867"><ele>438.0</ele><time>2026-04-19T13:15:57.011Z</time></trkpt><trkpt lat="45.10407" lon="8.021665"><ele>435.59999999999997</ele><time>2026-04-19T13:15:58.012Z</time></trkpt><trkpt lat="45.1039583" lon="8.02164"><ele>433.19999999999993</ele><time>2026-04-19T13:15:59.011Z</time></trkpt><trkpt lat="45.103865" lon="8.0216133"><ele>430.8</ele><time>2026-04-19T13:16:00.011Z</time></trkpt><trkpt lat="45.10376" lon="8.0215933"><ele>428.4</ele><time>2026-04-19T13:16:01.012Z</time></trkpt><trkpt lat="45.1036417" lon="8.0215817"><ele>426.0</ele><time>2026-04-19T13:16:02.011Z</time></trkpt><trkpt lat="45.1035183" lon="8.021575"><ele>426.0</ele><time>2026-04-19T13:16:03.012Z</time></trkpt><trkpt lat="45.1033983" lon="8.0215917"><ele>426.0</ele><time>2026-04-19T13:16:04.012Z</time></trkpt><trkpt lat="45.1032867" lon="8.0216283"><ele>426.0</ele><time>2026-04-19T13:16:05.012Z</time></trkpt><trkpt lat="45.1031683" lon="8.0216867"><ele>426.0</ele><time>2026-04-19T13:16:06.011Z</time></trkpt><trkpt lat="45.10305" lon="8.02177"><ele>430.25</ele><time>2026-04-19T13:16:07.011Z</time></trkpt><trkpt lat="45.10295" lon="8.0218417"><ele>434.5</ele><time>2026-04-19T13:16:08.011Z</time></trkpt><trkpt lat="45.10284" lon="8.0219283"><ele>438.75</ele><time>2026-04-19T13:16:09.012Z</time></trkpt><trkpt lat="45.1027133" lon="8.022"><ele>443.0</ele><time>2026-04-19T13:16:10.011Z</time></trkpt><trkpt lat="45.1025733" lon="8.0220617"><ele>443.0</ele><time>2026-04-19T13:16:11.011Z</time></trkpt><trkpt lat="45.1024233" lon="8.022115"><ele>443.0</ele><time>2026-04-19T13:16:12.011Z</time></trkpt><trkpt lat="45.1022783" lon="8.02218"><ele>443.0</ele><time>2026-04-19T13:16:13.011Z</time></trkpt><trkpt lat="45.1021317" lon="8.0222317"><ele>442.5</ele><time>2026-04-19T13:16:14.011Z</time></trkpt><trkpt lat="45.1019917" lon="8.0222717"><ele>442.0</ele><time>2026-04-19T13:16:15.012Z</time></trkpt><trkpt lat="45.1018717" lon="8.0223117"><ele>441.5</ele><time>2026-04-19T13:16:16.011Z</time></trkpt><trkpt lat="45.1017633" lon="8.0223517"><ele>441.0</ele><time>2026-04-19T13:16:17.012Z</time></trkpt><trkpt lat="45.1016533" lon="8.0223733"><ele>440.5</ele><time>2026-04-19T13:16:18.012Z</time></trkpt><trkpt lat="45.101535" lon="8.0223767"><ele>440.0</ele><time>2026-04-19T13:16:19.011Z</time></trkpt><trkpt lat="45.1014117" lon="8.0223983"><ele>439.5</ele><time>2026-04-19T13:16:20.011Z</time></trkpt><trkpt lat="45.1012983" lon="8.0224317"><ele>439.0</ele><time>2026-04-19T13:16:21.01Z</time></trkpt><trkpt lat="45.101185" lon="8.0225217"><ele>439.0</ele><time>2026-04-19T13:16:22.01Z</time></trkpt><trkpt lat="45.1010767" lon="8.022645"><ele>439.0</ele><time>2026-04-19T13:16:23.01Z</time></trkpt><trkpt lat="45.100965" lon="8.0227767"><ele>439.0</ele><time>2026-04-19T13:16:24.01Z</time></trkpt><trkpt lat="45.1008483" lon="8.0228967"><ele>439.0</ele><time>2026-04-19T13:16:25.01Z</time></trkpt><trkpt lat="45.1007283" lon="8.0230217"><ele>439.75</ele><time>2026-04-19T13:16:26.01Z</time></trkpt><trkpt lat="45.10061" lon="8.0231383"><ele>440.5</ele><time>2026-04-19T13:16:27.011Z</time></trkpt><trkpt lat="45.1004883" lon="8.0232567"><ele>441.25</ele><time>2026-04-19T13:16:28.01Z</time></trkpt><trkpt lat="45.10036" lon="8.0233733"><ele>442.0</ele><time>2026-04-19T13:16:29.01Z</time></trkpt><trkpt lat="45.1002367" lon="8.0235033"><ele>442.0</ele><time>2026-04-19T13:16:30.01Z</time></trkpt><trkpt lat="45.1001067" lon="8.0236367"><ele>442.0</ele><time>2026-04-19T13:16:31.011Z</time></trkpt><trkpt lat="45.09997" lon="8.0237467"><ele>442.0</ele><time>2026-04-19T13:16:32.011Z</time></trkpt><trkpt lat="45.0998267" lon="8.0238733"><ele>442.0</ele><time>2026-04-19T13:16:33.011Z</time></trkpt><trkpt lat="45.0996817" lon="8.0240117"><ele>442.0</ele><time>2026-04-19T13:16:34.01Z</time></trkpt><trkpt lat="45.099545" lon="8.0241417"><ele>442.0</ele><time>2026-04-19T13:16:35.01Z</time></trkpt><trkpt lat="45.0993883" lon="8.0242633"><ele>442.0</ele><time>2026-04-19T13:16:36.011Z</time></trkpt><trkpt lat="45.0992117" lon="8.024375"><ele>442.0</ele><time>2026-04-19T13:16:37.01Z</time></trkpt><trkpt lat="45.09905" lon="8.0244767"><ele>442.0</ele><time>2026-04-19T13:16:38.011Z</time></trkpt><trkpt lat="45.0988933" lon="8.0245767"><ele>437.6666666666667</ele><time>2026-04-19T13:16:39.011Z</time></trkpt><trkpt lat="45.0987433" lon="8.0246867"><ele>433.33333333333337</ele><time>2026-04-19T13:16:40.011Z</time></trkpt><trkpt lat="45.098595" lon="8.0248067"><ele>429.0</ele><time>2026-04-19T13:16:41.011Z</time></trkpt><trkpt lat="45.0984533" lon="8.0249033"><ele>433.66666666666663</ele><time>2026-04-19T13:16:42.01Z</time></trkpt><trkpt lat="45.0983033" lon="8.0249867"><ele>438.3333333333333</ele><time>2026-04-19T13:16:43.01Z</time></trkpt><trkpt lat="45.0981633" lon="8.025055"><ele>443.0</ele><time>2026-04-19T13:16:44.01Z</time></trkpt><trkpt lat="45.0980067" lon="8.0250867"><ele>444.3333333333333</ele><time>2026-04-19T13:16:45.011Z</time></trkpt><trkpt lat="45.0978533" lon="8.0251267"><ele>445.66666666666663</ele><time>2026-04-19T13:16:46.01Z</time></trkpt><trkpt lat="45.097685" lon="8.0251517"><ele>447.0</ele><time>2026-04-19T13:16:47.011Z</time></trkpt><trkpt lat="45.097515" lon="8.0251717"><ele>446.0</ele><time>2026-04-19T13:16:48.01Z</time></trkpt><trkpt lat="45.0973417" lon="8.0251933"><ele>445.0</ele><time>2026-04-19T13:16:49.01Z</time></trkpt><trkpt lat="45.0971583" lon="8.025215"><ele>444.0</ele><time>2026-04-19T13:16:50.01Z</time></trkpt><trkpt lat="45.0969833" lon="8.0252333"><ele>444.0</ele><time>2026-04-19T13:16:51.01Z</time></trkpt><trkpt lat="45.09682" lon="8.025255"><ele>444.0</ele><time>2026-04-19T13:16:52.011Z</time></trkpt><trkpt lat="45.096665" lon="8.02528"><ele>444.0</ele><time>2026-04-19T13:16:53.01Z</time></trkpt><trkpt lat="45.0965267" lon="8.025315"><ele>442.0</ele><time>2026-04-19T13:16:54.01Z</time></trkpt><trkpt lat="45.096395" lon="8.025385"><ele>440.0</ele><time>2026-04-19T13:16:55.01Z</time></trkpt><trkpt lat="45.0962683" lon="8.0254833"><ele>438.0</ele><time>2026-04-19T13:16:56.01Z</time></trkpt><trkpt lat="45.096135" lon="8.0255833"><ele>436.0</ele><time>2026-04-19T13:16:57.01Z</time></trkpt><trkpt lat="45.0959867" lon="8.025655"><ele>436.0</ele><time>2026-04-19T13:16:58.01Z</time></trkpt><trkpt lat="45.095845" lon="8.0256917"><ele>436.0</ele><time>2026-04-19T13:16:59.01Z</time></trkpt><trkpt lat="45.0956817" lon="8.025715"><ele>436.0</ele><time>2026-04-19T13:17:00.011Z</time></trkpt><trkpt lat="45.0955033" lon="8.02573"><ele>435.6666666666667</ele><time>2026-04-19T13:17:01.011Z</time></trkpt><trkpt lat="45.09532" lon="8.0257683"><ele>435.33333333333337</ele><time>2026-04-19T13:17:02.01Z</time></trkpt><trkpt lat="45.0951317" lon="8.025825"><ele>435.0</ele><time>2026-04-19T13:17:03.01Z</time></trkpt><trkpt lat="45.0949383" lon="8.025885"><ele>436.0</ele><time>2026-04-19T13:17:04.01Z</time></trkpt><trkpt lat="45.0947667" lon="8.0259667"><ele>437.0</ele><time>2026-04-19T13:17:05.01Z</time></trkpt><trkpt lat="45.0945967" lon="8.026075"><ele>438.0</ele><time>2026-04-19T13:17:06.01Z</time></trkpt><trkpt lat="45.0944283" lon="8.02619"><ele>438.0</ele><time>2026-04-19T13:17:07.01Z</time></trkpt><trkpt lat="45.0942633" lon="8.0263217"><ele>438.0</ele><time>2026-04-19T13:17:08.011Z</time></trkpt><trkpt lat="45.0941133" lon="8.0264367"><ele>438.0</ele><time>2026-04-19T13:17:09.01Z</time></trkpt><trkpt lat="45.0939617" lon="8.0265367"><ele>439.0</ele><time>2026-04-19T13:17:10.011Z</time></trkpt><trkpt lat="45.0938183" lon="8.026625"><ele>440.0</ele><time>2026-04-19T13:17:11.01Z</time></trkpt><trkpt lat="45.0936683" lon="8.0267017"><ele>441.0</ele><time>2026-04-19T13:17:12.011Z</time></trkpt><trkpt lat="45.0935333" lon="8.02677"><ele>441.0</ele><time>2026-04-19T13:17:13.011Z</time></trkpt><trkpt lat="45.093385" lon="8.0268083"><ele>441.0</ele><time>2026-04-19T13:17:14.01Z</time></trkpt><trkpt lat="45.0932783" lon="8.0268783"><ele>441.0</ele><time>2026-04-19T13:17:15.01Z</time></trkpt><trkpt lat="45.0931883" lon="8.0269933"><ele>441.0</ele><time>2026-04-19T13:17:16.011Z</time></trkpt><trkpt lat="45.0931183" lon="8.0271433"><ele>439.20000000000005</ele><time>2026-04-19T13:17:17.01Z</time></trkpt><trkpt lat="45.0930567" lon="8.0272867"><ele>437.40000000000003</ele><time>2026-04-19T13:17:18.011Z</time></trkpt><trkpt lat="45.0930167" lon="8.0274367"><ele>435.6</ele><time>2026-04-19T13:17:19.01Z</time></trkpt><trkpt lat="45.0929817" lon="8.0275767"><ele>433.8</ele><time>2026-04-19T13:17:20.011Z</time></trkpt><trkpt lat="45.0929767" lon="8.0277333"><ele>432.0</ele><time>2026-04-19T13:17:21.011Z</time></trkpt><trkpt lat="45.0930117" lon="8.0278917"><ele>432.0</ele><time>2026-04-19T13:17:22.011Z</time></trkpt><trkpt lat="45.0930917" lon="8.0280533"><ele>432.0</ele><time>2026-04-19T13:17:23.01Z</time></trkpt><trkpt lat="45.093185" lon="8.0282017"><ele>432.0</ele><time>2026-04-19T13:17:24.01Z</time></trkpt><trkpt lat="45.093265" lon="8.0283667"><ele>432.0</ele><time>2026-04-19T13:17:25.01Z</time></trkpt><trkpt lat="45.0933217" lon="8.0285367"><ele>433.5</ele><time>2026-04-19T13:17:26.01Z</time></trkpt><trkpt lat="45.09338" lon="8.028705"><ele>435.0</ele><time>2026-04-19T13:17:27.01Z</time></trkpt><trkpt lat="45.0934033" lon="8.0289"><ele>436.5</ele><time>2026-04-19T13:17:28.011Z</time></trkpt><trkpt lat="45.0934067" lon="8.0291"><ele>438.0</ele><time>2026-04-19T13:17:29.01Z</time></trkpt><trkpt lat="45.0933817" lon="8.0292883"><ele>438.0</ele><time>2026-04-19T13:17:30.01Z</time></trkpt><trkpt lat="45.0933367" lon="8.029455"><ele>438.0</ele><time>2026-04-19T13:17:31.01Z</time></trkpt><trkpt lat="45.09327" lon="8.0296233"><ele>438.0</ele><time>2026-04-19T13:17:32.01Z</time></trkpt><trkpt lat="45.093175" lon="8.0297733"><ele>438.0</ele><time>2026-04-19T13:17:33.011Z</time></trkpt><trkpt lat="45.0930883" lon="8.0299267"><ele>432.75</ele><time>2026-04-19T13:17:34.01Z</time></trkpt><trkpt lat="45.0930167" lon="8.0300833"><ele>427.5</ele><time>2026-04-19T13:17:35.011Z</time></trkpt><trkpt lat="45.0929433" lon="8.0302333"><ele>422.25</ele><time>2026-04-19T13:17:36.01Z</time></trkpt><trkpt lat="45.0928667" lon="8.0303783"><ele>417.0</ele><time>2026-04-19T13:17:37.01Z</time></trkpt><trkpt lat="45.0927917" lon="8.0305183"><ele>417.0</ele><time>2026-04-19T13:17:38.01Z</time></trkpt><trkpt lat="45.092705" lon="8.0306317"><ele>417.0</ele><time>2026-04-19T13:17:39.01Z</time></trkpt><trkpt lat="45.09261" lon="8.0307217"><ele>417.0</ele><time>2026-04-19T13:17:40.011Z</time></trkpt><trkpt lat="45.0925083" lon="8.03081"><ele>417.0</ele><time>2026-04-19T13:17:41.011Z</time></trkpt><trkpt lat="45.0924" lon="8.030905"><ele>420.0</ele><time>2026-04-19T13:17:42.01Z</time></trkpt><trkpt lat="45.0922817" lon="8.0309883"><ele>423.0</ele><time>2026-04-19T13:17:43.011Z</time></trkpt><trkpt lat="45.0921517" lon="8.0310717"><ele>426.0</ele><time>2026-04-19T13:17:44.01Z</time></trkpt><trkpt lat="45.0920117" lon="8.0311417"><ele>429.0</ele><time>2026-04-19T13:17:45.011Z</time></trkpt><trkpt lat="45.0918683" lon="8.0312067"><ele>429.0</ele><time>2026-04-19T13:17:46.01Z</time></trkpt><trkpt lat="45.0917233" lon="8.03127"><ele>429.0</ele><time>2026-04-19T13:17:47.01Z</time></trkpt><trkpt lat="45.09158" lon="8.0313367"><ele>429.0</ele><time>2026-04-19T13:17:48.01Z</time></trkpt><trkpt lat="45.0914433" lon="8.03141"><ele>429.0</ele><time>2026-04-19T13:17:49.011Z</time></trkpt><trkpt lat="45.0913217" lon="8.0314667"><ele>430.0</ele><time>2026-04-19T13:17:50.01Z</time></trkpt><trkpt lat="45.0912283" lon="8.031535"><ele>431.0</ele><time>2026-04-19T13:17:51.011Z</time></trkpt><trkpt lat="45.0911433" lon="8.0316233"><ele>432.0</ele><time>2026-04-19T13:17:52.01Z</time></trkpt><trkpt lat="45.091075" lon="8.0317433"><ele>433.0</ele><time>2026-04-19T13:17:53.01Z</time></trkpt><trkpt lat="45.091025" lon="8.0318967"><ele>434.0</ele><time>2026-04-19T13:17:54.01Z</time></trkpt><trkpt lat="45.090955" lon="8.03207"><ele>434.0</ele><time>2026-04-19T13:17:55.01Z</time></trkpt><trkpt lat="45.0909067" lon="8.0322533"><ele>434.0</ele><time>2026-04-19T13:17:56.01Z</time></trkpt><trkpt lat="45.0908217" lon="8.0324267"><ele>434.0</ele><time>2026-04-19T13:17:57.011Z</time></trkpt><trkpt lat="45.0907367" lon="8.032585"><ele>434.0</ele><time>2026-04-19T13:17:58.01Z</time></trkpt><trkpt lat="45.090645" lon="8.032735"><ele>430.0</ele><time>2026-04-19T13:17:59.01Z</time></trkpt><trkpt lat="45.0905433" lon="8.0328783"><ele>426.0</ele><time>2026-04-19T13:18:00.01Z</time></trkpt><trkpt lat="45.0904533" lon="8.0330217"><ele>422.0</ele><time>2026-04-19T13:18:01.011Z</time></trkpt><trkpt lat="45.090365" lon="8.0331533"><ele>418.0</ele><time>2026-04-19T13:18:02.011Z</time></trkpt><trkpt lat="45.0902667" lon="8.0332633"><ele>421.25</ele><time>2026-04-19T13:18:03.01Z</time></trkpt><trkpt lat="45.0901633" lon="8.033375"><ele>424.5</ele><time>2026-04-19T13:18:04.011Z</time></trkpt><trkpt lat="45.0900633" lon="8.0334867"><ele>427.75</ele><time>2026-04-19T13:18:05.01Z</time></trkpt><trkpt lat="45.0899683" lon="8.033615"><ele>431.0</ele><time>2026-04-19T13:18:06.01Z</time></trkpt><trkpt lat="45.0898717" lon="8.033745"><ele>431.0</ele><time>2026-04-19T13:18:07.011Z</time></trkpt><trkpt lat="45.08978" lon="8.0338783"><ele>431.0</ele><time>2026-04-19T13:18:08.01Z</time></trkpt><trkpt lat="45.089685" lon="8.03401"><ele>431.0</ele><time>2026-04-19T13:18:09.011Z</time></trkpt><trkpt lat="45.08959" lon="8.0341317"><ele>431.0</ele><time>2026-04-19T13:18:10.011Z</time></trkpt><trkpt lat="45.089495" lon="8.03425"><ele>435.0</ele><time>2026-04-19T13:18:11.01Z</time></trkpt><trkpt lat="45.0894333" lon="8.03438"><ele>439.0</ele><time>2026-04-19T13:18:12.011Z</time></trkpt><trkpt lat="45.0893417" lon="8.0344867"><ele>443.0</ele><time>2026-04-19T13:18:13.01Z</time></trkpt><trkpt lat="45.0892633" lon="8.0345883"><ele>447.0</ele><time>2026-04-19T13:18:14.01Z</time></trkpt><trkpt lat="45.08919" lon="8.0346583"><ele>451.0</ele><time>2026-04-19T13:18:15.01Z</time></trkpt><trkpt lat="45.0891267" lon="8.0347167"><ele>453.33333333333337</ele><time>2026-04-19T13:18:16.011Z</time></trkpt><trkpt lat="45.0890517" lon="8.034765"><ele>455.6666666666667</ele><time>2026-04-19T13:18:17.01Z</time></trkpt><trkpt lat="45.088975" lon="8.0347967"><ele>458.0</ele><time>2026-04-19T13:18:18.011Z</time></trkpt><trkpt lat="45.08889" lon="8.034795"><ele>460.33333333333337</ele><time>2026-04-19T13:18:19.011Z</time></trkpt><trkpt lat="45.0887983" lon="8.0347817"><ele>462.6666666666667</ele><time>2026-04-19T13:18:20.01Z</time></trkpt><trkpt lat="45.0887067" lon="8.0347717"><ele>465.0</ele><time>2026-04-19T13:18:21.01Z</time></trkpt><trkpt lat="45.08864" lon="8.0347433"><ele>465.0</ele><time>2026-04-19T13:18:22.011Z</time></trkpt><trkpt lat="45.0885767" lon="8.0347283"><ele>465.0</ele><time>2026-04-19T13:18:23.011Z</time></trkpt><trkpt lat="45.0884817" lon="8.0347717"><ele>465.0</ele><time>2026-04-19T13:18:25.011Z</time></trkpt><trkpt lat="45.0884017" lon="8.0348583"><ele>465.0</ele><time>2026-04-19T13:18:27.011Z</time></trkpt><trkpt lat="45.0883533" lon="8.0349283"><ele>465.0</ele><time>2026-04-19T13:18:28.011Z</time></trkpt><trkpt lat="45.088305" lon="8.0350183"><ele>465.0</ele><time>2026-04-19T13:18:29.011Z</time></trkpt><trkpt lat="45.08826" lon="8.0351367"><ele>461.4</ele><time>2026-04-19T13:18:30.011Z</time></trkpt><trkpt lat="45.08822" lon="8.0352683"><ele>457.8</ele><time>2026-04-19T13:18:31.01Z</time></trkpt><trkpt lat="45.0881833" lon="8.0353917"><ele>454.20000000000005</ele><time>2026-04-19T13:18:32.01Z</time></trkpt><trkpt lat="45.0881417" lon="8.03551"><ele>450.6</ele><time>2026-04-19T13:18:33.011Z</time></trkpt><trkpt lat="45.0880783" lon="8.0356417"><ele>447.0</ele><time>2026-04-19T13:18:34.01Z</time></trkpt><trkpt lat="45.0880083" lon="8.035775"><ele>446.0</ele><time>2026-04-19T13:18:35.011Z</time></trkpt><trkpt lat="45.0879433" lon="8.0358883"><ele>445.00000000000006</ele><time>2026-04-19T13:18:36.01Z</time></trkpt><trkpt lat="45.0878567" lon="8.03597"><ele>444.00000000000006</ele><time>2026-04-19T13:18:37.01Z</time></trkpt><trkpt lat="45.0877867" lon="8.0360817"><ele>443.0</ele><time>2026-04-19T13:18:38.011Z</time></trkpt><trkpt lat="45.087715" lon="8.0361917"><ele>442.0</ele><time>2026-04-19T13:18:39.01Z</time></trkpt><trkpt lat="45.0876333" lon="8.03629"><ele>442.0</ele><time>2026-04-19T13:18:40.01Z</time></trkpt><trkpt lat="45.0875617" lon="8.0364017"><ele>442.00000000000006</ele><time>2026-04-19T13:18:41.01Z</time></trkpt><trkpt lat="45.0874917" lon="8.0365233"><ele>442.00000000000006</ele><time>2026-04-19T13:18:42.01Z</time></trkpt><trkpt lat="45.0874333" lon="8.0366383"><ele>442.0</ele><time>2026-04-19T13:18:43.011Z</time></trkpt><trkpt lat="45.087395" lon="8.0367217"><ele>442.0</ele><time>2026-04-19T13:18:44.01Z</time></trkpt><trkpt lat="45.0873567" lon="8.036795"><ele>442.0</ele><time>2026-04-19T13:18:45.011Z</time></trkpt><trkpt lat="45.0872917" lon="8.0368967"><ele>442.00000000000006</ele><time>2026-04-19T13:18:47.01Z</time></trkpt><trkpt lat="45.0873" lon="8.03675"><ele>442.00000000000006</ele><time>2026-04-19T13:18:51.011Z</time></trkpt><trkpt lat="45.0873417" lon="8.03667"><ele>442.0</ele><time>2026-04-19T13:18:52.011Z</time></trkpt><trkpt lat="45.087385" lon="8.0365883"><ele>442.0</ele><time>2026-04-19T13:18:53.011Z</time></trkpt><trkpt lat="45.08745" lon="8.0364383"><ele>442.00000000000006</ele><time>2026-04-19T13:18:55.011Z</time></trkpt><trkpt lat="45.0874917" lon="8.0363333"><ele>442.0</ele><time>2026-04-19T13:18:57.01Z</time></trkpt><trkpt lat="45.0874233" lon="8.0363233"><ele>442.0</ele><time>2026-04-19T13:19:01.01Z</time></trkpt><trkpt lat="45.0873733" lon="8.0363867"><ele>442.0</ele><time>2026-04-19T13:19:02.01Z</time></trkpt><trkpt lat="45.0873083" lon="8.0364717"><ele>442.00000000000006</ele><time>2026-04-19T13:19:03.011Z</time></trkpt><trkpt lat="45.0872367" lon="8.03657"><ele>442.0</ele><time>2026-04-19T13:19:04.011Z</time></trkpt><trkpt lat="45.0871633" lon="8.0366717"><ele>438.50000000000006</ele><time>2026-04-19T13:19:05.01Z</time></trkpt><trkpt lat="45.0871" lon="8.0367833"><ele>435.0</ele><time>2026-04-19T13:19:06.01Z</time></trkpt><trkpt lat="45.0870383" lon="8.0368783"><ele>431.5</ele><time>2026-04-19T13:19:07.01Z</time></trkpt><trkpt lat="45.086995" lon="8.0369767"><ele>428.0</ele><time>2026-04-19T13:19:08.01Z</time></trkpt><trkpt lat="45.08696" lon="8.037075"><ele>424.50000000000006</ele><time>2026-04-19T13:19:09.01Z</time></trkpt><trkpt lat="45.086945" lon="8.037185"><ele>421.0</ele><time>2026-04-19T13:19:10.011Z</time></trkpt><trkpt lat="45.0869467" lon="8.0373"><ele>421.0</ele><time>2026-04-19T13:19:11.01Z</time></trkpt><trkpt lat="45.08698" lon="8.0374283"><ele>421.0</ele><time>2026-04-19T13:19:12.01Z</time></trkpt><trkpt lat="45.0870183" lon="8.0375433"><ele>421.0</ele><time>2026-04-19T13:19:13.011Z</time></trkpt><trkpt lat="45.08706" lon="8.03766"><ele>421.0</ele><time>2026-04-19T13:19:14.01Z</time></trkpt><trkpt lat="45.0870883" lon="8.0377767"><ele>421.0</ele><time>2026-04-19T13:19:15.011Z</time></trkpt><trkpt lat="45.0871017" lon="8.0379033"><ele>421.4</ele><time>2026-04-19T13:19:16.01Z</time></trkpt><trkpt lat="45.087115" lon="8.038045"><ele>421.8</ele><time>2026-04-19T13:19:17.01Z</time></trkpt><trkpt lat="45.0871183" lon="8.03818"><ele>422.2</ele><time>2026-04-19T13:19:18.011Z</time></trkpt><trkpt lat="45.0871117" lon="8.03831"><ele>422.59999999999997</ele><time>2026-04-19T13:19:19.011Z</time></trkpt><trkpt lat="45.0870967" lon="8.0384267"><ele>423.0</ele><time>2026-04-19T13:19:20.01Z</time></trkpt><trkpt lat="45.0870567" lon="8.03853"><ele>423.0</ele><time>2026-04-19T13:19:21.011Z</time></trkpt><trkpt lat="45.08701" lon="8.0386333"><ele>423.0</ele><time>2026-04-19T13:19:22.011Z</time></trkpt><trkpt lat="45.0869667" lon="8.0387383"><ele>423.0</ele><time>2026-04-19T13:19:23.01Z</time></trkpt><trkpt lat="45.0869017" lon="8.03882"><ele>423.0</ele><time>2026-04-19T13:19:24.01Z</time></trkpt><trkpt lat="45.0868333" lon="8.038915"><ele>423.0</ele><time>2026-04-19T13:19:25.01Z</time></trkpt><trkpt lat="45.0867633" lon="8.0389983"><ele>423.0</ele><time>2026-04-19T13:19:26.01Z</time></trkpt><trkpt lat="45.0867167" lon="8.0390767"><ele>423.57142857142856</ele><time>2026-04-19T13:19:27.011Z</time></trkpt><trkpt lat="45.0866683" lon="8.0391483"><ele>424.14285714285717</ele><time>2026-04-19T13:19:28.01Z</time></trkpt><trkpt lat="45.0866217" lon="8.0392133"><ele>424.7142857142857</ele><time>2026-04-19T13:19:29.01Z</time></trkpt><trkpt lat="45.086565" lon="8.0392683"><ele>425.2857142857143</ele><time>2026-04-19T13:19:30.011Z</time></trkpt><trkpt lat="45.0864967" lon="8.0393067"><ele>425.8571428571429</ele><time>2026-04-19T13:19:31.011Z</time></trkpt><trkpt lat="45.0864233" lon="8.03934"><ele>426.42857142857144</ele><time>2026-04-19T13:19:32.01Z</time></trkpt><trkpt lat="45.0863467" lon="8.0393767"><ele>427.0</ele><time>2026-04-19T13:19:33.011Z</time></trkpt><trkpt lat="45.0862733" lon="8.0394083"><ele>427.00000000000006</ele><time>2026-04-19T13:19:34.01Z</time></trkpt><trkpt lat="45.0862017" lon="8.039445"><ele>427.0</ele><time>2026-04-19T13:19:35.01Z</time></trkpt><trkpt lat="45.08614" lon="8.03949"><ele>427.0</ele><time>2026-04-19T13:19:36.011Z</time></trkpt><trkpt lat="45.08608" lon="8.0395433"><ele>427.0</ele><time>2026-04-19T13:19:37.01Z</time></trkpt><trkpt lat="45.086015" lon="8.0396983"><ele>427.00000000000006</ele><time>2026-04-19T13:19:39.01Z</time></trkpt><trkpt lat="45.08598" lon="8.03978"><ele>427.0</ele><time>2026-04-19T13:19:40.01Z</time></trkpt><trkpt lat="45.085945" lon="8.03988"><ele>427.00000000000006</ele><time>2026-04-19T13:19:42.011Z</time></trkpt><trkpt lat="45.0860067" lon="8.0399017"><ele>427.0</ele><time>2026-04-19T13:19:59.011Z</time></trkpt><trkpt lat="45.08605" lon="8.0400267"><ele>427.0</ele><time>2026-04-19T13:20:01.01Z</time></trkpt><trkpt lat="45.0861067" lon="8.0401633"><ele>427.0</ele><time>2026-04-19T13:20:03.01Z</time></trkpt><trkpt lat="45.0861433" lon="8.0402767"><ele>427.00000000000006</ele><time>2026-04-19T13:20:05.011Z</time></trkpt><trkpt lat="45.0861433" lon="8.040395"><ele>427.0</ele><time>2026-04-19T13:20:07.011Z</time></trkpt><trkpt lat="45.086085" lon="8.04049"><ele>427.20000000000005</ele><time>2026-04-19T13:20:09.011Z</time></trkpt><trkpt lat="45.0859883" lon="8.0404983"><ele>427.40000000000003</ele><time>2026-04-19T13:20:11.011Z</time></trkpt><trkpt lat="45.085885" lon="8.040425"><ele>427.59999999999997</ele><time>2026-04-19T13:20:13.011Z</time></trkpt><trkpt lat="45.0857967" lon="8.040325"><ele>427.79999999999995</ele><time>2026-04-19T13:20:15.01Z</time></trkpt><trkpt lat="45.0857083" lon="8.04023"><ele>428.0</ele><time>2026-04-19T13:20:17.011Z</time></trkpt><trkpt lat="45.0856367" lon="8.0401433"><ele>427.99999999999994</ele><time>2026-04-19T13:20:19.01Z</time></trkpt><trkpt lat="45.0855617" lon="8.04003"><ele>428.0</ele><time>2026-04-19T13:20:21.01Z</time></trkpt><trkpt lat="45.0854967" lon="8.0399233"><ele>428.0</ele><time>2026-04-19T13:20:23.01Z</time></trkpt><trkpt lat="45.0854083" lon="8.0399"><ele>428.0</ele><time>2026-04-19T13:20:26.01Z</time></trkpt><trkpt lat="45.08534" lon="8.0399383"><ele>427.99999999999994</ele><time>2026-04-19T13:20:27.011Z</time></trkpt><trkpt lat="45.0852783" lon="8.03998"><ele>428.0</ele><time>2026-04-19T13:20:28.01Z</time></trkpt><trkpt lat="45.08521" lon="8.0400367"><ele>427.99999999999994</ele><time>2026-04-19T13:20:29.011Z</time></trkpt><trkpt lat="45.0851367" lon="8.0400933"><ele>428.0</ele><time>2026-04-19T13:20:30.01Z</time></trkpt><trkpt lat="45.085065" lon="8.04017"><ele>428.0</ele><time>2026-04-19T13:20:31.011Z</time></trkpt><trkpt lat="45.0849967" lon="8.04024"><ele>428.0</ele><time>2026-04-19T13:20:32.01Z</time></trkpt><trkpt lat="45.0849367" lon="8.040285"><ele>427.99999999999994</ele><time>2026-04-19T13:20:33.011Z</time></trkpt><trkpt lat="45.0848667" lon="8.04034"><ele>428.0</ele><time>2026-04-19T13:20:34.011Z</time></trkpt><trkpt lat="45.0847867" lon="8.0403767"><ele>426.66666666666663</ele><time>2026-04-19T13:20:35.011Z</time></trkpt><trkpt lat="45.0847067" lon="8.0404083"><ele>425.3333333333333</ele><time>2026-04-19T13:20:36.011Z</time></trkpt><trkpt lat="45.08461" lon="8.0404383"><ele>424.0</ele><time>2026-04-19T13:20:37.01Z</time></trkpt><trkpt lat="45.0845183" lon="8.04044"><ele>422.66666666666663</ele><time>2026-04-19T13:20:38.011Z</time></trkpt><trkpt lat="45.0844317" lon="8.040435"><ele>421.3333333333333</ele><time>2026-04-19T13:20:39.01Z</time></trkpt><trkpt lat="45.08435" lon="8.0404333"><ele>420.0</ele><time>2026-04-19T13:20:40.011Z</time></trkpt><trkpt lat="45.0842667" lon="8.0404317"><ele>420.0</ele><time>2026-04-19T13:20:41.011Z</time></trkpt><trkpt lat="45.08419" lon="8.0404067"><ele>420.0</ele><time>2026-04-19T13:20:42.01Z</time></trkpt><trkpt lat="45.08411" lon="8.0404"><ele>420.0</ele><time>2026-04-19T13:20:43.011Z</time></trkpt><trkpt lat="45.0840383" lon="8.0403867"><ele>420.0</ele><time>2026-04-19T13:20:44.011Z</time></trkpt><trkpt lat="45.0839767" lon="8.04041"><ele>420.0</ele><time>2026-04-19T13:20:45.01Z</time></trkpt><trkpt lat="45.0839017" lon="8.04045"><ele>420.0</ele><time>2026-04-19T13:20:46.011Z</time></trkpt><trkpt lat="45.083815" lon="8.0405283"><ele>416.6</ele><time>2026-04-19T13:20:47.01Z</time></trkpt><trkpt lat="45.083725" lon="8.0406083"><ele>413.2</ele><time>2026-04-19T13:20:48.01Z</time></trkpt><trkpt lat="45.0836367" lon="8.0406917"><ele>409.79999999999995</ele><time>2026-04-19T13:20:49.01Z</time></trkpt><trkpt lat="45.08355" lon="8.0407667"><ele>406.4</ele><time>2026-04-19T13:20:50.011Z</time></trkpt><trkpt lat="45.0834417" lon="8.04081"><ele>403.0</ele><time>2026-04-19T13:20:51.011Z</time></trkpt><trkpt lat="45.08332" lon="8.0408567"><ele>394.5</ele><time>2026-04-19T13:20:52.01Z</time></trkpt><trkpt lat="45.0832067" lon="8.0409283"><ele>386.0</ele><time>2026-04-19T13:20:53.01Z</time></trkpt><trkpt lat="45.083085" lon="8.04103"><ele>377.5</ele><time>2026-04-19T13:20:54.011Z</time></trkpt><trkpt lat="45.0829533" lon="8.041145"><ele>369.0</ele><time>2026-04-19T13:20:55.01Z</time></trkpt><trkpt lat="45.0828167" lon="8.041265"><ele>369.0</ele><time>2026-04-19T13:20:56.01Z</time></trkpt><trkpt lat="45.0826767" lon="8.041395"><ele>369.0</ele><time>2026-04-19T13:20:57.01Z</time></trkpt><trkpt lat="45.08253" lon="8.0415083"><ele>369.0</ele><time>2026-04-19T13:20:58.011Z</time></trkpt><trkpt lat="45.0823817" lon="8.0416233"><ele>367.3333333333333</ele><time>2026-04-19T13:20:59.011Z</time></trkpt><trkpt lat="45.082245" lon="8.041735"><ele>365.66666666666663</ele><time>2026-04-19T13:21:00.011Z</time></trkpt><trkpt lat="45.0821033" lon="8.0418433"><ele>364.0</ele><time>2026-04-19T13:21:01.011Z</time></trkpt><trkpt lat="45.081965" lon="8.0419433"><ele>364.0</ele><time>2026-04-19T13:21:02.01Z</time></trkpt><trkpt lat="45.0818217" lon="8.0420417"><ele>364.0</ele><time>2026-04-19T13:21:03.011Z</time></trkpt><trkpt lat="45.08168" lon="8.0421033"><ele>364.0</ele><time>2026-04-19T13:21:04.01Z</time></trkpt><trkpt lat="45.081535" lon="8.04216"><ele>357.3333333333333</ele><time>2026-04-19T13:21:05.011Z</time></trkpt><trkpt lat="45.08137" lon="8.04221"><ele>350.6666666666667</ele><time>2026-04-19T13:21:06.011Z</time></trkpt><trkpt lat="45.0812033" lon="8.0422733"><ele>344.0</ele><time>2026-04-19T13:21:07.011Z</time></trkpt><trkpt lat="45.0810433" lon="8.042355"><ele>344.0</ele><time>2026-04-19T13:21:08.011Z</time></trkpt><trkpt lat="45.0809033" lon="8.0424533"><ele>344.0</ele><time>2026-04-19T13:21:09.011Z</time></trkpt><trkpt lat="45.0807867" lon="8.0425683"><ele>344.0</ele><time>2026-04-19T13:21:10.01Z</time></trkpt><trkpt lat="45.0806933" lon="8.042695"><ele>344.0</ele><time>2026-04-19T13:21:11.01Z</time></trkpt><trkpt lat="45.0806033" lon="8.042835"><ele>343.25</ele><time>2026-04-19T13:21:12.011Z</time></trkpt><trkpt lat="45.0805133" lon="8.042975"><ele>342.5</ele><time>2026-04-19T13:21:13.011Z</time></trkpt><trkpt lat="45.0804217" lon="8.0430983"><ele>341.75</ele><time>2026-04-19T13:21:14.011Z</time></trkpt><trkpt lat="45.080325" lon="8.043205"><ele>341.0</ele><time>2026-04-19T13:21:15.01Z</time></trkpt><trkpt lat="45.0802183" lon="8.0433167"><ele>341.0</ele><time>2026-04-19T13:21:16.01Z</time></trkpt><trkpt lat="45.0801017" lon="8.0434083"><ele>341.0</ele><time>2026-04-19T13:21:17.01Z</time></trkpt><trkpt lat="45.0799883" lon="8.0435"><ele>341.0</ele><time>2026-04-19T13:21:18.01Z</time></trkpt><trkpt lat="45.0798417" lon="8.0435933"><ele>341.0</ele><time>2026-04-19T13:21:19.01Z</time></trkpt><trkpt lat="45.0796583" lon="8.04367"><ele>337.6666666666667</ele><time>2026-04-19T13:21:20.011Z</time></trkpt><trkpt lat="45.079465" lon="8.04375"><ele>334.3333333333333</ele><time>2026-04-19T13:21:21.01Z</time></trkpt><trkpt lat="45.0792617" lon="8.0438267"><ele>331.0</ele><time>2026-04-19T13:21:22.011Z</time></trkpt><trkpt lat="45.079055" lon="8.0439167"><ele>329.3333333333333</ele><time>2026-04-19T13:21:23.011Z</time></trkpt><trkpt lat="45.07885" lon="8.0439817"><ele>327.6666666666667</ele><time>2026-04-19T13:21:24.011Z</time></trkpt><trkpt lat="45.0786583" lon="8.0440417"><ele>326.0</ele><time>2026-04-19T13:21:25.01Z</time></trkpt><trkpt lat="45.078485" lon="8.044095"><ele>328.0</ele><time>2026-04-19T13:21:26.01Z</time></trkpt><trkpt lat="45.078325" lon="8.0441617"><ele>330.0</ele><time>2026-04-19T13:21:27.01Z</time></trkpt><trkpt lat="45.0781717" lon="8.0441983"><ele>332.0</ele><time>2026-04-19T13:21:28.011Z</time></trkpt><trkpt lat="45.078005" lon="8.044185"><ele>332.0</ele><time>2026-04-19T13:21:29.011Z</time></trkpt><trkpt lat="45.0778267" lon="8.04417"><ele>332.0</ele><time>2026-04-19T13:21:30.01Z</time></trkpt><trkpt lat="45.0776467" lon="8.0441367"><ele>332.0</ele><time>2026-04-19T13:21:31.011Z</time></trkpt><trkpt lat="45.077455" lon="8.0441083"><ele>327.33333333333337</ele><time>2026-04-19T13:21:32.01Z</time></trkpt><trkpt lat="45.077255" lon="8.0440583"><ele>322.6666666666667</ele><time>2026-04-19T13:21:33.01Z</time></trkpt><trkpt lat="45.0770483" lon="8.0440067"><ele>318.0</ele><time>2026-04-19T13:21:34.01Z</time></trkpt><trkpt lat="45.0768467" lon="8.0439733"><ele>318.0</ele><time>2026-04-19T13:21:35.011Z</time></trkpt><trkpt lat="45.0766433" lon="8.043925"><ele>318.0</ele><time>2026-04-19T13:21:36.011Z</time></trkpt><trkpt lat="45.076425" lon="8.0439"><ele>318.0</ele><time>2026-04-19T13:21:37.011Z</time></trkpt><trkpt lat="45.0761983" lon="8.04388"><ele>317.6666666666667</ele><time>2026-04-19T13:21:38.011Z</time></trkpt><trkpt lat="45.075975" lon="8.0438567"><ele>317.33333333333337</ele><time>2026-04-19T13:21:39.01Z</time></trkpt><trkpt lat="45.0757517" lon="8.0438333"><ele>317.0</ele><time>2026-04-19T13:21:40.01Z</time></trkpt><trkpt lat="45.0755233" lon="8.0437833"><ele>319.0</ele><time>2026-04-19T13:21:41.011Z</time></trkpt><trkpt lat="45.0753033" lon="8.04375"><ele>321.0</ele><time>2026-04-19T13:21:42.011Z</time></trkpt><trkpt lat="45.0750783" lon="8.04371"><ele>323.0</ele><time>2026-04-19T13:21:43.011Z</time></trkpt><trkpt lat="45.0748667" lon="8.0436583"><ele>323.0</ele><time>2026-04-19T13:21:44.011Z</time></trkpt><trkpt lat="45.074655" lon="8.0436083"><ele>323.0</ele><time>2026-04-19T13:21:45.011Z</time></trkpt><trkpt lat="45.0744367" lon="8.0435917"><ele>323.0</ele><time>2026-04-19T13:21:46.011Z</time></trkpt><trkpt lat="45.0742183" lon="8.0435983"><ele>323.0</ele><time>2026-04-19T13:21:47.011Z</time></trkpt><trkpt lat="45.0740067" lon="8.0436"><ele>323.0</ele><time>2026-04-19T13:21:48.011Z</time></trkpt><trkpt lat="45.0738167" lon="8.043595"><ele>323.0</ele><time>2026-04-19T13:21:49.011Z</time></trkpt><trkpt lat="45.0736267" lon="8.043575"><ele>323.0</ele><time>2026-04-19T13:21:50.01Z</time></trkpt><trkpt lat="45.0734533" lon="8.0435583"><ele>323.0</ele><time>2026-04-19T13:21:51.011Z</time></trkpt><trkpt lat="45.0732883" lon="8.0435683"><ele>323.0</ele><time>2026-04-19T13:21:52.011Z</time></trkpt><trkpt lat="45.073125" lon="8.0435983"><ele>325.25</ele><time>2026-04-19T13:21:53.01Z</time></trkpt><trkpt lat="45.0729717" lon="8.0436367"><ele>327.5</ele><time>2026-04-19T13:21:54.01Z</time></trkpt><trkpt lat="45.0728317" lon="8.0436967"><ele>329.75</ele><time>2026-04-19T13:21:55.011Z</time></trkpt><trkpt lat="45.0727067" lon="8.043785"><ele>332.0</ele><time>2026-04-19T13:21:56.011Z</time></trkpt><trkpt lat="45.072595" lon="8.0439217"><ele>332.0</ele><time>2026-04-19T13:21:57.01Z</time></trkpt><trkpt lat="45.0724917" lon="8.0441"><ele>332.0</ele><time>2026-04-19T13:21:58.01Z</time></trkpt><trkpt lat="45.072395" lon="8.0442633"><ele>332.0</ele><time>2026-04-19T13:21:59.01Z</time></trkpt><trkpt lat="45.0723083" lon="8.0443967"><ele>332.0</ele><time>2026-04-19T13:22:00.01Z</time></trkpt><trkpt lat="45.07221" lon="8.0445117"><ele>336.5</ele><time>2026-04-19T13:22:01.011Z</time></trkpt><trkpt lat="45.0721083" lon="8.0445917"><ele>341.0</ele><time>2026-04-19T13:22:02.011Z</time></trkpt><trkpt lat="45.071995" lon="8.0446333"><ele>345.5</ele><time>2026-04-19T13:22:03.01Z</time></trkpt><trkpt lat="45.0718667" lon="8.0446467"><ele>350.0</ele><time>2026-04-19T13:22:04.01Z</time></trkpt><trkpt lat="45.07173" lon="8.04467"><ele>350.0</ele><time>2026-04-19T13:22:05.011Z</time></trkpt><trkpt lat="45.07159" lon="8.0446717"><ele>350.0</ele><time>2026-04-19T13:22:06.01Z</time></trkpt><trkpt lat="45.0714483" lon="8.04469"><ele>350.0</ele><time>2026-04-19T13:22:07.011Z</time></trkpt><trkpt lat="45.071305" lon="8.0446933"><ele>350.0</ele><time>2026-04-19T13:22:08.011Z</time></trkpt><trkpt lat="45.071175" lon="8.0446917"><ele>350.0</ele><time>2026-04-19T13:22:09.011Z</time></trkpt><trkpt lat="45.0710467" lon="8.0446767"><ele>350.0</ele><time>2026-04-19T13:22:10.01Z</time></trkpt><trkpt lat="45.0709167" lon="8.04465"><ele>350.0</ele><time>2026-04-19T13:22:11.011Z</time></trkpt><trkpt lat="45.0707817" lon="8.0446"><ele>350.0</ele><time>2026-04-19T13:22:12.01Z</time></trkpt><trkpt lat="45.0706533" lon="8.044525"><ele>348.5</ele><time>2026-04-19T13:22:13.01Z</time></trkpt><trkpt lat="45.0705217" lon="8.0444333"><ele>347.0</ele><time>2026-04-19T13:22:14.01Z</time></trkpt><trkpt lat="45.0704033" lon="8.0443483"><ele>345.5</ele><time>2026-04-19T13:22:15.01Z</time></trkpt><trkpt lat="45.0702817" lon="8.044285"><ele>344.0</ele><time>2026-04-19T13:22:16.011Z</time></trkpt><trkpt lat="45.0701617" lon="8.04424"><ele>344.0</ele><time>2026-04-19T13:22:17.011Z</time></trkpt><trkpt lat="45.070055" lon="8.04422"><ele>344.0</ele><time>2026-04-19T13:22:18.01Z</time></trkpt><trkpt lat="45.069935" lon="8.0442117"><ele>344.0</ele><time>2026-04-19T13:22:19.01Z</time></trkpt><trkpt lat="45.0698183" lon="8.0442117"><ele>344.0</ele><time>2026-04-19T13:22:20.011Z</time></trkpt><trkpt lat="45.0697033" lon="8.044225"><ele>341.75</ele><time>2026-04-19T13:22:21.01Z</time></trkpt><trkpt lat="45.0695883" lon="8.04423"><ele>339.5</ele><time>2026-04-19T13:22:22.01Z</time></trkpt><trkpt lat="45.0694817" lon="8.04421"><ele>337.25</ele><time>2026-04-19T13:22:23.01Z</time></trkpt><trkpt lat="45.0693667" lon="8.0441517"><ele>335.0</ele><time>2026-04-19T13:22:24.011Z</time></trkpt><trkpt lat="45.069245" lon="8.0440833"><ele>332.75</ele><time>2026-04-19T13:22:25.011Z</time></trkpt><trkpt lat="45.0691233" lon="8.0440083"><ele>330.5</ele><time>2026-04-19T13:22:26.011Z</time></trkpt><trkpt lat="45.0689917" lon="8.0439333"><ele>328.25</ele><time>2026-04-19T13:22:27.01Z</time></trkpt><trkpt lat="45.068855" lon="8.0438533"><ele>326.0</ele><time>2026-04-19T13:22:28.011Z</time></trkpt><trkpt lat="45.0687067" lon="8.04377"><ele>326.6666666666667</ele><time>2026-04-19T13:22:29.01Z</time></trkpt><trkpt lat="45.06855" lon="8.0436733"><ele>327.3333333333333</ele><time>2026-04-19T13:22:30.01Z</time></trkpt><trkpt lat="45.068395" lon="8.0435717"><ele>328.0</ele><time>2026-04-19T13:22:31.011Z</time></trkpt><trkpt lat="45.0682383" lon="8.0434667"><ele>328.0</ele><time>2026-04-19T13:22:32.01Z</time></trkpt><trkpt lat="45.0680633" lon="8.0433617"><ele>328.0</ele><time>2026-04-19T13:22:33.011Z</time></trkpt><trkpt lat="45.0678817" lon="8.04326"><ele>328.0</ele><time>2026-04-19T13:22:34.01Z</time></trkpt><trkpt lat="45.0677033" lon="8.043175"><ele>326.0</ele><time>2026-04-19T13:22:35.01Z</time></trkpt><trkpt lat="45.0675217" lon="8.04309"><ele>324.0</ele><time>2026-04-19T13:22:36.011Z</time></trkpt><trkpt lat="45.0673417" lon="8.0430333"><ele>322.0</ele><time>2026-04-19T13:22:37.01Z</time></trkpt><trkpt lat="45.0671583" lon="8.04299"><ele>322.0</ele><time>2026-04-19T13:22:38.011Z</time></trkpt><trkpt lat="45.0669833" lon="8.0429733"><ele>322.0</ele><time>2026-04-19T13:22:39.011Z</time></trkpt><trkpt lat="45.0668267" lon="8.0429733"><ele>322.0</ele><time>2026-04-19T13:22:40.01Z</time></trkpt><trkpt lat="45.066685" lon="8.042985"><ele>320.25</ele><time>2026-04-19T13:22:41.01Z</time></trkpt><trkpt lat="45.0665433" lon="8.04301"><ele>318.5</ele><time>2026-04-19T13:22:42.01Z</time></trkpt><trkpt lat="45.0664" lon="8.043055"><ele>316.75</ele><time>2026-04-19T13:22:43.01Z</time></trkpt><trkpt lat="45.0662617" lon="8.043125"><ele>315.0</ele><time>2026-04-19T13:22:44.01Z</time></trkpt><trkpt lat="45.066115" lon="8.0432367"><ele>315.6666666666667</ele><time>2026-04-19T13:22:45.011Z</time></trkpt><trkpt lat="45.0659617" lon="8.0433617"><ele>316.33333333333337</ele><time>2026-04-19T13:22:46.01Z</time></trkpt><trkpt lat="45.0658233" lon="8.043485"><ele>317.0</ele><time>2026-04-19T13:22:47.011Z</time></trkpt><trkpt lat="45.0656633" lon="8.0436017"><ele>312.33333333333337</ele><time>2026-04-19T13:22:48.011Z</time></trkpt><trkpt lat="45.0654817" lon="8.0436983"><ele>307.6666666666667</ele><time>2026-04-19T13:22:49.011Z</time></trkpt><trkpt lat="45.0652817" lon="8.04378"><ele>303.0</ele><time>2026-04-19T13:22:50.011Z</time></trkpt><trkpt lat="45.0650767" lon="8.04384"><ele>300.3333333333333</ele><time>2026-04-19T13:22:51.011Z</time></trkpt><trkpt lat="45.064875" lon="8.04391"><ele>297.66666666666663</ele><time>2026-04-19T13:22:52.011Z</time></trkpt><trkpt lat="45.06467" lon="8.0439717"><ele>295.0</ele><time>2026-04-19T13:22:53.01Z</time></trkpt><trkpt lat="45.0644683" lon="8.0440283"><ele>295.0</ele><time>2026-04-19T13:22:54.011Z</time></trkpt><trkpt lat="45.0642567" lon="8.0440833"><ele>295.0</ele><time>2026-04-19T13:22:55.01Z</time></trkpt><trkpt lat="45.0640383" lon="8.04411"><ele>295.0</ele><time>2026-04-19T13:22:56.01Z</time></trkpt><trkpt lat="45.063845" lon="8.044125"><ele>297.0</ele><time>2026-04-19T13:22:57.01Z</time></trkpt><trkpt lat="45.0636683" lon="8.0441333"><ele>299.0</ele><time>2026-04-19T13:22:58.01Z</time></trkpt><trkpt lat="45.0634967" lon="8.0441683"><ele>301.0</ele><time>2026-04-19T13:22:59.011Z</time></trkpt><trkpt lat="45.0633317" lon="8.0442383"><ele>301.0</ele><time>2026-04-19T13:23:00.01Z</time></trkpt><trkpt lat="45.0631817" lon="8.0443367"><ele>301.0</ele><time>2026-04-19T13:23:01.01Z</time></trkpt><trkpt lat="45.0630317" lon="8.0444367"><ele>301.0</ele><time>2026-04-19T13:23:02.011Z</time></trkpt><trkpt lat="45.0628783" lon="8.04451"><ele>301.0</ele><time>2026-04-19T13:23:03.011Z</time></trkpt><trkpt lat="45.062715" lon="8.044545"><ele>301.0</ele><time>2026-04-19T13:23:04.01Z</time></trkpt><trkpt lat="45.0625417" lon="8.0445467"><ele>301.0</ele><time>2026-04-19T13:23:05.01Z</time></trkpt><trkpt lat="45.0623583" lon="8.0445467"><ele>299.3333333333333</ele><time>2026-04-19T13:23:06.011Z</time></trkpt><trkpt lat="45.0621767" lon="8.0445433"><ele>297.6666666666667</ele><time>2026-04-19T13:23:07.01Z</time></trkpt><trkpt lat="45.061995" lon="8.0445333"><ele>296.0</ele><time>2026-04-19T13:23:08.011Z</time></trkpt><trkpt lat="45.0618167" lon="8.0445333"><ele>296.0</ele><time>2026-04-19T13:23:09.011Z</time></trkpt><trkpt lat="45.0616367" lon="8.0445267"><ele>296.0</ele><time>2026-04-19T13:23:10.011Z</time></trkpt><trkpt lat="45.0614467" lon="8.0445483"><ele>296.0</ele><time>2026-04-19T13:23:11.011Z</time></trkpt><trkpt lat="45.0612583" lon="8.0445667"><ele>296.0</ele><time>2026-04-19T13:23:12.01Z</time></trkpt><trkpt lat="45.0610633" lon="8.0445817"><ele>296.0</ele><time>2026-04-19T13:23:13.011Z</time></trkpt><trkpt lat="45.0608783" lon="8.0445917"><ele>296.0</ele><time>2026-04-19T13:23:14.011Z</time></trkpt><trkpt lat="45.0607033" lon="8.044605"><ele>296.0</ele><time>2026-04-19T13:23:15.01Z</time></trkpt><trkpt lat="45.0605167" lon="8.044615"><ele>296.0</ele><time>2026-04-19T13:23:16.011Z</time></trkpt><trkpt lat="45.0603383" lon="8.0446383"><ele>296.0</ele><time>2026-04-19T13:23:17.01Z</time></trkpt><trkpt lat="45.06016" lon="8.0446883"><ele>296.0</ele><time>2026-04-19T13:23:18.011Z</time></trkpt><trkpt lat="45.0599917" lon="8.0447617"><ele>296.0</ele><time>2026-04-19T13:23:19.01Z</time></trkpt><trkpt lat="45.0598167" lon="8.0448433"><ele>296.0</ele><time>2026-04-19T13:23:20.01Z</time></trkpt><trkpt lat="45.0596483" lon="8.0449183"><ele>297.0</ele><time>2026-04-19T13:23:21.01Z</time></trkpt><trkpt lat="45.0594983" lon="8.0449983"><ele>298.0</ele><time>2026-04-19T13:23:22.01Z</time></trkpt><trkpt lat="45.0593467" lon="8.0450767"><ele>299.0</ele><time>2026-04-19T13:23:23.011Z</time></trkpt><trkpt lat="45.0592" lon="8.0451683"><ele>297.33333333333337</ele><time>2026-04-19T13:23:24.011Z</time></trkpt><trkpt lat="45.0590533" lon="8.045235"><ele>295.6666666666667</ele><time>2026-04-19T13:23:25.01Z</time></trkpt><trkpt lat="45.058905" lon="8.0453083"><ele>294.0</ele><time>2026-04-19T13:23:26.01Z</time></trkpt><trkpt lat="45.0587617" lon="8.045385"><ele>294.0</ele><time>2026-04-19T13:23:27.01Z</time></trkpt><trkpt lat="45.0586217" lon="8.0454717"><ele>294.0</ele><time>2026-04-19T13:23:28.011Z</time></trkpt><trkpt lat="45.0584917" lon="8.045575"><ele>294.0</ele><time>2026-04-19T13:23:29.011Z</time></trkpt><trkpt lat="45.058345" lon="8.0456717"><ele>301.0</ele><time>2026-04-19T13:23:30.01Z</time></trkpt><trkpt lat="45.0582" lon="8.0457967"><ele>308.0</ele><time>2026-04-19T13:23:31.011Z</time></trkpt><trkpt lat="45.0580717" lon="8.0459533"><ele>315.0</ele><time>2026-04-19T13:23:32.011Z</time></trkpt><trkpt lat="45.0579483" lon="8.046125"><ele>315.0</ele><time>2026-04-19T13:23:33.01Z</time></trkpt><trkpt lat="45.05784" lon="8.046315"><ele>315.0</ele><time>2026-04-19T13:23:34.01Z</time></trkpt><trkpt lat="45.0577383" lon="8.0464883"><ele>315.0</ele><time>2026-04-19T13:23:35.01Z</time></trkpt><trkpt lat="45.0576233" lon="8.04666"><ele>315.0</ele><time>2026-04-19T13:23:36.01Z</time></trkpt><trkpt lat="45.0575067" lon="8.046795"><ele>315.0</ele><time>2026-04-19T13:23:37.01Z</time></trkpt><trkpt lat="45.0573783" lon="8.0469133"><ele>315.0</ele><time>2026-04-19T13:23:38.011Z</time></trkpt><trkpt lat="45.0572317" lon="8.0470033"><ele>315.6666666666667</ele><time>2026-04-19T13:23:39.011Z</time></trkpt><trkpt lat="45.057075" lon="8.0470733"><ele>316.33333333333337</ele><time>2026-04-19T13:23:40.011Z</time></trkpt><trkpt lat="45.056915" lon="8.04711"><ele>317.0</ele><time>2026-04-19T13:23:41.01Z</time></trkpt><trkpt lat="45.0567517" lon="8.0471433"><ele>314.0</ele><time>2026-04-19T13:23:42.01Z</time></trkpt><trkpt lat="45.0566033" lon="8.0471717"><ele>311.0</ele><time>2026-04-19T13:23:43.01Z</time></trkpt><trkpt lat="45.0564683" lon="8.0471667"><ele>308.0</ele><time>2026-04-19T13:23:44.01Z</time></trkpt><trkpt lat="45.0563317" lon="8.0471917"><ele>305.0</ele><time>2026-04-19T13:23:45.011Z</time></trkpt><trkpt lat="45.0561983" lon="8.04721"><ele>305.0</ele><time>2026-04-19T13:23:46.01Z</time></trkpt><trkpt lat="45.056085" lon="8.047245"><ele>305.0</ele><time>2026-04-19T13:23:47.011Z</time></trkpt><trkpt lat="45.0559833" lon="8.04732"><ele>305.0</ele><time>2026-04-19T13:23:48.011Z</time></trkpt><trkpt lat="45.0558867" lon="8.047405"><ele>305.0</ele><time>2026-04-19T13:23:49.01Z</time></trkpt><trkpt lat="45.055805" lon="8.0475"><ele>306.6</ele><time>2026-04-19T13:23:50.01Z</time></trkpt><trkpt lat="45.0557283" lon="8.0476083"><ele>308.2</ele><time>2026-04-19T13:23:51.01Z</time></trkpt><trkpt lat="45.05565" lon="8.0477083"><ele>309.8</ele><time>2026-04-19T13:23:52.011Z</time></trkpt><trkpt lat="45.055575" lon="8.0478233"><ele>311.4</ele><time>2026-04-19T13:23:53.01Z</time></trkpt><trkpt lat="45.0554917" lon="8.0479267"><ele>313.0</ele><time>2026-04-19T13:23:54.011Z</time></trkpt><trkpt lat="45.05541" lon="8.0480167"><ele>313.0</ele><time>2026-04-19T13:23:55.01Z</time></trkpt><trkpt lat="45.0553383" lon="8.048045"><ele>313.0</ele><time>2026-04-19T13:23:56.01Z</time></trkpt><trkpt lat="45.05524" lon="8.048035"><ele>313.0</ele><time>2026-04-19T13:23:57.011Z</time></trkpt><trkpt lat="45.0551317" lon="8.04799"><ele>313.0</ele><time>2026-04-19T13:23:58.01Z</time></trkpt><trkpt lat="45.0550067" lon="8.0479317"><ele>313.0</ele><time>2026-04-19T13:23:59.01Z</time></trkpt><trkpt lat="45.0548783" lon="8.0478683"><ele>313.0</ele><time>2026-04-19T13:24:00.01Z</time></trkpt><trkpt lat="45.0547583" lon="8.0478167"><ele>313.0</ele><time>2026-04-19T13:24:01.011Z</time></trkpt><trkpt lat="45.05464" lon="8.04776"><ele>313.0</ele><time>2026-04-19T13:24:02.011Z</time></trkpt><trkpt lat="45.0545383" lon="8.0477083"><ele>313.0</ele><time>2026-04-19T13:24:03.01Z</time></trkpt><trkpt lat="45.054445" lon="8.047645"><ele>313.0</ele><time>2026-04-19T13:24:04.011Z</time></trkpt><trkpt lat="45.05435" lon="8.0476083"><ele>313.0</ele><time>2026-04-19T13:24:05.01Z</time></trkpt><trkpt lat="45.0542583" lon="8.0475767"><ele>313.0</ele><time>2026-04-19T13:24:06.011Z</time></trkpt><trkpt lat="45.0541483" lon="8.0475367"><ele>313.0</ele><time>2026-04-19T13:24:07.011Z</time></trkpt><trkpt lat="45.0540233" lon="8.0475367"><ele>313.0</ele><time>2026-04-19T13:24:08.011Z</time></trkpt><trkpt lat="45.0539067" lon="8.0475683"><ele>311.5</ele><time>2026-04-19T13:24:09.011Z</time></trkpt><trkpt lat="45.0538067" lon="8.0476367"><ele>310.0</ele><time>2026-04-19T13:24:10.01Z</time></trkpt><trkpt lat="45.0537167" lon="8.0477183"><ele>308.5</ele><time>2026-04-19T13:24:11.01Z</time></trkpt><trkpt lat="45.0536183" lon="8.0478"><ele>307.0</ele><time>2026-04-19T13:24:12.01Z</time></trkpt><trkpt lat="45.0535083" lon="8.047885"><ele>307.0</ele><time>2026-04-19T13:24:13.011Z</time></trkpt><trkpt lat="45.053405" lon="8.047975"><ele>307.0</ele><time>2026-04-19T13:24:14.01Z</time></trkpt><trkpt lat="45.0533167" lon="8.04805"><ele>307.0</ele><time>2026-04-19T13:24:15.011Z</time></trkpt><trkpt lat="45.053235" lon="8.0481267"><ele>307.0</ele><time>2026-04-19T13:24:16.01Z</time></trkpt><trkpt lat="45.0531567" lon="8.0482"><ele>307.0</ele><time>2026-04-19T13:24:17.01Z</time></trkpt><trkpt lat="45.0531" lon="8.0482683"><ele>307.16666666666663</ele><time>2026-04-19T13:24:18.01Z</time></trkpt><trkpt lat="45.0530483" lon="8.0483267"><ele>307.3333333333333</ele><time>2026-04-19T13:24:19.011Z</time></trkpt><trkpt lat="45.0529833" lon="8.0484117"><ele>307.5</ele><time>2026-04-19T13:24:21.011Z</time></trkpt><trkpt lat="45.052895" lon="8.0484617"><ele>307.6666666666667</ele><time>2026-04-19T13:24:24.01Z</time></trkpt><trkpt lat="45.0528083" lon="8.0485333"><ele>307.83333333333337</ele><time>2026-04-19T13:24:26.01Z</time></trkpt><trkpt lat="45.05274" lon="8.0485733"><ele>308.0</ele><time>2026-04-19T13:24:27.01Z</time></trkpt><trkpt lat="45.05265" lon="8.0486017"><ele>308.0</ele><time>2026-04-19T13:24:28.01Z</time></trkpt><trkpt lat="45.0525567" lon="8.0486233"><ele>308.0</ele><time>2026-04-19T13:24:29.011Z</time></trkpt><trkpt lat="45.0524633" lon="8.0486533"><ele>308.0</ele><time>2026-04-19T13:24:30.011Z</time></trkpt><trkpt lat="45.05237" lon="8.048695"><ele>308.0</ele><time>2026-04-19T13:24:31.01Z</time></trkpt><trkpt lat="45.052295" lon="8.0487517"><ele>308.0</ele><time>2026-04-19T13:24:32.01Z</time></trkpt><trkpt lat="45.0522233" lon="8.0488133"><ele>305.2</ele><time>2026-04-19T13:24:33.01Z</time></trkpt><trkpt lat="45.052145" lon="8.0488667"><ele>302.4</ele><time>2026-04-19T13:24:34.011Z</time></trkpt><trkpt lat="45.052065" lon="8.0489233"><ele>299.59999999999997</ele><time>2026-04-19T13:24:35.01Z</time></trkpt><trkpt lat="45.0519817" lon="8.0489767"><ele>296.8</ele><time>2026-04-19T13:24:36.011Z</time></trkpt><trkpt lat="45.0518917" lon="8.049035"><ele>294.0</ele><time>2026-04-19T13:24:37.01Z</time></trkpt><trkpt lat="45.0518" lon="8.049105"><ele>294.2</ele><time>2026-04-19T13:24:38.01Z</time></trkpt><trkpt lat="45.0516967" lon="8.04917"><ele>294.4</ele><time>2026-04-19T13:24:39.011Z</time></trkpt><trkpt lat="45.0515967" lon="8.049225"><ele>294.6</ele><time>2026-04-19T13:24:40.011Z</time></trkpt><trkpt lat="45.0514983" lon="8.0492783"><ele>294.8</ele><time>2026-04-19T13:24:41.01Z</time></trkpt><trkpt lat="45.0514033" lon="8.0493233"><ele>295.0</ele><time>2026-04-19T13:24:42.01Z</time></trkpt><trkpt lat="45.0513183" lon="8.049365"><ele>295.0</ele><time>2026-04-19T13:24:43.011Z</time></trkpt><trkpt lat="45.0512333" lon="8.049405"><ele>295.0</ele><time>2026-04-19T13:24:44.01Z</time></trkpt><trkpt lat="45.05116" lon="8.0494267"><ele>295.0</ele><time>2026-04-19T13:24:45.01Z</time></trkpt><trkpt lat="45.051065" lon="8.0494683"><ele>295.0</ele><time>2026-04-19T13:24:47.011Z</time></trkpt><trkpt lat="45.050995" lon="8.0494883"><ele>295.0</ele><time>2026-04-19T13:24:49.01Z</time></trkpt><trkpt lat="45.0509167" lon="8.0495633"><ele>295.0</ele><time>2026-04-19T13:24:52.011Z</time></trkpt><trkpt lat="45.050855" lon="8.0496917"><ele>295.0</ele><time>2026-04-19T13:24:54.01Z</time></trkpt><trkpt lat="45.0508033" lon="8.0497683"><ele>295.0</ele><time>2026-04-19T13:24:55.01Z</time></trkpt><trkpt lat="45.0507583" lon="8.0498417"><ele>295.0</ele><time>2026-04-19T13:24:56.01Z</time></trkpt><trkpt lat="45.0507083" lon="8.0499033"><ele>295.0</ele><time>2026-04-19T13:24:57.01Z</time></trkpt><trkpt lat="45.050625" lon="8.050015"><ele>295.0</ele><time>2026-04-19T13:24:59.011Z</time></trkpt><trkpt lat="45.0505583" lon="8.0500667"><ele>295.0</ele><time>2026-04-19T13:25:01.01Z</time></trkpt><trkpt lat="45.0505117" lon="8.0501267"><ele>295.0</ele><time>2026-04-19T13:25:04.01Z</time></trkpt><trkpt lat="45.0505867" lon="8.0501617"><ele>295.0</ele><time>2026-04-19T13:25:07.011Z</time></trkpt><trkpt lat="45.05067" lon="8.0500633"><ele>295.0</ele><time>2026-04-19T13:25:09.011Z</time></trkpt><trkpt lat="45.0507267" lon="8.0499833"><ele>295.0</ele><time>2026-04-19T13:25:10.01Z</time></trkpt><trkpt lat="45.0507833" lon="8.0498867"><ele>295.0</ele><time>2026-04-19T13:25:11.011Z</time></trkpt><trkpt lat="45.0508467" lon="8.0498183"><ele>295.0</ele><time>2026-04-19T13:25:12.01Z</time></trkpt><trkpt lat="45.0509" lon="8.0497683"><ele>295.0</ele><time>2026-04-19T13:25:13.01Z</time></trkpt><trkpt lat="45.0509633" lon="8.0496867"><ele>295.0</ele><time>2026-04-19T13:25:15.01Z</time></trkpt><trkpt lat="45.0509683" lon="8.0495717"><ele>295.0</ele><time>2026-04-19T13:25:19.01Z</time></trkpt><trkpt lat="45.05091" lon="8.0495017"><ele>295.0</ele><time>2026-04-19T13:25:21.01Z</time></trkpt><trkpt lat="45.050795" lon="8.049455"><ele>295.0</ele><time>2026-04-19T13:25:23.01Z</time></trkpt><trkpt lat="45.050725" lon="8.0494417"><ele>295.0</ele><time>2026-04-19T13:25:24.011Z</time></trkpt><trkpt lat="45.0506233" lon="8.049465"><ele>294.8333333333333</ele><time>2026-04-19T13:25:26.01Z</time></trkpt><trkpt lat="45.0505333" lon="8.0495833"><ele>294.66666666666663</ele><time>2026-04-19T13:25:28.01Z</time></trkpt><trkpt lat="45.0504867" lon="8.0496533"><ele>294.5</ele><time>2026-04-19T13:25:29.01Z</time></trkpt><trkpt lat="45.0504317" lon="8.0497133"><ele>294.3333333333333</ele><time>2026-04-19T13:25:30.01Z</time></trkpt><trkpt lat="45.05038" lon="8.04977"><ele>294.1666666666667</ele><time>2026-04-19T13:25:31.01Z</time></trkpt><trkpt lat="45.05032" lon="8.04981"><ele>294.0</ele><time>2026-04-19T13:25:32.011Z</time></trkpt><trkpt lat="45.0502017" lon="8.0498517"><ele>294.0</ele><time>2026-04-19T13:25:34.01Z</time></trkpt><trkpt lat="45.05012" lon="8.0498583"><ele>294.0</ele><time>2026-04-19T13:25:35.01Z</time></trkpt><trkpt lat="45.05005" lon="8.0498683"><ele>294.0</ele><time>2026-04-19T13:25:36.011Z</time></trkpt><trkpt lat="45.0499833" lon="8.0498783"><ele>294.0</ele><time>2026-04-19T13:25:37.01Z</time></trkpt><trkpt lat="45.0499183" lon="8.0499"><ele>294.0</ele><time>2026-04-19T13:25:38.011Z</time></trkpt><trkpt lat="45.0498033" lon="8.049935"><ele>294.0</ele><time>2026-04-19T13:25:40.01Z</time></trkpt><trkpt lat="45.049715" lon="8.0499617"><ele>293.2</ele><time>2026-04-19T13:25:42.01Z</time></trkpt><trkpt lat="45.0495867" lon="8.049985"><ele>292.4</ele><time>2026-04-19T13:25:44.01Z</time></trkpt><trkpt lat="45.0494967" lon="8.0499917"><ele>291.6</ele><time>2026-04-19T13:25:45.011Z</time></trkpt><trkpt lat="45.0494317" lon="8.0499867"><ele>290.8</ele><time>2026-04-19T13:25:46.01Z</time></trkpt><trkpt lat="45.049335" lon="8.04998"><ele>290.0</ele><time>2026-04-19T13:25:48.01Z</time></trkpt><trkpt lat="45.0494233" lon="8.0500083"><ele>290.0</ele><time>2026-04-19T13:25:55.01Z</time></trkpt><trkpt lat="45.0495117" lon="8.0499867"><ele>290.0</ele><time>2026-04-19T13:25:57.011Z</time></trkpt><trkpt lat="45.0496233" lon="8.0499817"><ele>290.0</ele><time>2026-04-19T13:25:59.01Z</time></trkpt><trkpt lat="45.0497583" lon="8.0499567"><ele>290.0</ele><time>2026-04-19T13:26:01.01Z</time></trkpt><trkpt lat="45.049845" lon="8.0499333"><ele>290.0</ele><time>2026-04-19T13:26:02.01Z</time></trkpt><trkpt lat="45.0499333" lon="8.0499067"><ele>290.8</ele><time>2026-04-19T13:26:03.011Z</time></trkpt><trkpt lat="45.0500117" lon="8.0498767"><ele>291.6</ele><time>2026-04-19T13:26:04.01Z</time></trkpt><trkpt lat="45.0501067" lon="8.049855"><ele>292.4</ele><time>2026-04-19T13:26:06.01Z</time></trkpt><trkpt lat="45.0501667" lon="8.04994"><ele>293.2</ele><time>2026-04-19T13:26:09.011Z</time></trkpt><trkpt lat="45.0501733" lon="8.0500667"><ele>294.0</ele><time>2026-04-19T13:26:11.01Z</time></trkpt><trkpt lat="45.05019" lon="8.0502083"><ele>294.0</ele><time>2026-04-19T13:26:13.011Z</time></trkpt><trkpt lat="45.05021" lon="8.05031"><ele>294.0</ele><time>2026-04-19T13:26:15.011Z</time></trkpt><trkpt lat="45.0502433" lon="8.05039"><ele>294.0</ele><time>2026-04-19T13:26:17.011Z</time></trkpt><trkpt lat="45.0502667" lon="8.0504983"><ele>294.0</ele><time>2026-04-19T13:26:20.011Z</time></trkpt><trkpt lat="45.0502733" lon="8.050635"><ele>294.0</ele><time>2026-04-19T13:26:23.01Z</time></trkpt><trkpt lat="45.0502617" lon="8.0507417"><ele>294.0</ele><time>2026-04-19T13:26:25.011Z</time></trkpt><trkpt lat="45.05024" lon="8.0508333"><ele>293.2</ele><time>2026-04-19T13:26:27.011Z</time></trkpt><trkpt lat="45.0502383" lon="8.05098"><ele>292.4</ele><time>2026-04-19T13:26:29.011Z</time></trkpt><trkpt lat="45.0502183" lon="8.0511267"><ele>291.6</ele><time>2026-04-19T13:26:31.011Z</time></trkpt><trkpt lat="45.0502033" lon="8.0512733"><ele>290.8</ele><time>2026-04-19T13:26:33.01Z</time></trkpt><trkpt lat="45.0501867" lon="8.0513633"><ele>290.0</ele><time>2026-04-19T13:26:34.01Z</time></trkpt><trkpt lat="45.0501517" lon="8.0514617"><ele>290.0</ele><time>2026-04-19T13:26:35.01Z</time></trkpt><trkpt lat="45.050115" lon="8.051565"><ele>290.0</ele><time>2026-04-19T13:26:36.01Z</time></trkpt><trkpt lat="45.050075" lon="8.0516767"><ele>290.0</ele><time>2026-04-19T13:26:37.01Z</time></trkpt><trkpt lat="45.0500267" lon="8.0518"><ele>290.0</ele><time>2026-04-19T13:26:38.01Z</time></trkpt><trkpt lat="45.049965" lon="8.0519217"><ele>290.0</ele><time>2026-04-19T13:26:39.01Z</time></trkpt><trkpt lat="45.0499117" lon="8.0520383"><ele>288.0</ele><time>2026-04-19T13:26:40.01Z</time></trkpt><trkpt lat="45.0498367" lon="8.0521583"><ele>286.0</ele><time>2026-04-19T13:26:41.01Z</time></trkpt><trkpt lat="45.04977" lon="8.05227"><ele>284.0</ele><time>2026-04-19T13:26:42.011Z</time></trkpt><trkpt lat="45.049695" lon="8.0523783"><ele>282.0</ele><time>2026-04-19T13:26:43.011Z</time></trkpt><trkpt lat="45.0495983" lon="8.0524867"><ele>280.0</ele><time>2026-04-19T13:26:44.01Z</time></trkpt><trkpt lat="45.0495033" lon="8.05259"><ele>280.0</ele><time>2026-04-19T13:26:45.011Z</time></trkpt><trkpt lat="45.0494267" lon="8.0527017"><ele>280.0</ele><time>2026-04-19T13:26:46.011Z</time></trkpt><trkpt lat="45.0493333" lon="8.0527967"><ele>280.0</ele><time>2026-04-19T13:26:47.011Z</time></trkpt><trkpt lat="45.049235" lon="8.0528933"><ele>280.0</ele><time>2026-04-19T13:26:48.01Z</time></trkpt><trkpt lat="45.049115" lon="8.0529717"><ele>277.25</ele><time>2026-04-19T13:26:49.011Z</time></trkpt><trkpt lat="45.0489967" lon="8.0530383"><ele>274.5</ele><time>2026-04-19T13:26:50.011Z</time></trkpt><trkpt lat="45.048875" lon="8.0531167"><ele>271.75</ele><time>2026-04-19T13:26:51.011Z</time></trkpt><trkpt lat="45.0487517" lon="8.0532033"><ele>269.0</ele><time>2026-04-19T13:26:52.011Z</time></trkpt><trkpt lat="45.0486183" lon="8.0532867"><ele>269.0</ele><time>2026-04-19T13:26:53.011Z</time></trkpt><trkpt lat="45.048485" lon="8.0533667"><ele>269.0</ele><time>2026-04-19T13:26:54.01Z</time></trkpt><trkpt lat="45.0483617" lon="8.0534433"><ele>269.0</ele><time>2026-04-19T13:26:55.01Z</time></trkpt><trkpt lat="45.048235" lon="8.0535117"><ele>269.0</ele><time>2026-04-19T13:26:56.01Z</time></trkpt><trkpt lat="45.04811" lon="8.0535517"><ele>269.0</ele><time>2026-04-19T13:26:57.011Z</time></trkpt><trkpt lat="45.0479883" lon="8.0535767"><ele>269.0</ele><time>2026-04-19T13:26:58.011Z</time></trkpt><trkpt lat="45.0478767" lon="8.0536133"><ele>269.0</ele><time>2026-04-19T13:26:59.011Z</time></trkpt><trkpt lat="45.0477783" lon="8.0536817"><ele>269.0</ele><time>2026-04-19T13:27:00.011Z</time></trkpt><trkpt lat="45.0476667" lon="8.0537633"><ele>269.0</ele><time>2026-04-19T13:27:01.011Z</time></trkpt><trkpt lat="45.0475633" lon="8.0538517"><ele>269.0</ele><time>2026-04-19T13:27:02.01Z</time></trkpt><trkpt lat="45.0474617" lon="8.0539567"><ele>269.0</ele><time>2026-04-19T13:27:03.01Z</time></trkpt><trkpt lat="45.04738" lon="8.05407"><ele>269.0</ele><time>2026-04-19T13:27:04.01Z</time></trkpt><trkpt lat="45.047295" lon="8.0541933"><ele>268.75</ele><time>2026-04-19T13:27:05.011Z</time></trkpt><trkpt lat="45.0472067" lon="8.0543167"><ele>268.5</ele><time>2026-04-19T13:27:06.011Z</time></trkpt><trkpt lat="45.0471283" lon="8.0544233"><ele>268.25</ele><time>2026-04-19T13:27:07.01Z</time></trkpt><trkpt lat="45.0470417" lon="8.0545117"><ele>268.0</ele><time>2026-04-19T13:27:08.011Z</time></trkpt><trkpt lat="45.046945" lon="8.0546067"><ele>268.0</ele><time>2026-04-19T13:27:09.011Z</time></trkpt><trkpt lat="45.0468733" lon="8.0547133"><ele>268.0</ele><time>2026-04-19T13:27:10.011Z</time></trkpt><trkpt lat="45.04681" lon="8.0548267"><ele>268.0</ele><time>2026-04-19T13:27:11.01Z</time></trkpt><trkpt lat="45.046745" lon="8.0549333"><ele>268.0</ele><time>2026-04-19T13:27:12.011Z</time></trkpt><trkpt lat="45.0466883" lon="8.0550217"><ele>268.0</ele><time>2026-04-19T13:27:13.011Z</time></trkpt><trkpt lat="45.046635" lon="8.0550933"><ele>264.8</ele><time>2026-04-19T13:27:14.01Z</time></trkpt><trkpt lat="45.0465783" lon="8.0551467"><ele>261.6</ele><time>2026-04-19T13:27:15.01Z</time></trkpt><trkpt lat="45.046475" lon="8.055165"><ele>258.4</ele><time>2026-04-19T13:27:17.01Z</time></trkpt><trkpt lat="45.046365" lon="8.0550317"><ele>255.2</ele><time>2026-04-19T13:27:19.01Z</time></trkpt><trkpt lat="45.046315" lon="8.05492"><ele>252.0</ele><time>2026-04-19T13:27:20.01Z</time></trkpt><trkpt lat="45.0462817" lon="8.0547983"><ele>250.5</ele><time>2026-04-19T13:27:21.011Z</time></trkpt><trkpt lat="45.0462767" lon="8.0546633"><ele>249.0</ele><time>2026-04-19T13:27:22.01Z</time></trkpt><trkpt lat="45.0462883" lon="8.0544967"><ele>247.5</ele><time>2026-04-19T13:27:23.011Z</time></trkpt><trkpt lat="45.0463367" lon="8.05433"><ele>246.0</ele><time>2026-04-19T13:27:24.011Z</time></trkpt><trkpt lat="45.0464033" lon="8.054185"><ele>247.5</ele><time>2026-04-19T13:27:25.011Z</time></trkpt><trkpt lat="45.04649" lon="8.054055"><ele>249.0</ele><time>2026-04-19T13:27:26.01Z</time></trkpt><trkpt lat="45.046615" lon="8.0539317"><ele>250.5</ele><time>2026-04-19T13:27:27.011Z</time></trkpt><trkpt lat="45.0467217" lon="8.0538117"><ele>252.0</ele><time>2026-04-19T13:27:28.011Z</time></trkpt><trkpt lat="45.0468433" lon="8.0536667"><ele>252.0</ele><time>2026-04-19T13:27:29.01Z</time></trkpt><trkpt lat="45.046965" lon="8.0535083"><ele>252.0</ele><time>2026-04-19T13:27:30.01Z</time></trkpt><trkpt lat="45.047075" lon="8.0533617"><ele>252.0</ele><time>2026-04-19T13:27:31.011Z</time></trkpt><trkpt lat="45.0471983" lon="8.0532283"><ele>251.75</ele><time>2026-04-19T13:27:32.01Z</time></trkpt><trkpt lat="45.047295" lon="8.053105"><ele>251.5</ele><time>2026-04-19T13:27:33.011Z</time></trkpt><trkpt lat="45.0473833" lon="8.05298"><ele>251.25</ele><time>2026-04-19T13:27:34.011Z</time></trkpt><trkpt lat="45.0474533" lon="8.0528667"><ele>251.0</ele><time>2026-04-19T13:27:35.01Z</time></trkpt><trkpt lat="45.0475083" lon="8.0527533"><ele>251.50000000000003</ele><time>2026-04-19T13:27:36.01Z</time></trkpt><trkpt lat="45.04754" lon="8.05263"><ele>252.0</ele><time>2026-04-19T13:27:37.01Z</time></trkpt><trkpt lat="45.0475333" lon="8.0525167"><ele>252.5</ele><time>2026-04-19T13:27:38.01Z</time></trkpt><trkpt lat="45.0475117" lon="8.052405"><ele>253.0</ele><time>2026-04-19T13:27:39.01Z</time></trkpt><trkpt lat="45.0474533" lon="8.0523267"><ele>253.50000000000003</ele><time>2026-04-19T13:27:40.01Z</time></trkpt><trkpt lat="45.0473683" lon="8.0523"><ele>254.0</ele><time>2026-04-19T13:27:41.011Z</time></trkpt><trkpt lat="45.047255" lon="8.0523383"><ele>253.0</ele><time>2026-04-19T13:27:42.011Z</time></trkpt><trkpt lat="45.0471283" lon="8.05243"><ele>252.0</ele><time>2026-04-19T13:27:43.01Z</time></trkpt><trkpt lat="45.0470067" lon="8.05256"><ele>251.0</ele><time>2026-04-19T13:27:44.01Z</time></trkpt><trkpt lat="45.0468733" lon="8.0527117"><ele>251.0</ele><time>2026-04-19T13:27:45.01Z</time></trkpt><trkpt lat="45.0467417" lon="8.05285"><ele>251.0</ele><time>2026-04-19T13:27:46.011Z</time></trkpt><trkpt lat="45.04661" lon="8.0529933"><ele>251.0</ele><time>2026-04-19T13:27:47.011Z</time></trkpt><trkpt lat="45.046475" lon="8.05312"><ele>250.33333333333334</ele><time>2026-04-19T13:27:48.01Z</time></trkpt><trkpt lat="45.0463483" lon="8.0532433"><ele>249.66666666666669</ele><time>2026-04-19T13:27:49.011Z</time></trkpt><trkpt lat="45.0462333" lon="8.0533833"><ele>249.0</ele><time>2026-04-19T13:27:50.01Z</time></trkpt><trkpt lat="45.04613" lon="8.0535283"><ele>244.66666666666669</ele><time>2026-04-19T13:27:51.01Z</time></trkpt><trkpt lat="45.04604" lon="8.0537"><ele>240.33333333333334</ele><time>2026-04-19T13:27:52.01Z</time></trkpt><trkpt lat="45.0459367" lon="8.0538733"><ele>236.0</ele><time>2026-04-19T13:27:53.01Z</time></trkpt><trkpt lat="45.0458283" lon="8.05405"><ele>238.33333333333334</ele><time>2026-04-19T13:27:54.011Z</time></trkpt><trkpt lat="45.0457283" lon="8.054235"><ele>240.66666666666669</ele><time>2026-04-19T13:27:55.011Z</time></trkpt><trkpt lat="45.0456333" lon="8.0544217"><ele>243.0</ele><time>2026-04-19T13:27:56.011Z</time></trkpt><trkpt lat="45.0455383" lon="8.05461"><ele>243.0</ele><time>2026-04-19T13:27:57.01Z</time></trkpt><trkpt lat="45.0454367" lon="8.0547883"><ele>243.0</ele><time>2026-04-19T13:27:58.01Z</time></trkpt><trkpt lat="45.04533" lon="8.0549717"><ele>243.0</ele><time>2026-04-19T13:27:59.011Z</time></trkpt><trkpt lat="45.0452417" lon="8.0551533"><ele>240.75</ele><time>2026-04-19T13:28:00.01Z</time></trkpt><trkpt lat="45.0451617" lon="8.0553283"><ele>238.5</ele><time>2026-04-19T13:28:01.01Z</time></trkpt><trkpt lat="45.045075" lon="8.0555067"><ele>236.25</ele><time>2026-04-19T13:28:02.01Z</time></trkpt><trkpt lat="45.0450017" lon="8.0556783"><ele>234.0</ele><time>2026-04-19T13:28:03.009Z</time></trkpt><trkpt lat="45.0449467" lon="8.0558567"><ele>231.75</ele><time>2026-04-19T13:28:04.009Z</time></trkpt><trkpt lat="45.044905" lon="8.056045"><ele>229.5</ele><time>2026-04-19T13:28:05.009Z</time></trkpt><trkpt lat="45.04488" lon="8.0562417"><ele>227.25</ele><time>2026-04-19T13:28:06.01Z</time></trkpt><trkpt lat="45.04487" lon="8.0564433"><ele>225.0</ele><time>2026-04-19T13:28:07.01Z</time></trkpt><trkpt lat="45.04485" lon="8.056645"><ele>223.75</ele><time>2026-04-19T13:28:08.009Z</time></trkpt><trkpt lat="45.0448083" lon="8.056825"><ele>222.5</ele><time>2026-04-19T13:28:09.01Z</time></trkpt><trkpt lat="45.044755" lon="8.0569933"><ele>221.25</ele><time>2026-04-19T13:28:10.009Z</time></trkpt><trkpt lat="45.0446833" lon="8.0571617"><ele>220.0</ele><time>2026-04-19T13:28:11.009Z</time></trkpt><trkpt lat="45.04461" lon="8.0572967"><ele>220.0</ele><time>2026-04-19T13:28:12.01Z</time></trkpt><trkpt lat="45.0445567" lon="8.0574367"><ele>220.0</ele><time>2026-04-19T13:28:13.009Z</time></trkpt><trkpt lat="45.0445217" lon="8.0575833"><ele>220.0</ele><time>2026-04-19T13:28:14.009Z</time></trkpt><trkpt lat="45.0445183" lon="8.0577583"><ele>220.0</ele><time>2026-04-19T13:28:15.009Z</time></trkpt><trkpt lat="45.044535" lon="8.0579433"><ele>220.25</ele><time>2026-04-19T13:28:16.009Z</time></trkpt><trkpt lat="45.0445767" lon="8.0581117"><ele>220.5</ele><time>2026-04-19T13:28:17.009Z</time></trkpt><trkpt lat="45.044625" lon="8.0582767"><ele>220.75</ele><time>2026-04-19T13:28:18.009Z</time></trkpt><trkpt lat="45.0446617" lon="8.0584217"><ele>221.0</ele><time>2026-04-19T13:28:19.009Z</time></trkpt><trkpt lat="45.044665" lon="8.0585617"><ele>221.20000000000002</ele><time>2026-04-19T13:28:20.009Z</time></trkpt><trkpt lat="45.0446483" lon="8.058695"><ele>221.40000000000003</ele><time>2026-04-19T13:28:21.009Z</time></trkpt><trkpt lat="45.044595" lon="8.0588117"><ele>221.6</ele><time>2026-04-19T13:28:22.01Z</time></trkpt><trkpt lat="45.0445233" lon="8.0589283"><ele>221.8</ele><time>2026-04-19T13:28:23.01Z</time></trkpt><trkpt lat="45.0444367" lon="8.05904"><ele>222.0</ele><time>2026-04-19T13:28:24.01Z</time></trkpt><trkpt lat="45.0443367" lon="8.05915"><ele>222.0</ele><time>2026-04-19T13:28:25.009Z</time></trkpt><trkpt lat="45.0442183" lon="8.0592683"><ele>222.0</ele><time>2026-04-19T13:28:26.01Z</time></trkpt><trkpt lat="45.0441" lon="8.0594117"><ele>222.0</ele><time>2026-04-19T13:28:27.009Z</time></trkpt><trkpt lat="45.0439833" lon="8.0595433"><ele>222.0</ele><time>2026-04-19T13:28:28.009Z</time></trkpt><trkpt lat="45.0438517" lon="8.0596733"><ele>222.0</ele><time>2026-04-19T13:28:29.01Z</time></trkpt><trkpt lat="45.0437033" lon="8.0598083"><ele>222.0</ele><time>2026-04-19T13:28:30.01Z</time></trkpt><trkpt lat="45.0435617" lon="8.0599583"><ele>222.0</ele><time>2026-04-19T13:28:31.009Z</time></trkpt><trkpt lat="45.0434233" lon="8.0601183"><ele>222.0</ele><time>2026-04-19T13:28:32.01Z</time></trkpt><trkpt lat="45.04329" lon="8.0602683"><ele>222.0</ele><time>2026-04-19T13:28:33.009Z</time></trkpt><trkpt lat="45.0431583" lon="8.0604167"><ele>219.66666666666669</ele><time>2026-04-19T13:28:34.009Z</time></trkpt><trkpt lat="45.0430217" lon="8.06055"><ele>217.33333333333334</ele><time>2026-04-19T13:28:35.01Z</time></trkpt><trkpt lat="45.0428917" lon="8.06068"><ele>215.0</ele><time>2026-04-19T13:28:36.009Z</time></trkpt><trkpt lat="45.0427667" lon="8.060815"><ele>215.0</ele><time>2026-04-19T13:28:37.01Z</time></trkpt><trkpt lat="45.042635" lon="8.0609483"><ele>215.0</ele><time>2026-04-19T13:28:38.009Z</time></trkpt><trkpt lat="45.0424917" lon="8.0610833"><ele>215.0</ele><time>2026-04-19T13:28:39.01Z</time></trkpt><trkpt lat="45.04236" lon="8.06121"><ele>214.33333333333334</ele><time>2026-04-19T13:28:40.009Z</time></trkpt><trkpt lat="45.042215" lon="8.0613433"><ele>213.66666666666669</ele><time>2026-04-19T13:28:41.009Z</time></trkpt><trkpt lat="45.0420767" lon="8.0614833"><ele>213.0</ele><time>2026-04-19T13:28:42.01Z</time></trkpt><trkpt lat="45.0419383" lon="8.0616117"><ele>213.0</ele><time>2026-04-19T13:28:43.01Z</time></trkpt><trkpt lat="45.0418083" lon="8.0617433"><ele>213.0</ele><time>2026-04-19T13:28:44.009Z</time></trkpt><trkpt lat="45.0416683" lon="8.061855"><ele>213.0</ele><time>2026-04-19T13:28:45.009Z</time></trkpt><trkpt lat="45.041525" lon="8.0619767"><ele>213.0</ele><time>2026-04-19T13:28:46.01Z</time></trkpt><trkpt lat="45.0413833" lon="8.0620917"><ele>213.0</ele><time>2026-04-19T13:28:47.01Z</time></trkpt><trkpt lat="45.0412267" lon="8.062205"><ele>213.0</ele><time>2026-04-19T13:28:48.01Z</time></trkpt><trkpt lat="45.0410783" lon="8.0623"><ele>213.0</ele><time>2026-04-19T13:28:49.009Z</time></trkpt><trkpt lat="45.0409267" lon="8.0623883"><ele>213.0</ele><time>2026-04-19T13:28:50.009Z</time></trkpt><trkpt lat="45.0408" lon="8.06247"><ele>213.0</ele><time>2026-04-19T13:28:51.009Z</time></trkpt><trkpt lat="45.0406817" lon="8.0625283"><ele>213.0</ele><time>2026-04-19T13:28:52.009Z</time></trkpt><trkpt lat="45.040575" lon="8.0625783"><ele>212.83333333333334</ele><time>2026-04-19T13:28:53.009Z</time></trkpt><trkpt lat="45.0404983" lon="8.062615"><ele>212.66666666666669</ele><time>2026-04-19T13:28:54.01Z</time></trkpt><trkpt lat="45.0404233" lon="8.0626517"><ele>212.5</ele><time>2026-04-19T13:28:55.01Z</time></trkpt><trkpt lat="45.0403433" lon="8.062685"><ele>212.33333333333334</ele><time>2026-04-19T13:28:56.01Z</time></trkpt><trkpt lat="45.040265" lon="8.0627217"><ele>212.16666666666669</ele><time>2026-04-19T13:28:57.009Z</time></trkpt><trkpt lat="45.0401617" lon="8.0627633"><ele>212.0</ele><time>2026-04-19T13:28:58.01Z</time></trkpt><trkpt lat="45.0400567" lon="8.0628283"><ele>211.25</ele><time>2026-04-19T13:28:59.01Z</time></trkpt><trkpt lat="45.0399483" lon="8.062915"><ele>210.5</ele><time>2026-04-19T13:29:00.01Z</time></trkpt><trkpt lat="45.0398167" lon="8.0629917"><ele>209.75</ele><time>2026-04-19T13:29:01.009Z</time></trkpt><trkpt lat="45.0396917" lon="8.06307"><ele>209.0</ele><time>2026-04-19T13:29:02.01Z</time></trkpt><trkpt lat="45.03956" lon="8.0631583"><ele>209.0</ele><time>2026-04-19T13:29:03.01Z</time></trkpt><trkpt lat="45.0394233" lon="8.063255"><ele>209.0</ele><time>2026-04-19T13:29:04.01Z</time></trkpt><trkpt lat="45.0392917" lon="8.0633367"><ele>209.0</ele><time>2026-04-19T13:29:05.01Z</time></trkpt><trkpt lat="45.0391483" lon="8.0634383"><ele>209.33333333333334</ele><time>2026-04-19T13:29:06.009Z</time></trkpt><trkpt lat="45.0389983" lon="8.0635333"><ele>209.66666666666669</ele><time>2026-04-19T13:29:07.009Z</time></trkpt><trkpt lat="45.0388467" lon="8.0636367"><ele>210.0</ele><time>2026-04-19T13:29:08.01Z</time></trkpt><trkpt lat="45.0387033" lon="8.0637233"><ele>210.0</ele><time>2026-04-19T13:29:09.01Z</time></trkpt><trkpt lat="45.0385533" lon="8.0638217"><ele>210.0</ele><time>2026-04-19T13:29:10.009Z</time></trkpt><trkpt lat="45.03842" lon="8.063915"><ele>210.0</ele><time>2026-04-19T13:29:11.009Z</time></trkpt><trkpt lat="45.0382917" lon="8.0639967"><ele>210.25</ele><time>2026-04-19T13:29:12.009Z</time></trkpt><trkpt lat="45.03817" lon="8.0640683"><ele>210.5</ele><time>2026-04-19T13:29:13.009Z</time></trkpt><trkpt lat="45.0380633" lon="8.064145"><ele>210.75</ele><time>2026-04-19T13:29:14.009Z</time></trkpt><trkpt lat="45.037965" lon="8.0642167"><ele>211.0</ele><time>2026-04-19T13:29:15.01Z</time></trkpt><trkpt lat="45.0378533" lon="8.0642867"><ele>210.75</ele><time>2026-04-19T13:29:16.01Z</time></trkpt><trkpt lat="45.037735" lon="8.0643683"><ele>210.5</ele><time>2026-04-19T13:29:17.01Z</time></trkpt><trkpt lat="45.0376283" lon="8.0644483"><ele>210.25</ele><time>2026-04-19T13:29:18.009Z</time></trkpt><trkpt lat="45.0375183" lon="8.0645183"><ele>210.0</ele><time>2026-04-19T13:29:19.01Z</time></trkpt><trkpt lat="45.037405" lon="8.064595"><ele>210.0</ele><time>2026-04-19T13:29:20.009Z</time></trkpt><trkpt lat="45.03728" lon="8.0646833"><ele>210.0</ele><time>2026-04-19T13:29:21.009Z</time></trkpt><trkpt lat="45.0371583" lon="8.0647667"><ele>210.0</ele><time>2026-04-19T13:29:22.01Z</time></trkpt><trkpt lat="45.0370317" lon="8.0648433"><ele>210.0</ele><time>2026-04-19T13:29:23.01Z</time></trkpt><trkpt lat="45.0369117" lon="8.064925"><ele>209.5</ele><time>2026-04-19T13:29:24.01Z</time></trkpt><trkpt lat="45.0368" lon="8.06501"><ele>209.0</ele><time>2026-04-19T13:29:25.009Z</time></trkpt><trkpt lat="45.03668" lon="8.0650867"><ele>208.5</ele><time>2026-04-19T13:29:26.01Z</time></trkpt><trkpt lat="45.0365717" lon="8.0651633"><ele>208.0</ele><time>2026-04-19T13:29:27.01Z</time></trkpt><trkpt lat="45.03646" lon="8.0652283"><ele>208.0</ele><time>2026-04-19T13:29:28.009Z</time></trkpt><trkpt lat="45.036345" lon="8.0652933"><ele>208.0</ele><time>2026-04-19T13:29:29.009Z</time></trkpt><trkpt lat="45.0362317" lon="8.0653733"><ele>208.0</ele><time>2026-04-19T13:29:30.009Z</time></trkpt><trkpt lat="45.0361133" lon="8.0654483"><ele>208.0</ele><time>2026-04-19T13:29:31.01Z</time></trkpt><trkpt lat="45.035995" lon="8.0655233"><ele>208.0</ele><time>2026-04-19T13:29:32.009Z</time></trkpt><trkpt lat="45.035895" lon="8.0655983"><ele>208.0</ele><time>2026-04-19T13:29:33.01Z</time></trkpt><trkpt lat="45.03579" lon="8.0656617"><ele>208.0</ele><time>2026-04-19T13:29:34.01Z</time></trkpt><trkpt lat="45.035685" lon="8.0657483"><ele>208.0</ele><time>2026-04-19T13:29:35.01Z</time></trkpt><trkpt lat="45.03558" lon="8.0658417"><ele>208.5</ele><time>2026-04-19T13:29:36.009Z</time></trkpt><trkpt lat="45.03548" lon="8.065945"><ele>209.0</ele><time>2026-04-19T13:29:37.009Z</time></trkpt><trkpt lat="45.03538" lon="8.0660583"><ele>209.5</ele><time>2026-04-19T13:29:38.01Z</time></trkpt><trkpt lat="45.0352783" lon="8.0661833"><ele>210.0</ele><time>2026-04-19T13:29:39.01Z</time></trkpt><trkpt lat="45.0351933" lon="8.0663133"><ele>210.0</ele><time>2026-04-19T13:29:40.009Z</time></trkpt><trkpt lat="45.0351133" lon="8.0664283"><ele>210.0</ele><time>2026-04-19T13:29:41.009Z</time></trkpt><trkpt lat="45.03503" lon="8.0665217"><ele>210.0</ele><time>2026-04-19T13:29:42.009Z</time></trkpt><trkpt lat="45.03495" lon="8.0666017"><ele>210.0</ele><time>2026-04-19T13:29:43.01Z</time></trkpt><trkpt lat="45.03488" lon="8.0666767"><ele>210.0</ele><time>2026-04-19T13:29:44.01Z</time></trkpt><trkpt lat="45.0348133" lon="8.0667467"><ele>209.71428571428572</ele><time>2026-04-19T13:29:45.009Z</time></trkpt><trkpt lat="45.0347633" lon="8.0668217"><ele>209.42857142857144</ele><time>2026-04-19T13:29:46.009Z</time></trkpt><trkpt lat="45.0347183" lon="8.06689"><ele>209.14285714285714</ele><time>2026-04-19T13:29:47.01Z</time></trkpt><trkpt lat="45.0346717" lon="8.06695"><ele>208.85714285714286</ele><time>2026-04-19T13:29:48.01Z</time></trkpt><trkpt lat="45.034625" lon="8.0670133"><ele>208.57142857142858</ele><time>2026-04-19T13:29:49.01Z</time></trkpt><trkpt lat="45.0345733" lon="8.0670717"><ele>208.28571428571428</ele><time>2026-04-19T13:29:50.009Z</time></trkpt><trkpt lat="45.0345067" lon="8.06714"><ele>208.0</ele><time>2026-04-19T13:29:51.01Z</time></trkpt><trkpt lat="45.034435" lon="8.0672117"><ele>208.0</ele><time>2026-04-19T13:29:52.009Z</time></trkpt><trkpt lat="45.0343733" lon="8.0673"><ele>208.0</ele><time>2026-04-19T13:29:53.009Z</time></trkpt><trkpt lat="45.034295" lon="8.0673917"><ele>208.0</ele><time>2026-04-19T13:29:54.009Z</time></trkpt><trkpt lat="45.0342233" lon="8.0674817"><ele>208.0</ele><time>2026-04-19T13:29:55.009Z</time></trkpt><trkpt lat="45.034155" lon="8.0675733"><ele>208.0</ele><time>2026-04-19T13:29:56.01Z</time></trkpt><trkpt lat="45.034095" lon="8.0676483"><ele>207.49999999999997</ele><time>2026-04-19T13:29:57.009Z</time></trkpt><trkpt lat="45.0340433" lon="8.0677233"><ele>207.0</ele><time>2026-04-19T13:29:58.009Z</time></trkpt><trkpt lat="45.0339917" lon="8.0677983"><ele>206.5</ele><time>2026-04-19T13:29:59.009Z</time></trkpt><trkpt lat="45.033935" lon="8.0678783"><ele>206.0</ele><time>2026-04-19T13:30:00.009Z</time></trkpt><trkpt lat="45.0338667" lon="8.0679433"><ele>205.49999999999997</ele><time>2026-04-19T13:30:01.009Z</time></trkpt><trkpt lat="45.0337983" lon="8.0680033"><ele>205.0</ele><time>2026-04-19T13:30:02.01Z</time></trkpt><trkpt lat="45.0337333" lon="8.0680433"><ele>204.99999999999997</ele><time>2026-04-19T13:30:03.009Z</time></trkpt><trkpt lat="45.03367" lon="8.0680667"><ele>205.0</ele><time>2026-04-19T13:30:04.009Z</time></trkpt><trkpt lat="45.0335933" lon="8.06806"><ele>205.0</ele><time>2026-04-19T13:30:05.01Z</time></trkpt><trkpt lat="45.0335183" lon="8.06803"><ele>205.0</ele><time>2026-04-19T13:30:06.01Z</time></trkpt><trkpt lat="45.0334517" lon="8.0679917"><ele>204.99999999999997</ele><time>2026-04-19T13:30:07.009Z</time></trkpt><trkpt lat="45.03337" lon="8.0679433"><ele>205.0</ele><time>2026-04-19T13:30:08.009Z</time></trkpt><trkpt lat="45.0332883" lon="8.0679"><ele>206.4</ele><time>2026-04-19T13:30:09.01Z</time></trkpt><trkpt lat="45.033195" lon="8.0678517"><ele>207.8</ele><time>2026-04-19T13:30:10.009Z</time></trkpt><trkpt lat="45.0331" lon="8.0677833"><ele>209.2</ele><time>2026-04-19T13:30:11.009Z</time></trkpt><trkpt lat="45.0330083" lon="8.06771"><ele>210.6</ele><time>2026-04-19T13:30:12.009Z</time></trkpt><trkpt lat="45.0329083" lon="8.0676317"><ele>212.0</ele><time>2026-04-19T13:30:13.009Z</time></trkpt><trkpt lat="45.0328117" lon="8.0675583"><ele>212.00000000000003</ele><time>2026-04-19T13:30:14.009Z</time></trkpt><trkpt lat="45.0327283" lon="8.0675"><ele>212.0</ele><time>2026-04-19T13:30:15.009Z</time></trkpt><trkpt lat="45.032655" lon="8.06744"><ele>212.0</ele><time>2026-04-19T13:30:16.009Z</time></trkpt><trkpt lat="45.0325733" lon="8.0673917"><ele>212.0</ele><time>2026-04-19T13:30:17.009Z</time></trkpt><trkpt lat="45.032495" lon="8.067345"><ele>212.00000000000003</ele><time>2026-04-19T13:30:18.009Z</time></trkpt><trkpt lat="45.0324117" lon="8.067295"><ele>212.0</ele><time>2026-04-19T13:30:19.009Z</time></trkpt><trkpt lat="45.0323167" lon="8.0672467"><ele>210.39999999999998</ele><time>2026-04-19T13:30:20.009Z</time></trkpt><trkpt lat="45.0322283" lon="8.067205"><ele>208.79999999999998</ele><time>2026-04-19T13:30:21.009Z</time></trkpt><trkpt lat="45.0321267" lon="8.0671567"><ele>207.2</ele><time>2026-04-19T13:30:22.009Z</time></trkpt><trkpt lat="45.0320317" lon="8.067115"><ele>205.6</ele><time>2026-04-19T13:30:23.009Z</time></trkpt><trkpt lat="45.03193" lon="8.0670583"><ele>204.0</ele><time>2026-04-19T13:30:24.009Z</time></trkpt><trkpt lat="45.03184" lon="8.0670233"><ele>204.0</ele><time>2026-04-19T13:30:25.01Z</time></trkpt><trkpt lat="45.0317517" lon="8.0669833"><ele>204.0</ele><time>2026-04-19T13:30:26.01Z</time></trkpt><trkpt lat="45.0316517" lon="8.0669467"><ele>204.0</ele><time>2026-04-19T13:30:27.009Z</time></trkpt><trkpt lat="45.0315567" lon="8.0669267"><ele>204.0</ele><time>2026-04-19T13:30:28.01Z</time></trkpt><trkpt lat="45.03146" lon="8.066915"><ele>204.0</ele><time>2026-04-19T13:30:29.009Z</time></trkpt><trkpt lat="45.031365" lon="8.06691"><ele>204.39999999999998</ele><time>2026-04-19T13:30:30.01Z</time></trkpt><trkpt lat="45.03126" lon="8.0669017"><ele>204.8</ele><time>2026-04-19T13:30:31.009Z</time></trkpt><trkpt lat="45.0311517" lon="8.06691"><ele>205.2</ele><time>2026-04-19T13:30:32.009Z</time></trkpt><trkpt lat="45.0310667" lon="8.0669183"><ele>205.60000000000002</ele><time>2026-04-19T13:30:33.009Z</time></trkpt><trkpt lat="45.0309617" lon="8.0669083"><ele>206.0</ele><time>2026-04-19T13:30:34.009Z</time></trkpt><trkpt lat="45.030855" lon="8.0668983"><ele>206.60000000000002</ele><time>2026-04-19T13:30:35.01Z</time></trkpt><trkpt lat="45.0307533" lon="8.0668867"><ele>207.2</ele><time>2026-04-19T13:30:36.01Z</time></trkpt><trkpt lat="45.03064" lon="8.066855"><ele>207.8</ele><time>2026-04-19T13:30:37.009Z</time></trkpt><trkpt lat="45.0305267" lon="8.0668217"><ele>208.39999999999998</ele><time>2026-04-19T13:30:38.01Z</time></trkpt><trkpt lat="45.0304233" lon="8.0667717"><ele>209.0</ele><time>2026-04-19T13:30:39.01Z</time></trkpt><trkpt lat="45.0303217" lon="8.0667333"><ele>209.0</ele><time>2026-04-19T13:30:40.009Z</time></trkpt><trkpt lat="45.0302267" lon="8.066695"><ele>209.0</ele><time>2026-04-19T13:30:41.01Z</time></trkpt><trkpt lat="45.0301233" lon="8.0666433"><ele>209.0</ele><time>2026-04-19T13:30:42.01Z</time></trkpt><trkpt lat="45.030005" lon="8.06659"><ele>209.0</ele><time>2026-04-19T13:30:43.01Z</time></trkpt><trkpt lat="45.0298883" lon="8.0665367"><ele>208.2</ele><time>2026-04-19T13:30:44.01Z</time></trkpt><trkpt lat="45.02978" lon="8.0664967"><ele>207.39999999999998</ele><time>2026-04-19T13:30:45.01Z</time></trkpt><trkpt lat="45.0296833" lon="8.0664567"><ele>206.6</ele><time>2026-04-19T13:30:46.01Z</time></trkpt><trkpt lat="45.0295867" lon="8.0664283"><ele>205.8</ele><time>2026-04-19T13:30:47.01Z</time></trkpt><trkpt lat="45.0294783" lon="8.0664017"><ele>205.0</ele><time>2026-04-19T13:30:48.009Z</time></trkpt><trkpt lat="45.0293733" lon="8.0663833"><ele>204.99999999999997</ele><time>2026-04-19T13:30:49.009Z</time></trkpt><trkpt lat="45.029275" lon="8.0663667"><ele>205.0</ele><time>2026-04-19T13:30:50.009Z</time></trkpt><trkpt lat="45.0291883" lon="8.06635"><ele>205.0</ele><time>2026-04-19T13:30:51.01Z</time></trkpt><trkpt lat="45.0291133" lon="8.0663267"><ele>205.0</ele><time>2026-04-19T13:30:52.01Z</time></trkpt><trkpt lat="45.0290417" lon="8.066305"><ele>204.99999999999997</ele><time>2026-04-19T13:30:53.009Z</time></trkpt><trkpt lat="45.0289717" lon="8.0662833"><ele>205.0</ele><time>2026-04-19T13:30:54.01Z</time></trkpt><trkpt lat="45.0288833" lon="8.0662617"><ele>204.8</ele><time>2026-04-19T13:30:55.009Z</time></trkpt><trkpt lat="45.0287983" lon="8.0662283"><ele>204.6</ele><time>2026-04-19T13:30:56.01Z</time></trkpt><trkpt lat="45.0287" lon="8.0661917"><ele>204.39999999999998</ele><time>2026-04-19T13:30:57.01Z</time></trkpt><trkpt lat="45.0285933" lon="8.066155"><ele>204.2</ele><time>2026-04-19T13:30:58.01Z</time></trkpt><trkpt lat="45.0284917" lon="8.0661267"><ele>204.0</ele><time>2026-04-19T13:30:59.01Z</time></trkpt><trkpt lat="45.0283783" lon="8.0661117"><ele>203.75</ele><time>2026-04-19T13:31:00.01Z</time></trkpt><trkpt lat="45.0282617" lon="8.0660833"><ele>203.5</ele><time>2026-04-19T13:31:01.009Z</time></trkpt><trkpt lat="45.028145" lon="8.0660583"><ele>203.25</ele><time>2026-04-19T13:31:02.01Z</time></trkpt><trkpt lat="45.0280317" lon="8.066025"><ele>203.0</ele><time>2026-04-19T13:31:03.009Z</time></trkpt><trkpt lat="45.027925" lon="8.0659867"><ele>203.0</ele><time>2026-04-19T13:31:04.01Z</time></trkpt><trkpt lat="45.0278283" lon="8.06596"><ele>203.0</ele><time>2026-04-19T13:31:05.009Z</time></trkpt><trkpt lat="45.0277267" lon="8.0659317"><ele>203.0</ele><time>2026-04-19T13:31:06.01Z</time></trkpt><trkpt lat="45.0276283" lon="8.0658967"><ele>203.0</ele><time>2026-04-19T13:31:07.01Z</time></trkpt><trkpt lat="45.0275567" lon="8.0658683"><ele>203.0</ele><time>2026-04-19T13:31:08.009Z</time></trkpt><trkpt lat="45.027455" lon="8.0658417"><ele>203.4</ele><time>2026-04-19T13:31:10.01Z</time></trkpt><trkpt lat="45.0273917" lon="8.06586"><ele>203.8</ele><time>2026-04-19T13:31:11.009Z</time></trkpt><trkpt lat="45.0273133" lon="8.065895"><ele>204.2</ele><time>2026-04-19T13:31:12.01Z</time></trkpt><trkpt lat="45.02722" lon="8.065935"><ele>204.6</ele><time>2026-04-19T13:31:13.01Z</time></trkpt><trkpt lat="45.0271333" lon="8.0659767"><ele>205.0</ele><time>2026-04-19T13:31:14.009Z</time></trkpt><trkpt lat="45.027025" lon="8.06603"><ele>205.0</ele><time>2026-04-19T13:31:15.01Z</time></trkpt><trkpt lat="45.026925" lon="8.0660733"><ele>205.0</ele><time>2026-04-19T13:31:16.009Z</time></trkpt><trkpt lat="45.0268167" lon="8.0661117"><ele>205.0</ele><time>2026-04-19T13:31:17.009Z</time></trkpt><trkpt lat="45.0266967" lon="8.0661517"><ele>205.0</ele><time>2026-04-19T13:31:18.01Z</time></trkpt><trkpt lat="45.02657" lon="8.0661817"><ele>204.75</ele><time>2026-04-19T13:31:19.01Z</time></trkpt><trkpt lat="45.0264383" lon="8.0662083"><ele>204.5</ele><time>2026-04-19T13:31:20.009Z</time></trkpt><trkpt lat="45.0263133" lon="8.0662367"><ele>204.25</ele><time>2026-04-19T13:31:21.009Z</time></trkpt><trkpt lat="45.02621" lon="8.066275"><ele>204.0</ele><time>2026-04-19T13:31:22.009Z</time></trkpt><trkpt lat="45.0261033" lon="8.0663133"><ele>204.0</ele><time>2026-04-19T13:31:23.009Z</time></trkpt><trkpt lat="45.0260033" lon="8.066355"><ele>204.0</ele><time>2026-04-19T13:31:24.01Z</time></trkpt><trkpt lat="45.0259117" lon="8.0663967"><ele>204.0</ele><time>2026-04-19T13:31:25.009Z</time></trkpt><trkpt lat="45.0258117" lon="8.066395"><ele>204.0</ele><time>2026-04-19T13:31:26.009Z</time></trkpt><trkpt lat="45.0257267" lon="8.0663817"><ele>204.0</ele><time>2026-04-19T13:31:27.009Z</time></trkpt><trkpt lat="45.02565" lon="8.0663667"><ele>203.66666666666666</ele><time>2026-04-19T13:31:28.009Z</time></trkpt><trkpt lat="45.0255567" lon="8.0663067"><ele>203.33333333333331</ele><time>2026-04-19T13:31:30.009Z</time></trkpt><trkpt lat="45.02546" lon="8.0662767"><ele>203.0</ele><time>2026-04-19T13:31:32.009Z</time></trkpt><trkpt lat="45.0253983" lon="8.0663133"><ele>202.66666666666666</ele><time>2026-04-19T13:31:33.009Z</time></trkpt><trkpt lat="45.025335" lon="8.0663967"><ele>202.33333333333331</ele><time>2026-04-19T13:31:34.009Z</time></trkpt><trkpt lat="45.0252683" lon="8.06649"><ele>202.0</ele><time>2026-04-19T13:31:35.01Z</time></trkpt><trkpt lat="45.0251933" lon="8.06658"><ele>203.25</ele><time>2026-04-19T13:31:36.01Z</time></trkpt><trkpt lat="45.0250983" lon="8.06666"><ele>204.5</ele><time>2026-04-19T13:31:37.01Z</time></trkpt><trkpt lat="45.0249883" lon="8.0667483"><ele>205.75</ele><time>2026-04-19T13:31:38.009Z</time></trkpt><trkpt lat="45.0248783" lon="8.0668483"><ele>207.0</ele><time>2026-04-19T13:31:39.009Z</time></trkpt><trkpt lat="45.02476" lon="8.0669517"><ele>208.0</ele><time>2026-04-19T13:31:40.01Z</time></trkpt><trkpt lat="45.0246333" lon="8.0670533"><ele>209.0</ele><time>2026-04-19T13:31:41.009Z</time></trkpt><trkpt lat="45.0244917" lon="8.0671367"><ele>210.0</ele><time>2026-04-19T13:31:42.009Z</time></trkpt><trkpt lat="45.0243433" lon="8.0672117"><ele>210.0</ele><time>2026-04-19T13:31:43.009Z</time></trkpt><trkpt lat="45.02419" lon="8.0672883"><ele>210.0</ele><time>2026-04-19T13:31:44.009Z</time></trkpt><trkpt lat="45.0240333" lon="8.067365"><ele>210.0</ele><time>2026-04-19T13:31:45.009Z</time></trkpt><trkpt lat="45.0238783" lon="8.067445"><ele>208.33333333333331</ele><time>2026-04-19T13:31:46.01Z</time></trkpt><trkpt lat="45.0237333" lon="8.0675183"><ele>206.66666666666666</ele><time>2026-04-19T13:31:47.01Z</time></trkpt><trkpt lat="45.0235583" lon="8.0675783"><ele>205.0</ele><time>2026-04-19T13:31:48.009Z</time></trkpt><trkpt lat="45.023385" lon="8.0676367"><ele>204.66666666666666</ele><time>2026-04-19T13:31:49.009Z</time></trkpt><trkpt lat="45.0232117" lon="8.0676833"><ele>204.33333333333331</ele><time>2026-04-19T13:31:50.009Z</time></trkpt><trkpt lat="45.023035" lon="8.0677167"><ele>204.0</ele><time>2026-04-19T13:31:51.01Z</time></trkpt><trkpt lat="45.0228583" lon="8.0677433"><ele>204.0</ele><time>2026-04-19T13:31:52.009Z</time></trkpt><trkpt lat="45.0226767" lon="8.0677517"><ele>204.0</ele><time>2026-04-19T13:31:53.009Z</time></trkpt><trkpt lat="45.0224917" lon="8.0677567"><ele>204.0</ele><time>2026-04-19T13:31:54.01Z</time></trkpt><trkpt lat="45.022305" lon="8.0677583"><ele>203.33333333333331</ele><time>2026-04-19T13:31:55.01Z</time></trkpt><trkpt lat="45.0221233" lon="8.0677483"><ele>202.66666666666666</ele><time>2026-04-19T13:31:56.009Z</time></trkpt><trkpt lat="45.0219517" lon="8.067695"><ele>202.0</ele><time>2026-04-19T13:31:57.009Z</time></trkpt><trkpt lat="45.0217683" lon="8.0676417"><ele>201.66666666666666</ele><time>2026-04-19T13:31:58.009Z</time></trkpt><trkpt lat="45.0215833" lon="8.067575"><ele>201.33333333333331</ele><time>2026-04-19T13:31:59.01Z</time></trkpt><trkpt lat="45.0214083" lon="8.0674983"><ele>201.0</ele><time>2026-04-19T13:32:00.01Z</time></trkpt><trkpt lat="45.0212283" lon="8.06742"><ele>201.0</ele><time>2026-04-19T13:32:01.01Z</time></trkpt><trkpt lat="45.0210467" lon="8.06733"><ele>201.0</ele><time>2026-04-19T13:32:02.009Z</time></trkpt><trkpt lat="45.02086" lon="8.0672317"><ele>201.0</ele><time>2026-04-19T13:32:03.009Z</time></trkpt><trkpt lat="45.0206833" lon="8.0671217"><ele>201.33333333333331</ele><time>2026-04-19T13:32:04.009Z</time></trkpt><trkpt lat="45.0205183" lon="8.0669867"><ele>201.66666666666666</ele><time>2026-04-19T13:32:05.01Z</time></trkpt><trkpt lat="45.0203433" lon="8.066855"><ele>202.0</ele><time>2026-04-19T13:32:06.009Z</time></trkpt><trkpt lat="45.0201717" lon="8.066705"><ele>200.33333333333331</ele><time>2026-04-19T13:32:07.009Z</time></trkpt><trkpt lat="45.0200017" lon="8.0665517"><ele>198.66666666666669</ele><time>2026-04-19T13:32:08.01Z</time></trkpt><trkpt lat="45.0198283" lon="8.06639"><ele>197.0</ele><time>2026-04-19T13:32:09.01Z</time></trkpt><trkpt lat="45.01966" lon="8.0662417"><ele>197.0</ele><time>2026-04-19T13:32:10.01Z</time></trkpt><trkpt lat="45.0194833" lon="8.0660967"><ele>197.0</ele><time>2026-04-19T13:32:11.009Z</time></trkpt><trkpt lat="45.0193233" lon="8.0659617"><ele>197.0</ele><time>2026-04-19T13:32:12.009Z</time></trkpt><trkpt lat="45.01918" lon="8.0658533"><ele>198.33333333333334</ele><time>2026-04-19T13:32:13.009Z</time></trkpt><trkpt lat="45.01903" lon="8.0657733"><ele>199.66666666666669</ele><time>2026-04-19T13:32:14.01Z</time></trkpt><trkpt lat="45.0188867" lon="8.065705"><ele>201.0</ele><time>2026-04-19T13:32:15.009Z</time></trkpt><trkpt lat="45.0187517" lon="8.0656433"><ele>201.0</ele><time>2026-04-19T13:32:16.009Z</time></trkpt><trkpt lat="45.0186217" lon="8.0656033"><ele>201.0</ele><time>2026-04-19T13:32:17.009Z</time></trkpt><trkpt lat="45.0184933" lon="8.0655667"><ele>201.0</ele><time>2026-04-19T13:32:18.009Z</time></trkpt><trkpt lat="45.01838" lon="8.0655333"><ele>201.0</ele><time>2026-04-19T13:32:19.01Z</time></trkpt><trkpt lat="45.0182817" lon="8.0654967"><ele>200.5</ele><time>2026-04-19T13:32:20.009Z</time></trkpt><trkpt lat="45.018195" lon="8.06542"><ele>200.0</ele><time>2026-04-19T13:32:21.009Z</time></trkpt><trkpt lat="45.0181267" lon="8.0652917"><ele>199.5</ele><time>2026-04-19T13:32:22.009Z</time></trkpt><trkpt lat="45.0180683" lon="8.065105"><ele>199.0</ele><time>2026-04-19T13:32:23.01Z</time></trkpt><trkpt lat="45.0180317" lon="8.0649033"><ele>199.0</ele><time>2026-04-19T13:32:24.01Z</time></trkpt><trkpt lat="45.017995" lon="8.0647"><ele>199.0</ele><time>2026-04-19T13:32:25.009Z</time></trkpt><trkpt lat="45.017965" lon="8.064505"><ele>199.0</ele><time>2026-04-19T13:32:26.009Z</time></trkpt><trkpt lat="45.01793" lon="8.0643117"><ele>199.0</ele><time>2026-04-19T13:32:27.01Z</time></trkpt><trkpt lat="45.01789" lon="8.0641217"><ele>199.66666666666666</ele><time>2026-04-19T13:32:28.009Z</time></trkpt><trkpt lat="45.01784" lon="8.063925"><ele>200.33333333333331</ele><time>2026-04-19T13:32:29.009Z</time></trkpt><trkpt lat="45.0177683" lon="8.063725"><ele>201.0</ele><time>2026-04-19T13:32:30.01Z</time></trkpt><trkpt lat="45.0176833" lon="8.0635383"><ele>201.0</ele><time>2026-04-19T13:32:31.01Z</time></trkpt><trkpt lat="45.01758" lon="8.063365"><ele>201.0</ele><time>2026-04-19T13:32:32.01Z</time></trkpt><trkpt lat="45.0174533" lon="8.0632217"><ele>201.0</ele><time>2026-04-19T13:32:33.01Z</time></trkpt><trkpt lat="45.0173083" lon="8.0631017"><ele>200.66666666666669</ele><time>2026-04-19T13:32:34.01Z</time></trkpt><trkpt lat="45.0171517" lon="8.0630067"><ele>200.33333333333334</ele><time>2026-04-19T13:32:35.01Z</time></trkpt><trkpt lat="45.016975" lon="8.062935"><ele>200.0</ele><time>2026-04-19T13:32:36.01Z</time></trkpt><trkpt lat="45.0167933" lon="8.0629017"><ele>200.33333333333334</ele><time>2026-04-19T13:32:37.01Z</time></trkpt><trkpt lat="45.0166033" lon="8.0628817"><ele>200.66666666666669</ele><time>2026-04-19T13:32:38.01Z</time></trkpt><trkpt lat="45.016405" lon="8.0628633"><ele>201.0</ele><time>2026-04-19T13:32:39.009Z</time></trkpt><trkpt lat="45.0162" lon="8.0628517"><ele>201.0</ele><time>2026-04-19T13:32:40.009Z</time></trkpt><trkpt lat="45.0159933" lon="8.06284"><ele>201.0</ele><time>2026-04-19T13:32:41.01Z</time></trkpt><trkpt lat="45.0157883" lon="8.0628233"><ele>201.0</ele><time>2026-04-19T13:32:42.009Z</time></trkpt><trkpt lat="45.0155883" lon="8.0628067"><ele>201.33333333333331</ele><time>2026-04-19T13:32:43.009Z</time></trkpt><trkpt lat="45.01539" lon="8.0627983"><ele>201.66666666666666</ele><time>2026-04-19T13:32:44.01Z</time></trkpt><trkpt lat="45.0151983" lon="8.0627783"><ele>202.0</ele><time>2026-04-19T13:32:45.009Z</time></trkpt><trkpt lat="45.0149967" lon="8.0627533"><ele>201.0</ele><time>2026-04-19T13:32:46.01Z</time></trkpt><trkpt lat="45.01481" lon="8.062715"><ele>200.0</ele><time>2026-04-19T13:32:47.01Z</time></trkpt><trkpt lat="45.0146033" lon="8.0626767"><ele>199.0</ele><time>2026-04-19T13:32:48.01Z</time></trkpt><trkpt lat="45.0144" lon="8.062615"><ele>199.0</ele><time>2026-04-19T13:32:49.01Z</time></trkpt><trkpt lat="45.0142" lon="8.062565"><ele>199.0</ele><time>2026-04-19T13:32:50.01Z</time></trkpt><trkpt lat="45.01399" lon="8.0625133"><ele>199.0</ele><time>2026-04-19T13:32:51.009Z</time></trkpt><trkpt lat="45.0137833" lon="8.0624667"><ele>202.0</ele><time>2026-04-19T13:32:52.009Z</time></trkpt><trkpt lat="45.0135733" lon="8.0624133"><ele>205.0</ele><time>2026-04-19T13:32:53.009Z</time></trkpt><trkpt lat="45.013355" lon="8.0623567"><ele>208.0</ele><time>2026-04-19T13:32:54.009Z</time></trkpt><trkpt lat="45.0131383" lon="8.0623017"><ele>207.66666666666666</ele><time>2026-04-19T13:32:55.009Z</time></trkpt><trkpt lat="45.0129183" lon="8.0622633"><ele>207.33333333333331</ele><time>2026-04-19T13:32:56.01Z</time></trkpt><trkpt lat="45.012695" lon="8.06222"><ele>207.0</ele><time>2026-04-19T13:32:57.009Z</time></trkpt><trkpt lat="45.0124833" lon="8.062165"><ele>207.0</ele><time>2026-04-19T13:32:58.009Z</time></trkpt><trkpt lat="45.0122617" lon="8.0621133"><ele>207.0</ele><time>2026-04-19T13:32:59.009Z</time></trkpt><trkpt lat="45.0120467" lon="8.0620533"><ele>207.0</ele><time>2026-04-19T13:33:00.009Z</time></trkpt><trkpt lat="45.0118267" lon="8.0619917"><ele>204.66666666666669</ele><time>2026-04-19T13:33:01.009Z</time></trkpt><trkpt lat="45.01162" lon="8.0619133"><ele>202.33333333333334</ele><time>2026-04-19T13:33:02.01Z</time></trkpt><trkpt lat="45.0114" lon="8.0618483"><ele>200.0</ele><time>2026-04-19T13:33:03.01Z</time></trkpt><trkpt lat="45.0111883" lon="8.0617767"><ele>200.0</ele><time>2026-04-19T13:33:04.009Z</time></trkpt><trkpt lat="45.0109867" lon="8.0616967"><ele>200.0</ele><time>2026-04-19T13:33:05.009Z</time></trkpt><trkpt lat="45.0107917" lon="8.0616117"><ele>200.0</ele><time>2026-04-19T13:33:06.009Z</time></trkpt><trkpt lat="45.010595" lon="8.0615333"><ele>201.33333333333334</ele><time>2026-04-19T13:33:07.009Z</time></trkpt><trkpt lat="45.010405" lon="8.0614683"><ele>202.66666666666669</ele><time>2026-04-19T13:33:08.01Z</time></trkpt><trkpt lat="45.0102117" lon="8.0614017"><ele>204.0</ele><time>2026-04-19T13:33:09.009Z</time></trkpt><trkpt lat="45.01001" lon="8.0613417"><ele>201.33333333333331</ele><time>2026-04-19T13:33:10.01Z</time></trkpt><trkpt lat="45.0098133" lon="8.0612717"><ele>198.66666666666666</ele><time>2026-04-19T13:33:11.01Z</time></trkpt><trkpt lat="45.00961" lon="8.0612"><ele>196.0</ele><time>2026-04-19T13:33:12.01Z</time></trkpt><trkpt lat="45.0094067" lon="8.0611367"><ele>196.0</ele><time>2026-04-19T13:33:13.01Z</time></trkpt><trkpt lat="45.0091983" lon="8.06111"><ele>196.0</ele><time>2026-04-19T13:33:14.009Z</time></trkpt><trkpt lat="45.0089933" lon="8.0611133"><ele>196.0</ele><time>2026-04-19T13:33:15.009Z</time></trkpt><trkpt lat="45.0087867" lon="8.0611333"><ele>197.0</ele><time>2026-04-19T13:33:16.009Z</time></trkpt><trkpt lat="45.0085867" lon="8.0611533"><ele>198.0</ele><time>2026-04-19T13:33:17.01Z</time></trkpt><trkpt lat="45.0083833" lon="8.0611833"><ele>199.0</ele><time>2026-04-19T13:33:18.01Z</time></trkpt><trkpt lat="45.00819" lon="8.0612217"><ele>199.0</ele><time>2026-04-19T13:33:19.009Z</time></trkpt><trkpt lat="45.00799" lon="8.0612517"><ele>199.0</ele><time>2026-04-19T13:33:20.01Z</time></trkpt><trkpt lat="45.0077917" lon="8.0612767"><ele>199.0</ele><time>2026-04-19T13:33:21.009Z</time></trkpt><trkpt lat="45.0075833" lon="8.0612683"><ele>198.33333333333331</ele><time>2026-04-19T13:33:22.009Z</time></trkpt><trkpt lat="45.0073817" lon="8.0612233"><ele>197.66666666666669</ele><time>2026-04-19T13:33:23.009Z</time></trkpt><trkpt lat="45.0071967" lon="8.0611583"><ele>197.0</ele><time>2026-04-19T13:33:24.01Z</time></trkpt><trkpt lat="45.00701" lon="8.061085"><ele>197.0</ele><time>2026-04-19T13:33:25.01Z</time></trkpt><trkpt lat="45.006825" lon="8.0610233"><ele>197.0</ele><time>2026-04-19T13:33:26.009Z</time></trkpt><trkpt lat="45.0066183" lon="8.0609933"><ele>197.0</ele><time>2026-04-19T13:33:27.009Z</time></trkpt><trkpt lat="45.0064133" lon="8.0610017"><ele>197.33333333333334</ele><time>2026-04-19T13:33:28.009Z</time></trkpt><trkpt lat="45.0062083" lon="8.0610467"><ele>197.66666666666669</ele><time>2026-04-19T13:33:29.009Z</time></trkpt><trkpt lat="45.0060067" lon="8.061105"><ele>198.0</ele><time>2026-04-19T13:33:30.01Z</time></trkpt><trkpt lat="45.00581" lon="8.06116"><ele>198.0</ele><time>2026-04-19T13:33:31.009Z</time></trkpt><trkpt lat="45.0056217" lon="8.0612183"><ele>198.0</ele><time>2026-04-19T13:33:32.009Z</time></trkpt><trkpt lat="45.0054367" lon="8.0612717"><ele>198.0</ele><time>2026-04-19T13:33:33.01Z</time></trkpt><trkpt lat="45.00526" lon="8.0613183"><ele>198.0</ele><time>2026-04-19T13:33:34.01Z</time></trkpt><trkpt lat="45.005085" lon="8.0613767"><ele>198.0</ele><time>2026-04-19T13:33:35.009Z</time></trkpt><trkpt lat="45.004905" lon="8.061415"><ele>198.0</ele><time>2026-04-19T13:33:36.009Z</time></trkpt><trkpt lat="45.00472" lon="8.0614133"><ele>198.0</ele><time>2026-04-19T13:33:37.009Z</time></trkpt><trkpt lat="45.00453" lon="8.06139"><ele>198.0</ele><time>2026-04-19T13:33:38.009Z</time></trkpt><trkpt lat="45.0043433" lon="8.06134"><ele>198.0</ele><time>2026-04-19T13:33:39.009Z</time></trkpt><trkpt lat="45.0041533" lon="8.0612783"><ele>198.0</ele><time>2026-04-19T13:33:40.009Z</time></trkpt><trkpt lat="45.0039667" lon="8.06121"><ele>198.0</ele><time>2026-04-19T13:33:41.009Z</time></trkpt><trkpt lat="45.0037783" lon="8.061135"><ele>198.0</ele><time>2026-04-19T13:33:42.01Z</time></trkpt><trkpt lat="45.0035933" lon="8.061045"><ele>198.0</ele><time>2026-04-19T13:33:43.01Z</time></trkpt><trkpt lat="45.003405" lon="8.0609467"><ele>198.0</ele><time>2026-04-19T13:33:44.01Z</time></trkpt><trkpt lat="45.0032183" lon="8.0608517"><ele>198.0</ele><time>2026-04-19T13:33:45.009Z</time></trkpt><trkpt lat="45.0030283" lon="8.0607417"><ele>196.66666666666669</ele><time>2026-04-19T13:33:46.01Z</time></trkpt><trkpt lat="45.0028367" lon="8.06064"><ele>195.33333333333334</ele><time>2026-04-19T13:33:47.01Z</time></trkpt><trkpt lat="45.0026533" lon="8.060555"><ele>194.0</ele><time>2026-04-19T13:33:48.01Z</time></trkpt><trkpt lat="45.002475" lon="8.06045"><ele>194.0</ele><time>2026-04-19T13:33:49.01Z</time></trkpt><trkpt lat="45.00229" lon="8.0603583"><ele>194.0</ele><time>2026-04-19T13:33:50.009Z</time></trkpt><trkpt lat="45.0021033" lon="8.06026"><ele>194.0</ele><time>2026-04-19T13:33:51.009Z</time></trkpt><trkpt lat="45.001915" lon="8.0601633"><ele>194.0</ele><time>2026-04-19T13:33:52.009Z</time></trkpt><trkpt lat="45.0017317" lon="8.0600733"><ele>194.0</ele><time>2026-04-19T13:33:53.01Z</time></trkpt><trkpt lat="45.001535" lon="8.0599783"><ele>194.0</ele><time>2026-04-19T13:33:54.009Z</time></trkpt><trkpt lat="45.0013567" lon="8.0598767"><ele>194.66666666666669</ele><time>2026-04-19T13:33:55.009Z</time></trkpt><trkpt lat="45.00119" lon="8.059785"><ele>195.33333333333331</ele><time>2026-04-19T13:33:56.009Z</time></trkpt><trkpt lat="45.0010117" lon="8.0597033"><ele>196.0</ele><time>2026-04-19T13:33:57.009Z</time></trkpt><trkpt lat="45.0008383" lon="8.05963"><ele>198.66666666666666</ele><time>2026-04-19T13:33:58.009Z</time></trkpt><trkpt lat="45.0006467" lon="8.05957"><ele>201.33333333333331</ele><time>2026-04-19T13:33:59.009Z</time></trkpt><trkpt lat="45.0004533" lon="8.0595583"><ele>204.0</ele><time>2026-04-19T13:34:00.01Z</time></trkpt><trkpt lat="45.0002483" lon="8.059545"><ele>204.0</ele><time>2026-04-19T13:34:01.009Z</time></trkpt><trkpt lat="45.0000417" lon="8.05956"><ele>204.0</ele><time>2026-04-19T13:34:02.009Z</time></trkpt><trkpt lat="44.9998333" lon="8.0595917"><ele>204.0</ele><time>2026-04-19T13:34:03.009Z</time></trkpt><trkpt lat="44.99963" lon="8.059655"><ele>204.0</ele><time>2026-04-19T13:34:04.009Z</time></trkpt><trkpt lat="44.9994233" lon="8.0597167"><ele>204.0</ele><time>2026-04-19T13:34:05.009Z</time></trkpt><trkpt lat="44.9992117" lon="8.0597417"><ele>204.0</ele><time>2026-04-19T13:34:06.01Z</time></trkpt><trkpt lat="44.99901" lon="8.0597733"><ele>202.0</ele><time>2026-04-19T13:34:07.009Z</time></trkpt><trkpt lat="44.9988" lon="8.0598017"><ele>200.0</ele><time>2026-04-19T13:34:08.009Z</time></trkpt><trkpt lat="44.9986233" lon="8.0598317"><ele>198.0</ele><time>2026-04-19T13:34:09.01Z</time></trkpt><trkpt lat="44.9984917" lon="8.0598483"><ele>198.0</ele><time>2026-04-19T13:34:10.01Z</time></trkpt><trkpt lat="44.9983933" lon="8.0598567"><ele>198.0</ele><time>2026-04-19T13:34:11.009Z</time></trkpt><trkpt lat="44.9983233" lon="8.0598367"><ele>198.0</ele><time>2026-04-19T13:34:12.009Z</time></trkpt><trkpt lat="44.9982717" lon="8.05978"><ele>198.0</ele><time>2026-04-19T13:34:13.009Z</time></trkpt><trkpt lat="44.99823" lon="8.0596817"><ele>198.0</ele><time>2026-04-19T13:34:14.01Z</time></trkpt><trkpt lat="44.99821" lon="8.0595317"><ele>198.0</ele><time>2026-04-19T13:34:15.009Z</time></trkpt><trkpt lat="44.9982283" lon="8.05936"><ele>197.5</ele><time>2026-04-19T13:34:16.009Z</time></trkpt><trkpt lat="44.9982583" lon="8.0591567"><ele>197.0</ele><time>2026-04-19T13:34:17.01Z</time></trkpt><trkpt lat="44.9982883" lon="8.0589617"><ele>196.5</ele><time>2026-04-19T13:34:18.009Z</time></trkpt><trkpt lat="44.998305" lon="8.058775"><ele>196.0</ele><time>2026-04-19T13:34:19.009Z</time></trkpt><trkpt lat="44.9983067" lon="8.0585817"><ele>196.0</ele><time>2026-04-19T13:34:20.01Z</time></trkpt><trkpt lat="44.998295" lon="8.0583867"><ele>196.0</ele><time>2026-04-19T13:34:21.009Z</time></trkpt><trkpt lat="44.9982717" lon="8.0581883"><ele>196.0</ele><time>2026-04-19T13:34:22.009Z</time></trkpt><trkpt lat="44.998245" lon="8.0579833"><ele>196.0</ele><time>2026-04-19T13:34:23.01Z</time></trkpt><trkpt lat="44.9982433" lon="8.0577667"><ele>197.25</ele><time>2026-04-19T13:34:24.009Z</time></trkpt><trkpt lat="44.9982717" lon="8.0575717"><ele>198.5</ele><time>2026-04-19T13:34:25.009Z</time></trkpt><trkpt lat="44.998335" lon="8.057385"><ele>199.75</ele><time>2026-04-19T13:34:26.009Z</time></trkpt><trkpt lat="44.998415" lon="8.057215"><ele>201.0</ele><time>2026-04-19T13:34:27.01Z</time></trkpt><trkpt lat="44.998495" lon="8.0570367"><ele>208.33333333333331</ele><time>2026-04-19T13:34:28.01Z</time></trkpt><trkpt lat="44.998595" lon="8.0568483"><ele>215.66666666666666</ele><time>2026-04-19T13:34:29.009Z</time></trkpt><trkpt lat="44.9986783" lon="8.05666"><ele>223.0</ele><time>2026-04-19T13:34:30.01Z</time></trkpt><trkpt lat="44.998745" lon="8.0564767"><ele>223.0</ele><time>2026-04-19T13:34:31.01Z</time></trkpt><trkpt lat="44.9988117" lon="8.0562983"><ele>223.0</ele><time>2026-04-19T13:34:32.009Z</time></trkpt><trkpt lat="44.99888" lon="8.05611"><ele>223.0</ele><time>2026-04-19T13:34:33.01Z</time></trkpt><trkpt lat="44.99895" lon="8.055935"><ele>223.0</ele><time>2026-04-19T13:34:34.009Z</time></trkpt><trkpt lat="44.9990233" lon="8.0557567"><ele>221.5</ele><time>2026-04-19T13:34:35.01Z</time></trkpt><trkpt lat="44.9991167" lon="8.0556033"><ele>220.0</ele><time>2026-04-19T13:34:36.009Z</time></trkpt><trkpt lat="44.9992083" lon="8.0554683"><ele>218.5</ele><time>2026-04-19T13:34:37.009Z</time></trkpt><trkpt lat="44.9993267" lon="8.0553283"><ele>217.0</ele><time>2026-04-19T13:34:38.01Z</time></trkpt><trkpt lat="44.9994483" lon="8.0552017"><ele>219.25</ele><time>2026-04-19T13:34:39.01Z</time></trkpt><trkpt lat="44.999565" lon="8.05507"><ele>221.5</ele><time>2026-04-19T13:34:40.009Z</time></trkpt><trkpt lat="44.999665" lon="8.0549333"><ele>223.75</ele><time>2026-04-19T13:34:41.01Z</time></trkpt><trkpt lat="44.9997583" lon="8.0547983"><ele>226.0</ele><time>2026-04-19T13:34:42.01Z</time></trkpt><trkpt lat="44.9998317" lon="8.0546683"><ele>226.0</ele><time>2026-04-19T13:34:43.009Z</time></trkpt><trkpt lat="44.9998733" lon="8.0545233"><ele>226.00000000000003</ele><time>2026-04-19T13:34:44.01Z</time></trkpt><trkpt lat="44.9998567" lon="8.0543733"><ele>226.00000000000003</ele><time>2026-04-19T13:34:45.01Z</time></trkpt><trkpt lat="44.999805" lon="8.0542467"><ele>226.0</ele><time>2026-04-19T13:34:46.01Z</time></trkpt><trkpt lat="44.9997333" lon="8.0541533"><ele>226.0</ele><time>2026-04-19T13:34:47.009Z</time></trkpt><trkpt lat="44.9996317" lon="8.0540767"><ele>228.0</ele><time>2026-04-19T13:34:48.009Z</time></trkpt><trkpt lat="44.99951" lon="8.0539817"><ele>230.0</ele><time>2026-04-19T13:34:49.009Z</time></trkpt><trkpt lat="44.9993917" lon="8.05388"><ele>232.0</ele><time>2026-04-19T13:34:50.009Z</time></trkpt><trkpt lat="44.99928" lon="8.0537883"><ele>234.0</ele><time>2026-04-19T13:34:51.009Z</time></trkpt><trkpt lat="44.9991567" lon="8.0537017"><ele>236.25</ele><time>2026-04-19T13:34:52.009Z</time></trkpt><trkpt lat="44.9990567" lon="8.0536283"><ele>238.5</ele><time>2026-04-19T13:34:53.009Z</time></trkpt><trkpt lat="44.99895" lon="8.0535867"><ele>240.75</ele><time>2026-04-19T13:34:54.01Z</time></trkpt><trkpt lat="44.9988333" lon="8.053595"><ele>243.0</ele><time>2026-04-19T13:34:55.01Z</time></trkpt><trkpt lat="44.9987233" lon="8.05364"><ele>243.0</ele><time>2026-04-19T13:34:56.009Z</time></trkpt><trkpt lat="44.9986133" lon="8.0537117"><ele>243.0</ele><time>2026-04-19T13:34:57.01Z</time></trkpt><trkpt lat="44.9985" lon="8.0537733"><ele>243.0</ele><time>2026-04-19T13:34:58.01Z</time></trkpt><trkpt lat="44.9983817" lon="8.053805"><ele>243.0</ele><time>2026-04-19T13:34:59.01Z</time></trkpt><trkpt lat="44.9982433" lon="8.0538117"><ele>244.0</ele><time>2026-04-19T13:35:00.009Z</time></trkpt><trkpt lat="44.998105" lon="8.0538067"><ele>245.0</ele><time>2026-04-19T13:35:01.01Z</time></trkpt><trkpt lat="44.9979567" lon="8.0538017"><ele>246.0</ele><time>2026-04-19T13:35:02.009Z</time></trkpt><trkpt lat="44.9978333" lon="8.0537983"><ele>247.0</ele><time>2026-04-19T13:35:03.009Z</time></trkpt><trkpt lat="44.9977267" lon="8.0537983"><ele>246.99999999999997</ele><time>2026-04-19T13:35:04.01Z</time></trkpt><trkpt lat="44.9976383" lon="8.0537683"><ele>247.0</ele><time>2026-04-19T13:35:05.01Z</time></trkpt><trkpt lat="44.9975617" lon="8.0537"><ele>247.0</ele><time>2026-04-19T13:35:06.01Z</time></trkpt><trkpt lat="44.9975133" lon="8.053615"><ele>247.0</ele><time>2026-04-19T13:35:07.009Z</time></trkpt><trkpt lat="44.99749" lon="8.0535117"><ele>246.99999999999997</ele><time>2026-04-19T13:35:08.009Z</time></trkpt><trkpt lat="44.9974917" lon="8.053385"><ele>247.0</ele><time>2026-04-19T13:35:09.01Z</time></trkpt><trkpt lat="44.9975183" lon="8.0532433"><ele>248.5</ele><time>2026-04-19T13:35:10.01Z</time></trkpt><trkpt lat="44.99757" lon="8.05306"><ele>250.0</ele><time>2026-04-19T13:35:11.009Z</time></trkpt><trkpt lat="44.9976033" lon="8.0528733"><ele>251.5</ele><time>2026-04-19T13:35:12.009Z</time></trkpt><trkpt lat="44.9976283" lon="8.0527133"><ele>253.0</ele><time>2026-04-19T13:35:13.01Z</time></trkpt><trkpt lat="44.997655" lon="8.052565"><ele>251.16666666666666</ele><time>2026-04-19T13:35:14.009Z</time></trkpt><trkpt lat="44.9976567" lon="8.05243"><ele>249.33333333333331</ele><time>2026-04-19T13:35:15.009Z</time></trkpt><trkpt lat="44.997655" lon="8.0523133"><ele>247.5</ele><time>2026-04-19T13:35:16.009Z</time></trkpt><trkpt lat="44.9976917" lon="8.0522033"><ele>245.66666666666669</ele><time>2026-04-19T13:35:17.009Z</time></trkpt><trkpt lat="44.9977533" lon="8.0521283"><ele>243.83333333333334</ele><time>2026-04-19T13:35:18.009Z</time></trkpt><trkpt lat="44.99783" lon="8.0520967"><ele>242.0</ele><time>2026-04-19T13:35:19.01Z</time></trkpt><trkpt lat="44.9979117" lon="8.052115"><ele>242.0</ele><time>2026-04-19T13:35:20.009Z</time></trkpt><trkpt lat="44.998015" lon="8.0521717"><ele>242.0</ele><time>2026-04-19T13:35:21.009Z</time></trkpt><trkpt lat="44.9981283" lon="8.0522717"><ele>242.0</ele><time>2026-04-19T13:35:22.01Z</time></trkpt><trkpt lat="44.99824" lon="8.0523617"><ele>242.0</ele><time>2026-04-19T13:35:23.009Z</time></trkpt><trkpt lat="44.99834" lon="8.052405"><ele>245.39999999999998</ele><time>2026-04-19T13:35:24.009Z</time></trkpt><trkpt lat="44.9984417" lon="8.05241"><ele>248.79999999999998</ele><time>2026-04-19T13:35:25.01Z</time></trkpt><trkpt lat="44.9985483" lon="8.0523967"><ele>252.2</ele><time>2026-04-19T13:35:26.009Z</time></trkpt><trkpt lat="44.9986467" lon="8.05235"><ele>255.6</ele><time>2026-04-19T13:35:27.009Z</time></trkpt><trkpt lat="44.99873" lon="8.0522717"><ele>259.0</ele><time>2026-04-19T13:35:28.009Z</time></trkpt><trkpt lat="44.9988033" lon="8.0521567"><ele>259.0</ele><time>2026-04-19T13:35:29.01Z</time></trkpt><trkpt lat="44.9988783" lon="8.05203"><ele>259.0</ele><time>2026-04-19T13:35:30.009Z</time></trkpt><trkpt lat="44.9989367" lon="8.0518917"><ele>259.0</ele><time>2026-04-19T13:35:31.009Z</time></trkpt><trkpt lat="44.9989817" lon="8.0517567"><ele>259.0</ele><time>2026-04-19T13:35:32.009Z</time></trkpt><trkpt lat="44.9990233" lon="8.0516233"><ele>259.0</ele><time>2026-04-19T13:35:33.01Z</time></trkpt><trkpt lat="44.9990467" lon="8.05149"><ele>258.0</ele><time>2026-04-19T13:35:34.01Z</time></trkpt><trkpt lat="44.9990683" lon="8.0513717"><ele>257.0</ele><time>2026-04-19T13:35:35.01Z</time></trkpt><trkpt lat="44.9990933" lon="8.0512733"><ele>256.0</ele><time>2026-04-19T13:35:36.01Z</time></trkpt><trkpt lat="44.99911" lon="8.051185"><ele>255.0</ele><time>2026-04-19T13:35:37.01Z</time></trkpt><trkpt lat="44.9991717" lon="8.051075"><ele>253.99999999999997</ele><time>2026-04-19T13:35:39.009Z</time></trkpt><trkpt lat="44.9992567" lon="8.050995"><ele>253.0</ele><time>2026-04-19T13:35:41.01Z</time></trkpt><trkpt lat="44.9993383" lon="8.0509783"><ele>253.0</ele><time>2026-04-19T13:35:42.01Z</time></trkpt><trkpt lat="44.9994567" lon="8.050965"><ele>253.0</ele><time>2026-04-19T13:35:43.01Z</time></trkpt><trkpt lat="44.9995733" lon="8.050935"><ele>253.0</ele><time>2026-04-19T13:35:44.01Z</time></trkpt><trkpt lat="44.999695" lon="8.0509167"><ele>253.0</ele><time>2026-04-19T13:35:45.009Z</time></trkpt><trkpt lat="44.9998067" lon="8.0508917"><ele>253.0</ele><time>2026-04-19T13:35:46.009Z</time></trkpt><trkpt lat="44.9999533" lon="8.0509367"><ele>253.0</ele><time>2026-04-19T13:35:47.009Z</time></trkpt><trkpt lat="45.0000533" lon="8.0509167"><ele>253.0</ele><time>2026-04-19T13:35:48.01Z</time></trkpt><trkpt lat="45.0001383" lon="8.0508717"><ele>253.0</ele><time>2026-04-19T13:35:49.009Z</time></trkpt><trkpt lat="45.0002117" lon="8.0508033"><ele>253.0</ele><time>2026-04-19T13:35:50.009Z</time></trkpt><trkpt lat="45.0003017" lon="8.0507267"><ele>251.4</ele><time>2026-04-19T13:35:51.009Z</time></trkpt><trkpt lat="45.0004" lon="8.0506367"><ele>249.8</ele><time>2026-04-19T13:35:52.01Z</time></trkpt><trkpt lat="45.0004733" lon="8.0505217"><ele>248.2</ele><time>2026-04-19T13:35:53.01Z</time></trkpt><trkpt lat="45.00056" lon="8.0504317"><ele>246.6</ele><time>2026-04-19T13:35:54.01Z</time></trkpt><trkpt lat="45.0006267" lon="8.0503533"><ele>245.0</ele><time>2026-04-19T13:35:55.01Z</time></trkpt><trkpt lat="45.0006733" lon="8.0502633"><ele>245.00000000000003</ele><time>2026-04-19T13:35:56.01Z</time></trkpt><trkpt lat="45.0007267" lon="8.0501867"><ele>245.0</ele><time>2026-04-19T13:35:57.01Z</time></trkpt><trkpt lat="45.0007783" lon="8.050095"><ele>245.0</ele><time>2026-04-19T13:35:58.009Z</time></trkpt><trkpt lat="45.000815" lon="8.04998"><ele>245.0</ele><time>2026-04-19T13:35:59.01Z</time></trkpt><trkpt lat="45.00085" lon="8.049875"><ele>245.00000000000003</ele><time>2026-04-19T13:36:00.009Z</time></trkpt><trkpt lat="45.0008917" lon="8.0497733"><ele>245.0</ele><time>2026-04-19T13:36:01.009Z</time></trkpt><trkpt lat="45.000935" lon="8.0497"><ele>245.2</ele><time>2026-04-19T13:36:02.01Z</time></trkpt><trkpt lat="45.0010517" lon="8.0497"><ele>245.4</ele><time>2026-04-19T13:36:04.01Z</time></trkpt><trkpt lat="45.001125" lon="8.0497633"><ele>245.60000000000002</ele><time>2026-04-19T13:36:05.009Z</time></trkpt><trkpt lat="45.0012067" lon="8.049825"><ele>245.8</ele><time>2026-04-19T13:36:06.01Z</time></trkpt><trkpt lat="45.0012867" lon="8.0498433"><ele>246.0</ele><time>2026-04-19T13:36:07.01Z</time></trkpt><trkpt lat="45.00139" lon="8.0498517"><ele>246.0</ele><time>2026-04-19T13:36:08.01Z</time></trkpt><trkpt lat="45.0014883" lon="8.0498383"><ele>246.00000000000003</ele><time>2026-04-19T13:36:09.009Z</time></trkpt><trkpt lat="45.00159" lon="8.0498233"><ele>246.00000000000003</ele><time>2026-04-19T13:36:10.009Z</time></trkpt><trkpt lat="45.0016833" lon="8.049805"><ele>246.0</ele><time>2026-04-19T13:36:11.009Z</time></trkpt><trkpt lat="45.001755" lon="8.0497683"><ele>246.0</ele><time>2026-04-19T13:36:12.01Z</time></trkpt><trkpt lat="45.0018217" lon="8.049665"><ele>246.0</ele><time>2026-04-19T13:36:14.01Z</time></trkpt><trkpt lat="45.0017667" lon="8.0495617"><ele>246.0</ele><time>2026-04-19T13:36:16.009Z</time></trkpt><trkpt lat="45.0016967" lon="8.0495317"><ele>246.0</ele><time>2026-04-19T13:36:17.009Z</time></trkpt><trkpt lat="45.0016067" lon="8.04951"><ele>246.0</ele><time>2026-04-19T13:36:18.009Z</time></trkpt><trkpt lat="45.0015267" lon="8.0494783"><ele>246.0</ele><time>2026-04-19T13:36:19.009Z</time></trkpt><trkpt lat="45.00146" lon="8.049395"><ele>246.0</ele><time>2026-04-19T13:36:20.01Z</time></trkpt><trkpt lat="45.00142" lon="8.0492667"><ele>243.4</ele><time>2026-04-19T13:36:21.01Z</time></trkpt><trkpt lat="45.001405" lon="8.04911"><ele>240.8</ele><time>2026-04-19T13:36:22.01Z</time></trkpt><trkpt lat="45.0014017" lon="8.0489683"><ele>238.20000000000002</ele><time>2026-04-19T13:36:23.01Z</time></trkpt><trkpt lat="45.0014217" lon="8.048855"><ele>235.60000000000002</ele><time>2026-04-19T13:36:24.009Z</time></trkpt><trkpt lat="45.0014667" lon="8.048765"><ele>233.0</ele><time>2026-04-19T13:36:25.009Z</time></trkpt><trkpt lat="45.0015417" lon="8.0487167"><ele>233.0</ele><time>2026-04-19T13:36:26.01Z</time></trkpt><trkpt lat="45.0016383" lon="8.0487033"><ele>233.0</ele><time>2026-04-19T13:36:27.01Z</time></trkpt><trkpt lat="45.001755" lon="8.0487383"><ele>233.0</ele><time>2026-04-19T13:36:28.01Z</time></trkpt><trkpt lat="45.0018433" lon="8.048745"><ele>233.0</ele><time>2026-04-19T13:36:29.009Z</time></trkpt><trkpt lat="45.0019183" lon="8.0486983"><ele>233.0</ele><time>2026-04-19T13:36:30.009Z</time></trkpt><trkpt lat="45.0019733" lon="8.0485567"><ele>233.0</ele><time>2026-04-19T13:36:32.01Z</time></trkpt><trkpt lat="45.0019667" lon="8.048465"><ele>233.0</ele><time>2026-04-19T13:36:33.009Z</time></trkpt><trkpt lat="45.0019217" lon="8.0483533"><ele>233.0</ele><time>2026-04-19T13:36:34.01Z</time></trkpt><trkpt lat="45.0018567" lon="8.0482267"><ele>233.0</ele><time>2026-04-19T13:36:35.01Z</time></trkpt><trkpt lat="45.0017933" lon="8.0480933"><ele>233.0</ele><time>2026-04-19T13:36:36.009Z</time></trkpt><trkpt lat="45.001735" lon="8.0479533"><ele>230.5</ele><time>2026-04-19T13:36:37.01Z</time></trkpt><trkpt lat="45.0016617" lon="8.0478067"><ele>228.0</ele><time>2026-04-19T13:36:38.01Z</time></trkpt><trkpt lat="45.001585" lon="8.0476567"><ele>225.5</ele><time>2026-04-19T13:36:39.01Z</time></trkpt><trkpt lat="45.0015233" lon="8.0475083"><ele>223.0</ele><time>2026-04-19T13:36:40.009Z</time></trkpt><trkpt lat="45.0014733" lon="8.047365"><ele>219.8</ele><time>2026-04-19T13:36:41.009Z</time></trkpt><trkpt lat="45.001425" lon="8.0472383"><ele>216.60000000000002</ele><time>2026-04-19T13:36:42.009Z</time></trkpt><trkpt lat="45.0013617" lon="8.0471033"><ele>213.39999999999998</ele><time>2026-04-19T13:36:43.01Z</time></trkpt><trkpt lat="45.00129" lon="8.0470033"><ele>210.2</ele><time>2026-04-19T13:36:44.009Z</time></trkpt><trkpt lat="45.0011967" lon="8.0469317"><ele>207.0</ele><time>2026-04-19T13:36:45.01Z</time></trkpt><trkpt lat="45.0010917" lon="8.046925"><ele>207.0</ele><time>2026-04-19T13:36:46.009Z</time></trkpt><trkpt lat="45.000975" lon="8.04696"><ele>207.0</ele><time>2026-04-19T13:36:47.01Z</time></trkpt><trkpt lat="45.0008583" lon="8.0469983"><ele>207.0</ele><time>2026-04-19T13:36:48.01Z</time></trkpt><trkpt lat="45.0007483" lon="8.04703"><ele>207.0</ele><time>2026-04-19T13:36:49.009Z</time></trkpt><trkpt lat="45.000645" lon="8.0470333"><ele>207.25</ele><time>2026-04-19T13:36:50.01Z</time></trkpt><trkpt lat="45.0005467" lon="8.04698"><ele>207.5</ele><time>2026-04-19T13:36:51.009Z</time></trkpt><trkpt lat="45.00047" lon="8.0468733"><ele>207.75</ele><time>2026-04-19T13:36:52.01Z</time></trkpt><trkpt lat="45.0004117" lon="8.0467233"><ele>208.0</ele><time>2026-04-19T13:36:53.009Z</time></trkpt><trkpt lat="45.0003683" lon="8.0465417"><ele>205.0</ele><time>2026-04-19T13:36:54.009Z</time></trkpt><trkpt lat="45.0003133" lon="8.0463283"><ele>202.0</ele><time>2026-04-19T13:36:55.009Z</time></trkpt><trkpt lat="45.000265" lon="8.0461083"><ele>199.0</ele><time>2026-04-19T13:36:56.01Z</time></trkpt><trkpt lat="45.000225" lon="8.0458983"><ele>202.0</ele><time>2026-04-19T13:36:57.01Z</time></trkpt><trkpt lat="45.0001733" lon="8.0456917"><ele>205.0</ele><time>2026-04-19T13:36:58.009Z</time></trkpt><trkpt lat="45.0001117" lon="8.0454817"><ele>208.0</ele><time>2026-04-19T13:36:59.01Z</time></trkpt><trkpt lat="45.0000283" lon="8.045295"><ele>208.0</ele><time>2026-04-19T13:37:00.009Z</time></trkpt><trkpt lat="44.9999167" lon="8.0451133"><ele>208.0</ele><time>2026-04-19T13:37:01.01Z</time></trkpt><trkpt lat="44.9998117" lon="8.0449417"><ele>208.0</ele><time>2026-04-19T13:37:02.01Z</time></trkpt><trkpt lat="44.9997117" lon="8.0447867"><ele>211.33333333333331</ele><time>2026-04-19T13:37:03.01Z</time></trkpt><trkpt lat="44.9996433" lon="8.04461"><ele>214.66666666666669</ele><time>2026-04-19T13:37:04.009Z</time></trkpt><trkpt lat="44.9995817" lon="8.0443967"><ele>218.0</ele><time>2026-04-19T13:37:05.009Z</time></trkpt><trkpt lat="44.9995467" lon="8.0441883"><ele>220.66666666666669</ele><time>2026-04-19T13:37:06.01Z</time></trkpt><trkpt lat="44.9995217" lon="8.04397"><ele>223.33333333333331</ele><time>2026-04-19T13:37:07.009Z</time></trkpt><trkpt lat="44.999515" lon="8.04374"><ele>226.0</ele><time>2026-04-19T13:37:08.009Z</time></trkpt><trkpt lat="44.9995067" lon="8.0434933"><ele>225.66666666666666</ele><time>2026-04-19T13:37:09.01Z</time></trkpt><trkpt lat="44.9995" lon="8.0432367"><ele>225.33333333333331</ele><time>2026-04-19T13:37:10.009Z</time></trkpt><trkpt lat="44.9995133" lon="8.0429767"><ele>225.0</ele><time>2026-04-19T13:37:11.01Z</time></trkpt><trkpt lat="44.9995383" lon="8.042725"><ele>225.0</ele><time>2026-04-19T13:37:12.009Z</time></trkpt><trkpt lat="44.99956" lon="8.0424667"><ele>225.0</ele><time>2026-04-19T13:37:13.009Z</time></trkpt><trkpt lat="44.9995833" lon="8.0422167"><ele>225.0</ele><time>2026-04-19T13:37:14.009Z</time></trkpt><trkpt lat="44.9996033" lon="8.0419617"><ele>224.66666666666669</ele><time>2026-04-19T13:37:15.01Z</time></trkpt><trkpt lat="44.99963" lon="8.0417067"><ele>224.33333333333334</ele><time>2026-04-19T13:37:16.009Z</time></trkpt><trkpt lat="44.9996583" lon="8.04145"><ele>224.0</ele><time>2026-04-19T13:37:17.01Z</time></trkpt><trkpt lat="44.9996817" lon="8.0411967"><ele>224.0</ele><time>2026-04-19T13:37:18.009Z</time></trkpt><trkpt lat="44.9997117" lon="8.040945"><ele>224.0</ele><time>2026-04-19T13:37:19.009Z</time></trkpt><trkpt lat="44.9997167" lon="8.0406983"><ele>224.0</ele><time>2026-04-19T13:37:20.01Z</time></trkpt><trkpt lat="44.9997283" lon="8.0404517"><ele>224.66666666666669</ele><time>2026-04-19T13:37:21.009Z</time></trkpt><trkpt lat="44.999705" lon="8.04021"><ele>225.33333333333331</ele><time>2026-04-19T13:37:22.009Z</time></trkpt><trkpt lat="44.9996467" lon="8.0399783"><ele>226.0</ele><time>2026-04-19T13:37:23.01Z</time></trkpt><trkpt lat="44.9995717" lon="8.03976"><ele>231.0</ele><time>2026-04-19T13:37:24.01Z</time></trkpt><trkpt lat="44.9994867" lon="8.0395417"><ele>236.0</ele><time>2026-04-19T13:37:25.009Z</time></trkpt><trkpt lat="44.999385" lon="8.0393183"><ele>241.0</ele><time>2026-04-19T13:37:26.009Z</time></trkpt><trkpt lat="44.9992783" lon="8.039105"><ele>236.33333333333331</ele><time>2026-04-19T13:37:27.009Z</time></trkpt><trkpt lat="44.999165" lon="8.0388867"><ele>231.66666666666669</ele><time>2026-04-19T13:37:28.01Z</time></trkpt><trkpt lat="44.99907" lon="8.03865"><ele>227.0</ele><time>2026-04-19T13:37:29.009Z</time></trkpt><trkpt lat="44.998975" lon="8.03845"><ele>229.66666666666669</ele><time>2026-04-19T13:37:30.01Z</time></trkpt><trkpt lat="44.9988817" lon="8.0382517"><ele>232.33333333333331</ele><time>2026-04-19T13:37:31.01Z</time></trkpt><trkpt lat="44.99878" lon="8.0380717"><ele>235.0</ele><time>2026-04-19T13:37:32.01Z</time></trkpt><trkpt lat="44.9986567" lon="8.03792"><ele>235.0</ele><time>2026-04-19T13:37:33.01Z</time></trkpt><trkpt lat="44.9985283" lon="8.0378183"><ele>235.0</ele><time>2026-04-19T13:37:34.01Z</time></trkpt><trkpt lat="44.9983833" lon="8.037735"><ele>235.0</ele><time>2026-04-19T13:37:35.009Z</time></trkpt><trkpt lat="44.9982467" lon="8.03763"><ele>234.0</ele><time>2026-04-19T13:37:36.01Z</time></trkpt><trkpt lat="44.99814" lon="8.03749"><ele>233.0</ele><time>2026-04-19T13:37:37.01Z</time></trkpt><trkpt lat="44.9980683" lon="8.0373083"><ele>232.0</ele><time>2026-04-19T13:37:38.01Z</time></trkpt><trkpt lat="44.9980283" lon="8.03711"><ele>231.0</ele><time>2026-04-19T13:37:39.01Z</time></trkpt><trkpt lat="44.998025" lon="8.03688"><ele>233.33333333333331</ele><time>2026-04-19T13:37:40.009Z</time></trkpt><trkpt lat="44.9980733" lon="8.0366617"><ele>235.66666666666666</ele><time>2026-04-19T13:37:41.009Z</time></trkpt><trkpt lat="44.9981533" lon="8.036455"><ele>238.0</ele><time>2026-04-19T13:37:42.009Z</time></trkpt><trkpt lat="44.9982583" lon="8.0362967"><ele>241.75</ele><time>2026-04-19T13:37:43.01Z</time></trkpt><trkpt lat="44.9983767" lon="8.0361783"><ele>245.5</ele><time>2026-04-19T13:37:44.01Z</time></trkpt><trkpt lat="44.9984933" lon="8.03607"><ele>249.25</ele><time>2026-04-19T13:37:45.01Z</time></trkpt><trkpt lat="44.998605" lon="8.035985"><ele>253.0</ele><time>2026-04-19T13:37:46.009Z</time></trkpt><trkpt lat="44.9986867" lon="8.0359"><ele>254.5</ele><time>2026-04-19T13:37:47.009Z</time></trkpt><trkpt lat="44.9987067" lon="8.0357533"><ele>256.0</ele><time>2026-04-19T13:37:48.01Z</time></trkpt><trkpt lat="44.9986767" lon="8.0356033"><ele>257.5</ele><time>2026-04-19T13:37:49.01Z</time></trkpt><trkpt lat="44.998605" lon="8.03547"><ele>259.0</ele><time>2026-04-19T13:37:50.01Z</time></trkpt><trkpt lat="44.998485" lon="8.0353667"><ele>259.0</ele><time>2026-04-19T13:37:51.01Z</time></trkpt><trkpt lat="44.9983683" lon="8.0352767"><ele>259.0</ele><time>2026-04-19T13:37:52.009Z</time></trkpt><trkpt lat="44.998265" lon="8.0352"><ele>259.0</ele><time>2026-04-19T13:37:53.009Z</time></trkpt><trkpt lat="44.9981617" lon="8.0351333"><ele>259.0</ele><time>2026-04-19T13:37:54.01Z</time></trkpt><trkpt lat="44.9980617" lon="8.0350717"><ele>258.4</ele><time>2026-04-19T13:37:55.009Z</time></trkpt><trkpt lat="44.9979783" lon="8.0350183"><ele>257.79999999999995</ele><time>2026-04-19T13:37:56.01Z</time></trkpt><trkpt lat="44.9979067" lon="8.03496"><ele>257.20000000000005</ele><time>2026-04-19T13:37:57.01Z</time></trkpt><trkpt lat="44.99782" lon="8.0349117"><ele>256.6</ele><time>2026-04-19T13:37:58.01Z</time></trkpt><trkpt lat="44.9977383" lon="8.0348633"><ele>256.0</ele><time>2026-04-19T13:37:59.009Z</time></trkpt><trkpt lat="44.9976517" lon="8.0347917"><ele>256.0</ele><time>2026-04-19T13:38:00.009Z</time></trkpt><trkpt lat="44.9975417" lon="8.0346917"><ele>256.0</ele><time>2026-04-19T13:38:01.009Z</time></trkpt><trkpt lat="44.997425" lon="8.0346033"><ele>256.0</ele><time>2026-04-19T13:38:02.009Z</time></trkpt><trkpt lat="44.9973067" lon="8.0345117"><ele>256.0</ele><time>2026-04-19T13:38:03.01Z</time></trkpt><trkpt lat="44.9971917" lon="8.034415"><ele>252.5</ele><time>2026-04-19T13:38:04.01Z</time></trkpt><trkpt lat="44.9970717" lon="8.0343333"><ele>249.0</ele><time>2026-04-19T13:38:05.01Z</time></trkpt><trkpt lat="44.9969533" lon="8.0343067"><ele>245.5</ele><time>2026-04-19T13:38:06.01Z</time></trkpt><trkpt lat="44.99684" lon="8.0343283"><ele>242.0</ele><time>2026-04-19T13:38:07.009Z</time></trkpt><trkpt lat="44.9967267" lon="8.0343933"><ele>245.0</ele><time>2026-04-19T13:38:08.009Z</time></trkpt><trkpt lat="44.9966233" lon="8.034505"><ele>248.0</ele><time>2026-04-19T13:38:09.009Z</time></trkpt><trkpt lat="44.9965383" lon="8.0346483"><ele>251.0</ele><time>2026-04-19T13:38:10.01Z</time></trkpt><trkpt lat="44.9964717" lon="8.034815"><ele>254.0</ele><time>2026-04-19T13:38:11.009Z</time></trkpt><trkpt lat="44.9963967" lon="8.0350033"><ele>256.5</ele><time>2026-04-19T13:38:12.01Z</time></trkpt><trkpt lat="44.9963217" lon="8.035185"><ele>259.0</ele><time>2026-04-19T13:38:13.01Z</time></trkpt><trkpt lat="44.9962467" lon="8.0353683"><ele>261.5</ele><time>2026-04-19T13:38:14.009Z</time></trkpt><trkpt lat="44.9961783" lon="8.035545"><ele>264.0</ele><time>2026-04-19T13:38:15.009Z</time></trkpt><trkpt lat="44.9961067" lon="8.0357017"><ele>263.2</ele><time>2026-04-19T13:38:16.01Z</time></trkpt><trkpt lat="44.9960367" lon="8.0358233"><ele>262.4</ele><time>2026-04-19T13:38:17.01Z</time></trkpt><trkpt lat="44.995945" lon="8.0358933"><ele>261.6</ele><time>2026-04-19T13:38:18.009Z</time></trkpt><trkpt lat="44.995845" lon="8.0359117"><ele>260.8</ele><time>2026-04-19T13:38:19.009Z</time></trkpt><trkpt lat="44.9957483" lon="8.0358733"><ele>260.0</ele><time>2026-04-19T13:38:20.009Z</time></trkpt><trkpt lat="44.9956467" lon="8.0357883"><ele>256.33333333333337</ele><time>2026-04-19T13:38:21.009Z</time></trkpt><trkpt lat="44.9955367" lon="8.0356467"><ele>252.66666666666669</ele><time>2026-04-19T13:38:22.01Z</time></trkpt><trkpt lat="44.9954133" lon="8.0354867"><ele>249.0</ele><time>2026-04-19T13:38:23.009Z</time></trkpt><trkpt lat="44.9952817" lon="8.03536"><ele>249.0</ele><time>2026-04-19T13:38:24.01Z</time></trkpt><trkpt lat="44.9951417" lon="8.0352667"><ele>249.0</ele><time>2026-04-19T13:38:25.01Z</time></trkpt><trkpt lat="44.994995" lon="8.035165"><ele>249.0</ele><time>2026-04-19T13:38:26.01Z</time></trkpt><trkpt lat="44.9948667" lon="8.035085"><ele>250.25</ele><time>2026-04-19T13:38:27.009Z</time></trkpt><trkpt lat="44.994725" lon="8.035015"><ele>251.5</ele><time>2026-04-19T13:38:28.009Z</time></trkpt><trkpt lat="44.99459" lon="8.0349517"><ele>252.75</ele><time>2026-04-19T13:38:29.01Z</time></trkpt><trkpt lat="44.994455" lon="8.03492"><ele>254.0</ele><time>2026-04-19T13:38:30.009Z</time></trkpt><trkpt lat="44.9942983" lon="8.0349083"><ele>252.33333333333334</ele><time>2026-04-19T13:38:31.01Z</time></trkpt><trkpt lat="44.9941483" lon="8.034895"><ele>250.66666666666669</ele><time>2026-04-19T13:38:32.009Z</time></trkpt><trkpt lat="44.9939917" lon="8.0348767"><ele>249.0</ele><time>2026-04-19T13:38:33.009Z</time></trkpt><trkpt lat="44.9938367" lon="8.0348533"><ele>249.0</ele><time>2026-04-19T13:38:34.01Z</time></trkpt><trkpt lat="44.9936867" lon="8.0348183"><ele>249.0</ele><time>2026-04-19T13:38:35.01Z</time></trkpt><trkpt lat="44.9935367" lon="8.0347767"><ele>249.0</ele><time>2026-04-19T13:38:36.01Z</time></trkpt><trkpt lat="44.9934017" lon="8.0347533"><ele>249.0</ele><time>2026-04-19T13:38:37.01Z</time></trkpt><trkpt lat="44.99327" lon="8.0347067"><ele>249.79999999999998</ele><time>2026-04-19T13:38:38.01Z</time></trkpt><trkpt lat="44.9931517" lon="8.03468"><ele>250.59999999999997</ele><time>2026-04-19T13:38:39.009Z</time></trkpt><trkpt lat="44.993035" lon="8.034695"><ele>251.4</ele><time>2026-04-19T13:38:40.009Z</time></trkpt><trkpt lat="44.992935" lon="8.0347333"><ele>252.2</ele><time>2026-04-19T13:38:41.01Z</time></trkpt><trkpt lat="44.9928417" lon="8.0347667"><ele>253.0</ele><time>2026-04-19T13:38:42.009Z</time></trkpt><trkpt lat="44.9927517" lon="8.034775"><ele>253.0</ele><time>2026-04-19T13:38:43.009Z</time></trkpt><trkpt lat="44.9926467" lon="8.034735"><ele>253.0</ele><time>2026-04-19T13:38:44.009Z</time></trkpt><trkpt lat="44.9925533" lon="8.0346833"><ele>253.0</ele><time>2026-04-19T13:38:45.01Z</time></trkpt><trkpt lat="44.9924717" lon="8.0345933"><ele>253.0</ele><time>2026-04-19T13:38:46.01Z</time></trkpt><trkpt lat="44.9924033" lon="8.0344917"><ele>253.0</ele><time>2026-04-19T13:38:47.01Z</time></trkpt><trkpt lat="44.992325" lon="8.03441"><ele>251.4</ele><time>2026-04-19T13:38:48.009Z</time></trkpt><trkpt lat="44.9922533" lon="8.0343483"><ele>249.8</ele><time>2026-04-19T13:38:49.01Z</time></trkpt><trkpt lat="44.9921783" lon="8.0342883"><ele>248.2</ele><time>2026-04-19T13:38:50.01Z</time></trkpt><trkpt lat="44.9920917" lon="8.0342183"><ele>246.6</ele><time>2026-04-19T13:38:51.009Z</time></trkpt><trkpt lat="44.992" lon="8.0341533"><ele>245.0</ele><time>2026-04-19T13:38:52.01Z</time></trkpt><trkpt lat="44.9918917" lon="8.0340733"><ele>243.25</ele><time>2026-04-19T13:38:53.009Z</time></trkpt><trkpt lat="44.9917817" lon="8.033995"><ele>241.5</ele><time>2026-04-19T13:38:54.01Z</time></trkpt><trkpt lat="44.9916433" lon="8.033915"><ele>239.75</ele><time>2026-04-19T13:38:55.009Z</time></trkpt><trkpt lat="44.9915083" lon="8.0338567"><ele>238.0</ele><time>2026-04-19T13:38:56.009Z</time></trkpt><trkpt lat="44.9913617" lon="8.0338117"><ele>238.0</ele><time>2026-04-19T13:38:57.009Z</time></trkpt><trkpt lat="44.9912167" lon="8.0337917"><ele>238.0</ele><time>2026-04-19T13:38:58.009Z</time></trkpt><trkpt lat="44.9910683" lon="8.033795"><ele>238.0</ele><time>2026-04-19T13:38:59.009Z</time></trkpt><trkpt lat="44.99093" lon="8.0338367"><ele>238.0</ele><time>2026-04-19T13:39:00.009Z</time></trkpt><trkpt lat="44.9908017" lon="8.03391"><ele>238.0</ele><time>2026-04-19T13:39:01.01Z</time></trkpt><trkpt lat="44.99068" lon="8.033975"><ele>238.0</ele><time>2026-04-19T13:39:02.009Z</time></trkpt><trkpt lat="44.99057" lon="8.0340133"><ele>238.0</ele><time>2026-04-19T13:39:03.009Z</time></trkpt><trkpt lat="44.9904683" lon="8.03403"><ele>238.0</ele><time>2026-04-19T13:39:04.01Z</time></trkpt><trkpt lat="44.9903533" lon="8.0339917"><ele>238.0</ele><time>2026-04-19T13:39:05.01Z</time></trkpt><trkpt lat="44.9902617" lon="8.0338917"><ele>238.0</ele><time>2026-04-19T13:39:06.01Z</time></trkpt><trkpt lat="44.9901817" lon="8.0337417"><ele>238.0</ele><time>2026-04-19T13:39:07.01Z</time></trkpt><trkpt lat="44.9901117" lon="8.03355"><ele>238.0</ele><time>2026-04-19T13:39:08.01Z</time></trkpt><trkpt lat="44.990055" lon="8.0333367"><ele>244.66666666666666</ele><time>2026-04-19T13:39:09.01Z</time></trkpt><trkpt lat="44.9899883" lon="8.033125"><ele>251.33333333333331</ele><time>2026-04-19T13:39:10.009Z</time></trkpt><trkpt lat="44.9899217" lon="8.0329267"><ele>258.0</ele><time>2026-04-19T13:39:11.01Z</time></trkpt><trkpt lat="44.98983" lon="8.0327617"><ele>258.0</ele><time>2026-04-19T13:39:12.009Z</time></trkpt><trkpt lat="44.9897367" lon="8.0326183"><ele>258.0</ele><time>2026-04-19T13:39:13.008Z</time></trkpt><trkpt lat="44.9896317" lon="8.0325017"><ele>258.0</ele><time>2026-04-19T13:39:14.009Z</time></trkpt><trkpt lat="44.9895433" lon="8.032395"><ele>258.0</ele><time>2026-04-19T13:39:15.008Z</time></trkpt><trkpt lat="44.98946" lon="8.0323033"><ele>258.8</ele><time>2026-04-19T13:39:16.008Z</time></trkpt><trkpt lat="44.9893733" lon="8.0321933"><ele>259.6</ele><time>2026-04-19T13:39:17.008Z</time></trkpt><trkpt lat="44.9893217" lon="8.0320533"><ele>260.4</ele><time>2026-04-19T13:39:18.008Z</time></trkpt><trkpt lat="44.9893017" lon="8.0318967"><ele>261.2</ele><time>2026-04-19T13:39:19.009Z</time></trkpt><trkpt lat="44.9893" lon="8.0317467"><ele>262.0</ele><time>2026-04-19T13:39:20.008Z</time></trkpt><trkpt lat="44.9893167" lon="8.0315517"><ele>259.0</ele><time>2026-04-19T13:39:21.008Z</time></trkpt><trkpt lat="44.9893333" lon="8.031375"><ele>256.0</ele><time>2026-04-19T13:39:22.008Z</time></trkpt><trkpt lat="44.98936" lon="8.031195"><ele>253.0</ele><time>2026-04-19T13:39:23.008Z</time></trkpt><trkpt lat="44.9893367" lon="8.0310067"><ele>250.0</ele><time>2026-04-19T13:39:24.008Z</time></trkpt><trkpt lat="44.9893067" lon="8.0308333"><ele>245.0</ele><time>2026-04-19T13:39:25.008Z</time></trkpt><trkpt lat="44.9892683" lon="8.03067"><ele>240.0</ele><time>2026-04-19T13:39:26.009Z</time></trkpt><trkpt lat="44.98923" lon="8.03051"><ele>235.0</ele><time>2026-04-19T13:39:27.008Z</time></trkpt><trkpt lat="44.989195" lon="8.0303367"><ele>230.0</ele><time>2026-04-19T13:39:28.009Z</time></trkpt><trkpt lat="44.9891867" lon="8.030165"><ele>230.0</ele><time>2026-04-19T13:39:29.008Z</time></trkpt><trkpt lat="44.9892067" lon="8.0299817"><ele>230.0</ele><time>2026-04-19T13:39:30.008Z</time></trkpt><trkpt lat="44.989225" lon="8.0297883"><ele>230.0</ele><time>2026-04-19T13:39:31.008Z</time></trkpt><trkpt lat="44.9892383" lon="8.0295967"><ele>230.0</ele><time>2026-04-19T13:39:32.009Z</time></trkpt><trkpt lat="44.98925" lon="8.0294283"><ele>229.25</ele><time>2026-04-19T13:39:33.008Z</time></trkpt><trkpt lat="44.9892633" lon="8.0292617"><ele>228.5</ele><time>2026-04-19T13:39:34.009Z</time></trkpt><trkpt lat="44.9892783" lon="8.0290933"><ele>227.75</ele><time>2026-04-19T13:39:35.009Z</time></trkpt><trkpt lat="44.9893067" lon="8.028935"><ele>227.0</ele><time>2026-04-19T13:39:36.009Z</time></trkpt><trkpt lat="44.989335" lon="8.028785"><ele>227.0</ele><time>2026-04-19T13:39:37.009Z</time></trkpt><trkpt lat="44.9893633" lon="8.02863"><ele>227.0</ele><time>2026-04-19T13:39:38.009Z</time></trkpt><trkpt lat="44.9893717" lon="8.028475"><ele>227.0</ele><time>2026-04-19T13:39:39.008Z</time></trkpt><trkpt lat="44.989375" lon="8.0283233"><ele>227.0</ele><time>2026-04-19T13:39:40.008Z</time></trkpt><trkpt lat="44.9893517" lon="8.0281617"><ele>227.0</ele><time>2026-04-19T13:39:41.009Z</time></trkpt><trkpt lat="44.9893267" lon="8.02801"><ele>228.75</ele><time>2026-04-19T13:39:42.008Z</time></trkpt><trkpt lat="44.9892867" lon="8.0278533"><ele>230.5</ele><time>2026-04-19T13:39:43.008Z</time></trkpt><trkpt lat="44.9892483" lon="8.0277"><ele>232.25</ele><time>2026-04-19T13:39:44.008Z</time></trkpt><trkpt lat="44.9892167" lon="8.02754"><ele>234.0</ele><time>2026-04-19T13:39:45.009Z</time></trkpt><trkpt lat="44.9891917" lon="8.0273883"><ele>236.39999999999998</ele><time>2026-04-19T13:39:46.008Z</time></trkpt><trkpt lat="44.9891683" lon="8.0272417"><ele>238.79999999999998</ele><time>2026-04-19T13:39:47.009Z</time></trkpt><trkpt lat="44.9891417" lon="8.0271067"><ele>241.20000000000002</ele><time>2026-04-19T13:39:48.009Z</time></trkpt><trkpt lat="44.9891233" lon="8.0269783"><ele>243.60000000000002</ele><time>2026-04-19T13:39:49.008Z</time></trkpt><trkpt lat="44.9891067" lon="8.0268567"><ele>246.0</ele><time>2026-04-19T13:39:50.008Z</time></trkpt><trkpt lat="44.9890867" lon="8.0267267"><ele>244.8</ele><time>2026-04-19T13:39:51.008Z</time></trkpt><trkpt lat="44.9890733" lon="8.0265983"><ele>243.60000000000002</ele><time>2026-04-19T13:39:52.009Z</time></trkpt><trkpt lat="44.9890517" lon="8.0264567"><ele>242.4</ele><time>2026-04-19T13:39:53.008Z</time></trkpt><trkpt lat="44.98902" lon="8.0263217"><ele>241.2</ele><time>2026-04-19T13:39:54.008Z</time></trkpt><trkpt lat="44.989" lon="8.0261967"><ele>240.0</ele><time>2026-04-19T13:39:55.008Z</time></trkpt><trkpt lat="44.98898" lon="8.0260733"><ele>240.0</ele><time>2026-04-19T13:39:56.009Z</time></trkpt><trkpt lat="44.98897" lon="8.0259533"><ele>240.0</ele><time>2026-04-19T13:39:57.008Z</time></trkpt><trkpt lat="44.9889583" lon="8.025855"><ele>240.0</ele><time>2026-04-19T13:39:58.009Z</time></trkpt><trkpt lat="44.9889467" lon="8.0257617"><ele>240.0</ele><time>2026-04-19T13:39:59.009Z</time></trkpt><trkpt lat="44.98894" lon="8.02559"><ele>240.0</ele><time>2026-04-19T13:40:01.009Z</time></trkpt><trkpt lat="44.988955" lon="8.0254917"><ele>240.0</ele><time>2026-04-19T13:40:02.009Z</time></trkpt><trkpt lat="44.98898" lon="8.02539"><ele>239.83333333333334</ele><time>2026-04-19T13:40:03.008Z</time></trkpt><trkpt lat="44.98901" lon="8.0252883"><ele>239.66666666666669</ele><time>2026-04-19T13:40:04.008Z</time></trkpt><trkpt lat="44.9890383" lon="8.025175"><ele>239.5</ele><time>2026-04-19T13:40:05.008Z</time></trkpt><trkpt lat="44.9890717" lon="8.02506"><ele>239.33333333333334</ele><time>2026-04-19T13:40:06.008Z</time></trkpt><trkpt lat="44.9891167" lon="8.02495"><ele>239.16666666666669</ele><time>2026-04-19T13:40:07.008Z</time></trkpt><trkpt lat="44.989175" lon="8.024855"><ele>239.0</ele><time>2026-04-19T13:40:08.009Z</time></trkpt><trkpt lat="44.9892333" lon="8.0247633"><ele>239.83333333333334</ele><time>2026-04-19T13:40:09.008Z</time></trkpt><trkpt lat="44.9893017" lon="8.0246733"><ele>240.66666666666669</ele><time>2026-04-19T13:40:10.008Z</time></trkpt><trkpt lat="44.989365" lon="8.02459"><ele>241.5</ele><time>2026-04-19T13:40:11.009Z</time></trkpt><trkpt lat="44.98943" lon="8.024505"><ele>242.33333333333331</ele><time>2026-04-19T13:40:12.008Z</time></trkpt><trkpt lat="44.9894817" lon="8.0244383"><ele>243.16666666666666</ele><time>2026-04-19T13:40:13.009Z</time></trkpt><trkpt lat="44.98954" lon="8.0243067"><ele>244.0</ele><time>2026-04-19T13:40:15.009Z</time></trkpt><trkpt lat="44.9895567" lon="8.0242183"><ele>244.6</ele><time>2026-04-19T13:40:16.008Z</time></trkpt><trkpt lat="44.9895483" lon="8.0241167"><ele>245.2</ele><time>2026-04-19T13:40:17.009Z</time></trkpt><trkpt lat="44.989535" lon="8.02397"><ele>245.79999999999998</ele><time>2026-04-19T13:40:18.008Z</time></trkpt><trkpt lat="44.989535" lon="8.023825"><ele>246.39999999999998</ele><time>2026-04-19T13:40:19.009Z</time></trkpt><trkpt lat="44.989505" lon="8.0236667"><ele>247.0</ele><time>2026-04-19T13:40:20.008Z</time></trkpt><trkpt lat="44.9894683" lon="8.0235283"><ele>247.0</ele><time>2026-04-19T13:40:21.008Z</time></trkpt><trkpt lat="44.9894133" lon="8.0234017"><ele>247.0</ele><time>2026-04-19T13:40:22.009Z</time></trkpt><trkpt lat="44.989335" lon="8.0232833"><ele>247.0</ele><time>2026-04-19T13:40:23.009Z</time></trkpt><trkpt lat="44.98926" lon="8.0231733"><ele>247.0</ele><time>2026-04-19T13:40:24.008Z</time></trkpt><trkpt lat="44.9891567" lon="8.0230633"><ele>244.75</ele><time>2026-04-19T13:40:25.009Z</time></trkpt><trkpt lat="44.98906" lon="8.0229383"><ele>242.5</ele><time>2026-04-19T13:40:26.008Z</time></trkpt><trkpt lat="44.9889483" lon="8.0228083"><ele>240.25</ele><time>2026-04-19T13:40:27.008Z</time></trkpt><trkpt lat="44.988835" lon="8.0227017"><ele>238.0</ele><time>2026-04-19T13:40:28.008Z</time></trkpt><trkpt lat="44.9887233" lon="8.0226017"><ele>238.0</ele><time>2026-04-19T13:40:29.008Z</time></trkpt><trkpt lat="44.9886133" lon="8.02251"><ele>238.0</ele><time>2026-04-19T13:40:30.008Z</time></trkpt><trkpt lat="44.9885117" lon="8.0224233"><ele>238.0</ele><time>2026-04-19T13:40:31.009Z</time></trkpt><trkpt lat="44.9884117" lon="8.022335"><ele>238.0</ele><time>2026-04-19T13:40:32.008Z</time></trkpt><trkpt lat="44.9883183" lon="8.0222483"><ele>236.75</ele><time>2026-04-19T13:40:33.009Z</time></trkpt><trkpt lat="44.98822" lon="8.02218"><ele>235.5</ele><time>2026-04-19T13:40:34.009Z</time></trkpt><trkpt lat="44.9881317" lon="8.0220967"><ele>234.25</ele><time>2026-04-19T13:40:35.009Z</time></trkpt><trkpt lat="44.988035" lon="8.0220033"><ele>233.0</ele><time>2026-04-19T13:40:36.009Z</time></trkpt><trkpt lat="44.98793" lon="8.02192"><ele>233.0</ele><time>2026-04-19T13:40:37.008Z</time></trkpt><trkpt lat="44.98783" lon="8.0218383"><ele>233.0</ele><time>2026-04-19T13:40:38.008Z</time></trkpt><trkpt lat="44.987745" lon="8.02175"><ele>233.0</ele><time>2026-04-19T13:40:39.008Z</time></trkpt><trkpt lat="44.98768" lon="8.0216317"><ele>233.0</ele><time>2026-04-19T13:40:40.009Z</time></trkpt><trkpt lat="44.9876367" lon="8.0214767"><ele>233.0</ele><time>2026-04-19T13:40:41.009Z</time></trkpt><trkpt lat="44.9876267" lon="8.0213183"><ele>232.0</ele><time>2026-04-19T13:40:42.008Z</time></trkpt><trkpt lat="44.9876267" lon="8.021165"><ele>231.0</ele><time>2026-04-19T13:40:43.009Z</time></trkpt><trkpt lat="44.9876567" lon="8.021035"><ele>230.0</ele><time>2026-04-19T13:40:44.009Z</time></trkpt><trkpt lat="44.9876867" lon="8.020905"><ele>229.0</ele><time>2026-04-19T13:40:45.008Z</time></trkpt><trkpt lat="44.9877267" lon="8.0207767"><ele>228.0</ele><time>2026-04-19T13:40:46.009Z</time></trkpt><trkpt lat="44.987795" lon="8.0206617"><ele>226.60000000000002</ele><time>2026-04-19T13:40:47.008Z</time></trkpt><trkpt lat="44.987885" lon="8.020565"><ele>225.20000000000002</ele><time>2026-04-19T13:40:48.009Z</time></trkpt><trkpt lat="44.987995" lon="8.0205"><ele>223.8</ele><time>2026-04-19T13:40:49.009Z</time></trkpt><trkpt lat="44.988095" lon="8.0204567"><ele>222.4</ele><time>2026-04-19T13:40:50.009Z</time></trkpt><trkpt lat="44.98819" lon="8.0203967"><ele>221.0</ele><time>2026-04-19T13:40:51.008Z</time></trkpt><trkpt lat="44.9882483" lon="8.0203317"><ele>221.00000000000003</ele><time>2026-04-19T13:40:52.008Z</time></trkpt><trkpt lat="44.9882833" lon="8.0202467"><ele>221.0</ele><time>2026-04-19T13:40:53.009Z</time></trkpt><trkpt lat="44.988285" lon="8.0201367"><ele>221.0</ele><time>2026-04-19T13:40:54.009Z</time></trkpt><trkpt lat="44.9882483" lon="8.0200433"><ele>221.0</ele><time>2026-04-19T13:40:55.009Z</time></trkpt><trkpt lat="44.988175" lon="8.0199767"><ele>221.00000000000003</ele><time>2026-04-19T13:40:56.008Z</time></trkpt><trkpt lat="44.9880483" lon="8.019955"><ele>221.0</ele><time>2026-04-19T13:40:57.008Z</time></trkpt><trkpt lat="44.9879017" lon="8.0199883"><ele>221.0</ele><time>2026-04-19T13:40:58.009Z</time></trkpt><trkpt lat="44.9877467" lon="8.0200433"><ele>221.0</ele><time>2026-04-19T13:40:59.008Z</time></trkpt><trkpt lat="44.9875967" lon="8.02008"><ele>221.0</ele><time>2026-04-19T13:41:00.008Z</time></trkpt><trkpt lat="44.9874667" lon="8.02012"><ele>221.0</ele><time>2026-04-19T13:41:01.008Z</time></trkpt><trkpt lat="44.98736" lon="8.0201533"><ele>217.4</ele><time>2026-04-19T13:41:02.009Z</time></trkpt><trkpt lat="44.98727" lon="8.0201667"><ele>213.8</ele><time>2026-04-19T13:41:03.008Z</time></trkpt><trkpt lat="44.987175" lon="8.0201417"><ele>210.20000000000002</ele><time>2026-04-19T13:41:04.009Z</time></trkpt><trkpt lat="44.9871067" lon="8.0200967"><ele>206.60000000000002</ele><time>2026-04-19T13:41:05.008Z</time></trkpt><trkpt lat="44.9870467" lon="8.0200083"><ele>203.0</ele><time>2026-04-19T13:41:07.009Z</time></trkpt><trkpt lat="44.986945" lon="8.0199867"><ele>202.0</ele><time>2026-04-19T13:41:09.008Z</time></trkpt><trkpt lat="44.98687" lon="8.019955"><ele>201.0</ele><time>2026-04-19T13:41:10.008Z</time></trkpt><trkpt lat="44.9867717" lon="8.0199133"><ele>200.0</ele><time>2026-04-19T13:41:11.008Z</time></trkpt><trkpt lat="44.9866533" lon="8.019855"><ele>199.0</ele><time>2026-04-19T13:41:12.008Z</time></trkpt><trkpt lat="44.98654" lon="8.019805"><ele>198.0</ele><time>2026-04-19T13:41:13.009Z</time></trkpt><trkpt lat="44.9864433" lon="8.0197633"><ele>196.60000000000002</ele><time>2026-04-19T13:41:14.009Z</time></trkpt><trkpt lat="44.9863633" lon="8.0197067"><ele>195.20000000000002</ele><time>2026-04-19T13:41:15.008Z</time></trkpt><trkpt lat="44.9863133" lon="8.0196167"><ele>193.8</ele><time>2026-04-19T13:41:16.008Z</time></trkpt><trkpt lat="44.986285" lon="8.0194833"><ele>192.4</ele><time>2026-04-19T13:41:17.008Z</time></trkpt><trkpt lat="44.9863" lon="8.0193367"><ele>191.0</ele><time>2026-04-19T13:41:18.009Z</time></trkpt><trkpt lat="44.9863183" lon="8.01919"><ele>190.5</ele><time>2026-04-19T13:41:19.009Z</time></trkpt><trkpt lat="44.986295" lon="8.0190367"><ele>190.0</ele><time>2026-04-19T13:41:20.008Z</time></trkpt><trkpt lat="44.9862417" lon="8.0189083"><ele>189.5</ele><time>2026-04-19T13:41:21.009Z</time></trkpt><trkpt lat="44.9861517" lon="8.018795"><ele>189.0</ele><time>2026-04-19T13:41:22.008Z</time></trkpt><trkpt lat="44.986045" lon="8.0186867"><ele>189.0</ele><time>2026-04-19T13:41:23.009Z</time></trkpt><trkpt lat="44.9859267" lon="8.018585"><ele>189.0</ele><time>2026-04-19T13:41:24.008Z</time></trkpt><trkpt lat="44.9858117" lon="8.0184783"><ele>189.0</ele><time>2026-04-19T13:41:25.008Z</time></trkpt><trkpt lat="44.985695" lon="8.0183783"><ele>189.0</ele><time>2026-04-19T13:41:26.008Z</time></trkpt><trkpt lat="44.9855833" lon="8.018285"><ele>189.5</ele><time>2026-04-19T13:41:27.009Z</time></trkpt><trkpt lat="44.9854567" lon="8.0181883"><ele>190.0</ele><time>2026-04-19T13:41:28.009Z</time></trkpt><trkpt lat="44.985335" lon="8.01812"><ele>190.5</ele><time>2026-04-19T13:41:29.009Z</time></trkpt><trkpt lat="44.9852283" lon="8.0180917"><ele>191.0</ele><time>2026-04-19T13:41:30.008Z</time></trkpt><trkpt lat="44.9851217" lon="8.0180967"><ele>192.4</ele><time>2026-04-19T13:41:31.009Z</time></trkpt><trkpt lat="44.9850117" lon="8.0181"><ele>193.8</ele><time>2026-04-19T13:41:32.008Z</time></trkpt><trkpt lat="44.9849167" lon="8.0180933"><ele>195.20000000000002</ele><time>2026-04-19T13:41:33.008Z</time></trkpt><trkpt lat="44.9848267" lon="8.0180433"><ele>196.60000000000002</ele><time>2026-04-19T13:41:34.009Z</time></trkpt><trkpt lat="44.9847483" lon="8.0179617"><ele>198.0</ele><time>2026-04-19T13:41:35.008Z</time></trkpt><trkpt lat="44.9846633" lon="8.0178833"><ele>198.0</ele><time>2026-04-19T13:41:36.008Z</time></trkpt><trkpt lat="44.9845767" lon="8.0178483"><ele>198.0</ele><time>2026-04-19T13:41:37.009Z</time></trkpt><trkpt lat="44.984495" lon="8.0178717"><ele>198.0</ele><time>2026-04-19T13:41:38.008Z</time></trkpt><trkpt lat="44.98443" lon="8.0179667"><ele>198.0</ele><time>2026-04-19T13:41:39.009Z</time></trkpt><trkpt lat="44.9844" lon="8.0181017"><ele>198.0</ele><time>2026-04-19T13:41:40.008Z</time></trkpt><trkpt lat="44.984405" lon="8.0182633"><ele>201.8</ele><time>2026-04-19T13:41:41.009Z</time></trkpt><trkpt lat="44.9844067" lon="8.018425"><ele>205.60000000000002</ele><time>2026-04-19T13:41:42.009Z</time></trkpt><trkpt lat="44.9843817" lon="8.0185867"><ele>209.39999999999998</ele><time>2026-04-19T13:41:43.009Z</time></trkpt><trkpt lat="44.9843283" lon="8.018725"><ele>213.2</ele><time>2026-04-19T13:41:44.008Z</time></trkpt><trkpt lat="44.9842533" lon="8.0188267"><ele>217.0</ele><time>2026-04-19T13:41:45.009Z</time></trkpt><trkpt lat="44.984165" lon="8.0189017"><ele>217.8</ele><time>2026-04-19T13:41:46.008Z</time></trkpt><trkpt lat="44.9840633" lon="8.0189317"><ele>218.6</ele><time>2026-04-19T13:41:47.008Z</time></trkpt><trkpt lat="44.9839533" lon="8.0189333"><ele>219.40000000000003</ele><time>2026-04-19T13:41:48.008Z</time></trkpt><trkpt lat="44.98386" lon="8.0189"><ele>220.20000000000002</ele><time>2026-04-19T13:41:49.008Z</time></trkpt><trkpt lat="44.9837683" lon="8.0188483"><ele>221.0</ele><time>2026-04-19T13:41:50.008Z</time></trkpt><trkpt lat="44.98368" lon="8.0188317"><ele>221.00000000000003</ele><time>2026-04-19T13:41:51.008Z</time></trkpt><trkpt lat="44.9835917" lon="8.0188283"><ele>221.0</ele><time>2026-04-19T13:41:52.008Z</time></trkpt><trkpt lat="44.983505" lon="8.018825"><ele>221.0</ele><time>2026-04-19T13:41:53.008Z</time></trkpt><trkpt lat="44.983415" lon="8.018805"><ele>221.0</ele><time>2026-04-19T13:41:54.008Z</time></trkpt><trkpt lat="44.9833267" lon="8.0187783"><ele>221.00000000000003</ele><time>2026-04-19T13:41:55.008Z</time></trkpt><trkpt lat="44.9832433" lon="8.0187283"><ele>221.0</ele><time>2026-04-19T13:41:56.009Z</time></trkpt><trkpt lat="44.9831583" lon="8.0186517"><ele>224.25</ele><time>2026-04-19T13:41:57.008Z</time></trkpt><trkpt lat="44.9830633" lon="8.01857"><ele>227.5</ele><time>2026-04-19T13:41:58.009Z</time></trkpt><trkpt lat="44.98296" lon="8.01849"><ele>230.75</ele><time>2026-04-19T13:41:59.009Z</time></trkpt><trkpt lat="44.9828567" lon="8.01842"><ele>234.0</ele><time>2026-04-19T13:42:00.009Z</time></trkpt><trkpt lat="44.98275" lon="8.01837"><ele>234.0</ele><time>2026-04-19T13:42:01.008Z</time></trkpt><trkpt lat="44.9826667" lon="8.0183567"><ele>234.0</ele><time>2026-04-19T13:42:02.009Z</time></trkpt><trkpt lat="44.982595" lon="8.0183917"><ele>234.0</ele><time>2026-04-19T13:42:03.009Z</time></trkpt><trkpt lat="44.9825317" lon="8.01845"><ele>234.0</ele><time>2026-04-19T13:42:04.008Z</time></trkpt><trkpt lat="44.9824967" lon="8.0185333"><ele>234.0</ele><time>2026-04-19T13:42:05.008Z</time></trkpt><trkpt lat="44.9824883" lon="8.0186567"><ele>234.0</ele><time>2026-04-19T13:42:06.008Z</time></trkpt><trkpt lat="44.982515" lon="8.0188017"><ele>234.0</ele><time>2026-04-19T13:42:07.009Z</time></trkpt><trkpt lat="44.9825683" lon="8.018955"><ele>234.0</ele><time>2026-04-19T13:42:08.008Z</time></trkpt><trkpt lat="44.98263" lon="8.0191233"><ele>234.0</ele><time>2026-04-19T13:42:09.008Z</time></trkpt><trkpt lat="44.9826633" lon="8.01927"><ele>234.0</ele><time>2026-04-19T13:42:10.008Z</time></trkpt><trkpt lat="44.9826767" lon="8.0194117"><ele>236.6</ele><time>2026-04-19T13:42:11.009Z</time></trkpt><trkpt lat="44.9826633" lon="8.0195417"><ele>239.2</ele><time>2026-04-19T13:42:12.008Z</time></trkpt><trkpt lat="44.9826267" lon="8.0196917"><ele>241.79999999999998</ele><time>2026-04-19T13:42:13.009Z</time></trkpt><trkpt lat="44.9825617" lon="8.0198417"><ele>244.39999999999998</ele><time>2026-04-19T13:42:14.008Z</time></trkpt><trkpt lat="44.9824983" lon="8.0199817"><ele>247.0</ele><time>2026-04-19T13:42:15.008Z</time></trkpt><trkpt lat="44.9824383" lon="8.020115"><ele>250.25</ele><time>2026-04-19T13:42:16.009Z</time></trkpt><trkpt lat="44.98238" lon="8.0202517"><ele>253.5</ele><time>2026-04-19T13:42:17.009Z</time></trkpt><trkpt lat="44.982325" lon="8.0203967"><ele>256.75</ele><time>2026-04-19T13:42:18.008Z</time></trkpt><trkpt lat="44.9822617" lon="8.02054"><ele>260.0</ele><time>2026-04-19T13:42:19.009Z</time></trkpt><trkpt lat="44.9821967" lon="8.02067"><ele>260.0</ele><time>2026-04-19T13:42:20.009Z</time></trkpt><trkpt lat="44.9821317" lon="8.020805"><ele>260.0</ele><time>2026-04-19T13:42:21.008Z</time></trkpt><trkpt lat="44.982055" lon="8.0209283"><ele>260.0</ele><time>2026-04-19T13:42:22.008Z</time></trkpt><trkpt lat="44.9819717" lon="8.0210317"><ele>260.0</ele><time>2026-04-19T13:42:23.009Z</time></trkpt><trkpt lat="44.9818983" lon="8.02113"><ele>260.0</ele><time>2026-04-19T13:42:24.008Z</time></trkpt><trkpt lat="44.9818333" lon="8.02124"><ele>260.5</ele><time>2026-04-19T13:42:25.009Z</time></trkpt><trkpt lat="44.9817817" lon="8.021335"><ele>261.0</ele><time>2026-04-19T13:42:26.009Z</time></trkpt><trkpt lat="44.9817367" lon="8.0214067"><ele>261.5</ele><time>2026-04-19T13:42:27.009Z</time></trkpt><trkpt lat="44.9816567" lon="8.02149"><ele>262.0</ele><time>2026-04-19T13:42:29.008Z</time></trkpt><trkpt lat="44.9815783" lon="8.0214817"><ele>262.5</ele><time>2026-04-19T13:42:31.008Z</time></trkpt><trkpt lat="44.9815067" lon="8.02146"><ele>263.0</ele><time>2026-04-19T13:42:32.008Z</time></trkpt><trkpt lat="44.9814183" lon="8.0214533"><ele>261.4</ele><time>2026-04-19T13:42:33.008Z</time></trkpt><trkpt lat="44.9813217" lon="8.0214733"><ele>259.8</ele><time>2026-04-19T13:42:34.008Z</time></trkpt><trkpt lat="44.9812233" lon="8.0215333"><ele>258.2</ele><time>2026-04-19T13:42:35.009Z</time></trkpt><trkpt lat="44.9811217" lon="8.0215933"><ele>256.6</ele><time>2026-04-19T13:42:36.008Z</time></trkpt><trkpt lat="44.9810267" lon="8.0216333"><ele>255.0</ele><time>2026-04-19T13:42:37.008Z</time></trkpt><trkpt lat="44.9809167" lon="8.0216367"><ele>255.8</ele><time>2026-04-19T13:42:38.008Z</time></trkpt><trkpt lat="44.9808017" lon="8.021595"><ele>256.6</ele><time>2026-04-19T13:42:39.009Z</time></trkpt><trkpt lat="44.980705" lon="8.0215383"><ele>257.4</ele><time>2026-04-19T13:42:40.009Z</time></trkpt><trkpt lat="44.9806283" lon="8.0214867"><ele>258.2</ele><time>2026-04-19T13:42:41.008Z</time></trkpt><trkpt lat="44.9805367" lon="8.0214117"><ele>259.0</ele><time>2026-04-19T13:42:42.009Z</time></trkpt><trkpt lat="44.980445" lon="8.0213217"><ele>259.0</ele><time>2026-04-19T13:42:43.009Z</time></trkpt><trkpt lat="44.98035" lon="8.0212333"><ele>259.0</ele><time>2026-04-19T13:42:44.008Z</time></trkpt><trkpt lat="44.9802417" lon="8.02116"><ele>259.0</ele><time>2026-04-19T13:42:45.008Z</time></trkpt><trkpt lat="44.9801367" lon="8.021115"><ele>259.0</ele><time>2026-04-19T13:42:46.008Z</time></trkpt><trkpt lat="44.9800217" lon="8.0210817"><ele>258.75</ele><time>2026-04-19T13:42:47.008Z</time></trkpt><trkpt lat="44.979905" lon="8.0210517"><ele>258.5</ele><time>2026-04-19T13:42:48.009Z</time></trkpt><trkpt lat="44.9797717" lon="8.0210217"><ele>258.25</ele><time>2026-04-19T13:42:49.008Z</time></trkpt><trkpt lat="44.9796417" lon="8.0209933"><ele>258.0</ele><time>2026-04-19T13:42:50.008Z</time></trkpt><trkpt lat="44.97951" lon="8.0209717"><ele>258.0</ele><time>2026-04-19T13:42:51.009Z</time></trkpt><trkpt lat="44.97938" lon="8.0209683"><ele>258.0</ele><time>2026-04-19T13:42:52.009Z</time></trkpt><trkpt lat="44.979275" lon="8.020955"><ele>258.0</ele><time>2026-04-19T13:42:53.009Z</time></trkpt><trkpt lat="44.9791717" lon="8.0209483"><ele>258.0</ele><time>2026-04-19T13:42:54.009Z</time></trkpt><trkpt lat="44.9790667" lon="8.0209217"><ele>258.0</ele><time>2026-04-19T13:42:55.009Z</time></trkpt><trkpt lat="44.9789583" lon="8.0208667"><ele>255.5</ele><time>2026-04-19T13:42:56.009Z</time></trkpt><trkpt lat="44.9788433" lon="8.0207833"><ele>253.0</ele><time>2026-04-19T13:42:57.008Z</time></trkpt><trkpt lat="44.97874" lon="8.0206933"><ele>250.5</ele><time>2026-04-19T13:42:58.008Z</time></trkpt><trkpt lat="44.9786417" lon="8.0206033"><ele>248.0</ele><time>2026-04-19T13:42:59.009Z</time></trkpt><trkpt lat="44.9785433" lon="8.02053"><ele>248.0</ele><time>2026-04-19T13:43:00.008Z</time></trkpt><trkpt lat="44.978445" lon="8.0204767"><ele>248.0</ele><time>2026-04-19T13:43:01.009Z</time></trkpt><trkpt lat="44.9783433" lon="8.0204283"><ele>248.0</ele><time>2026-04-19T13:43:02.009Z</time></trkpt><trkpt lat="44.978245" lon="8.0204117"><ele>248.0</ele><time>2026-04-19T13:43:03.008Z</time></trkpt><trkpt lat="44.9781467" lon="8.02041"><ele>248.0</ele><time>2026-04-19T13:43:04.009Z</time></trkpt><trkpt lat="44.9780483" lon="8.02044"><ele>248.4</ele><time>2026-04-19T13:43:05.009Z</time></trkpt><trkpt lat="44.97795" lon="8.0204867"><ele>248.8</ele><time>2026-04-19T13:43:06.008Z</time></trkpt><trkpt lat="44.97784" lon="8.0205467"><ele>249.2</ele><time>2026-04-19T13:43:07.008Z</time></trkpt><trkpt lat="44.9777517" lon="8.0206267"><ele>249.6</ele><time>2026-04-19T13:43:08.008Z</time></trkpt><trkpt lat="44.9776633" lon="8.020725"><ele>250.0</ele><time>2026-04-19T13:43:09.009Z</time></trkpt><trkpt lat="44.977575" lon="8.020825"><ele>250.25</ele><time>2026-04-19T13:43:10.009Z</time></trkpt><trkpt lat="44.977475" lon="8.020915"><ele>250.5</ele><time>2026-04-19T13:43:11.009Z</time></trkpt><trkpt lat="44.977365" lon="8.0209883"><ele>250.75</ele><time>2026-04-19T13:43:12.009Z</time></trkpt><trkpt lat="44.9772433" lon="8.0210783"><ele>251.0</ele><time>2026-04-19T13:43:13.008Z</time></trkpt><trkpt lat="44.977125" lon="8.02115"><ele>251.0</ele><time>2026-04-19T13:43:14.009Z</time></trkpt><trkpt lat="44.977005" lon="8.0212117"><ele>251.0</ele><time>2026-04-19T13:43:15.009Z</time></trkpt><trkpt lat="44.9768933" lon="8.0212767"><ele>251.0</ele><time>2026-04-19T13:43:16.008Z</time></trkpt><trkpt lat="44.97677" lon="8.02134"><ele>251.0</ele><time>2026-04-19T13:43:17.008Z</time></trkpt><trkpt lat="44.976655" lon="8.0213967"><ele>250.0</ele><time>2026-04-19T13:43:18.009Z</time></trkpt><trkpt lat="44.9765433" lon="8.0214467"><ele>249.0</ele><time>2026-04-19T13:43:19.008Z</time></trkpt><trkpt lat="44.9764233" lon="8.0215017"><ele>248.0</ele><time>2026-04-19T13:43:20.008Z</time></trkpt><trkpt lat="44.9763017" lon="8.0215683"><ele>247.0</ele><time>2026-04-19T13:43:21.009Z</time></trkpt><trkpt lat="44.9761917" lon="8.02165"><ele>246.75</ele><time>2026-04-19T13:43:22.008Z</time></trkpt><trkpt lat="44.976075" lon="8.0217283"><ele>246.5</ele><time>2026-04-19T13:43:23.009Z</time></trkpt><trkpt lat="44.9759633" lon="8.0217983"><ele>246.25</ele><time>2026-04-19T13:43:24.009Z</time></trkpt><trkpt lat="44.9758417" lon="8.0218617"><ele>246.0</ele><time>2026-04-19T13:43:25.008Z</time></trkpt><trkpt lat="44.9757167" lon="8.0219033"><ele>247.4</ele><time>2026-04-19T13:43:26.008Z</time></trkpt><trkpt lat="44.9755933" lon="8.0219517"><ele>248.8</ele><time>2026-04-19T13:43:27.009Z</time></trkpt><trkpt lat="44.9754867" lon="8.0219683"><ele>250.20000000000002</ele><time>2026-04-19T13:43:28.009Z</time></trkpt><trkpt lat="44.975405" lon="8.0219767"><ele>251.60000000000002</ele><time>2026-04-19T13:43:29.009Z</time></trkpt><trkpt lat="44.9753217" lon="8.02198"><ele>253.0</ele><time>2026-04-19T13:43:30.008Z</time></trkpt><trkpt lat="44.9752467" lon="8.0219617"><ele>253.0</ele><time>2026-04-19T13:43:31.009Z</time></trkpt><trkpt lat="44.9751767" lon="8.0219367"><ele>253.0</ele><time>2026-04-19T13:43:32.009Z</time></trkpt><trkpt lat="44.9750917" lon="8.0218867"><ele>253.0</ele><time>2026-04-19T13:43:33.008Z</time></trkpt><trkpt lat="44.9749983" lon="8.021805"><ele>253.0</ele><time>2026-04-19T13:43:34.008Z</time></trkpt><trkpt lat="44.9748967" lon="8.02173"><ele>253.0</ele><time>2026-04-19T13:43:35.009Z</time></trkpt><trkpt lat="44.9747867" lon="8.0216617"><ele>252.4</ele><time>2026-04-19T13:43:36.008Z</time></trkpt><trkpt lat="44.9746817" lon="8.0216067"><ele>251.8</ele><time>2026-04-19T13:43:37.008Z</time></trkpt><trkpt lat="44.9745833" lon="8.0215583"><ele>251.2</ele><time>2026-04-19T13:43:38.009Z</time></trkpt><trkpt lat="44.9744883" lon="8.0215183"><ele>250.6</ele><time>2026-04-19T13:43:39.009Z</time></trkpt><trkpt lat="44.974385" lon="8.0214833"><ele>250.0</ele><time>2026-04-19T13:43:40.008Z</time></trkpt><trkpt lat="44.9742783" lon="8.021455"><ele>250.8</ele><time>2026-04-19T13:43:41.008Z</time></trkpt><trkpt lat="44.9741717" lon="8.02142"><ele>251.6</ele><time>2026-04-19T13:43:42.009Z</time></trkpt><trkpt lat="44.9740783" lon="8.0214133"><ele>252.39999999999998</ele><time>2026-04-19T13:43:43.009Z</time></trkpt><trkpt lat="44.9739983" lon="8.0214367"><ele>253.2</ele><time>2026-04-19T13:43:44.008Z</time></trkpt><trkpt lat="44.9739233" lon="8.0215067"><ele>254.0</ele><time>2026-04-19T13:43:45.009Z</time></trkpt><trkpt lat="44.97386" lon="8.02162"><ele>253.2</ele><time>2026-04-19T13:43:46.008Z</time></trkpt><trkpt lat="44.973785" lon="8.0217467"><ele>252.39999999999998</ele><time>2026-04-19T13:43:47.008Z</time></trkpt><trkpt lat="44.9737117" lon="8.0218267"><ele>251.6</ele><time>2026-04-19T13:43:48.009Z</time></trkpt><trkpt lat="44.9736333" lon="8.0218683"><ele>250.8</ele><time>2026-04-19T13:43:49.009Z</time></trkpt><trkpt lat="44.973565" lon="8.021875"><ele>250.0</ele><time>2026-04-19T13:43:50.008Z</time></trkpt><trkpt lat="44.97347" lon="8.02177"><ele>250.0</ele><time>2026-04-19T13:43:52.008Z</time></trkpt><trkpt lat="44.9734067" lon="8.0216783"><ele>250.0</ele><time>2026-04-19T13:43:53.009Z</time></trkpt><trkpt lat="44.9733367" lon="8.0215867"><ele>250.0</ele><time>2026-04-19T13:43:54.008Z</time></trkpt><trkpt lat="44.9732517" lon="8.021495"><ele>250.0</ele><time>2026-04-19T13:43:55.008Z</time></trkpt><trkpt lat="44.9731583" lon="8.0214067"><ele>250.0</ele><time>2026-04-19T13:43:56.008Z</time></trkpt><trkpt lat="44.9730717" lon="8.021325"><ele>253.8</ele><time>2026-04-19T13:43:57.008Z</time></trkpt><trkpt lat="44.97299" lon="8.0212517"><ele>257.6</ele><time>2026-04-19T13:43:58.008Z</time></trkpt><trkpt lat="44.9728883" lon="8.021195"><ele>261.4</ele><time>2026-04-19T13:43:59.008Z</time></trkpt><trkpt lat="44.972795" lon="8.021135"><ele>265.2</ele><time>2026-04-19T13:44:00.009Z</time></trkpt><trkpt lat="44.9727067" lon="8.021085"><ele>269.0</ele><time>2026-04-19T13:44:01.008Z</time></trkpt><trkpt lat="44.9726067" lon="8.0210283"><ele>269.0</ele><time>2026-04-19T13:44:02.008Z</time></trkpt><trkpt lat="44.9725067" lon="8.0209833"><ele>269.0</ele><time>2026-04-19T13:44:03.008Z</time></trkpt><trkpt lat="44.9724117" lon="8.0209417"><ele>269.0</ele><time>2026-04-19T13:44:04.008Z</time></trkpt><trkpt lat="44.9723233" lon="8.020905"><ele>269.0</ele><time>2026-04-19T13:44:05.009Z</time></trkpt><trkpt lat="44.9722383" lon="8.0208883"><ele>269.0</ele><time>2026-04-19T13:44:06.008Z</time></trkpt><trkpt lat="44.972155" lon="8.020885"><ele>269.0</ele><time>2026-04-19T13:44:07.008Z</time></trkpt><trkpt lat="44.9720733" lon="8.0208617"><ele>269.0</ele><time>2026-04-19T13:44:08.008Z</time></trkpt><trkpt lat="44.9719933" lon="8.0208367"><ele>269.0</ele><time>2026-04-19T13:44:09.008Z</time></trkpt><trkpt lat="44.9719083" lon="8.0208117"><ele>269.0</ele><time>2026-04-19T13:44:10.008Z</time></trkpt><trkpt lat="44.9718383" lon="8.0207867"><ele>269.0</ele><time>2026-04-19T13:44:11.009Z</time></trkpt><trkpt lat="44.9717583" lon="8.020745"><ele>269.0</ele><time>2026-04-19T13:44:12.008Z</time></trkpt><trkpt lat="44.971675" lon="8.02068"><ele>266.5</ele><time>2026-04-19T13:44:13.008Z</time></trkpt><trkpt lat="44.971575" lon="8.0205867"><ele>264.0</ele><time>2026-04-19T13:44:14.009Z</time></trkpt><trkpt lat="44.9714867" lon="8.0205"><ele>261.5</ele><time>2026-04-19T13:44:15.008Z</time></trkpt><trkpt lat="44.971395" lon="8.0204217"><ele>259.0</ele><time>2026-04-19T13:44:16.009Z</time></trkpt><trkpt lat="44.971285" lon="8.0203633"><ele>259.0</ele><time>2026-04-19T13:44:17.008Z</time></trkpt><trkpt lat="44.971175" lon="8.0203183"><ele>259.0</ele><time>2026-04-19T13:44:18.009Z</time></trkpt><trkpt lat="44.9710633" lon="8.02031"><ele>259.0</ele><time>2026-04-19T13:44:19.008Z</time></trkpt><trkpt lat="44.970935" lon="8.02031"><ele>259.0</ele><time>2026-04-19T13:44:20.008Z</time></trkpt><trkpt lat="44.970835" lon="8.020315"><ele>258.66666666666663</ele><time>2026-04-19T13:44:21.009Z</time></trkpt><trkpt lat="44.97074" lon="8.02029"><ele>258.3333333333333</ele><time>2026-04-19T13:44:22.008Z</time></trkpt><trkpt lat="44.9706633" lon="8.0203017"><ele>258.0</ele><time>2026-04-19T13:44:23.009Z</time></trkpt><trkpt lat="44.970585" lon="8.020275"><ele>257.6666666666667</ele><time>2026-04-19T13:44:24.009Z</time></trkpt><trkpt lat="44.9705133" lon="8.0202367"><ele>257.33333333333337</ele><time>2026-04-19T13:44:25.008Z</time></trkpt><trkpt lat="44.9704283" lon="8.0201633"><ele>257.0</ele><time>2026-04-19T13:44:26.008Z</time></trkpt><trkpt lat="44.9703467" lon="8.0200417"><ele>255.8</ele><time>2026-04-19T13:44:27.008Z</time></trkpt><trkpt lat="44.97029" lon="8.0199167"><ele>254.6</ele><time>2026-04-19T13:44:28.009Z</time></trkpt><trkpt lat="44.9702233" lon="8.0197867"><ele>253.40000000000003</ele><time>2026-04-19T13:44:29.008Z</time></trkpt><trkpt lat="44.9701633" lon="8.01966"><ele>252.20000000000002</ele><time>2026-04-19T13:44:30.009Z</time></trkpt><trkpt lat="44.9701033" lon="8.01952"><ele>251.0</ele><time>2026-04-19T13:44:31.008Z</time></trkpt><trkpt lat="44.9700433" lon="8.0193967"><ele>250.33333333333334</ele><time>2026-04-19T13:44:32.008Z</time></trkpt><trkpt lat="44.9699817" lon="8.0192933"><ele>249.66666666666669</ele><time>2026-04-19T13:44:33.008Z</time></trkpt><trkpt lat="44.9699083" lon="8.019185"><ele>249.0</ele><time>2026-04-19T13:44:34.009Z</time></trkpt><trkpt lat="44.9698617" lon="8.01908"><ele>248.33333333333331</ele><time>2026-04-19T13:44:35.008Z</time></trkpt><trkpt lat="44.969835" lon="8.0189767"><ele>247.66666666666666</ele><time>2026-04-19T13:44:36.009Z</time></trkpt><trkpt lat="44.969825" lon="8.0188633"><ele>247.0</ele><time>2026-04-19T13:44:37.008Z</time></trkpt><trkpt lat="44.9698283" lon="8.0187367"><ele>247.0</ele><time>2026-04-19T13:44:38.008Z</time></trkpt><trkpt lat="44.9698383" lon="8.0186317"><ele>247.0</ele><time>2026-04-19T13:44:39.008Z</time></trkpt><trkpt lat="44.9698167" lon="8.018475"><ele>247.0</ele><time>2026-04-19T13:44:41.008Z</time></trkpt><trkpt lat="44.969705" lon="8.0183767"><ele>247.0</ele><time>2026-04-19T13:44:43.009Z</time></trkpt><trkpt lat="44.9696267" lon="8.01833"><ele>247.0</ele><time>2026-04-19T13:44:44.008Z</time></trkpt><trkpt lat="44.9695467" lon="8.0183"><ele>246.99999999999997</ele><time>2026-04-19T13:44:45.009Z</time></trkpt><trkpt lat="44.969475" lon="8.018285"><ele>247.0</ele><time>2026-04-19T13:44:46.009Z</time></trkpt><trkpt lat="44.9693983" lon="8.01829"><ele>247.0</ele><time>2026-04-19T13:44:47.008Z</time></trkpt><trkpt lat="44.9693267" lon="8.018305"><ele>247.0</ele><time>2026-04-19T13:44:48.008Z</time></trkpt><trkpt lat="44.9692483" lon="8.0183367"><ele>246.99999999999997</ele><time>2026-04-19T13:44:49.009Z</time></trkpt><trkpt lat="44.9691717" lon="8.0183933"><ele>247.0</ele><time>2026-04-19T13:44:50.009Z</time></trkpt><trkpt lat="44.96909" lon="8.0184617"><ele>246.16666666666666</ele><time>2026-04-19T13:44:51.008Z</time></trkpt><trkpt lat="44.969" lon="8.01853"><ele>245.33333333333331</ele><time>2026-04-19T13:44:52.008Z</time></trkpt><trkpt lat="44.96893" lon="8.0185917"><ele>244.5</ele><time>2026-04-19T13:44:53.008Z</time></trkpt><trkpt lat="44.9688517" lon="8.01865"><ele>243.66666666666669</ele><time>2026-04-19T13:44:54.008Z</time></trkpt><trkpt lat="44.9687733" lon="8.0187067"><ele>242.83333333333334</ele><time>2026-04-19T13:44:55.008Z</time></trkpt><trkpt lat="44.9686933" lon="8.018755"><ele>242.0</ele><time>2026-04-19T13:44:56.008Z</time></trkpt><trkpt lat="44.9686183" lon="8.0188083"><ele>242.00000000000003</ele><time>2026-04-19T13:44:57.008Z</time></trkpt><trkpt lat="44.9685483" lon="8.0188567"><ele>242.0</ele><time>2026-04-19T13:44:58.008Z</time></trkpt><trkpt lat="44.968475" lon="8.0188833"><ele>242.0</ele><time>2026-04-19T13:44:59.008Z</time></trkpt><trkpt lat="44.968385" lon="8.0188917"><ele>242.0</ele><time>2026-04-19T13:45:01.009Z</time></trkpt><trkpt lat="44.96832" lon="8.0188867"><ele>242.00000000000003</ele><time>2026-04-19T13:45:03.008Z</time></trkpt><trkpt lat="44.9682333" lon="8.0189467"><ele>242.0</ele><time>2026-04-19T13:45:05.008Z</time></trkpt><trkpt lat="44.9681433" lon="8.0190483"><ele>240.2</ele><time>2026-04-19T13:45:07.009Z</time></trkpt><trkpt lat="44.96807" lon="8.0191483"><ele>238.39999999999998</ele><time>2026-04-19T13:45:09.009Z</time></trkpt><trkpt lat="44.9679783" lon="8.0192783"><ele>236.60000000000002</ele><time>2026-04-19T13:45:11.009Z</time></trkpt><trkpt lat="44.9679117" lon="8.0193267"><ele>234.8</ele><time>2026-04-19T13:45:12.009Z</time></trkpt><trkpt lat="44.9678433" lon="8.019355"><ele>233.0</ele><time>2026-04-19T13:45:13.009Z</time></trkpt><trkpt lat="44.9677683" lon="8.0193717"><ele>233.00000000000003</ele><time>2026-04-19T13:45:14.009Z</time></trkpt><trkpt lat="44.9676917" lon="8.0193933"><ele>233.0</ele><time>2026-04-19T13:45:15.008Z</time></trkpt><trkpt lat="44.9676267" lon="8.0194417"><ele>233.0</ele><time>2026-04-19T13:45:16.009Z</time></trkpt><trkpt lat="44.9675567" lon="8.0195033"><ele>233.0</ele><time>2026-04-19T13:45:17.009Z</time></trkpt><trkpt lat="44.967495" lon="8.0195733"><ele>233.00000000000003</ele><time>2026-04-19T13:45:18.008Z</time></trkpt><trkpt lat="44.96743" lon="8.0196383"><ele>233.0</ele><time>2026-04-19T13:45:19.009Z</time></trkpt><trkpt lat="44.9673783" lon="8.019695"><ele>233.00000000000003</ele><time>2026-04-19T13:45:20.009Z</time></trkpt><trkpt lat="44.9672767" lon="8.01978"><ele>233.0</ele><time>2026-04-19T13:45:22.008Z</time></trkpt><trkpt lat="44.967225" lon="8.0198317"><ele>233.0</ele><time>2026-04-19T13:45:23.009Z</time></trkpt><trkpt lat="44.9671683" lon="8.0198717"><ele>233.0</ele><time>2026-04-19T13:45:24.009Z</time></trkpt><trkpt lat="44.96711" lon="8.0199117"><ele>233.00000000000003</ele><time>2026-04-19T13:45:25.009Z</time></trkpt><trkpt lat="44.9670167" lon="8.01998"><ele>233.0</ele><time>2026-04-19T13:45:27.008Z</time></trkpt><trkpt lat="44.9669233" lon="8.0200583"><ele>233.25</ele><time>2026-04-19T13:45:29.009Z</time></trkpt><trkpt lat="44.9668183" lon="8.0201367"><ele>233.5</ele><time>2026-04-19T13:45:31.008Z</time></trkpt><trkpt lat="44.9667217" lon="8.0202217"><ele>233.75</ele><time>2026-04-19T13:45:33.009Z</time></trkpt><trkpt lat="44.9666383" lon="8.02032"><ele>234.0</ele><time>2026-04-19T13:45:35.008Z</time></trkpt><trkpt lat="44.9665583" lon="8.0204317"><ele>234.33333333333334</ele><time>2026-04-19T13:45:37.008Z</time></trkpt><trkpt lat="44.966475" lon="8.02054"><ele>234.66666666666669</ele><time>2026-04-19T13:45:39.008Z</time></trkpt><trkpt lat="44.9663933" lon="8.02065"><ele>235.0</ele><time>2026-04-19T13:45:41.008Z</time></trkpt><trkpt lat="44.9663483" lon="8.0207133"><ele>235.33333333333334</ele><time>2026-04-19T13:45:42.008Z</time></trkpt><trkpt lat="44.9662983" lon="8.0207783"><ele>235.66666666666669</ele><time>2026-04-19T13:45:43.009Z</time></trkpt><trkpt lat="44.9662583" lon="8.02085"><ele>236.0</ele><time>2026-04-19T13:45:44.008Z</time></trkpt><trkpt lat="44.96618" lon="8.02098"><ele>236.33333333333334</ele><time>2026-04-19T13:45:46.008Z</time></trkpt><trkpt lat="44.9661383" lon="8.0210567"><ele>236.66666666666669</ele><time>2026-04-19T13:45:47.009Z</time></trkpt><trkpt lat="44.9660883" lon="8.021135"><ele>237.0</ele><time>2026-04-19T13:45:48.008Z</time></trkpt><trkpt lat="44.9660433" lon="8.0212033"><ele>237.33333333333331</ele><time>2026-04-19T13:45:49.009Z</time></trkpt><trkpt lat="44.965995" lon="8.021265"><ele>237.66666666666666</ele><time>2026-04-19T13:45:50.008Z</time></trkpt><trkpt lat="44.9659417" lon="8.0213417"><ele>238.0</ele><time>2026-04-19T13:45:51.009Z</time></trkpt><trkpt lat="44.96586" lon="8.0214517"><ele>237.0</ele><time>2026-04-19T13:45:53.008Z</time></trkpt><trkpt lat="44.96576" lon="8.02155"><ele>236.0</ele><time>2026-04-19T13:45:55.008Z</time></trkpt><trkpt lat="44.9657067" lon="8.0216017"><ele>235.0</ele><time>2026-04-19T13:45:56.009Z</time></trkpt><trkpt lat="44.9656517" lon="8.02165"><ele>234.0</ele><time>2026-04-19T13:45:57.008Z</time></trkpt><trkpt lat="44.9655483" lon="8.0217167"><ele>233.0</ele><time>2026-04-19T13:45:59.009Z</time></trkpt><trkpt lat="44.96543" lon="8.0217717"><ele>232.8</ele><time>2026-04-19T13:46:01.008Z</time></trkpt><trkpt lat="44.9653617" lon="8.0218033"><ele>232.60000000000002</ele><time>2026-04-19T13:46:02.009Z</time></trkpt><trkpt lat="44.9652983" lon="8.021835"><ele>232.39999999999998</ele><time>2026-04-19T13:46:03.009Z</time></trkpt><trkpt lat="44.965185" lon="8.021905"><ele>232.2</ele><time>2026-04-19T13:46:05.009Z</time></trkpt><trkpt lat="44.9650817" lon="8.0219667"><ele>232.0</ele><time>2026-04-19T13:46:07.009Z</time></trkpt><trkpt lat="44.9650067" lon="8.0219967"><ele>232.33333333333331</ele><time>2026-04-19T13:46:09.009Z</time></trkpt><trkpt lat="44.9649267" lon="8.022005"><ele>232.66666666666666</ele><time>2026-04-19T13:46:12.008Z</time></trkpt><trkpt lat="44.96486" lon="8.0220183"><ele>233.0</ele><time>2026-04-19T13:46:16.009Z</time></trkpt><trkpt lat="44.9647717" lon="8.0220267"><ele>233.33333333333331</ele><time>2026-04-19T13:46:20.009Z</time></trkpt><trkpt lat="44.9647033" lon="8.02204"><ele>233.66666666666666</ele><time>2026-04-19T13:46:22.008Z</time></trkpt><trkpt lat="44.964625" lon="8.0220533"><ele>234.0</ele><time>2026-04-19T13:46:24.008Z</time></trkpt><trkpt lat="44.9645233" lon="8.0220367"><ele>234.0</ele><time>2026-04-19T13:46:26.008Z</time></trkpt><trkpt lat="44.9643967" lon="8.0220117"><ele>234.0</ele><time>2026-04-19T13:46:28.008Z</time></trkpt><trkpt lat="44.964325" lon="8.0220033"><ele>234.0</ele><time>2026-04-19T13:46:29.008Z</time></trkpt><trkpt lat="44.9642533" lon="8.0219967"><ele>234.0</ele><time>2026-04-19T13:46:30.008Z</time></trkpt><trkpt lat="44.9641767" lon="8.0219983"><ele>234.0</ele><time>2026-04-19T13:46:31.009Z</time></trkpt><trkpt lat="44.964105" lon="8.0219933"><ele>234.0</ele><time>2026-04-19T13:46:32.008Z</time></trkpt><trkpt lat="44.9640417" lon="8.0219917"><ele>235.0</ele><time>2026-04-19T13:46:33.009Z</time></trkpt><trkpt lat="44.9639717" lon="8.0219717"><ele>236.00000000000003</ele><time>2026-04-19T13:46:34.009Z</time></trkpt><trkpt lat="44.9639083" lon="8.0219483"><ele>237.0</ele><time>2026-04-19T13:46:35.009Z</time></trkpt><trkpt lat="44.9638467" lon="8.0219183"><ele>238.0</ele><time>2026-04-19T13:46:36.009Z</time></trkpt><trkpt lat="44.9637867" lon="8.0218767"><ele>239.00000000000003</ele><time>2026-04-19T13:46:37.009Z</time></trkpt><trkpt lat="44.963715" lon="8.0218283"><ele>240.0</ele><time>2026-04-19T13:46:38.008Z</time></trkpt><trkpt lat="44.963645" lon="8.02179"><ele>241.0</ele><time>2026-04-19T13:46:39.009Z</time></trkpt><trkpt lat="44.9635833" lon="8.0217633"><ele>241.0</ele><time>2026-04-19T13:46:40.008Z</time></trkpt><trkpt lat="44.96348" lon="8.0216983"><ele>241.00000000000003</ele><time>2026-04-19T13:46:42.009Z</time></trkpt><trkpt lat="44.9633817" lon="8.0216217"><ele>241.00000000000003</ele><time>2026-04-19T13:46:44.009Z</time></trkpt><trkpt lat="44.9632867" lon="8.0216167"><ele>241.0</ele><time>2026-04-19T13:46:46.008Z</time></trkpt><trkpt lat="44.963185" lon="8.0216717"><ele>241.0</ele><time>2026-04-19T13:46:48.009Z</time></trkpt><trkpt lat="44.9631333" lon="8.0217283"><ele>241.83333333333331</ele><time>2026-04-19T13:46:49.009Z</time></trkpt><trkpt lat="44.963085" lon="8.02179"><ele>242.66666666666666</ele><time>2026-04-19T13:46:50.008Z</time></trkpt><trkpt lat="44.9630183" lon="8.0219367"><ele>243.5</ele><time>2026-04-19T13:46:52.009Z</time></trkpt><trkpt lat="44.9629867" lon="8.022015"><ele>244.33333333333331</ele><time>2026-04-19T13:46:53.008Z</time></trkpt><trkpt lat="44.962945" lon="8.022105"><ele>245.16666666666666</ele><time>2026-04-19T13:46:55.008Z</time></trkpt><trkpt lat="44.96292" lon="8.0222117"><ele>246.0</ele><time>2026-04-19T13:47:03.008Z</time></trkpt><trkpt lat="44.9628633" lon="8.022365"><ele>246.0</ele><time>2026-04-19T13:47:05.008Z</time></trkpt><trkpt lat="44.9628317" lon="8.022455"><ele>246.0</ele><time>2026-04-19T13:47:06.009Z</time></trkpt><trkpt lat="44.9628067" lon="8.0225517"><ele>246.0</ele><time>2026-04-19T13:47:07.009Z</time></trkpt><trkpt lat="44.962765" lon="8.0226967"><ele>246.0</ele><time>2026-04-19T13:47:09.008Z</time></trkpt><trkpt lat="44.9627167" lon="8.0227833"><ele>246.0</ele><time>2026-04-19T13:47:11.008Z</time></trkpt><trkpt lat="44.9626867" lon="8.022885"><ele>246.0</ele><time>2026-04-19T13:48:00.009Z</time></trkpt><trkpt lat="44.9626317" lon="8.023"><ele>245.60000000000002</ele><time>2026-04-19T13:48:02.008Z</time></trkpt><trkpt lat="44.9625483" lon="8.0231317"><ele>245.20000000000002</ele><time>2026-04-19T13:48:04.009Z</time></trkpt><trkpt lat="44.9624983" lon="8.023205"><ele>244.79999999999998</ele><time>2026-04-19T13:48:05.008Z</time></trkpt><trkpt lat="44.9624567" lon="8.0232783"><ele>244.39999999999998</ele><time>2026-04-19T13:48:06.009Z</time></trkpt><trkpt lat="44.9624017" lon="8.0233983"><ele>244.0</ele><time>2026-04-19T13:48:08.008Z</time></trkpt><trkpt lat="44.9623617" lon="8.023525"><ele>243.83333333333331</ele><time>2026-04-19T13:48:10.009Z</time></trkpt><trkpt lat="44.9623317" lon="8.02361"><ele>243.66666666666666</ele><time>2026-04-19T13:48:11.008Z</time></trkpt><trkpt lat="44.9622883" lon="8.0236967"><ele>243.5</ele><time>2026-04-19T13:48:12.008Z</time></trkpt><trkpt lat="44.96223" lon="8.0238317"><ele>243.33333333333331</ele><time>2026-04-19T13:48:14.009Z</time></trkpt><trkpt lat="44.9621717" lon="8.0239783"><ele>243.16666666666666</ele><time>2026-04-19T13:48:16.009Z</time></trkpt><trkpt lat="44.962135" lon="8.0240517"><ele>243.0</ele><time>2026-04-19T13:48:17.009Z</time></trkpt><trkpt lat="44.9621067" lon="8.0241333"><ele>243.0</ele><time>2026-04-19T13:48:18.008Z</time></trkpt><trkpt lat="44.96204" lon="8.024295"><ele>243.0</ele><time>2026-04-19T13:48:20.008Z</time></trkpt><trkpt lat="44.9620033" lon="8.02439"><ele>243.0</ele><time>2026-04-19T13:48:21.008Z</time></trkpt><trkpt lat="44.9619717" lon="8.0244933"><ele>243.0</ele><time>2026-04-19T13:48:22.008Z</time></trkpt><trkpt lat="44.9619317" lon="8.0246033"><ele>243.0</ele><time>2026-04-19T13:48:23.009Z</time></trkpt><trkpt lat="44.9618967" lon="8.024705"><ele>243.0</ele><time>2026-04-19T13:48:24.009Z</time></trkpt><trkpt lat="44.961865" lon="8.0247883"><ele>243.0</ele><time>2026-04-19T13:48:25.009Z</time></trkpt><trkpt lat="44.9618317" lon="8.024865"><ele>243.0</ele><time>2026-04-19T13:48:26.008Z</time></trkpt><trkpt lat="44.961765" lon="8.0250017"><ele>243.0</ele><time>2026-04-19T13:48:28.008Z</time></trkpt><trkpt lat="44.9616883" lon="8.0251367"><ele>243.0</ele><time>2026-04-19T13:48:30.008Z</time></trkpt><trkpt lat="44.961635" lon="8.0252033"><ele>243.0</ele><time>2026-04-19T13:48:31.009Z</time></trkpt><trkpt lat="44.9615533" lon="8.02529"><ele>243.83333333333334</ele><time>2026-04-19T13:48:32.009Z</time></trkpt><trkpt lat="44.9614867" lon="8.0253583"><ele>244.66666666666669</ele><time>2026-04-19T13:48:33.009Z</time></trkpt><trkpt lat="44.9614133" lon="8.0254133"><ele>245.5</ele><time>2026-04-19T13:48:34.008Z</time></trkpt><trkpt lat="44.9613367" lon="8.0254717"><ele>246.33333333333334</ele><time>2026-04-19T13:48:35.008Z</time></trkpt><trkpt lat="44.9612633" lon="8.0255183"><ele>247.16666666666669</ele><time>2026-04-19T13:48:36.008Z</time></trkpt><trkpt lat="44.96119" lon="8.025545"><ele>248.0</ele><time>2026-04-19T13:48:37.008Z</time></trkpt><trkpt lat="44.96112" lon="8.025565"><ele>248.0</ele><time>2026-04-19T13:48:38.008Z</time></trkpt><trkpt lat="44.9610483" lon="8.02558"><ele>248.0</ele><time>2026-04-19T13:48:39.008Z</time></trkpt><trkpt lat="44.9609633" lon="8.0256133"><ele>248.0</ele><time>2026-04-19T13:48:40.008Z</time></trkpt><trkpt lat="44.960865" lon="8.0256517"><ele>248.0</ele><time>2026-04-19T13:48:41.009Z</time></trkpt><trkpt lat="44.9607667" lon="8.0257"><ele>248.0</ele><time>2026-04-19T13:48:42.009Z</time></trkpt><trkpt lat="44.96067" lon="8.0257467"><ele>249.0</ele><time>2026-04-19T13:48:43.008Z</time></trkpt><trkpt lat="44.9605767" lon="8.0257883"><ele>250.0</ele><time>2026-04-19T13:48:44.008Z</time></trkpt><trkpt lat="44.96048" lon="8.0258333"><ele>251.0</ele><time>2026-04-19T13:48:45.008Z</time></trkpt><trkpt lat="44.9603717" lon="8.025845"><ele>252.0</ele><time>2026-04-19T13:48:46.008Z</time></trkpt><trkpt lat="44.9602583" lon="8.0258567"><ele>253.0</ele><time>2026-04-19T13:48:47.009Z</time></trkpt><trkpt lat="44.9601483" lon="8.0258417"><ele>253.0</ele><time>2026-04-19T13:48:48.008Z</time></trkpt><trkpt lat="44.9600367" lon="8.02582"><ele>253.0</ele><time>2026-04-19T13:48:49.009Z</time></trkpt><trkpt lat="44.9599267" lon="8.0257917"><ele>253.0</ele><time>2026-04-19T13:48:50.009Z</time></trkpt><trkpt lat="44.9598233" lon="8.0257483"><ele>253.0</ele><time>2026-04-19T13:48:51.008Z</time></trkpt><trkpt lat="44.9597217" lon="8.025675"><ele>253.0</ele><time>2026-04-19T13:48:52.008Z</time></trkpt><trkpt lat="44.95962" lon="8.0256067"><ele>252.60000000000002</ele><time>2026-04-19T13:48:53.009Z</time></trkpt><trkpt lat="44.9595083" lon="8.02555"><ele>252.20000000000002</ele><time>2026-04-19T13:48:54.009Z</time></trkpt><trkpt lat="44.9594083" lon="8.0254967"><ele>251.8</ele><time>2026-04-19T13:48:55.008Z</time></trkpt><trkpt lat="44.959315" lon="8.025445"><ele>251.4</ele><time>2026-04-19T13:48:56.009Z</time></trkpt><trkpt lat="44.9592217" lon="8.0253733"><ele>251.0</ele><time>2026-04-19T13:48:57.009Z</time></trkpt><trkpt lat="44.9591367" lon="8.0252917"><ele>251.0</ele><time>2026-04-19T13:48:58.009Z</time></trkpt><trkpt lat="44.9590467" lon="8.025205"><ele>251.00000000000003</ele><time>2026-04-19T13:48:59.009Z</time></trkpt><trkpt lat="44.95897" lon="8.0251217"><ele>251.00000000000003</ele><time>2026-04-19T13:49:00.009Z</time></trkpt><trkpt lat="44.9588867" lon="8.02504"><ele>251.0</ele><time>2026-04-19T13:49:01.009Z</time></trkpt><trkpt lat="44.9587933" lon="8.024955"><ele>251.0</ele><time>2026-04-19T13:49:02.009Z</time></trkpt><trkpt lat="44.9587" lon="8.024865"><ele>251.25</ele><time>2026-04-19T13:49:03.009Z</time></trkpt><trkpt lat="44.95861" lon="8.024765"><ele>251.5</ele><time>2026-04-19T13:49:04.008Z</time></trkpt><trkpt lat="44.958515" lon="8.024655"><ele>251.75</ele><time>2026-04-19T13:49:05.009Z</time></trkpt><trkpt lat="44.95843" lon="8.0245433"><ele>252.0</ele><time>2026-04-19T13:49:06.008Z</time></trkpt><trkpt lat="44.95834" lon="8.0244367"><ele>252.0</ele><time>2026-04-19T13:49:07.009Z</time></trkpt><trkpt lat="44.95823" lon="8.0243417"><ele>252.0</ele><time>2026-04-19T13:49:08.009Z</time></trkpt><trkpt lat="44.9581017" lon="8.024275"><ele>252.0</ele><time>2026-04-19T13:49:09.008Z</time></trkpt><trkpt lat="44.957985" lon="8.0241967"><ele>252.0</ele><time>2026-04-19T13:49:10.009Z</time></trkpt><trkpt lat="44.957865" lon="8.0241317"><ele>251.5</ele><time>2026-04-19T13:49:11.008Z</time></trkpt><trkpt lat="44.95773" lon="8.024065"><ele>251.0</ele><time>2026-04-19T13:49:12.008Z</time></trkpt><trkpt lat="44.957595" lon="8.023975"><ele>250.5</ele><time>2026-04-19T13:49:13.009Z</time></trkpt><trkpt lat="44.9574633" lon="8.0239083"><ele>250.0</ele><time>2026-04-19T13:49:14.009Z</time></trkpt><trkpt lat="44.95733" lon="8.0238633"><ele>252.33333333333331</ele><time>2026-04-19T13:49:15.009Z</time></trkpt><trkpt lat="44.9571917" lon="8.0238467"><ele>254.66666666666669</ele><time>2026-04-19T13:49:16.008Z</time></trkpt><trkpt lat="44.9570317" lon="8.0238567"><ele>257.0</ele><time>2026-04-19T13:49:17.008Z</time></trkpt><trkpt lat="44.9568783" lon="8.0238967"><ele>257.0</ele><time>2026-04-19T13:49:18.009Z</time></trkpt><trkpt lat="44.9567083" lon="8.0239683"><ele>257.0</ele><time>2026-04-19T13:49:19.008Z</time></trkpt><trkpt lat="44.9565583" lon="8.024065"><ele>257.0</ele><time>2026-04-19T13:49:20.009Z</time></trkpt><trkpt lat="44.956415" lon="8.0242067"><ele>253.33333333333334</ele><time>2026-04-19T13:49:21.008Z</time></trkpt><trkpt lat="44.9562767" lon="8.0243583"><ele>249.66666666666669</ele><time>2026-04-19T13:49:22.009Z</time></trkpt><trkpt lat="44.95614" lon="8.0245"><ele>246.0</ele><time>2026-04-19T13:49:23.008Z</time></trkpt><trkpt lat="44.95601" lon="8.0246233"><ele>246.0</ele><time>2026-04-19T13:49:24.009Z</time></trkpt><trkpt lat="44.9558717" lon="8.0247517"><ele>246.0</ele><time>2026-04-19T13:49:25.008Z</time></trkpt><trkpt lat="44.9557433" lon="8.0248667"><ele>246.0</ele><time>2026-04-19T13:49:26.009Z</time></trkpt><trkpt lat="44.95562" lon="8.024985"><ele>246.75</ele><time>2026-04-19T13:49:27.008Z</time></trkpt><trkpt lat="44.9555067" lon="8.0250883"><ele>247.5</ele><time>2026-04-19T13:49:28.008Z</time></trkpt><trkpt lat="44.955375" lon="8.0251617"><ele>248.25</ele><time>2026-04-19T13:49:29.009Z</time></trkpt><trkpt lat="44.9552267" lon="8.0252267"><ele>249.0</ele><time>2026-04-19T13:49:30.008Z</time></trkpt><trkpt lat="44.95508" lon="8.025285"><ele>247.5</ele><time>2026-04-19T13:49:31.008Z</time></trkpt><trkpt lat="44.954945" lon="8.0253417"><ele>246.0</ele><time>2026-04-19T13:49:32.007Z</time></trkpt><trkpt lat="44.954815" lon="8.0253967"><ele>244.5</ele><time>2026-04-19T13:49:33.008Z</time></trkpt><trkpt lat="44.954695" lon="8.0254467"><ele>243.0</ele><time>2026-04-19T13:49:34.007Z</time></trkpt><trkpt lat="44.9545767" lon="8.0254967"><ele>243.0</ele><time>2026-04-19T13:49:35.007Z</time></trkpt><trkpt lat="44.9544583" lon="8.0255417"><ele>243.0</ele><time>2026-04-19T13:49:36.008Z</time></trkpt><trkpt lat="44.9543433" lon="8.0255917"><ele>243.0</ele><time>2026-04-19T13:49:37.007Z</time></trkpt><trkpt lat="44.9542233" lon="8.0256483"><ele>243.0</ele><time>2026-04-19T13:49:38.007Z</time></trkpt><trkpt lat="44.9540983" lon="8.0257183"><ele>243.0</ele><time>2026-04-19T13:49:39.007Z</time></trkpt><trkpt lat="44.9539633" lon="8.0257733"><ele>243.0</ele><time>2026-04-19T13:49:40.008Z</time></trkpt><trkpt lat="44.9538233" lon="8.025845"><ele>243.0</ele><time>2026-04-19T13:49:41.008Z</time></trkpt><trkpt lat="44.9536883" lon="8.025905"><ele>243.0</ele><time>2026-04-19T13:49:42.008Z</time></trkpt><trkpt lat="44.9535483" lon="8.0259867"><ele>243.0</ele><time>2026-04-19T13:49:43.007Z</time></trkpt><trkpt lat="44.953415" lon="8.02605"><ele>243.0</ele><time>2026-04-19T13:49:44.007Z</time></trkpt><trkpt lat="44.953285" lon="8.0261117"><ele>243.0</ele><time>2026-04-19T13:49:45.007Z</time></trkpt><trkpt lat="44.95317" lon="8.0261483"><ele>243.0</ele><time>2026-04-19T13:49:46.008Z</time></trkpt><trkpt lat="44.9530583" lon="8.026185"><ele>243.75</ele><time>2026-04-19T13:49:47.007Z</time></trkpt><trkpt lat="44.9529383" lon="8.0262367"><ele>244.5</ele><time>2026-04-19T13:49:48.007Z</time></trkpt><trkpt lat="44.9528267" lon="8.0262817"><ele>245.25</ele><time>2026-04-19T13:49:49.008Z</time></trkpt><trkpt lat="44.952715" lon="8.0263183"><ele>246.0</ele><time>2026-04-19T13:49:50.008Z</time></trkpt><trkpt lat="44.95261" lon="8.026355"><ele>246.60000000000002</ele><time>2026-04-19T13:49:51.008Z</time></trkpt><trkpt lat="44.9525133" lon="8.0263833"><ele>247.20000000000002</ele><time>2026-04-19T13:49:52.008Z</time></trkpt><trkpt lat="44.9524217" lon="8.026415"><ele>247.79999999999998</ele><time>2026-04-19T13:49:53.008Z</time></trkpt><trkpt lat="44.952325" lon="8.02645"><ele>248.39999999999998</ele><time>2026-04-19T13:49:54.008Z</time></trkpt><trkpt lat="44.9522367" lon="8.02649"><ele>249.0</ele><time>2026-04-19T13:49:55.008Z</time></trkpt><trkpt lat="44.9521467" lon="8.0265267"><ele>249.0</ele><time>2026-04-19T13:49:56.007Z</time></trkpt><trkpt lat="44.9520467" lon="8.026555"><ele>248.99999999999997</ele><time>2026-04-19T13:49:57.007Z</time></trkpt><trkpt lat="44.9519417" lon="8.02661"><ele>248.99999999999997</ele><time>2026-04-19T13:49:58.008Z</time></trkpt><trkpt lat="44.9518467" lon="8.0266417"><ele>249.0</ele><time>2026-04-19T13:49:59.007Z</time></trkpt><trkpt lat="44.9517467" lon="8.02669"><ele>249.0</ele><time>2026-04-19T13:50:00.008Z</time></trkpt><trkpt lat="44.9516433" lon="8.0267317"><ele>250.33333333333334</ele><time>2026-04-19T13:50:01.008Z</time></trkpt><trkpt lat="44.9515567" lon="8.02677"><ele>251.66666666666669</ele><time>2026-04-19T13:50:02.007Z</time></trkpt><trkpt lat="44.951495" lon="8.0268283"><ele>253.0</ele><time>2026-04-19T13:50:03.008Z</time></trkpt><trkpt lat="44.95145" lon="8.0269167"><ele>254.33333333333334</ele><time>2026-04-19T13:50:04.008Z</time></trkpt><trkpt lat="44.95143" lon="8.0270283"><ele>255.66666666666669</ele><time>2026-04-19T13:50:05.008Z</time></trkpt><trkpt lat="44.9514283" lon="8.0271417"><ele>257.0</ele><time>2026-04-19T13:50:06.007Z</time></trkpt><trkpt lat="44.9514567" lon="8.0272383"><ele>257.0</ele><time>2026-04-19T13:50:07.008Z</time></trkpt><trkpt lat="44.951485" lon="8.02739"><ele>257.0</ele><time>2026-04-19T13:50:09.008Z</time></trkpt><trkpt lat="44.9514317" lon="8.0275017"><ele>257.0</ele><time>2026-04-19T13:50:11.008Z</time></trkpt><trkpt lat="44.9512683" lon="8.0275683"><ele>257.0</ele><time>2026-04-19T13:50:13.008Z</time></trkpt><trkpt lat="44.9511783" lon="8.0275767"><ele>257.8</ele><time>2026-04-19T13:50:14.007Z</time></trkpt><trkpt lat="44.9510883" lon="8.0276033"><ele>258.6</ele><time>2026-04-19T13:50:15.007Z</time></trkpt><trkpt lat="44.9510117" lon="8.0276317"><ele>259.40000000000003</ele><time>2026-04-19T13:50:16.007Z</time></trkpt><trkpt lat="44.9509217" lon="8.02768"><ele>260.2</ele><time>2026-04-19T13:50:17.008Z</time></trkpt><trkpt lat="44.950825" lon="8.0277233"><ele>261.0</ele><time>2026-04-19T13:50:18.008Z</time></trkpt><trkpt lat="44.95074" lon="8.0277383"><ele>258.5</ele><time>2026-04-19T13:50:19.007Z</time></trkpt><trkpt lat="44.9506717" lon="8.0277367"><ele>256.0</ele><time>2026-04-19T13:50:20.007Z</time></trkpt><trkpt lat="44.9506017" lon="8.0277183"><ele>253.5</ele><time>2026-04-19T13:50:21.007Z</time></trkpt><trkpt lat="44.95053" lon="8.02767"><ele>251.0</ele><time>2026-04-19T13:50:22.007Z</time></trkpt><trkpt lat="44.9504617" lon="8.0276083"><ele>248.5</ele><time>2026-04-19T13:50:23.008Z</time></trkpt><trkpt lat="44.950395" lon="8.02754"><ele>246.0</ele><time>2026-04-19T13:50:24.007Z</time></trkpt><trkpt lat="44.9503317" lon="8.027475"><ele>245.60000000000002</ele><time>2026-04-19T13:50:25.007Z</time></trkpt><trkpt lat="44.9502733" lon="8.0273583"><ele>245.20000000000002</ele><time>2026-04-19T13:50:27.007Z</time></trkpt><trkpt lat="44.9502367" lon="8.0272683"><ele>244.79999999999998</ele><time>2026-04-19T13:50:29.008Z</time></trkpt><trkpt lat="44.9502033" lon="8.0271483"><ele>244.39999999999998</ele><time>2026-04-19T13:50:31.007Z</time></trkpt><trkpt lat="44.950185" lon="8.0269967"><ele>244.0</ele><time>2026-04-19T13:50:33.007Z</time></trkpt><trkpt lat="44.95019" lon="8.0268683"><ele>244.0</ele><time>2026-04-19T13:50:35.008Z</time></trkpt><trkpt lat="44.95019" lon="8.02676"><ele>244.0</ele><time>2026-04-19T13:50:38.007Z</time></trkpt><trkpt lat="44.950125" lon="8.0267233"><ele>244.0</ele><time>2026-04-19T13:51:11.007Z</time></trkpt><trkpt lat="44.950125" lon="8.0267233"><ele>244.0</ele><time>2026-04-19T13:51:11.007Z</time></trkpt></trkseg></trk></gpx>